<?xml version="1.0" encoding="UTF-8" standalone="no" ?>
<gpx xmlns="http://www.topografix.com/GPX/1/1" xmlns:xsi="http://www.w3.org/2001/XMLSchema-instance" xsi:schemaLocation="http://www.topografix.com/GPX/1/1 http://www.topografix.com/GPX/1/1/gpx.xsd" version="1.1" creator="VisuGPX - https://www.visugpx.com">
  <metadata>
    <name>MB. Sortie du 07/07/2019</name>
    <desc><![CDATA[Sortie VTT du dimanche 07 juillet 2019]]></desc>
  </metadata>
  <trk>
    <name><![CDATA[Pornichet Cyclisme]]></name>
    <trkseg>
      <trkpt lat="47.26415" lon="-2.31551">
        <ele>6.5999999046326</ele>
        <time>2019-07-07T06:58:52.000Z</time>
      </trkpt>
      <trkpt lat="47.26413" lon="-2.31552">
        <ele>6.5999999046326</ele>
        <time>2019-07-07T06:58:53.000Z</time>
      </trkpt>
      <trkpt lat="47.26408" lon="-2.31559">
        <ele>6.5999999046326</ele>
        <time>2019-07-07T06:58:55.000Z</time>
      </trkpt>
      <trkpt lat="47.26407" lon="-2.31565">
        <ele>6.8000001907349</ele>
        <time>2019-07-07T06:58:56.000Z</time>
      </trkpt>
      <trkpt lat="47.26408" lon="-2.31586">
        <ele>6.8000001907349</ele>
        <time>2019-07-07T06:58:59.000Z</time>
      </trkpt>
      <trkpt lat="47.26408" lon="-2.31638">
        <ele>6.8000001907349</ele>
        <time>2019-07-07T06:59:06.000Z</time>
      </trkpt>
      <trkpt lat="47.26408" lon="-2.31645">
        <ele>6.8000001907349</ele>
        <time>2019-07-07T06:59:07.000Z</time>
      </trkpt>
      <trkpt lat="47.26407" lon="-2.31661">
        <ele>6.8000001907349</ele>
        <time>2019-07-07T06:59:10.000Z</time>
      </trkpt>
      <trkpt lat="47.26395" lon="-2.31668">
        <ele>6.8000001907349</ele>
        <time>2019-07-07T06:59:13.000Z</time>
      </trkpt>
      <trkpt lat="47.2639" lon="-2.3167">
        <ele>6.8000001907349</ele>
        <time>2019-07-07T06:59:14.000Z</time>
      </trkpt>
      <trkpt lat="47.26358" lon="-2.3169">
        <ele>6.8000001907349</ele>
        <time>2019-07-07T06:59:20.000Z</time>
      </trkpt>
      <trkpt lat="47.26333" lon="-2.31703">
        <ele>6.4000000953674</ele>
        <time>2019-07-07T06:59:24.000Z</time>
      </trkpt>
      <trkpt lat="47.26327" lon="-2.31706">
        <ele>5.8000001907349</ele>
        <time>2019-07-07T06:59:25.000Z</time>
      </trkpt>
      <trkpt lat="47.26321" lon="-2.3171">
        <ele>5.4000000953674</ele>
        <time>2019-07-07T06:59:26.000Z</time>
      </trkpt>
      <trkpt lat="47.26315" lon="-2.31713">
        <ele>4.8000001907349</ele>
        <time>2019-07-07T06:59:27.000Z</time>
      </trkpt>
      <trkpt lat="47.26309" lon="-2.31716">
        <ele>4.4000000953674</ele>
        <time>2019-07-07T06:59:28.000Z</time>
      </trkpt>
      <trkpt lat="47.26304" lon="-2.31719">
        <ele>4.4000000953674</ele>
        <time>2019-07-07T06:59:29.000Z</time>
      </trkpt>
      <trkpt lat="47.263" lon="-2.31731">
        <ele>3.7999999523163</ele>
        <time>2019-07-07T06:59:31.000Z</time>
      </trkpt>
      <trkpt lat="47.26301" lon="-2.31737">
        <ele>3.4000000953674</ele>
        <time>2019-07-07T06:59:32.000Z</time>
      </trkpt>
      <trkpt lat="47.26302" lon="-2.31743">
        <ele>3</ele>
        <time>2019-07-07T06:59:33.000Z</time>
      </trkpt>
      <trkpt lat="47.26302" lon="-2.31749">
        <ele>2.4000000953674</ele>
        <time>2019-07-07T06:59:34.000Z</time>
      </trkpt>
      <trkpt lat="47.26303" lon="-2.31756">
        <ele>2</ele>
        <time>2019-07-07T06:59:35.000Z</time>
      </trkpt>
      <trkpt lat="47.26305" lon="-2.31782">
        <ele>2</ele>
        <time>2019-07-07T06:59:39.000Z</time>
      </trkpt>
      <trkpt lat="47.26306" lon="-2.31796">
        <ele>2</ele>
        <time>2019-07-07T06:59:41.000Z</time>
      </trkpt>
      <trkpt lat="47.26304" lon="-2.31819">
        <ele>2</ele>
        <time>2019-07-07T06:59:44.000Z</time>
      </trkpt>
      <trkpt lat="47.26301" lon="-2.31866">
        <ele>2</ele>
        <time>2019-07-07T06:59:50.000Z</time>
      </trkpt>
      <trkpt lat="47.263" lon="-2.31879">
        <ele>2</ele>
        <time>2019-07-07T06:59:53.000Z</time>
      </trkpt>
      <trkpt lat="47.263" lon="-2.3188">
        <ele>2</ele>
        <time>2019-07-07T06:59:55.000Z</time>
      </trkpt>
      <trkpt lat="47.26296" lon="-2.31884">
        <ele>2</ele>
        <time>2019-07-07T07:00:09.000Z</time>
      </trkpt>
      <trkpt lat="47.26294" lon="-2.31886">
        <ele>2</ele>
        <time>2019-07-07T07:00:10.000Z</time>
      </trkpt>
      <trkpt lat="47.26276" lon="-2.31905">
        <ele>2</ele>
        <time>2019-07-07T07:00:15.000Z</time>
      </trkpt>
      <trkpt lat="47.26262" lon="-2.31929">
        <ele>2</ele>
        <time>2019-07-07T07:00:19.000Z</time>
      </trkpt>
      <trkpt lat="47.26255" lon="-2.31942">
        <ele>2</ele>
        <time>2019-07-07T07:00:21.000Z</time>
      </trkpt>
      <trkpt lat="47.26249" lon="-2.31955">
        <ele>2</ele>
        <time>2019-07-07T07:00:23.000Z</time>
      </trkpt>
      <trkpt lat="47.26242" lon="-2.31969">
        <ele>2</ele>
        <time>2019-07-07T07:00:26.000Z</time>
      </trkpt>
      <trkpt lat="47.26239" lon="-2.31971">
        <ele>2</ele>
        <time>2019-07-07T07:00:27.000Z</time>
      </trkpt>
      <trkpt lat="47.26235" lon="-2.31975">
        <ele>2</ele>
        <time>2019-07-07T07:00:29.000Z</time>
      </trkpt>
      <trkpt lat="47.2623" lon="-2.31983">
        <ele>2</ele>
        <time>2019-07-07T07:00:31.000Z</time>
      </trkpt>
      <trkpt lat="47.26215" lon="-2.32001">
        <ele>2</ele>
        <time>2019-07-07T07:00:36.000Z</time>
      </trkpt>
      <trkpt lat="47.26209" lon="-2.32007">
        <ele>1.6000000238419</ele>
        <time>2019-07-07T07:00:38.000Z</time>
      </trkpt>
      <trkpt lat="47.26208" lon="-2.32011">
        <ele>1.2000000476837</ele>
        <time>2019-07-07T07:00:39.000Z</time>
      </trkpt>
      <trkpt lat="47.26206" lon="-2.32014">
        <ele>0.80000001192093</ele>
        <time>2019-07-07T07:00:40.000Z</time>
      </trkpt>
      <trkpt lat="47.26203" lon="-2.32017">
        <ele>0.40000000596046</ele>
        <time>2019-07-07T07:00:41.000Z</time>
      </trkpt>
      <trkpt lat="47.26201" lon="-2.32019">
        <ele>3</ele>
        <time>2019-07-07T07:00:42.000Z</time>
      </trkpt>
      <trkpt lat="47.26195" lon="-2.32019">
        <ele>3</ele>
        <time>2019-07-07T07:00:44.000Z</time>
      </trkpt>
      <trkpt lat="47.26192" lon="-2.32019">
        <ele>3</ele>
        <time>2019-07-07T07:00:45.000Z</time>
      </trkpt>
      <trkpt lat="47.2618" lon="-2.32023">
        <ele>3</ele>
        <time>2019-07-07T07:00:49.000Z</time>
      </trkpt>
      <trkpt lat="47.26171" lon="-2.32029">
        <ele>3</ele>
        <time>2019-07-07T07:00:51.000Z</time>
      </trkpt>
      <trkpt lat="47.26163" lon="-2.3204">
        <ele>3</ele>
        <time>2019-07-07T07:00:53.000Z</time>
      </trkpt>
      <trkpt lat="47.26152" lon="-2.32066">
        <ele>3</ele>
        <time>2019-07-07T07:00:57.000Z</time>
      </trkpt>
      <trkpt lat="47.26139" lon="-2.32103">
        <ele>3</ele>
        <time>2019-07-07T07:01:02.000Z</time>
      </trkpt>
      <trkpt lat="47.26134" lon="-2.32117">
        <ele>3</ele>
        <time>2019-07-07T07:01:04.000Z</time>
      </trkpt>
      <trkpt lat="47.26118" lon="-2.32161">
        <ele>3</ele>
        <time>2019-07-07T07:01:10.000Z</time>
      </trkpt>
      <trkpt lat="47.26101" lon="-2.32203">
        <ele>3</ele>
        <time>2019-07-07T07:01:16.000Z</time>
      </trkpt>
      <trkpt lat="47.26097" lon="-2.3221">
        <ele>3</ele>
        <time>2019-07-07T07:01:17.000Z</time>
      </trkpt>
      <trkpt lat="47.26082" lon="-2.32233">
        <ele>3</ele>
        <time>2019-07-07T07:01:21.000Z</time>
      </trkpt>
      <trkpt lat="47.26057" lon="-2.32266">
        <ele>2.5</ele>
        <time>2019-07-07T07:01:27.000Z</time>
      </trkpt>
      <trkpt lat="47.26024" lon="-2.32301">
        <ele>3.1</ele>
        <time>2019-07-07T07:01:34.000Z</time>
      </trkpt>
      <trkpt lat="47.26019" lon="-2.32306">
        <ele>3.3</ele>
        <time>2019-07-07T07:01:35.000Z</time>
      </trkpt>
      <trkpt lat="47.26002" lon="-2.32328">
        <ele>3.4</ele>
        <time>2019-07-07T07:01:39.000Z</time>
      </trkpt>
      <trkpt lat="47.25966" lon="-2.32375">
        <ele>4.1</ele>
        <time>2019-07-07T07:01:47.000Z</time>
      </trkpt>
      <trkpt lat="47.25936" lon="-2.32414">
        <ele>3.6</ele>
        <time>2019-07-07T07:01:54.000Z</time>
      </trkpt>
      <trkpt lat="47.25904" lon="-2.32457">
        <ele>3.7</ele>
        <time>2019-07-07T07:02:02.000Z</time>
      </trkpt>
      <trkpt lat="47.259" lon="-2.32462">
        <ele>3.9</ele>
        <time>2019-07-07T07:02:03.000Z</time>
      </trkpt>
      <trkpt lat="47.25887" lon="-2.32472">
        <ele>4</ele>
        <time>2019-07-07T07:02:06.000Z</time>
      </trkpt>
      <trkpt lat="47.25872" lon="-2.32479">
        <ele>4</ele>
        <time>2019-07-07T07:02:09.000Z</time>
      </trkpt>
      <trkpt lat="47.25862" lon="-2.32481">
        <ele>4</ele>
        <time>2019-07-07T07:02:11.000Z</time>
      </trkpt>
      <trkpt lat="47.25834" lon="-2.32473">
        <ele>4</ele>
        <time>2019-07-07T07:02:16.000Z</time>
      </trkpt>
      <trkpt lat="47.25829" lon="-2.3247">
        <ele>4.1</ele>
        <time>2019-07-07T07:02:17.000Z</time>
      </trkpt>
      <trkpt lat="47.25804" lon="-2.32459">
        <ele>4.1</ele>
        <time>2019-07-07T07:02:22.000Z</time>
      </trkpt>
      <trkpt lat="47.25799" lon="-2.32459">
        <ele>4.2</ele>
        <time>2019-07-07T07:02:23.000Z</time>
      </trkpt>
      <trkpt lat="47.25781" lon="-2.32455">
        <ele>4.9</ele>
        <time>2019-07-07T07:02:27.000Z</time>
      </trkpt>
      <trkpt lat="47.25768" lon="-2.32433">
        <ele>4.9</ele>
        <time>2019-07-07T07:02:31.000Z</time>
      </trkpt>
      <trkpt lat="47.25763" lon="-2.3243">
        <ele>4.7</ele>
        <time>2019-07-07T07:02:32.000Z</time>
      </trkpt>
      <trkpt lat="47.25752" lon="-2.32428">
        <ele>4.5</ele>
        <time>2019-07-07T07:02:34.000Z</time>
      </trkpt>
      <trkpt lat="47.25715" lon="-2.32426">
        <ele>4.1</ele>
        <time>2019-07-07T07:02:40.000Z</time>
      </trkpt>
      <trkpt lat="47.25672" lon="-2.32421">
        <ele>4.8</ele>
        <time>2019-07-07T07:02:47.000Z</time>
      </trkpt>
      <trkpt lat="47.25667" lon="-2.32422">
        <ele>5</ele>
        <time>2019-07-07T07:02:48.000Z</time>
      </trkpt>
      <trkpt lat="47.2566" lon="-2.32432">
        <ele>5.1</ele>
        <time>2019-07-07T07:02:50.000Z</time>
      </trkpt>
      <trkpt lat="47.25661" lon="-2.32454">
        <ele>0.40000000596046</ele>
        <time>2019-07-07T07:02:53.000Z</time>
      </trkpt>
      <trkpt lat="47.25663" lon="-2.32461">
        <ele>0.80000001192093</ele>
        <time>2019-07-07T07:02:54.000Z</time>
      </trkpt>
      <trkpt lat="47.25665" lon="-2.32468">
        <ele>1.2000000476837</ele>
        <time>2019-07-07T07:02:55.000Z</time>
      </trkpt>
      <trkpt lat="47.25667" lon="-2.32475">
        <ele>1.6000000238419</ele>
        <time>2019-07-07T07:02:56.000Z</time>
      </trkpt>
      <trkpt lat="47.2567" lon="-2.32481">
        <ele>2</ele>
        <time>2019-07-07T07:02:57.000Z</time>
      </trkpt>
      <trkpt lat="47.25673" lon="-2.32488">
        <ele>2</ele>
        <time>2019-07-07T07:02:58.000Z</time>
      </trkpt>
      <trkpt lat="47.25692" lon="-2.32547">
        <ele>2.4000000953674</ele>
        <time>2019-07-07T07:03:07.000Z</time>
      </trkpt>
      <trkpt lat="47.25694" lon="-2.32553">
        <ele>2.7999999523163</ele>
        <time>2019-07-07T07:03:08.000Z</time>
      </trkpt>
      <trkpt lat="47.25697" lon="-2.32559">
        <ele>3.2000000476837</ele>
        <time>2019-07-07T07:03:09.000Z</time>
      </trkpt>
      <trkpt lat="47.25699" lon="-2.32565">
        <ele>3.5999999046326</ele>
        <time>2019-07-07T07:03:10.000Z</time>
      </trkpt>
      <trkpt lat="47.25701" lon="-2.32572">
        <ele>4.1999998092651</ele>
        <time>2019-07-07T07:03:11.000Z</time>
      </trkpt>
      <trkpt lat="47.25706" lon="-2.32592">
        <ele>4.1999998092651</ele>
        <time>2019-07-07T07:03:14.000Z</time>
      </trkpt>
      <trkpt lat="47.2571" lon="-2.32605">
        <ele>4.1999998092651</ele>
        <time>2019-07-07T07:03:16.000Z</time>
      </trkpt>
      <trkpt lat="47.25709" lon="-2.32618">
        <ele>4.1999998092651</ele>
        <time>2019-07-07T07:03:18.000Z</time>
      </trkpt>
      <trkpt lat="47.25697" lon="-2.3263">
        <ele>4.1999998092651</ele>
        <time>2019-07-07T07:03:21.000Z</time>
      </trkpt>
      <trkpt lat="47.25674" lon="-2.32639">
        <ele>4.5999999046326</ele>
        <time>2019-07-07T07:03:26.000Z</time>
      </trkpt>
      <trkpt lat="47.25669" lon="-2.3264">
        <ele>5</ele>
        <time>2019-07-07T07:03:27.000Z</time>
      </trkpt>
      <trkpt lat="47.25664" lon="-2.32642">
        <ele>5.4000000953674</ele>
        <time>2019-07-07T07:03:28.000Z</time>
      </trkpt>
      <trkpt lat="47.2566" lon="-2.32645">
        <ele>5.8000001907349</ele>
        <time>2019-07-07T07:03:29.000Z</time>
      </trkpt>
      <trkpt lat="47.25655" lon="-2.32646">
        <ele>6.1999998092651</ele>
        <time>2019-07-07T07:03:30.000Z</time>
      </trkpt>
      <trkpt lat="47.25642" lon="-2.32652">
        <ele>6.1999998092651</ele>
        <time>2019-07-07T07:03:33.000Z</time>
      </trkpt>
      <trkpt lat="47.25637" lon="-2.32654">
        <ele>6.1999998092651</ele>
        <time>2019-07-07T07:03:34.000Z</time>
      </trkpt>
      <trkpt lat="47.25614" lon="-2.32664">
        <ele>6.1999998092651</ele>
        <time>2019-07-07T07:03:39.000Z</time>
      </trkpt>
      <trkpt lat="47.2559" lon="-2.32673">
        <ele>6.5999999046326</ele>
        <time>2019-07-07T07:03:44.000Z</time>
      </trkpt>
      <trkpt lat="47.25585" lon="-2.32675">
        <ele>7</ele>
        <time>2019-07-07T07:03:45.000Z</time>
      </trkpt>
      <trkpt lat="47.2558" lon="-2.32677">
        <ele>7.4000000953674</ele>
        <time>2019-07-07T07:03:46.000Z</time>
      </trkpt>
      <trkpt lat="47.25575" lon="-2.32679">
        <ele>7.8000001907349</ele>
        <time>2019-07-07T07:03:47.000Z</time>
      </trkpt>
      <trkpt lat="47.2557" lon="-2.32681">
        <ele>8.1999998092651</ele>
        <time>2019-07-07T07:03:48.000Z</time>
      </trkpt>
      <trkpt lat="47.25544" lon="-2.32693">
        <ele>8.1999998092651</ele>
        <time>2019-07-07T07:03:53.000Z</time>
      </trkpt>
      <trkpt lat="47.25509" lon="-2.32702">
        <ele>8.1999998092651</ele>
        <time>2019-07-07T07:03:59.000Z</time>
      </trkpt>
      <trkpt lat="47.25491" lon="-2.32705">
        <ele>8.1999998092651</ele>
        <time>2019-07-07T07:04:02.000Z</time>
      </trkpt>
      <trkpt lat="47.2548" lon="-2.32712">
        <ele>8.1999998092651</ele>
        <time>2019-07-07T07:04:04.000Z</time>
      </trkpt>
      <trkpt lat="47.2547" lon="-2.32722">
        <ele>8.1999998092651</ele>
        <time>2019-07-07T07:04:06.000Z</time>
      </trkpt>
      <trkpt lat="47.25457" lon="-2.32741">
        <ele>8.1999998092651</ele>
        <time>2019-07-07T07:04:09.000Z</time>
      </trkpt>
      <trkpt lat="47.25444" lon="-2.32759">
        <ele>8.1999998092651</ele>
        <time>2019-07-07T07:04:12.000Z</time>
      </trkpt>
      <trkpt lat="47.25436" lon="-2.32773">
        <ele>8.1999998092651</ele>
        <time>2019-07-07T07:04:14.000Z</time>
      </trkpt>
      <trkpt lat="47.2542" lon="-2.32801">
        <ele>8.1999998092651</ele>
        <time>2019-07-07T07:04:18.000Z</time>
      </trkpt>
      <trkpt lat="47.25415" lon="-2.32808">
        <ele>8.1999998092651</ele>
        <time>2019-07-07T07:04:19.000Z</time>
      </trkpt>
      <trkpt lat="47.25395" lon="-2.32838">
        <ele>8.1999998092651</ele>
        <time>2019-07-07T07:04:23.000Z</time>
      </trkpt>
      <trkpt lat="47.25389" lon="-2.32844">
        <ele>8.1999998092651</ele>
        <time>2019-07-07T07:04:24.000Z</time>
      </trkpt>
      <trkpt lat="47.25354" lon="-2.32879">
        <ele>7.8000001907349</ele>
        <time>2019-07-07T07:04:30.000Z</time>
      </trkpt>
      <trkpt lat="47.25349" lon="-2.32885">
        <ele>7.4000000953674</ele>
        <time>2019-07-07T07:04:31.000Z</time>
      </trkpt>
      <trkpt lat="47.25344" lon="-2.3289">
        <ele>7</ele>
        <time>2019-07-07T07:04:32.000Z</time>
      </trkpt>
      <trkpt lat="47.25338" lon="-2.32896">
        <ele>6.5999999046326</ele>
        <time>2019-07-07T07:04:33.000Z</time>
      </trkpt>
      <trkpt lat="47.25333" lon="-2.32901">
        <ele>6.1999998092651</ele>
        <time>2019-07-07T07:04:34.000Z</time>
      </trkpt>
      <trkpt lat="47.25316" lon="-2.32917">
        <ele>6.1999998092651</ele>
        <time>2019-07-07T07:04:37.000Z</time>
      </trkpt>
      <trkpt lat="47.25309" lon="-2.32933">
        <ele>6.1999998092651</ele>
        <time>2019-07-07T07:04:39.000Z</time>
      </trkpt>
      <trkpt lat="47.2531" lon="-2.3296">
        <ele>6.1999998092651</ele>
        <time>2019-07-07T07:04:42.000Z</time>
      </trkpt>
      <trkpt lat="47.2532" lon="-2.32984">
        <ele>6.1999998092651</ele>
        <time>2019-07-07T07:04:45.000Z</time>
      </trkpt>
      <trkpt lat="47.25326" lon="-2.33">
        <ele>6.1999998092651</ele>
        <time>2019-07-07T07:04:47.000Z</time>
      </trkpt>
      <trkpt lat="47.25348" lon="-2.33054">
        <ele>6.1999998092651</ele>
        <time>2019-07-07T07:04:54.000Z</time>
      </trkpt>
      <trkpt lat="47.25367" lon="-2.33099">
        <ele>6.1999998092651</ele>
        <time>2019-07-07T07:05:00.000Z</time>
      </trkpt>
      <trkpt lat="47.25374" lon="-2.33121">
        <ele>6.1999998092651</ele>
        <time>2019-07-07T07:05:04.000Z</time>
      </trkpt>
      <trkpt lat="47.25375" lon="-2.33124">
        <ele>5.8000001907349</ele>
        <time>2019-07-07T07:05:05.000Z</time>
      </trkpt>
      <trkpt lat="47.25375" lon="-2.33126">
        <ele>5.4000000953674</ele>
        <time>2019-07-07T07:05:06.000Z</time>
      </trkpt>
      <trkpt lat="47.25375" lon="-2.33127">
        <ele>5</ele>
        <time>2019-07-07T07:05:07.000Z</time>
      </trkpt>
      <trkpt lat="47.25375" lon="-2.33127">
        <ele>4.5999999046326</ele>
        <time>2019-07-07T07:05:08.000Z</time>
      </trkpt>
      <trkpt lat="47.25376" lon="-2.33128">
        <ele>4.1999998092651</ele>
        <time>2019-07-07T07:09:20.000Z</time>
      </trkpt>
      <trkpt lat="47.25382" lon="-2.33133">
        <ele>4.1999998092651</ele>
        <time>2019-07-07T07:09:23.000Z</time>
      </trkpt>
      <trkpt lat="47.25393" lon="-2.33149">
        <ele>4.1999998092651</ele>
        <time>2019-07-07T07:09:28.000Z</time>
      </trkpt>
      <trkpt lat="47.25406" lon="-2.33179">
        <ele>4.1999998092651</ele>
        <time>2019-07-07T07:09:35.000Z</time>
      </trkpt>
      <trkpt lat="47.25416" lon="-2.33203">
        <ele>4.1999998092651</ele>
        <time>2019-07-07T07:09:41.000Z</time>
      </trkpt>
      <trkpt lat="47.25428" lon="-2.3323">
        <ele>4.1999998092651</ele>
        <time>2019-07-07T07:09:47.000Z</time>
      </trkpt>
      <trkpt lat="47.25434" lon="-2.33247">
        <ele>4.1999998092651</ele>
        <time>2019-07-07T07:09:50.000Z</time>
      </trkpt>
      <trkpt lat="47.2544" lon="-2.33264">
        <ele>4.1999998092651</ele>
        <time>2019-07-07T07:09:53.000Z</time>
      </trkpt>
      <trkpt lat="47.2545" lon="-2.33302">
        <ele>4.1999998092651</ele>
        <time>2019-07-07T07:10:00.000Z</time>
      </trkpt>
      <trkpt lat="47.25442" lon="-2.33322">
        <ele>4.1999998092651</ele>
        <time>2019-07-07T07:10:04.000Z</time>
      </trkpt>
      <trkpt lat="47.25431" lon="-2.3335">
        <ele>4.1999998092651</ele>
        <time>2019-07-07T07:10:09.000Z</time>
      </trkpt>
      <trkpt lat="47.25431" lon="-2.33357">
        <ele>4.1999998092651</ele>
        <time>2019-07-07T07:10:10.000Z</time>
      </trkpt>
      <trkpt lat="47.25431" lon="-2.33405">
        <ele>4.1999998092651</ele>
        <time>2019-07-07T07:10:17.000Z</time>
      </trkpt>
      <trkpt lat="47.25432" lon="-2.33457">
        <ele>4.1999998092651</ele>
        <time>2019-07-07T07:10:25.000Z</time>
      </trkpt>
      <trkpt lat="47.2544" lon="-2.33497">
        <ele>4.1999998092651</ele>
        <time>2019-07-07T07:10:32.000Z</time>
      </trkpt>
      <trkpt lat="47.25442" lon="-2.33502">
        <ele>4.1999998092651</ele>
        <time>2019-07-07T07:10:33.000Z</time>
      </trkpt>
      <trkpt lat="47.25447" lon="-2.33529">
        <ele>4.1999998092651</ele>
        <time>2019-07-07T07:10:38.000Z</time>
      </trkpt>
      <trkpt lat="47.25454" lon="-2.3356">
        <ele>4.1999998092651</ele>
        <time>2019-07-07T07:10:45.000Z</time>
      </trkpt>
      <trkpt lat="47.25456" lon="-2.33574">
        <ele>4.1999998092651</ele>
        <time>2019-07-07T07:10:49.000Z</time>
      </trkpt>
      <trkpt lat="47.25454" lon="-2.33577">
        <ele>4.1999998092651</ele>
        <time>2019-07-07T07:10:50.000Z</time>
      </trkpt>
      <trkpt lat="47.25443" lon="-2.33584">
        <ele>4.1999998092651</ele>
        <time>2019-07-07T07:10:54.000Z</time>
      </trkpt>
      <trkpt lat="47.25439" lon="-2.33597">
        <ele>4.1999998092651</ele>
        <time>2019-07-07T07:10:57.000Z</time>
      </trkpt>
      <trkpt lat="47.2544" lon="-2.33602">
        <ele>4.1999998092651</ele>
        <time>2019-07-07T07:10:58.000Z</time>
      </trkpt>
      <trkpt lat="47.25441" lon="-2.33612">
        <ele>4.1999998092651</ele>
        <time>2019-07-07T07:11:00.000Z</time>
      </trkpt>
      <trkpt lat="47.25444" lon="-2.33643">
        <ele>4.1999998092651</ele>
        <time>2019-07-07T07:11:05.000Z</time>
      </trkpt>
      <trkpt lat="47.25448" lon="-2.33669">
        <ele>4.1999998092651</ele>
        <time>2019-07-07T07:11:09.000Z</time>
      </trkpt>
      <trkpt lat="47.2545" lon="-2.33694">
        <ele>4.1999998092651</ele>
        <time>2019-07-07T07:11:13.000Z</time>
      </trkpt>
      <trkpt lat="47.25451" lon="-2.337">
        <ele>4.1999998092651</ele>
        <time>2019-07-07T07:11:14.000Z</time>
      </trkpt>
      <trkpt lat="47.25455" lon="-2.33734">
        <ele>4.1999998092651</ele>
        <time>2019-07-07T07:11:19.000Z</time>
      </trkpt>
      <trkpt lat="47.25465" lon="-2.33745">
        <ele>4.1999998092651</ele>
        <time>2019-07-07T07:11:22.000Z</time>
      </trkpt>
      <trkpt lat="47.25483" lon="-2.33754">
        <ele>4.1999998092651</ele>
        <time>2019-07-07T07:11:27.000Z</time>
      </trkpt>
      <trkpt lat="47.2551" lon="-2.33755">
        <ele>4.1999998092651</ele>
        <time>2019-07-07T07:11:33.000Z</time>
      </trkpt>
      <trkpt lat="47.2554" lon="-2.33753">
        <ele>4.1999998092651</ele>
        <time>2019-07-07T07:11:40.000Z</time>
      </trkpt>
      <trkpt lat="47.25573" lon="-2.33753">
        <ele>4.1999998092651</ele>
        <time>2019-07-07T07:11:48.000Z</time>
      </trkpt>
      <trkpt lat="47.25602" lon="-2.33752">
        <ele>4.5999999046326</ele>
        <time>2019-07-07T07:11:55.000Z</time>
      </trkpt>
      <trkpt lat="47.25606" lon="-2.33752">
        <ele>5</ele>
        <time>2019-07-07T07:11:56.000Z</time>
      </trkpt>
      <trkpt lat="47.2561" lon="-2.33754">
        <ele>5.4000000953674</ele>
        <time>2019-07-07T07:11:57.000Z</time>
      </trkpt>
      <trkpt lat="47.25612" lon="-2.33755">
        <ele>5.8000001907349</ele>
        <time>2019-07-07T07:11:58.000Z</time>
      </trkpt>
      <trkpt lat="47.25615" lon="-2.33756">
        <ele>6.1999998092651</ele>
        <time>2019-07-07T07:11:59.000Z</time>
      </trkpt>
      <trkpt lat="47.25617" lon="-2.33757">
        <ele>6.1999998092651</ele>
        <time>2019-07-07T07:12:00.000Z</time>
      </trkpt>
      <trkpt lat="47.25631" lon="-2.33765">
        <ele>6.1999998092651</ele>
        <time>2019-07-07T07:12:05.000Z</time>
      </trkpt>
      <trkpt lat="47.25634" lon="-2.33771">
        <ele>6.1999998092651</ele>
        <time>2019-07-07T07:12:07.000Z</time>
      </trkpt>
      <trkpt lat="47.25634" lon="-2.33775">
        <ele>6.1999998092651</ele>
        <time>2019-07-07T07:12:08.000Z</time>
      </trkpt>
      <trkpt lat="47.25637" lon="-2.33802">
        <ele>6.1999998092651</ele>
        <time>2019-07-07T07:12:13.000Z</time>
      </trkpt>
      <trkpt lat="47.25638" lon="-2.33808">
        <ele>6.1999998092651</ele>
        <time>2019-07-07T07:12:14.000Z</time>
      </trkpt>
      <trkpt lat="47.2564" lon="-2.33828">
        <ele>6.1999998092651</ele>
        <time>2019-07-07T07:12:17.000Z</time>
      </trkpt>
      <trkpt lat="47.25641" lon="-2.33834">
        <ele>6.1999998092651</ele>
        <time>2019-07-07T07:12:18.000Z</time>
      </trkpt>
      <trkpt lat="47.25648" lon="-2.33876">
        <ele>6.1999998092651</ele>
        <time>2019-07-07T07:12:25.000Z</time>
      </trkpt>
      <trkpt lat="47.25657" lon="-2.33921">
        <ele>6.1999998092651</ele>
        <time>2019-07-07T07:12:32.000Z</time>
      </trkpt>
      <trkpt lat="47.25658" lon="-2.33928">
        <ele>6.1999998092651</ele>
        <time>2019-07-07T07:12:33.000Z</time>
      </trkpt>
      <trkpt lat="47.25659" lon="-2.33934">
        <ele>6.1999998092651</ele>
        <time>2019-07-07T07:12:34.000Z</time>
      </trkpt>
      <trkpt lat="47.25661" lon="-2.33961">
        <ele>6.1999998092651</ele>
        <time>2019-07-07T07:12:38.000Z</time>
      </trkpt>
      <trkpt lat="47.2566" lon="-2.33968">
        <ele>6.1999998092651</ele>
        <time>2019-07-07T07:12:39.000Z</time>
      </trkpt>
      <trkpt lat="47.25653" lon="-2.34008">
        <ele>6.1999998092651</ele>
        <time>2019-07-07T07:12:45.000Z</time>
      </trkpt>
      <trkpt lat="47.25643" lon="-2.3406">
        <ele>6.1999998092651</ele>
        <time>2019-07-07T07:12:52.000Z</time>
      </trkpt>
      <trkpt lat="47.2564" lon="-2.34087">
        <ele>6.1999998092651</ele>
        <time>2019-07-07T07:12:56.000Z</time>
      </trkpt>
      <trkpt lat="47.2564" lon="-2.34102">
        <ele>6.1999998092651</ele>
        <time>2019-07-07T07:12:58.000Z</time>
      </trkpt>
      <trkpt lat="47.25641" lon="-2.34118">
        <ele>6.1999998092651</ele>
        <time>2019-07-07T07:13:00.000Z</time>
      </trkpt>
      <trkpt lat="47.25643" lon="-2.34133">
        <ele>6.1999998092651</ele>
        <time>2019-07-07T07:13:02.000Z</time>
      </trkpt>
      <trkpt lat="47.25648" lon="-2.34147">
        <ele>6.1999998092651</ele>
        <time>2019-07-07T07:13:04.000Z</time>
      </trkpt>
      <trkpt lat="47.25655" lon="-2.34159">
        <ele>6.1999998092651</ele>
        <time>2019-07-07T07:13:06.000Z</time>
      </trkpt>
      <trkpt lat="47.25671" lon="-2.34188">
        <ele>6.1999998092651</ele>
        <time>2019-07-07T07:13:11.000Z</time>
      </trkpt>
      <trkpt lat="47.25675" lon="-2.34191">
        <ele>6.1999998092651</ele>
        <time>2019-07-07T07:13:12.000Z</time>
      </trkpt>
      <trkpt lat="47.25685" lon="-2.34194">
        <ele>6.1999998092651</ele>
        <time>2019-07-07T07:13:14.000Z</time>
      </trkpt>
      <trkpt lat="47.25696" lon="-2.34192">
        <ele>5.8000001907349</ele>
        <time>2019-07-07T07:13:16.000Z</time>
      </trkpt>
      <trkpt lat="47.25701" lon="-2.34191">
        <ele>5</ele>
        <time>2019-07-07T07:13:17.000Z</time>
      </trkpt>
      <trkpt lat="47.25707" lon="-2.34189">
        <ele>4.4000000953674</ele>
        <time>2019-07-07T07:13:18.000Z</time>
      </trkpt>
      <trkpt lat="47.25712" lon="-2.34188">
        <ele>4</ele>
        <time>2019-07-07T07:13:19.000Z</time>
      </trkpt>
      <trkpt lat="47.25718" lon="-2.34187">
        <ele>4</ele>
        <time>2019-07-07T07:13:20.000Z</time>
      </trkpt>
      <trkpt lat="47.2576" lon="-2.34178">
        <ele>4</ele>
        <time>2019-07-07T07:13:28.000Z</time>
      </trkpt>
      <trkpt lat="47.25779" lon="-2.34174">
        <ele>4</ele>
        <time>2019-07-07T07:13:32.000Z</time>
      </trkpt>
      <trkpt lat="47.25788" lon="-2.34173">
        <ele>4</ele>
        <time>2019-07-07T07:13:34.000Z</time>
      </trkpt>
      <trkpt lat="47.25814" lon="-2.34174">
        <ele>4</ele>
        <time>2019-07-07T07:13:40.000Z</time>
      </trkpt>
      <trkpt lat="47.25835" lon="-2.34169">
        <ele>4</ele>
        <time>2019-07-07T07:13:46.000Z</time>
      </trkpt>
      <trkpt lat="47.25841" lon="-2.34156">
        <ele>4</ele>
        <time>2019-07-07T07:13:50.000Z</time>
      </trkpt>
      <trkpt lat="47.25847" lon="-2.34156">
        <ele>4</ele>
        <time>2019-07-07T07:13:54.000Z</time>
      </trkpt>
      <trkpt lat="47.25858" lon="-2.3416">
        <ele>4</ele>
        <time>2019-07-07T07:14:00.000Z</time>
      </trkpt>
      <trkpt lat="47.2586" lon="-2.3416">
        <ele>4</ele>
        <time>2019-07-07T07:14:01.000Z</time>
      </trkpt>
      <trkpt lat="47.25868" lon="-2.34165">
        <ele>4</ele>
        <time>2019-07-07T07:14:06.000Z</time>
      </trkpt>
      <trkpt lat="47.25869" lon="-2.34165">
        <ele>3.5999999046326</ele>
        <time>2019-07-07T07:14:07.000Z</time>
      </trkpt>
      <trkpt lat="47.2587" lon="-2.34167">
        <ele>3.2000000476837</ele>
        <time>2019-07-07T07:14:08.000Z</time>
      </trkpt>
      <trkpt lat="47.2587" lon="-2.34169">
        <ele>2.7999999523163</ele>
        <time>2019-07-07T07:14:09.000Z</time>
      </trkpt>
      <trkpt lat="47.2587" lon="-2.34171">
        <ele>2.4000000953674</ele>
        <time>2019-07-07T07:14:10.000Z</time>
      </trkpt>
      <trkpt lat="47.25871" lon="-2.34173">
        <ele>2</ele>
        <time>2019-07-07T07:14:11.000Z</time>
      </trkpt>
      <trkpt lat="47.25876" lon="-2.34169">
        <ele>2</ele>
        <time>2019-07-07T07:14:14.000Z</time>
      </trkpt>
      <trkpt lat="47.25885" lon="-2.34155">
        <ele>2</ele>
        <time>2019-07-07T07:14:18.000Z</time>
      </trkpt>
      <trkpt lat="47.259" lon="-2.34144">
        <ele>2</ele>
        <time>2019-07-07T07:14:22.000Z</time>
      </trkpt>
      <trkpt lat="47.25904" lon="-2.34142">
        <ele>2</ele>
        <time>2019-07-07T07:14:23.000Z</time>
      </trkpt>
      <trkpt lat="47.25926" lon="-2.34129">
        <ele>2</ele>
        <time>2019-07-07T07:14:29.000Z</time>
      </trkpt>
      <trkpt lat="47.25942" lon="-2.34113">
        <ele>2</ele>
        <time>2019-07-07T07:14:35.000Z</time>
      </trkpt>
      <trkpt lat="47.25954" lon="-2.34107">
        <ele>2</ele>
        <time>2019-07-07T07:14:40.000Z</time>
      </trkpt>
      <trkpt lat="47.25968" lon="-2.34107">
        <ele>2</ele>
        <time>2019-07-07T07:14:46.000Z</time>
      </trkpt>
      <trkpt lat="47.25988" lon="-2.34113">
        <ele>2</ele>
        <time>2019-07-07T07:14:53.000Z</time>
      </trkpt>
      <trkpt lat="47.26007" lon="-2.34118">
        <ele>2</ele>
        <time>2019-07-07T07:15:00.000Z</time>
      </trkpt>
      <trkpt lat="47.26029" lon="-2.34127">
        <ele>2</ele>
        <time>2019-07-07T07:15:08.000Z</time>
      </trkpt>
      <trkpt lat="47.26043" lon="-2.34135">
        <ele>2</ele>
        <time>2019-07-07T07:15:14.000Z</time>
      </trkpt>
      <trkpt lat="47.26063" lon="-2.34143">
        <ele>2</ele>
        <time>2019-07-07T07:15:23.000Z</time>
      </trkpt>
      <trkpt lat="47.26078" lon="-2.3415">
        <ele>2</ele>
        <time>2019-07-07T07:15:30.000Z</time>
      </trkpt>
      <trkpt lat="47.2608" lon="-2.3415">
        <ele>2</ele>
        <time>2019-07-07T07:15:33.000Z</time>
      </trkpt>
      <trkpt lat="47.26081" lon="-2.3415">
        <ele>2</ele>
        <time>2019-07-07T07:15:48.000Z</time>
      </trkpt>
      <trkpt lat="47.26093" lon="-2.3416">
        <ele>2</ele>
        <time>2019-07-07T07:15:54.000Z</time>
      </trkpt>
      <trkpt lat="47.26108" lon="-2.34167">
        <ele>2</ele>
        <time>2019-07-07T07:16:00.000Z</time>
      </trkpt>
      <trkpt lat="47.26123" lon="-2.34178">
        <ele>2</ele>
        <time>2019-07-07T07:16:06.000Z</time>
      </trkpt>
      <trkpt lat="47.26123" lon="-2.34179">
        <ele>2</ele>
        <time>2019-07-07T07:16:08.000Z</time>
      </trkpt>
      <trkpt lat="47.26129" lon="-2.34183">
        <ele>2</ele>
        <time>2019-07-07T07:17:19.000Z</time>
      </trkpt>
      <trkpt lat="47.2613" lon="-2.34175">
        <ele>2</ele>
        <time>2019-07-07T07:17:24.000Z</time>
      </trkpt>
      <trkpt lat="47.2613" lon="-2.3416">
        <ele>2</ele>
        <time>2019-07-07T07:17:29.000Z</time>
      </trkpt>
      <trkpt lat="47.26135" lon="-2.34158">
        <ele>2.4000000953674</ele>
        <time>2019-07-07T07:17:31.000Z</time>
      </trkpt>
      <trkpt lat="47.26137" lon="-2.34158">
        <ele>2.7999999523163</ele>
        <time>2019-07-07T07:17:32.000Z</time>
      </trkpt>
      <trkpt lat="47.26141" lon="-2.3416">
        <ele>3.2000000476837</ele>
        <time>2019-07-07T07:17:33.000Z</time>
      </trkpt>
      <trkpt lat="47.26144" lon="-2.34163">
        <ele>3.5999999046326</ele>
        <time>2019-07-07T07:17:34.000Z</time>
      </trkpt>
      <trkpt lat="47.26147" lon="-2.34166">
        <ele>4</ele>
        <time>2019-07-07T07:17:35.000Z</time>
      </trkpt>
      <trkpt lat="47.26153" lon="-2.34174">
        <ele>4</ele>
        <time>2019-07-07T07:17:38.000Z</time>
      </trkpt>
      <trkpt lat="47.26156" lon="-2.34177">
        <ele>4</ele>
        <time>2019-07-07T07:17:40.000Z</time>
      </trkpt>
      <trkpt lat="47.26165" lon="-2.34183">
        <ele>4</ele>
        <time>2019-07-07T07:17:44.000Z</time>
      </trkpt>
      <trkpt lat="47.26184" lon="-2.34202">
        <ele>4</ele>
        <time>2019-07-07T07:17:52.000Z</time>
      </trkpt>
      <trkpt lat="47.26202" lon="-2.34219">
        <ele>4</ele>
        <time>2019-07-07T07:17:58.000Z</time>
      </trkpt>
      <trkpt lat="47.26221" lon="-2.34239">
        <ele>4</ele>
        <time>2019-07-07T07:18:04.000Z</time>
      </trkpt>
      <trkpt lat="47.26246" lon="-2.34264">
        <ele>4</ele>
        <time>2019-07-07T07:18:11.000Z</time>
      </trkpt>
      <trkpt lat="47.26253" lon="-2.34271">
        <ele>4</ele>
        <time>2019-07-07T07:18:13.000Z</time>
      </trkpt>
      <trkpt lat="47.26256" lon="-2.34275">
        <ele>4</ele>
        <time>2019-07-07T07:18:14.000Z</time>
      </trkpt>
      <trkpt lat="47.2627" lon="-2.34291">
        <ele>4</ele>
        <time>2019-07-07T07:18:18.000Z</time>
      </trkpt>
      <trkpt lat="47.26302" lon="-2.34324">
        <ele>4</ele>
        <time>2019-07-07T07:18:26.000Z</time>
      </trkpt>
      <trkpt lat="47.26321" lon="-2.34344">
        <ele>4</ele>
        <time>2019-07-07T07:18:31.000Z</time>
      </trkpt>
      <trkpt lat="47.2633" lon="-2.34349">
        <ele>4</ele>
        <time>2019-07-07T07:18:33.000Z</time>
      </trkpt>
      <trkpt lat="47.26345" lon="-2.34365">
        <ele>4</ele>
        <time>2019-07-07T07:18:37.000Z</time>
      </trkpt>
      <trkpt lat="47.26359" lon="-2.34377">
        <ele>4</ele>
        <time>2019-07-07T07:18:40.000Z</time>
      </trkpt>
      <trkpt lat="47.26363" lon="-2.34381">
        <ele>4</ele>
        <time>2019-07-07T07:18:41.000Z</time>
      </trkpt>
      <trkpt lat="47.26393" lon="-2.34407">
        <ele>4</ele>
        <time>2019-07-07T07:18:47.000Z</time>
      </trkpt>
      <trkpt lat="47.26429" lon="-2.34435">
        <ele>4</ele>
        <time>2019-07-07T07:18:54.000Z</time>
      </trkpt>
      <trkpt lat="47.2648" lon="-2.34473">
        <ele>4</ele>
        <time>2019-07-07T07:19:04.000Z</time>
      </trkpt>
      <trkpt lat="47.26491" lon="-2.3448">
        <ele>4</ele>
        <time>2019-07-07T07:19:06.000Z</time>
      </trkpt>
      <trkpt lat="47.26527" lon="-2.34508">
        <ele>4</ele>
        <time>2019-07-07T07:19:13.000Z</time>
      </trkpt>
      <trkpt lat="47.26542" lon="-2.34519">
        <ele>4</ele>
        <time>2019-07-07T07:19:16.000Z</time>
      </trkpt>
      <trkpt lat="47.26551" lon="-2.34531">
        <ele>4</ele>
        <time>2019-07-07T07:19:18.000Z</time>
      </trkpt>
      <trkpt lat="47.26581" lon="-2.34563">
        <ele>4</ele>
        <time>2019-07-07T07:19:24.000Z</time>
      </trkpt>
      <trkpt lat="47.26614" lon="-2.346">
        <ele>4</ele>
        <time>2019-07-07T07:19:31.000Z</time>
      </trkpt>
      <trkpt lat="47.26641" lon="-2.34632">
        <ele>4</ele>
        <time>2019-07-07T07:19:37.000Z</time>
      </trkpt>
      <trkpt lat="47.26677" lon="-2.34678">
        <ele>4</ele>
        <time>2019-07-07T07:19:45.000Z</time>
      </trkpt>
      <trkpt lat="47.26702" lon="-2.34706">
        <ele>4</ele>
        <time>2019-07-07T07:19:50.000Z</time>
      </trkpt>
      <trkpt lat="47.26734" lon="-2.34745">
        <ele>4</ele>
        <time>2019-07-07T07:19:57.000Z</time>
      </trkpt>
      <trkpt lat="47.26765" lon="-2.34787">
        <ele>4</ele>
        <time>2019-07-07T07:20:04.000Z</time>
      </trkpt>
      <trkpt lat="47.26792" lon="-2.34822">
        <ele>4</ele>
        <time>2019-07-07T07:20:10.000Z</time>
      </trkpt>
      <trkpt lat="47.26831" lon="-2.34879">
        <ele>4</ele>
        <time>2019-07-07T07:20:19.000Z</time>
      </trkpt>
      <trkpt lat="47.26869" lon="-2.34938">
        <ele>4</ele>
        <time>2019-07-07T07:20:28.000Z</time>
      </trkpt>
      <trkpt lat="47.26874" lon="-2.34944">
        <ele>4</ele>
        <time>2019-07-07T07:20:29.000Z</time>
      </trkpt>
      <trkpt lat="47.26912" lon="-2.35002">
        <ele>4</ele>
        <time>2019-07-07T07:20:38.000Z</time>
      </trkpt>
      <trkpt lat="47.26947" lon="-2.35054">
        <ele>4</ele>
        <time>2019-07-07T07:20:46.000Z</time>
      </trkpt>
      <trkpt lat="47.26985" lon="-2.35112">
        <ele>4</ele>
        <time>2019-07-07T07:20:55.000Z</time>
      </trkpt>
      <trkpt lat="47.27019" lon="-2.35162">
        <ele>4</ele>
        <time>2019-07-07T07:21:03.000Z</time>
      </trkpt>
      <trkpt lat="47.27035" lon="-2.35187">
        <ele>4</ele>
        <time>2019-07-07T07:21:07.000Z</time>
      </trkpt>
      <trkpt lat="47.27043" lon="-2.352">
        <ele>4</ele>
        <time>2019-07-07T07:21:09.000Z</time>
      </trkpt>
      <trkpt lat="47.27055" lon="-2.35218">
        <ele>4.4000000953674</ele>
        <time>2019-07-07T07:21:12.000Z</time>
      </trkpt>
      <trkpt lat="47.27059" lon="-2.35224">
        <ele>5</ele>
        <time>2019-07-07T07:21:13.000Z</time>
      </trkpt>
      <trkpt lat="47.27063" lon="-2.3523">
        <ele>5.4000000953674</ele>
        <time>2019-07-07T07:21:14.000Z</time>
      </trkpt>
      <trkpt lat="47.27067" lon="-2.35236">
        <ele>5.8000001907349</ele>
        <time>2019-07-07T07:21:15.000Z</time>
      </trkpt>
      <trkpt lat="47.27071" lon="-2.35242">
        <ele>6.1999998092651</ele>
        <time>2019-07-07T07:21:16.000Z</time>
      </trkpt>
      <trkpt lat="47.27075" lon="-2.35248">
        <ele>6.1999998092651</ele>
        <time>2019-07-07T07:21:17.000Z</time>
      </trkpt>
      <trkpt lat="47.27102" lon="-2.35291">
        <ele>6.1999998092651</ele>
        <time>2019-07-07T07:21:24.000Z</time>
      </trkpt>
      <trkpt lat="47.27113" lon="-2.3531">
        <ele>6.1999998092651</ele>
        <time>2019-07-07T07:21:27.000Z</time>
      </trkpt>
      <trkpt lat="47.27125" lon="-2.35329">
        <ele>6.1999998092651</ele>
        <time>2019-07-07T07:21:30.000Z</time>
      </trkpt>
      <trkpt lat="47.27151" lon="-2.35374">
        <ele>6.1999998092651</ele>
        <time>2019-07-07T07:21:37.000Z</time>
      </trkpt>
      <trkpt lat="47.27186" lon="-2.35442">
        <ele>6.1999998092651</ele>
        <time>2019-07-07T07:21:47.000Z</time>
      </trkpt>
      <trkpt lat="47.2721" lon="-2.35488">
        <ele>6.1999998092651</ele>
        <time>2019-07-07T07:21:54.000Z</time>
      </trkpt>
      <trkpt lat="47.27238" lon="-2.35546">
        <ele>6.1999998092651</ele>
        <time>2019-07-07T07:22:02.000Z</time>
      </trkpt>
      <trkpt lat="47.27266" lon="-2.3561">
        <ele>6.1999998092651</ele>
        <time>2019-07-07T07:22:10.000Z</time>
      </trkpt>
      <trkpt lat="47.27297" lon="-2.35677">
        <ele>6.1999998092651</ele>
        <time>2019-07-07T07:22:19.000Z</time>
      </trkpt>
      <trkpt lat="47.27317" lon="-2.3572">
        <ele>6.1999998092651</ele>
        <time>2019-07-07T07:22:25.000Z</time>
      </trkpt>
      <trkpt lat="47.27323" lon="-2.35721">
        <ele>5.8000001907349</ele>
        <time>2019-07-07T07:22:26.000Z</time>
      </trkpt>
      <trkpt lat="47.27329" lon="-2.35719">
        <ele>5.4000000953674</ele>
        <time>2019-07-07T07:22:27.000Z</time>
      </trkpt>
      <trkpt lat="47.27335" lon="-2.35714">
        <ele>5</ele>
        <time>2019-07-07T07:22:28.000Z</time>
      </trkpt>
      <trkpt lat="47.27341" lon="-2.35709">
        <ele>4.5999999046326</ele>
        <time>2019-07-07T07:22:29.000Z</time>
      </trkpt>
      <trkpt lat="47.27347" lon="-2.35703">
        <ele>4.1999998092651</ele>
        <time>2019-07-07T07:22:30.000Z</time>
      </trkpt>
      <trkpt lat="47.27364" lon="-2.35689">
        <ele>4.1999998092651</ele>
        <time>2019-07-07T07:22:33.000Z</time>
      </trkpt>
      <trkpt lat="47.27397" lon="-2.35667">
        <ele>4.1999998092651</ele>
        <time>2019-07-07T07:22:39.000Z</time>
      </trkpt>
      <trkpt lat="47.27403" lon="-2.35663">
        <ele>4.1999998092651</ele>
        <time>2019-07-07T07:22:40.000Z</time>
      </trkpt>
      <trkpt lat="47.27418" lon="-2.35654">
        <ele>4.1999998092651</ele>
        <time>2019-07-07T07:22:43.000Z</time>
      </trkpt>
      <trkpt lat="47.27432" lon="-2.35665">
        <ele>4.1999998092651</ele>
        <time>2019-07-07T07:22:46.000Z</time>
      </trkpt>
      <trkpt lat="47.27444" lon="-2.35668">
        <ele>4.1999998092651</ele>
        <time>2019-07-07T07:22:48.000Z</time>
      </trkpt>
      <trkpt lat="47.27456" lon="-2.3567">
        <ele>4.1999998092651</ele>
        <time>2019-07-07T07:22:50.000Z</time>
      </trkpt>
      <trkpt lat="47.27495" lon="-2.35679">
        <ele>4.1999998092651</ele>
        <time>2019-07-07T07:22:57.000Z</time>
      </trkpt>
      <trkpt lat="47.27533" lon="-2.35687">
        <ele>4.1999998092651</ele>
        <time>2019-07-07T07:23:04.000Z</time>
      </trkpt>
      <trkpt lat="47.2758" lon="-2.35698">
        <ele>4.1999998092651</ele>
        <time>2019-07-07T07:23:13.000Z</time>
      </trkpt>
      <trkpt lat="47.27623" lon="-2.35709">
        <ele>4.5999999046326</ele>
        <time>2019-07-07T07:23:21.000Z</time>
      </trkpt>
      <trkpt lat="47.27628" lon="-2.35711">
        <ele>5</ele>
        <time>2019-07-07T07:23:22.000Z</time>
      </trkpt>
      <trkpt lat="47.27633" lon="-2.35712">
        <ele>5.4000000953674</ele>
        <time>2019-07-07T07:23:23.000Z</time>
      </trkpt>
      <trkpt lat="47.27638" lon="-2.35714">
        <ele>5.8000001907349</ele>
        <time>2019-07-07T07:23:24.000Z</time>
      </trkpt>
      <trkpt lat="47.27643" lon="-2.35715">
        <ele>6.1999998092651</ele>
        <time>2019-07-07T07:23:25.000Z</time>
      </trkpt>
      <trkpt lat="47.27658" lon="-2.35718">
        <ele>6.1999998092651</ele>
        <time>2019-07-07T07:23:28.000Z</time>
      </trkpt>
      <trkpt lat="47.27686" lon="-2.35724">
        <ele>6.1999998092651</ele>
        <time>2019-07-07T07:23:34.000Z</time>
      </trkpt>
      <trkpt lat="47.27695" lon="-2.35723">
        <ele>6.1999998092651</ele>
        <time>2019-07-07T07:23:36.000Z</time>
      </trkpt>
      <trkpt lat="47.27704" lon="-2.35718">
        <ele>6.5999999046326</ele>
        <time>2019-07-07T07:23:38.000Z</time>
      </trkpt>
      <trkpt lat="47.27708" lon="-2.35714">
        <ele>7</ele>
        <time>2019-07-07T07:23:39.000Z</time>
      </trkpt>
      <trkpt lat="47.27712" lon="-2.3571">
        <ele>7.4000000953674</ele>
        <time>2019-07-07T07:23:40.000Z</time>
      </trkpt>
      <trkpt lat="47.27716" lon="-2.35706">
        <ele>7.8000001907349</ele>
        <time>2019-07-07T07:23:41.000Z</time>
      </trkpt>
      <trkpt lat="47.2772" lon="-2.35701">
        <ele>8.1999998092651</ele>
        <time>2019-07-07T07:23:42.000Z</time>
      </trkpt>
      <trkpt lat="47.27727" lon="-2.35692">
        <ele>8.6000003814697</ele>
        <time>2019-07-07T07:23:44.000Z</time>
      </trkpt>
      <trkpt lat="47.2773" lon="-2.35687">
        <ele>9</ele>
        <time>2019-07-07T07:23:45.000Z</time>
      </trkpt>
      <trkpt lat="47.27734" lon="-2.35682">
        <ele>9.3999996185303</ele>
        <time>2019-07-07T07:23:46.000Z</time>
      </trkpt>
      <trkpt lat="47.27737" lon="-2.35676">
        <ele>9.8000001907349</ele>
        <time>2019-07-07T07:23:47.000Z</time>
      </trkpt>
      <trkpt lat="47.2774" lon="-2.35671">
        <ele>10.199999809265</ele>
        <time>2019-07-07T07:23:48.000Z</time>
      </trkpt>
      <trkpt lat="47.27764" lon="-2.35635">
        <ele>10.199999809265</ele>
        <time>2019-07-07T07:23:55.000Z</time>
      </trkpt>
      <trkpt lat="47.27791" lon="-2.35614">
        <ele>10.199999809265</ele>
        <time>2019-07-07T07:24:01.000Z</time>
      </trkpt>
      <trkpt lat="47.27795" lon="-2.35611">
        <ele>10.199999809265</ele>
        <time>2019-07-07T07:24:02.000Z</time>
      </trkpt>
      <trkpt lat="47.27803" lon="-2.35608">
        <ele>10.199999809265</ele>
        <time>2019-07-07T07:24:04.000Z</time>
      </trkpt>
      <trkpt lat="47.27808" lon="-2.35606">
        <ele>10.60000038147</ele>
        <time>2019-07-07T07:24:05.000Z</time>
      </trkpt>
      <trkpt lat="47.27813" lon="-2.35604">
        <ele>11</ele>
        <time>2019-07-07T07:24:06.000Z</time>
      </trkpt>
      <trkpt lat="47.27818" lon="-2.35603">
        <ele>11.39999961853</ele>
        <time>2019-07-07T07:24:07.000Z</time>
      </trkpt>
      <trkpt lat="47.27823" lon="-2.35601">
        <ele>11.800000190735</ele>
        <time>2019-07-07T07:24:08.000Z</time>
      </trkpt>
      <trkpt lat="47.27828" lon="-2.356">
        <ele>12.39999961853</ele>
        <time>2019-07-07T07:24:09.000Z</time>
      </trkpt>
      <trkpt lat="47.27843" lon="-2.35597">
        <ele>12.39999961853</ele>
        <time>2019-07-07T07:24:12.000Z</time>
      </trkpt>
      <trkpt lat="47.27852" lon="-2.35595">
        <ele>12.39999961853</ele>
        <time>2019-07-07T07:24:14.000Z</time>
      </trkpt>
      <trkpt lat="47.27867" lon="-2.35591">
        <ele>12.39999961853</ele>
        <time>2019-07-07T07:24:17.000Z</time>
      </trkpt>
      <trkpt lat="47.27894" lon="-2.35585">
        <ele>12.39999961853</ele>
        <time>2019-07-07T07:24:23.000Z</time>
      </trkpt>
      <trkpt lat="47.27898" lon="-2.35584">
        <ele>12.800000190735</ele>
        <time>2019-07-07T07:24:24.000Z</time>
      </trkpt>
      <trkpt lat="47.27902" lon="-2.35583">
        <ele>13.199999809265</ele>
        <time>2019-07-07T07:24:25.000Z</time>
      </trkpt>
      <trkpt lat="47.27907" lon="-2.35582">
        <ele>13.60000038147</ele>
        <time>2019-07-07T07:24:26.000Z</time>
      </trkpt>
      <trkpt lat="47.27912" lon="-2.35581">
        <ele>14.199999809265</ele>
        <time>2019-07-07T07:24:27.000Z</time>
      </trkpt>
      <trkpt lat="47.27917" lon="-2.3558">
        <ele>14.60000038147</ele>
        <time>2019-07-07T07:24:28.000Z</time>
      </trkpt>
      <trkpt lat="47.27922" lon="-2.35578">
        <ele>14.60000038147</ele>
        <time>2019-07-07T07:24:29.000Z</time>
      </trkpt>
      <trkpt lat="47.27947" lon="-2.35569">
        <ele>14.60000038147</ele>
        <time>2019-07-07T07:24:35.000Z</time>
      </trkpt>
      <trkpt lat="47.27977" lon="-2.35559">
        <ele>14.60000038147</ele>
        <time>2019-07-07T07:24:42.000Z</time>
      </trkpt>
      <trkpt lat="47.2801" lon="-2.35549">
        <ele>14.60000038147</ele>
        <time>2019-07-07T07:24:50.000Z</time>
      </trkpt>
      <trkpt lat="47.28024" lon="-2.35554">
        <ele>14.60000038147</ele>
        <time>2019-07-07T07:24:55.000Z</time>
      </trkpt>
      <trkpt lat="47.28024" lon="-2.35559">
        <ele>15</ele>
        <time>2019-07-07T07:24:57.000Z</time>
      </trkpt>
      <trkpt lat="47.28025" lon="-2.35562">
        <ele>15.39999961853</ele>
        <time>2019-07-07T07:24:58.000Z</time>
      </trkpt>
      <trkpt lat="47.28026" lon="-2.35563">
        <ele>15.800000190735</ele>
        <time>2019-07-07T07:24:59.000Z</time>
      </trkpt>
      <trkpt lat="47.28028" lon="-2.35564">
        <ele>16.200000762939</ele>
        <time>2019-07-07T07:25:00.000Z</time>
      </trkpt>
      <trkpt lat="47.28029" lon="-2.35564">
        <ele>16.60000038147</ele>
        <time>2019-07-07T07:25:01.000Z</time>
      </trkpt>
      <trkpt lat="47.2803" lon="-2.35564">
        <ele>16.60000038147</ele>
        <time>2019-07-07T07:25:03.000Z</time>
      </trkpt>
      <trkpt lat="47.28029" lon="-2.35564">
        <ele>16.60000038147</ele>
        <time>2019-07-07T07:25:05.000Z</time>
      </trkpt>
      <trkpt lat="47.28032" lon="-2.35568">
        <ele>16.60000038147</ele>
        <time>2019-07-07T07:26:36.000Z</time>
      </trkpt>
      <trkpt lat="47.28033" lon="-2.3557">
        <ele>16.60000038147</ele>
        <time>2019-07-07T07:26:37.000Z</time>
      </trkpt>
      <trkpt lat="47.28044" lon="-2.35577">
        <ele>16.60000038147</ele>
        <time>2019-07-07T07:26:42.000Z</time>
      </trkpt>
      <trkpt lat="47.28052" lon="-2.3558">
        <ele>16.60000038147</ele>
        <time>2019-07-07T07:26:45.000Z</time>
      </trkpt>
      <trkpt lat="47.28055" lon="-2.35581">
        <ele>16.60000038147</ele>
        <time>2019-07-07T07:26:46.000Z</time>
      </trkpt>
      <trkpt lat="47.28067" lon="-2.3559">
        <ele>17.200000762939</ele>
        <time>2019-07-07T07:26:50.000Z</time>
      </trkpt>
      <trkpt lat="47.28069" lon="-2.35595">
        <ele>17.60000038147</ele>
        <time>2019-07-07T07:26:51.000Z</time>
      </trkpt>
      <trkpt lat="47.2807" lon="-2.35601">
        <ele>18.39999961853</ele>
        <time>2019-07-07T07:26:52.000Z</time>
      </trkpt>
      <trkpt lat="47.28072" lon="-2.35606">
        <ele>18.799999237061</ele>
        <time>2019-07-07T07:26:53.000Z</time>
      </trkpt>
      <trkpt lat="47.28075" lon="-2.35624">
        <ele>18.799999237061</ele>
        <time>2019-07-07T07:26:56.000Z</time>
      </trkpt>
      <trkpt lat="47.28074" lon="-2.35635">
        <ele>18.799999237061</ele>
        <time>2019-07-07T07:26:58.000Z</time>
      </trkpt>
      <trkpt lat="47.28076" lon="-2.35643">
        <ele>19.200000762939</ele>
        <time>2019-07-07T07:27:00.000Z</time>
      </trkpt>
      <trkpt lat="47.28077" lon="-2.35648">
        <ele>19.60000038147</ele>
        <time>2019-07-07T07:27:01.000Z</time>
      </trkpt>
      <trkpt lat="47.28078" lon="-2.35652">
        <ele>20.200000762939</ele>
        <time>2019-07-07T07:27:02.000Z</time>
      </trkpt>
      <trkpt lat="47.2808" lon="-2.35657">
        <ele>20.60000038147</ele>
        <time>2019-07-07T07:27:03.000Z</time>
      </trkpt>
      <trkpt lat="47.28081" lon="-2.35662">
        <ele>21</ele>
        <time>2019-07-07T07:27:04.000Z</time>
      </trkpt>
      <trkpt lat="47.28081" lon="-2.35667">
        <ele>21.60000038147</ele>
        <time>2019-07-07T07:27:05.000Z</time>
      </trkpt>
      <trkpt lat="47.28083" lon="-2.35671">
        <ele>22</ele>
        <time>2019-07-07T07:27:06.000Z</time>
      </trkpt>
      <trkpt lat="47.28085" lon="-2.35676">
        <ele>22.39999961853</ele>
        <time>2019-07-07T07:27:07.000Z</time>
      </trkpt>
      <trkpt lat="47.28087" lon="-2.35681">
        <ele>23</ele>
        <time>2019-07-07T07:27:08.000Z</time>
      </trkpt>
      <trkpt lat="47.28087" lon="-2.35686">
        <ele>23.39999961853</ele>
        <time>2019-07-07T07:27:09.000Z</time>
      </trkpt>
      <trkpt lat="47.28088" lon="-2.35696">
        <ele>23.799999237061</ele>
        <time>2019-07-07T07:27:11.000Z</time>
      </trkpt>
      <trkpt lat="47.28089" lon="-2.35703">
        <ele>24.200000762939</ele>
        <time>2019-07-07T07:27:12.000Z</time>
      </trkpt>
      <trkpt lat="47.28089" lon="-2.35709">
        <ele>24.60000038147</ele>
        <time>2019-07-07T07:27:13.000Z</time>
      </trkpt>
      <trkpt lat="47.28089" lon="-2.35715">
        <ele>25</ele>
        <time>2019-07-07T07:27:14.000Z</time>
      </trkpt>
      <trkpt lat="47.28087" lon="-2.35722">
        <ele>25.39999961853</ele>
        <time>2019-07-07T07:27:15.000Z</time>
      </trkpt>
      <trkpt lat="47.28086" lon="-2.35727">
        <ele>25.39999961853</ele>
        <time>2019-07-07T07:27:16.000Z</time>
      </trkpt>
      <trkpt lat="47.28082" lon="-2.35745">
        <ele>25.39999961853</ele>
        <time>2019-07-07T07:27:19.000Z</time>
      </trkpt>
      <trkpt lat="47.2808" lon="-2.35759">
        <ele>25.39999961853</ele>
        <time>2019-07-07T07:27:21.000Z</time>
      </trkpt>
      <trkpt lat="47.28077" lon="-2.35775">
        <ele>25.39999961853</ele>
        <time>2019-07-07T07:27:23.000Z</time>
      </trkpt>
      <trkpt lat="47.28075" lon="-2.35787">
        <ele>25</ele>
        <time>2019-07-07T07:27:25.000Z</time>
      </trkpt>
      <trkpt lat="47.28076" lon="-2.35794">
        <ele>24.60000038147</ele>
        <time>2019-07-07T07:27:26.000Z</time>
      </trkpt>
      <trkpt lat="47.28079" lon="-2.358">
        <ele>24.200000762939</ele>
        <time>2019-07-07T07:27:27.000Z</time>
      </trkpt>
      <trkpt lat="47.28082" lon="-2.35806">
        <ele>23.799999237061</ele>
        <time>2019-07-07T07:27:28.000Z</time>
      </trkpt>
      <trkpt lat="47.28085" lon="-2.35811">
        <ele>23.200000762939</ele>
        <time>2019-07-07T07:27:29.000Z</time>
      </trkpt>
      <trkpt lat="47.28104" lon="-2.3584">
        <ele>23.200000762939</ele>
        <time>2019-07-07T07:27:34.000Z</time>
      </trkpt>
      <trkpt lat="47.28111" lon="-2.35852">
        <ele>23.200000762939</ele>
        <time>2019-07-07T07:27:36.000Z</time>
      </trkpt>
      <trkpt lat="47.28125" lon="-2.35875">
        <ele>23.200000762939</ele>
        <time>2019-07-07T07:27:40.000Z</time>
      </trkpt>
      <trkpt lat="47.28145" lon="-2.35908">
        <ele>23.200000762939</ele>
        <time>2019-07-07T07:27:46.000Z</time>
      </trkpt>
      <trkpt lat="47.28164" lon="-2.35944">
        <ele>23.200000762939</ele>
        <time>2019-07-07T07:27:51.000Z</time>
      </trkpt>
      <trkpt lat="47.28166" lon="-2.35951">
        <ele>22.799999237061</ele>
        <time>2019-07-07T07:27:52.000Z</time>
      </trkpt>
      <trkpt lat="47.28171" lon="-2.3596">
        <ele>22.39999961853</ele>
        <time>2019-07-07T07:27:53.000Z</time>
      </trkpt>
      <trkpt lat="47.28174" lon="-2.35969">
        <ele>22</ele>
        <time>2019-07-07T07:27:54.000Z</time>
      </trkpt>
      <trkpt lat="47.28178" lon="-2.35979">
        <ele>21.60000038147</ele>
        <time>2019-07-07T07:27:55.000Z</time>
      </trkpt>
      <trkpt lat="47.28181" lon="-2.35988">
        <ele>21.200000762939</ele>
        <time>2019-07-07T07:27:56.000Z</time>
      </trkpt>
      <trkpt lat="47.2819" lon="-2.3601">
        <ele>20.799999237061</ele>
        <time>2019-07-07T07:27:59.000Z</time>
      </trkpt>
      <trkpt lat="47.28192" lon="-2.36016">
        <ele>20.200000762939</ele>
        <time>2019-07-07T07:28:00.000Z</time>
      </trkpt>
      <trkpt lat="47.28194" lon="-2.36023">
        <ele>19.799999237061</ele>
        <time>2019-07-07T07:28:01.000Z</time>
      </trkpt>
      <trkpt lat="47.28196" lon="-2.36029">
        <ele>19.39999961853</ele>
        <time>2019-07-07T07:28:02.000Z</time>
      </trkpt>
      <trkpt lat="47.28198" lon="-2.36034">
        <ele>19</ele>
        <time>2019-07-07T07:28:03.000Z</time>
      </trkpt>
      <trkpt lat="47.28204" lon="-2.36052">
        <ele>19</ele>
        <time>2019-07-07T07:28:06.000Z</time>
      </trkpt>
      <trkpt lat="47.28218" lon="-2.36098">
        <ele>19</ele>
        <time>2019-07-07T07:28:13.000Z</time>
      </trkpt>
      <trkpt lat="47.2823" lon="-2.36128">
        <ele>19</ele>
        <time>2019-07-07T07:28:18.000Z</time>
      </trkpt>
      <trkpt lat="47.28233" lon="-2.36134">
        <ele>19</ele>
        <time>2019-07-07T07:28:19.000Z</time>
      </trkpt>
      <trkpt lat="47.28242" lon="-2.36154">
        <ele>19</ele>
        <time>2019-07-07T07:28:22.000Z</time>
      </trkpt>
      <trkpt lat="47.28245" lon="-2.3616">
        <ele>19</ele>
        <time>2019-07-07T07:28:23.000Z</time>
      </trkpt>
      <trkpt lat="47.28248" lon="-2.36166">
        <ele>19</ele>
        <time>2019-07-07T07:28:24.000Z</time>
      </trkpt>
      <trkpt lat="47.28258" lon="-2.3619">
        <ele>19</ele>
        <time>2019-07-07T07:28:28.000Z</time>
      </trkpt>
      <trkpt lat="47.28269" lon="-2.36222">
        <ele>19</ele>
        <time>2019-07-07T07:28:33.000Z</time>
      </trkpt>
      <trkpt lat="47.28273" lon="-2.36227">
        <ele>19</ele>
        <time>2019-07-07T07:28:34.000Z</time>
      </trkpt>
      <trkpt lat="47.28287" lon="-2.36236">
        <ele>19</ele>
        <time>2019-07-07T07:28:37.000Z</time>
      </trkpt>
      <trkpt lat="47.28291" lon="-2.36237">
        <ele>19</ele>
        <time>2019-07-07T07:28:38.000Z</time>
      </trkpt>
      <trkpt lat="47.28315" lon="-2.36243">
        <ele>19</ele>
        <time>2019-07-07T07:28:44.000Z</time>
      </trkpt>
      <trkpt lat="47.28328" lon="-2.36249">
        <ele>19</ele>
        <time>2019-07-07T07:28:47.000Z</time>
      </trkpt>
      <trkpt lat="47.28337" lon="-2.36255">
        <ele>19</ele>
        <time>2019-07-07T07:28:50.000Z</time>
      </trkpt>
      <trkpt lat="47.28343" lon="-2.36257">
        <ele>19.39999961853</ele>
        <time>2019-07-07T07:28:52.000Z</time>
      </trkpt>
      <trkpt lat="47.28345" lon="-2.36259">
        <ele>19.799999237061</ele>
        <time>2019-07-07T07:28:53.000Z</time>
      </trkpt>
      <trkpt lat="47.28348" lon="-2.36261">
        <ele>20.200000762939</ele>
        <time>2019-07-07T07:28:54.000Z</time>
      </trkpt>
      <trkpt lat="47.2835" lon="-2.36262">
        <ele>21</ele>
        <time>2019-07-07T07:28:55.000Z</time>
      </trkpt>
      <trkpt lat="47.28352" lon="-2.36264">
        <ele>21</ele>
        <time>2019-07-07T07:28:56.000Z</time>
      </trkpt>
      <trkpt lat="47.28354" lon="-2.36267">
        <ele>21</ele>
        <time>2019-07-07T07:28:57.000Z</time>
      </trkpt>
      <trkpt lat="47.28353" lon="-2.36277">
        <ele>21</ele>
        <time>2019-07-07T07:29:00.000Z</time>
      </trkpt>
      <trkpt lat="47.28356" lon="-2.36293">
        <ele>21</ele>
        <time>2019-07-07T07:29:05.000Z</time>
      </trkpt>
      <trkpt lat="47.28362" lon="-2.36297">
        <ele>21.39999961853</ele>
        <time>2019-07-07T07:29:07.000Z</time>
      </trkpt>
      <trkpt lat="47.28365" lon="-2.36299">
        <ele>21.799999237061</ele>
        <time>2019-07-07T07:29:08.000Z</time>
      </trkpt>
      <trkpt lat="47.28367" lon="-2.36299">
        <ele>22.39999961853</ele>
        <time>2019-07-07T07:29:09.000Z</time>
      </trkpt>
      <trkpt lat="47.28369" lon="-2.36301">
        <ele>22.799999237061</ele>
        <time>2019-07-07T07:29:10.000Z</time>
      </trkpt>
      <trkpt lat="47.28371" lon="-2.36303">
        <ele>23.200000762939</ele>
        <time>2019-07-07T07:29:11.000Z</time>
      </trkpt>
      <trkpt lat="47.28377" lon="-2.36311">
        <ele>23.200000762939</ele>
        <time>2019-07-07T07:29:14.000Z</time>
      </trkpt>
      <trkpt lat="47.28382" lon="-2.36315">
        <ele>23.200000762939</ele>
        <time>2019-07-07T07:29:16.000Z</time>
      </trkpt>
      <trkpt lat="47.28391" lon="-2.36323">
        <ele>23.60000038147</ele>
        <time>2019-07-07T07:29:20.000Z</time>
      </trkpt>
      <trkpt lat="47.28393" lon="-2.36326">
        <ele>24</ele>
        <time>2019-07-07T07:29:21.000Z</time>
      </trkpt>
      <trkpt lat="47.28396" lon="-2.36329">
        <ele>24.39999961853</ele>
        <time>2019-07-07T07:29:22.000Z</time>
      </trkpt>
      <trkpt lat="47.28398" lon="-2.36334">
        <ele>24.799999237061</ele>
        <time>2019-07-07T07:29:23.000Z</time>
      </trkpt>
      <trkpt lat="47.28401" lon="-2.36338">
        <ele>25.200000762939</ele>
        <time>2019-07-07T07:29:24.000Z</time>
      </trkpt>
      <trkpt lat="47.28403" lon="-2.36341">
        <ele>25.200000762939</ele>
        <time>2019-07-07T07:29:25.000Z</time>
      </trkpt>
      <trkpt lat="47.28432" lon="-2.36371">
        <ele>25.200000762939</ele>
        <time>2019-07-07T07:29:31.000Z</time>
      </trkpt>
      <trkpt lat="47.28453" lon="-2.36394">
        <ele>25.200000762939</ele>
        <time>2019-07-07T07:29:36.000Z</time>
      </trkpt>
      <trkpt lat="47.28459" lon="-2.36401">
        <ele>25.60000038147</ele>
        <time>2019-07-07T07:29:38.000Z</time>
      </trkpt>
      <trkpt lat="47.28462" lon="-2.36405">
        <ele>26</ele>
        <time>2019-07-07T07:29:39.000Z</time>
      </trkpt>
      <trkpt lat="47.28465" lon="-2.36409">
        <ele>26.39999961853</ele>
        <time>2019-07-07T07:29:40.000Z</time>
      </trkpt>
      <trkpt lat="47.28468" lon="-2.36413">
        <ele>26.799999237061</ele>
        <time>2019-07-07T07:29:41.000Z</time>
      </trkpt>
      <trkpt lat="47.28472" lon="-2.36417">
        <ele>27.200000762939</ele>
        <time>2019-07-07T07:29:42.000Z</time>
      </trkpt>
      <trkpt lat="47.28479" lon="-2.36426">
        <ele>27.200000762939</ele>
        <time>2019-07-07T07:29:44.000Z</time>
      </trkpt>
      <trkpt lat="47.28488" lon="-2.36434">
        <ele>27.200000762939</ele>
        <time>2019-07-07T07:29:46.000Z</time>
      </trkpt>
      <trkpt lat="47.28494" lon="-2.36438">
        <ele>27.200000762939</ele>
        <time>2019-07-07T07:29:47.000Z</time>
      </trkpt>
      <trkpt lat="47.28503" lon="-2.36447">
        <ele>27.200000762939</ele>
        <time>2019-07-07T07:29:49.000Z</time>
      </trkpt>
      <trkpt lat="47.28511" lon="-2.36462">
        <ele>27.200000762939</ele>
        <time>2019-07-07T07:29:51.000Z</time>
      </trkpt>
      <trkpt lat="47.28517" lon="-2.36487">
        <ele>27.200000762939</ele>
        <time>2019-07-07T07:29:55.000Z</time>
      </trkpt>
      <trkpt lat="47.2852" lon="-2.36498">
        <ele>27.200000762939</ele>
        <time>2019-07-07T07:29:57.000Z</time>
      </trkpt>
      <trkpt lat="47.28518" lon="-2.36508">
        <ele>27.200000762939</ele>
        <time>2019-07-07T07:29:59.000Z</time>
      </trkpt>
      <trkpt lat="47.28514" lon="-2.36515">
        <ele>27.200000762939</ele>
        <time>2019-07-07T07:30:01.000Z</time>
      </trkpt>
      <trkpt lat="47.28505" lon="-2.36524">
        <ele>27.200000762939</ele>
        <time>2019-07-07T07:30:03.000Z</time>
      </trkpt>
      <trkpt lat="47.28491" lon="-2.36539">
        <ele>26.799999237061</ele>
        <time>2019-07-07T07:30:06.000Z</time>
      </trkpt>
      <trkpt lat="47.28486" lon="-2.36545">
        <ele>26.39999961853</ele>
        <time>2019-07-07T07:30:07.000Z</time>
      </trkpt>
      <trkpt lat="47.28481" lon="-2.3655">
        <ele>25.60000038147</ele>
        <time>2019-07-07T07:30:08.000Z</time>
      </trkpt>
      <trkpt lat="47.28476" lon="-2.36556">
        <ele>25</ele>
        <time>2019-07-07T07:30:09.000Z</time>
      </trkpt>
      <trkpt lat="47.28473" lon="-2.36563">
        <ele>25</ele>
        <time>2019-07-07T07:30:10.000Z</time>
      </trkpt>
      <trkpt lat="47.28471" lon="-2.36579">
        <ele>25</ele>
        <time>2019-07-07T07:30:12.000Z</time>
      </trkpt>
      <trkpt lat="47.28479" lon="-2.36603">
        <ele>25</ele>
        <time>2019-07-07T07:30:15.000Z</time>
      </trkpt>
      <trkpt lat="47.28482" lon="-2.36611">
        <ele>24.60000038147</ele>
        <time>2019-07-07T07:30:16.000Z</time>
      </trkpt>
      <trkpt lat="47.28484" lon="-2.36618">
        <ele>24.200000762939</ele>
        <time>2019-07-07T07:30:17.000Z</time>
      </trkpt>
      <trkpt lat="47.28486" lon="-2.36626">
        <ele>23.799999237061</ele>
        <time>2019-07-07T07:30:18.000Z</time>
      </trkpt>
      <trkpt lat="47.28488" lon="-2.36633">
        <ele>23.39999961853</ele>
        <time>2019-07-07T07:30:19.000Z</time>
      </trkpt>
      <trkpt lat="47.2849" lon="-2.3664">
        <ele>23</ele>
        <time>2019-07-07T07:30:20.000Z</time>
      </trkpt>
      <trkpt lat="47.28492" lon="-2.36647">
        <ele>23</ele>
        <time>2019-07-07T07:30:21.000Z</time>
      </trkpt>
      <trkpt lat="47.28495" lon="-2.36653">
        <ele>23</ele>
        <time>2019-07-07T07:30:22.000Z</time>
      </trkpt>
      <trkpt lat="47.285" lon="-2.36667">
        <ele>23</ele>
        <time>2019-07-07T07:30:25.000Z</time>
      </trkpt>
      <trkpt lat="47.28512" lon="-2.36684">
        <ele>23</ele>
        <time>2019-07-07T07:30:29.000Z</time>
      </trkpt>
      <trkpt lat="47.28515" lon="-2.36689">
        <ele>23</ele>
        <time>2019-07-07T07:30:30.000Z</time>
      </trkpt>
      <trkpt lat="47.2853" lon="-2.36716">
        <ele>23</ele>
        <time>2019-07-07T07:30:34.000Z</time>
      </trkpt>
      <trkpt lat="47.28543" lon="-2.36744">
        <ele>22.60000038147</ele>
        <time>2019-07-07T07:30:37.000Z</time>
      </trkpt>
      <trkpt lat="47.28548" lon="-2.36753">
        <ele>22.200000762939</ele>
        <time>2019-07-07T07:30:38.000Z</time>
      </trkpt>
      <trkpt lat="47.28553" lon="-2.36762">
        <ele>21.799999237061</ele>
        <time>2019-07-07T07:30:39.000Z</time>
      </trkpt>
      <trkpt lat="47.28558" lon="-2.36772">
        <ele>21.39999961853</ele>
        <time>2019-07-07T07:30:40.000Z</time>
      </trkpt>
      <trkpt lat="47.28564" lon="-2.36782">
        <ele>21</ele>
        <time>2019-07-07T07:30:41.000Z</time>
      </trkpt>
      <trkpt lat="47.28579" lon="-2.36809">
        <ele>20.60000038147</ele>
        <time>2019-07-07T07:30:44.000Z</time>
      </trkpt>
      <trkpt lat="47.28583" lon="-2.36818">
        <ele>20.200000762939</ele>
        <time>2019-07-07T07:30:45.000Z</time>
      </trkpt>
      <trkpt lat="47.28588" lon="-2.36827">
        <ele>19.799999237061</ele>
        <time>2019-07-07T07:30:46.000Z</time>
      </trkpt>
      <trkpt lat="47.28592" lon="-2.36835">
        <ele>19.39999961853</ele>
        <time>2019-07-07T07:30:47.000Z</time>
      </trkpt>
      <trkpt lat="47.28598" lon="-2.3684">
        <ele>19</ele>
        <time>2019-07-07T07:30:48.000Z</time>
      </trkpt>
      <trkpt lat="47.28604" lon="-2.36842">
        <ele>19</ele>
        <time>2019-07-07T07:30:49.000Z</time>
      </trkpt>
      <trkpt lat="47.28618" lon="-2.36838">
        <ele>18.60000038147</ele>
        <time>2019-07-07T07:30:51.000Z</time>
      </trkpt>
      <trkpt lat="47.28624" lon="-2.36833">
        <ele>18</ele>
        <time>2019-07-07T07:30:52.000Z</time>
      </trkpt>
      <trkpt lat="47.28629" lon="-2.36828">
        <ele>17.60000038147</ele>
        <time>2019-07-07T07:30:53.000Z</time>
      </trkpt>
      <trkpt lat="47.28634" lon="-2.36823">
        <ele>17.200000762939</ele>
        <time>2019-07-07T07:30:54.000Z</time>
      </trkpt>
      <trkpt lat="47.28637" lon="-2.36818">
        <ele>16.799999237061</ele>
        <time>2019-07-07T07:30:55.000Z</time>
      </trkpt>
      <trkpt lat="47.28641" lon="-2.36813">
        <ele>16.799999237061</ele>
        <time>2019-07-07T07:30:56.000Z</time>
      </trkpt>
      <trkpt lat="47.28646" lon="-2.36808">
        <ele>16.799999237061</ele>
        <time>2019-07-07T07:30:57.000Z</time>
      </trkpt>
      <trkpt lat="47.28662" lon="-2.36792">
        <ele>16.799999237061</ele>
        <time>2019-07-07T07:31:01.000Z</time>
      </trkpt>
      <trkpt lat="47.28665" lon="-2.36792">
        <ele>17.200000762939</ele>
        <time>2019-07-07T07:31:02.000Z</time>
      </trkpt>
      <trkpt lat="47.28667" lon="-2.36795">
        <ele>17.60000038147</ele>
        <time>2019-07-07T07:31:03.000Z</time>
      </trkpt>
      <trkpt lat="47.2867" lon="-2.36798">
        <ele>18</ele>
        <time>2019-07-07T07:31:04.000Z</time>
      </trkpt>
      <trkpt lat="47.28672" lon="-2.36802">
        <ele>18.39999961853</ele>
        <time>2019-07-07T07:31:05.000Z</time>
      </trkpt>
      <trkpt lat="47.28675" lon="-2.36807">
        <ele>18.799999237061</ele>
        <time>2019-07-07T07:31:06.000Z</time>
      </trkpt>
      <trkpt lat="47.28685" lon="-2.36827">
        <ele>18.799999237061</ele>
        <time>2019-07-07T07:31:10.000Z</time>
      </trkpt>
      <trkpt lat="47.28698" lon="-2.36857">
        <ele>18.799999237061</ele>
        <time>2019-07-07T07:31:15.000Z</time>
      </trkpt>
      <trkpt lat="47.28703" lon="-2.36867">
        <ele>18.799999237061</ele>
        <time>2019-07-07T07:31:17.000Z</time>
      </trkpt>
      <trkpt lat="47.28708" lon="-2.36876">
        <ele>18.39999961853</ele>
        <time>2019-07-07T07:31:19.000Z</time>
      </trkpt>
      <trkpt lat="47.28709" lon="-2.36881">
        <ele>18</ele>
        <time>2019-07-07T07:31:20.000Z</time>
      </trkpt>
      <trkpt lat="47.28711" lon="-2.36886">
        <ele>17.60000038147</ele>
        <time>2019-07-07T07:31:21.000Z</time>
      </trkpt>
      <trkpt lat="47.28712" lon="-2.36892">
        <ele>17.200000762939</ele>
        <time>2019-07-07T07:31:22.000Z</time>
      </trkpt>
      <trkpt lat="47.28714" lon="-2.36897">
        <ele>16.799999237061</ele>
        <time>2019-07-07T07:31:23.000Z</time>
      </trkpt>
      <trkpt lat="47.28719" lon="-2.36905">
        <ele>16.799999237061</ele>
        <time>2019-07-07T07:31:25.000Z</time>
      </trkpt>
      <trkpt lat="47.28722" lon="-2.36909">
        <ele>16.39999961853</ele>
        <time>2019-07-07T07:31:26.000Z</time>
      </trkpt>
      <trkpt lat="47.28725" lon="-2.36912">
        <ele>15.800000190735</ele>
        <time>2019-07-07T07:31:27.000Z</time>
      </trkpt>
      <trkpt lat="47.2873" lon="-2.36917">
        <ele>15.199999809265</ele>
        <time>2019-07-07T07:31:28.000Z</time>
      </trkpt>
      <trkpt lat="47.28734" lon="-2.36921">
        <ele>14.800000190735</ele>
        <time>2019-07-07T07:31:29.000Z</time>
      </trkpt>
      <trkpt lat="47.28737" lon="-2.36927">
        <ele>14.199999809265</ele>
        <time>2019-07-07T07:31:30.000Z</time>
      </trkpt>
      <trkpt lat="47.28739" lon="-2.3693">
        <ele>14.199999809265</ele>
        <time>2019-07-07T07:31:31.000Z</time>
      </trkpt>
      <trkpt lat="47.28743" lon="-2.36943">
        <ele>14.60000038147</ele>
        <time>2019-07-07T07:31:34.000Z</time>
      </trkpt>
      <trkpt lat="47.28742" lon="-2.36947">
        <ele>15</ele>
        <time>2019-07-07T07:31:35.000Z</time>
      </trkpt>
      <trkpt lat="47.28742" lon="-2.3695">
        <ele>15.60000038147</ele>
        <time>2019-07-07T07:31:36.000Z</time>
      </trkpt>
      <trkpt lat="47.28743" lon="-2.36953">
        <ele>16</ele>
        <time>2019-07-07T07:31:37.000Z</time>
      </trkpt>
      <trkpt lat="47.28744" lon="-2.36955">
        <ele>16.39999961853</ele>
        <time>2019-07-07T07:31:38.000Z</time>
      </trkpt>
      <trkpt lat="47.28744" lon="-2.36959">
        <ele>16.799999237061</ele>
        <time>2019-07-07T07:31:39.000Z</time>
      </trkpt>
      <trkpt lat="47.28745" lon="-2.36962">
        <ele>17.200000762939</ele>
        <time>2019-07-07T07:31:40.000Z</time>
      </trkpt>
      <trkpt lat="47.28747" lon="-2.36967">
        <ele>17.799999237061</ele>
        <time>2019-07-07T07:31:41.000Z</time>
      </trkpt>
      <trkpt lat="47.2875" lon="-2.36972">
        <ele>18.200000762939</ele>
        <time>2019-07-07T07:31:42.000Z</time>
      </trkpt>
      <trkpt lat="47.28752" lon="-2.36975">
        <ele>18.60000038147</ele>
        <time>2019-07-07T07:31:43.000Z</time>
      </trkpt>
      <trkpt lat="47.28759" lon="-2.36984">
        <ele>18.60000038147</ele>
        <time>2019-07-07T07:31:46.000Z</time>
      </trkpt>
      <trkpt lat="47.28773" lon="-2.37005">
        <ele>18.60000038147</ele>
        <time>2019-07-07T07:31:52.000Z</time>
      </trkpt>
      <trkpt lat="47.2878" lon="-2.37035">
        <ele>18.60000038147</ele>
        <time>2019-07-07T07:31:58.000Z</time>
      </trkpt>
      <trkpt lat="47.28786" lon="-2.37062">
        <ele>18.200000762939</ele>
        <time>2019-07-07T07:32:02.000Z</time>
      </trkpt>
      <trkpt lat="47.28788" lon="-2.37072">
        <ele>17.60000038147</ele>
        <time>2019-07-07T07:32:03.000Z</time>
      </trkpt>
      <trkpt lat="47.28789" lon="-2.3708">
        <ele>17.200000762939</ele>
        <time>2019-07-07T07:32:04.000Z</time>
      </trkpt>
      <trkpt lat="47.28791" lon="-2.37093">
        <ele>16.799999237061</ele>
        <time>2019-07-07T07:32:05.000Z</time>
      </trkpt>
      <trkpt lat="47.28792" lon="-2.37098">
        <ele>16.39999961853</ele>
        <time>2019-07-07T07:32:06.000Z</time>
      </trkpt>
      <trkpt lat="47.28797" lon="-2.37107">
        <ele>15.800000190735</ele>
        <time>2019-07-07T07:32:08.000Z</time>
      </trkpt>
      <trkpt lat="47.288" lon="-2.37108">
        <ele>15.39999961853</ele>
        <time>2019-07-07T07:32:09.000Z</time>
      </trkpt>
      <trkpt lat="47.28804" lon="-2.3711">
        <ele>14.800000190735</ele>
        <time>2019-07-07T07:32:10.000Z</time>
      </trkpt>
      <trkpt lat="47.28807" lon="-2.3711">
        <ele>14.39999961853</ele>
        <time>2019-07-07T07:32:11.000Z</time>
      </trkpt>
      <trkpt lat="47.28811" lon="-2.37111">
        <ele>13.800000190735</ele>
        <time>2019-07-07T07:32:12.000Z</time>
      </trkpt>
      <trkpt lat="47.28814" lon="-2.3711">
        <ele>13.39999961853</ele>
        <time>2019-07-07T07:32:13.000Z</time>
      </trkpt>
      <trkpt lat="47.28816" lon="-2.3711">
        <ele>13</ele>
        <time>2019-07-07T07:32:14.000Z</time>
      </trkpt>
      <trkpt lat="47.28818" lon="-2.37108">
        <ele>12.60000038147</ele>
        <time>2019-07-07T07:32:15.000Z</time>
      </trkpt>
      <trkpt lat="47.28819" lon="-2.37106">
        <ele>12</ele>
        <time>2019-07-07T07:32:16.000Z</time>
      </trkpt>
      <trkpt lat="47.28821" lon="-2.37104">
        <ele>11.39999961853</ele>
        <time>2019-07-07T07:32:17.000Z</time>
      </trkpt>
      <trkpt lat="47.28823" lon="-2.37106">
        <ele>11</ele>
        <time>2019-07-07T07:32:18.000Z</time>
      </trkpt>
      <trkpt lat="47.28824" lon="-2.37109">
        <ele>10.39999961853</ele>
        <time>2019-07-07T07:32:19.000Z</time>
      </trkpt>
      <trkpt lat="47.28825" lon="-2.37113">
        <ele>9.8000001907349</ele>
        <time>2019-07-07T07:32:20.000Z</time>
      </trkpt>
      <trkpt lat="47.28826" lon="-2.37116">
        <ele>9.1999998092651</ele>
        <time>2019-07-07T07:32:21.000Z</time>
      </trkpt>
      <trkpt lat="47.28826" lon="-2.3712">
        <ele>9.1999998092651</ele>
        <time>2019-07-07T07:32:23.000Z</time>
      </trkpt>
      <trkpt lat="47.28826" lon="-2.3712">
        <ele>9.1999998092651</ele>
        <time>2019-07-07T07:32:24.000Z</time>
      </trkpt>
      <trkpt lat="47.28825" lon="-2.37125">
        <ele>7.1999998092651</ele>
        <time>2019-07-07T07:32:36.000Z</time>
      </trkpt>
      <trkpt lat="47.28824" lon="-2.37133">
        <ele>7.1999998092651</ele>
        <time>2019-07-07T07:32:38.000Z</time>
      </trkpt>
      <trkpt lat="47.28828" lon="-2.37159">
        <ele>7.1999998092651</ele>
        <time>2019-07-07T07:32:43.000Z</time>
      </trkpt>
      <trkpt lat="47.28834" lon="-2.37194">
        <ele>7.1999998092651</ele>
        <time>2019-07-07T07:32:48.000Z</time>
      </trkpt>
      <trkpt lat="47.2884" lon="-2.37226">
        <ele>7.1999998092651</ele>
        <time>2019-07-07T07:32:53.000Z</time>
      </trkpt>
      <trkpt lat="47.28844" lon="-2.37237">
        <ele>7.1999998092651</ele>
        <time>2019-07-07T07:32:55.000Z</time>
      </trkpt>
      <trkpt lat="47.28849" lon="-2.37246">
        <ele>7.1999998092651</ele>
        <time>2019-07-07T07:32:57.000Z</time>
      </trkpt>
      <trkpt lat="47.28855" lon="-2.37274">
        <ele>7.1999998092651</ele>
        <time>2019-07-07T07:33:02.000Z</time>
      </trkpt>
      <trkpt lat="47.28859" lon="-2.37313">
        <ele>7.1999998092651</ele>
        <time>2019-07-07T07:33:08.000Z</time>
      </trkpt>
      <trkpt lat="47.28862" lon="-2.37351">
        <ele>7.1999998092651</ele>
        <time>2019-07-07T07:33:14.000Z</time>
      </trkpt>
      <trkpt lat="47.28862" lon="-2.37358">
        <ele>7.1999998092651</ele>
        <time>2019-07-07T07:33:15.000Z</time>
      </trkpt>
      <trkpt lat="47.28865" lon="-2.37391">
        <ele>7.1999998092651</ele>
        <time>2019-07-07T07:33:20.000Z</time>
      </trkpt>
      <trkpt lat="47.28868" lon="-2.37417">
        <ele>6.8000001907349</ele>
        <time>2019-07-07T07:33:24.000Z</time>
      </trkpt>
      <trkpt lat="47.28869" lon="-2.37423">
        <ele>6</ele>
        <time>2019-07-07T07:33:25.000Z</time>
      </trkpt>
      <trkpt lat="47.2887" lon="-2.37429">
        <ele>5.5999999046326</ele>
        <time>2019-07-07T07:33:26.000Z</time>
      </trkpt>
      <trkpt lat="47.2887" lon="-2.37434">
        <ele>5.1999998092651</ele>
        <time>2019-07-07T07:33:27.000Z</time>
      </trkpt>
      <trkpt lat="47.28874" lon="-2.3746">
        <ele>5.1999998092651</ele>
        <time>2019-07-07T07:33:32.000Z</time>
      </trkpt>
      <trkpt lat="47.28879" lon="-2.37496">
        <ele>5.1999998092651</ele>
        <time>2019-07-07T07:33:38.000Z</time>
      </trkpt>
      <trkpt lat="47.28885" lon="-2.37531">
        <ele>5.1999998092651</ele>
        <time>2019-07-07T07:33:44.000Z</time>
      </trkpt>
      <trkpt lat="47.28889" lon="-2.37546">
        <ele>5.1999998092651</ele>
        <time>2019-07-07T07:33:47.000Z</time>
      </trkpt>
      <trkpt lat="47.28892" lon="-2.37552">
        <ele>5.1999998092651</ele>
        <time>2019-07-07T07:33:48.000Z</time>
      </trkpt>
      <trkpt lat="47.28898" lon="-2.37574">
        <ele>5.1999998092651</ele>
        <time>2019-07-07T07:33:51.000Z</time>
      </trkpt>
      <trkpt lat="47.28901" lon="-2.3759">
        <ele>5.1999998092651</ele>
        <time>2019-07-07T07:33:53.000Z</time>
      </trkpt>
      <trkpt lat="47.28902" lon="-2.37598">
        <ele>5.1999998092651</ele>
        <time>2019-07-07T07:33:54.000Z</time>
      </trkpt>
      <trkpt lat="47.28908" lon="-2.3764">
        <ele>5.1999998092651</ele>
        <time>2019-07-07T07:34:00.000Z</time>
      </trkpt>
      <trkpt lat="47.2891" lon="-2.37644">
        <ele>5.1999998092651</ele>
        <time>2019-07-07T07:34:01.000Z</time>
      </trkpt>
      <trkpt lat="47.2892" lon="-2.37646">
        <ele>5.1999998092651</ele>
        <time>2019-07-07T07:34:04.000Z</time>
      </trkpt>
      <trkpt lat="47.28933" lon="-2.37644">
        <ele>5.1999998092651</ele>
        <time>2019-07-07T07:34:09.000Z</time>
      </trkpt>
      <trkpt lat="47.28935" lon="-2.37648">
        <ele>5.1999998092651</ele>
        <time>2019-07-07T07:34:11.000Z</time>
      </trkpt>
      <trkpt lat="47.28937" lon="-2.37658">
        <ele>5.1999998092651</ele>
        <time>2019-07-07T07:34:13.000Z</time>
      </trkpt>
      <trkpt lat="47.28939" lon="-2.37678">
        <ele>5.1999998092651</ele>
        <time>2019-07-07T07:34:16.000Z</time>
      </trkpt>
      <trkpt lat="47.28937" lon="-2.37693">
        <ele>5.1999998092651</ele>
        <time>2019-07-07T07:34:18.000Z</time>
      </trkpt>
      <trkpt lat="47.28936" lon="-2.37702">
        <ele>5.1999998092651</ele>
        <time>2019-07-07T07:34:19.000Z</time>
      </trkpt>
      <trkpt lat="47.28934" lon="-2.37737">
        <ele>5.1999998092651</ele>
        <time>2019-07-07T07:34:23.000Z</time>
      </trkpt>
      <trkpt lat="47.2893" lon="-2.3779">
        <ele>5.1999998092651</ele>
        <time>2019-07-07T07:34:29.000Z</time>
      </trkpt>
      <trkpt lat="47.28928" lon="-2.37816">
        <ele>4.8000001907349</ele>
        <time>2019-07-07T07:34:32.000Z</time>
      </trkpt>
      <trkpt lat="47.28927" lon="-2.37825">
        <ele>4.4000000953674</ele>
        <time>2019-07-07T07:34:33.000Z</time>
      </trkpt>
      <trkpt lat="47.28926" lon="-2.37834">
        <ele>4</ele>
        <time>2019-07-07T07:34:34.000Z</time>
      </trkpt>
      <trkpt lat="47.28925" lon="-2.37843">
        <ele>3.5999999046326</ele>
        <time>2019-07-07T07:34:35.000Z</time>
      </trkpt>
      <trkpt lat="47.28924" lon="-2.37851">
        <ele>3.2000000476837</ele>
        <time>2019-07-07T07:34:36.000Z</time>
      </trkpt>
      <trkpt lat="47.28923" lon="-2.37869">
        <ele>3.2000000476837</ele>
        <time>2019-07-07T07:34:38.000Z</time>
      </trkpt>
      <trkpt lat="47.28918" lon="-2.37938">
        <ele>3.2000000476837</ele>
        <time>2019-07-07T07:34:46.000Z</time>
      </trkpt>
      <trkpt lat="47.28914" lon="-2.38005">
        <ele>3.2000000476837</ele>
        <time>2019-07-07T07:34:54.000Z</time>
      </trkpt>
      <trkpt lat="47.2891" lon="-2.38044">
        <ele>3.2000000476837</ele>
        <time>2019-07-07T07:34:59.000Z</time>
      </trkpt>
      <trkpt lat="47.28911" lon="-2.38052">
        <ele>3.2000000476837</ele>
        <time>2019-07-07T07:35:00.000Z</time>
      </trkpt>
      <trkpt lat="47.28924" lon="-2.38089">
        <ele>3.2000000476837</ele>
        <time>2019-07-07T07:35:05.000Z</time>
      </trkpt>
      <trkpt lat="47.28925" lon="-2.38097">
        <ele>3.2000000476837</ele>
        <time>2019-07-07T07:35:06.000Z</time>
      </trkpt>
      <trkpt lat="47.28933" lon="-2.38141">
        <ele>3.2000000476837</ele>
        <time>2019-07-07T07:35:11.000Z</time>
      </trkpt>
      <trkpt lat="47.28939" lon="-2.38202">
        <ele>3.2000000476837</ele>
        <time>2019-07-07T07:35:18.000Z</time>
      </trkpt>
      <trkpt lat="47.2894" lon="-2.38256">
        <ele>3.2000000476837</ele>
        <time>2019-07-07T07:35:24.000Z</time>
      </trkpt>
      <trkpt lat="47.28936" lon="-2.38309">
        <ele>3.2000000476837</ele>
        <time>2019-07-07T07:35:30.000Z</time>
      </trkpt>
      <trkpt lat="47.28934" lon="-2.38351">
        <ele>3.2000000476837</ele>
        <time>2019-07-07T07:35:35.000Z</time>
      </trkpt>
      <trkpt lat="47.28937" lon="-2.38367">
        <ele>3.2000000476837</ele>
        <time>2019-07-07T07:35:37.000Z</time>
      </trkpt>
      <trkpt lat="47.28941" lon="-2.38392">
        <ele>3.2000000476837</ele>
        <time>2019-07-07T07:35:40.000Z</time>
      </trkpt>
      <trkpt lat="47.28941" lon="-2.38409">
        <ele>3.2000000476837</ele>
        <time>2019-07-07T07:35:42.000Z</time>
      </trkpt>
      <trkpt lat="47.28947" lon="-2.38478">
        <ele>3.2000000476837</ele>
        <time>2019-07-07T07:35:50.000Z</time>
      </trkpt>
      <trkpt lat="47.28954" lon="-2.38548">
        <ele>3.2000000476837</ele>
        <time>2019-07-07T07:35:58.000Z</time>
      </trkpt>
      <trkpt lat="47.28959" lon="-2.38617">
        <ele>3.2000000476837</ele>
        <time>2019-07-07T07:36:06.000Z</time>
      </trkpt>
      <trkpt lat="47.28961" lon="-2.38678">
        <ele>3.2000000476837</ele>
        <time>2019-07-07T07:36:13.000Z</time>
      </trkpt>
      <trkpt lat="47.28961" lon="-2.38749">
        <ele>3.2000000476837</ele>
        <time>2019-07-07T07:36:21.000Z</time>
      </trkpt>
      <trkpt lat="47.28962" lon="-2.38818">
        <ele>3.2000000476837</ele>
        <time>2019-07-07T07:36:29.000Z</time>
      </trkpt>
      <trkpt lat="47.28961" lon="-2.38881">
        <ele>3.2000000476837</ele>
        <time>2019-07-07T07:36:36.000Z</time>
      </trkpt>
      <trkpt lat="47.28958" lon="-2.38946">
        <ele>3.2000000476837</ele>
        <time>2019-07-07T07:36:43.000Z</time>
      </trkpt>
      <trkpt lat="47.28954" lon="-2.39">
        <ele>3.2000000476837</ele>
        <time>2019-07-07T07:36:49.000Z</time>
      </trkpt>
      <trkpt lat="47.28953" lon="-2.39019">
        <ele>3.2000000476837</ele>
        <time>2019-07-07T07:36:51.000Z</time>
      </trkpt>
      <trkpt lat="47.28949" lon="-2.39055">
        <ele>3.2000000476837</ele>
        <time>2019-07-07T07:36:55.000Z</time>
      </trkpt>
      <trkpt lat="47.28942" lon="-2.39117">
        <ele>3.2000000476837</ele>
        <time>2019-07-07T07:37:02.000Z</time>
      </trkpt>
      <trkpt lat="47.28935" lon="-2.39162">
        <ele>3.2000000476837</ele>
        <time>2019-07-07T07:37:07.000Z</time>
      </trkpt>
      <trkpt lat="47.28934" lon="-2.3918">
        <ele>3.2000000476837</ele>
        <time>2019-07-07T07:37:09.000Z</time>
      </trkpt>
      <trkpt lat="47.28935" lon="-2.39189">
        <ele>3.2000000476837</ele>
        <time>2019-07-07T07:37:10.000Z</time>
      </trkpt>
      <trkpt lat="47.28937" lon="-2.39235">
        <ele>3.2000000476837</ele>
        <time>2019-07-07T07:37:15.000Z</time>
      </trkpt>
      <trkpt lat="47.28939" lon="-2.3927">
        <ele>3.2000000476837</ele>
        <time>2019-07-07T07:37:19.000Z</time>
      </trkpt>
      <trkpt lat="47.28942" lon="-2.39278">
        <ele>3.2000000476837</ele>
        <time>2019-07-07T07:37:20.000Z</time>
      </trkpt>
      <trkpt lat="47.28958" lon="-2.39305">
        <ele>3.2000000476837</ele>
        <time>2019-07-07T07:37:24.000Z</time>
      </trkpt>
      <trkpt lat="47.28978" lon="-2.39312">
        <ele>3.2000000476837</ele>
        <time>2019-07-07T07:37:27.000Z</time>
      </trkpt>
      <trkpt lat="47.2901" lon="-2.39323">
        <ele>3.2000000476837</ele>
        <time>2019-07-07T07:37:32.000Z</time>
      </trkpt>
      <trkpt lat="47.29016" lon="-2.39326">
        <ele>3.2000000476837</ele>
        <time>2019-07-07T07:37:33.000Z</time>
      </trkpt>
      <trkpt lat="47.29061" lon="-2.39349">
        <ele>3.2000000476837</ele>
        <time>2019-07-07T07:37:41.000Z</time>
      </trkpt>
      <trkpt lat="47.29087" lon="-2.39363">
        <ele>3.2000000476837</ele>
        <time>2019-07-07T07:37:46.000Z</time>
      </trkpt>
      <trkpt lat="47.29096" lon="-2.3937">
        <ele>3.2000000476837</ele>
        <time>2019-07-07T07:37:48.000Z</time>
      </trkpt>
      <trkpt lat="47.291" lon="-2.39373">
        <ele>3.2000000476837</ele>
        <time>2019-07-07T07:37:49.000Z</time>
      </trkpt>
      <trkpt lat="47.29111" lon="-2.39372">
        <ele>3.2000000476837</ele>
        <time>2019-07-07T07:37:51.000Z</time>
      </trkpt>
      <trkpt lat="47.29128" lon="-2.39359">
        <ele>3.2000000476837</ele>
        <time>2019-07-07T07:37:54.000Z</time>
      </trkpt>
      <trkpt lat="47.29133" lon="-2.39353">
        <ele>3.2000000476837</ele>
        <time>2019-07-07T07:37:55.000Z</time>
      </trkpt>
      <trkpt lat="47.29169" lon="-2.39327">
        <ele>3.2000000476837</ele>
        <time>2019-07-07T07:38:01.000Z</time>
      </trkpt>
      <trkpt lat="47.29214" lon="-2.39315">
        <ele>3.2000000476837</ele>
        <time>2019-07-07T07:38:08.000Z</time>
      </trkpt>
      <trkpt lat="47.29242" lon="-2.39303">
        <ele>3.2000000476837</ele>
        <time>2019-07-07T07:38:13.000Z</time>
      </trkpt>
      <trkpt lat="47.29251" lon="-2.39309">
        <ele>3.2000000476837</ele>
        <time>2019-07-07T07:38:15.000Z</time>
      </trkpt>
      <trkpt lat="47.29256" lon="-2.3933">
        <ele>3.2000000476837</ele>
        <time>2019-07-07T07:38:18.000Z</time>
      </trkpt>
      <trkpt lat="47.29258" lon="-2.39346">
        <ele>3.2000000476837</ele>
        <time>2019-07-07T07:38:20.000Z</time>
      </trkpt>
      <trkpt lat="47.29258" lon="-2.39354">
        <ele>3.2000000476837</ele>
        <time>2019-07-07T07:38:21.000Z</time>
      </trkpt>
      <trkpt lat="47.29257" lon="-2.39371">
        <ele>3.2000000476837</ele>
        <time>2019-07-07T07:38:23.000Z</time>
      </trkpt>
      <trkpt lat="47.29254" lon="-2.39395">
        <ele>3.2000000476837</ele>
        <time>2019-07-07T07:38:26.000Z</time>
      </trkpt>
      <trkpt lat="47.29254" lon="-2.39412">
        <ele>3.2000000476837</ele>
        <time>2019-07-07T07:38:28.000Z</time>
      </trkpt>
      <trkpt lat="47.29256" lon="-2.3945">
        <ele>3.2000000476837</ele>
        <time>2019-07-07T07:38:33.000Z</time>
      </trkpt>
      <trkpt lat="47.29257" lon="-2.39456">
        <ele>3.2000000476837</ele>
        <time>2019-07-07T07:38:34.000Z</time>
      </trkpt>
      <trkpt lat="47.29261" lon="-2.39468">
        <ele>3.2000000476837</ele>
        <time>2019-07-07T07:38:38.000Z</time>
      </trkpt>
      <trkpt lat="47.29267" lon="-2.39466">
        <ele>3.2000000476837</ele>
        <time>2019-07-07T07:38:41.000Z</time>
      </trkpt>
      <trkpt lat="47.29274" lon="-2.39466">
        <ele>3.2000000476837</ele>
        <time>2019-07-07T07:38:43.000Z</time>
      </trkpt>
      <trkpt lat="47.29283" lon="-2.39466">
        <ele>3.2000000476837</ele>
        <time>2019-07-07T07:38:45.000Z</time>
      </trkpt>
      <trkpt lat="47.29295" lon="-2.3946">
        <ele>3.2000000476837</ele>
        <time>2019-07-07T07:38:49.000Z</time>
      </trkpt>
      <trkpt lat="47.293" lon="-2.39457">
        <ele>3.2000000476837</ele>
        <time>2019-07-07T07:38:51.000Z</time>
      </trkpt>
      <trkpt lat="47.29311" lon="-2.39456">
        <ele>3.2000000476837</ele>
        <time>2019-07-07T07:38:55.000Z</time>
      </trkpt>
      <trkpt lat="47.29327" lon="-2.39456">
        <ele>3.2000000476837</ele>
        <time>2019-07-07T07:39:01.000Z</time>
      </trkpt>
      <trkpt lat="47.29337" lon="-2.39454">
        <ele>3.2000000476837</ele>
        <time>2019-07-07T07:39:06.000Z</time>
      </trkpt>
      <trkpt lat="47.29349" lon="-2.39452">
        <ele>3.2000000476837</ele>
        <time>2019-07-07T07:39:11.000Z</time>
      </trkpt>
      <trkpt lat="47.29355" lon="-2.3945">
        <ele>3.2000000476837</ele>
        <time>2019-07-07T07:39:16.000Z</time>
      </trkpt>
      <trkpt lat="47.29356" lon="-2.39449">
        <ele>3.2000000476837</ele>
        <time>2019-07-07T07:39:17.000Z</time>
      </trkpt>
      <trkpt lat="47.29358" lon="-2.39446">
        <ele>3.2000000476837</ele>
        <time>2019-07-07T07:39:19.000Z</time>
      </trkpt>
      <trkpt lat="47.2936" lon="-2.39448">
        <ele>3.2000000476837</ele>
        <time>2019-07-07T07:39:21.000Z</time>
      </trkpt>
      <trkpt lat="47.2936" lon="-2.39448">
        <ele>3.2000000476837</ele>
        <time>2019-07-07T07:39:22.000Z</time>
      </trkpt>
      <trkpt lat="47.29361" lon="-2.39451">
        <ele>3.2000000476837</ele>
        <time>2019-07-07T07:39:50.000Z</time>
      </trkpt>
      <trkpt lat="47.29361" lon="-2.39453">
        <ele>3.2000000476837</ele>
        <time>2019-07-07T07:39:51.000Z</time>
      </trkpt>
      <trkpt lat="47.29354" lon="-2.39457">
        <ele>3.2000000476837</ele>
        <time>2019-07-07T07:39:55.000Z</time>
      </trkpt>
      <trkpt lat="47.29347" lon="-2.39455">
        <ele>3.2000000476837</ele>
        <time>2019-07-07T07:40:01.000Z</time>
      </trkpt>
      <trkpt lat="47.29349" lon="-2.39452">
        <ele>3.2000000476837</ele>
        <time>2019-07-07T07:40:05.000Z</time>
      </trkpt>
      <trkpt lat="47.29353" lon="-2.3945">
        <ele>3.2000000476837</ele>
        <time>2019-07-07T07:40:31.000Z</time>
      </trkpt>
      <trkpt lat="47.29361" lon="-2.39456">
        <ele>3.2000000476837</ele>
        <time>2019-07-07T07:40:35.000Z</time>
      </trkpt>
      <trkpt lat="47.29372" lon="-2.39462">
        <ele>3.2000000476837</ele>
        <time>2019-07-07T07:40:38.000Z</time>
      </trkpt>
      <trkpt lat="47.29381" lon="-2.39463">
        <ele>3.2000000476837</ele>
        <time>2019-07-07T07:40:40.000Z</time>
      </trkpt>
      <trkpt lat="47.29394" lon="-2.39462">
        <ele>3.2000000476837</ele>
        <time>2019-07-07T07:40:43.000Z</time>
      </trkpt>
      <trkpt lat="47.29404" lon="-2.39463">
        <ele>3.2000000476837</ele>
        <time>2019-07-07T07:40:45.000Z</time>
      </trkpt>
      <trkpt lat="47.29436" lon="-2.39467">
        <ele>3.2000000476837</ele>
        <time>2019-07-07T07:40:51.000Z</time>
      </trkpt>
      <trkpt lat="47.2947" lon="-2.39469">
        <ele>3.2000000476837</ele>
        <time>2019-07-07T07:40:57.000Z</time>
      </trkpt>
      <trkpt lat="47.29506" lon="-2.39468">
        <ele>3.2000000476837</ele>
        <time>2019-07-07T07:41:04.000Z</time>
      </trkpt>
      <trkpt lat="47.29528" lon="-2.39473">
        <ele>3.2000000476837</ele>
        <time>2019-07-07T07:41:09.000Z</time>
      </trkpt>
      <trkpt lat="47.29537" lon="-2.39476">
        <ele>3.2000000476837</ele>
        <time>2019-07-07T07:41:11.000Z</time>
      </trkpt>
      <trkpt lat="47.29558" lon="-2.39486">
        <ele>3.2000000476837</ele>
        <time>2019-07-07T07:41:16.000Z</time>
      </trkpt>
      <trkpt lat="47.29559" lon="-2.39491">
        <ele>3.2000000476837</ele>
        <time>2019-07-07T07:41:17.000Z</time>
      </trkpt>
      <trkpt lat="47.29556" lon="-2.39502">
        <ele>3.2000000476837</ele>
        <time>2019-07-07T07:41:19.000Z</time>
      </trkpt>
      <trkpt lat="47.29554" lon="-2.39512">
        <ele>3.2000000476837</ele>
        <time>2019-07-07T07:41:21.000Z</time>
      </trkpt>
      <trkpt lat="47.29553" lon="-2.39517">
        <ele>3.2000000476837</ele>
        <time>2019-07-07T07:41:22.000Z</time>
      </trkpt>
      <trkpt lat="47.29555" lon="-2.39534">
        <ele>3.2000000476837</ele>
        <time>2019-07-07T07:41:26.000Z</time>
      </trkpt>
      <trkpt lat="47.29557" lon="-2.39544">
        <ele>3.5999999046326</ele>
        <time>2019-07-07T07:41:30.000Z</time>
      </trkpt>
      <trkpt lat="47.29559" lon="-2.39545">
        <ele>4</ele>
        <time>2019-07-07T07:41:31.000Z</time>
      </trkpt>
      <trkpt lat="47.29562" lon="-2.39545">
        <ele>4.4000000953674</ele>
        <time>2019-07-07T07:41:32.000Z</time>
      </trkpt>
      <trkpt lat="47.29564" lon="-2.39545">
        <ele>4.8000001907349</ele>
        <time>2019-07-07T07:41:33.000Z</time>
      </trkpt>
      <trkpt lat="47.29567" lon="-2.39545">
        <ele>5.1999998092651</ele>
        <time>2019-07-07T07:41:34.000Z</time>
      </trkpt>
      <trkpt lat="47.2957" lon="-2.39545">
        <ele>5.1999998092651</ele>
        <time>2019-07-07T07:41:35.000Z</time>
      </trkpt>
      <trkpt lat="47.29584" lon="-2.39548">
        <ele>5.5999999046326</ele>
        <time>2019-07-07T07:41:40.000Z</time>
      </trkpt>
      <trkpt lat="47.29587" lon="-2.39548">
        <ele>6</ele>
        <time>2019-07-07T07:41:41.000Z</time>
      </trkpt>
      <trkpt lat="47.2959" lon="-2.39549">
        <ele>6.4000000953674</ele>
        <time>2019-07-07T07:41:42.000Z</time>
      </trkpt>
      <trkpt lat="47.29594" lon="-2.39549">
        <ele>6.8000001907349</ele>
        <time>2019-07-07T07:41:43.000Z</time>
      </trkpt>
      <trkpt lat="47.29597" lon="-2.3955">
        <ele>7.1999998092651</ele>
        <time>2019-07-07T07:41:44.000Z</time>
      </trkpt>
      <trkpt lat="47.29606" lon="-2.39551">
        <ele>7.1999998092651</ele>
        <time>2019-07-07T07:41:46.000Z</time>
      </trkpt>
      <trkpt lat="47.29622" lon="-2.39556">
        <ele>7.1999998092651</ele>
        <time>2019-07-07T07:41:50.000Z</time>
      </trkpt>
      <trkpt lat="47.2962" lon="-2.39563">
        <ele>7.1999998092651</ele>
        <time>2019-07-07T07:41:53.000Z</time>
      </trkpt>
      <trkpt lat="47.29614" lon="-2.39565">
        <ele>6.8000001907349</ele>
        <time>2019-07-07T07:41:55.000Z</time>
      </trkpt>
      <trkpt lat="47.29611" lon="-2.39566">
        <ele>6.4000000953674</ele>
        <time>2019-07-07T07:41:56.000Z</time>
      </trkpt>
      <trkpt lat="47.29608" lon="-2.39568">
        <ele>6</ele>
        <time>2019-07-07T07:41:57.000Z</time>
      </trkpt>
      <trkpt lat="47.29608" lon="-2.39571">
        <ele>5.4000000953674</ele>
        <time>2019-07-07T07:41:58.000Z</time>
      </trkpt>
      <trkpt lat="47.29609" lon="-2.39574">
        <ele>5</ele>
        <time>2019-07-07T07:41:59.000Z</time>
      </trkpt>
      <trkpt lat="47.29615" lon="-2.39576">
        <ele>5</ele>
        <time>2019-07-07T07:42:02.000Z</time>
      </trkpt>
      <trkpt lat="47.29621" lon="-2.39579">
        <ele>4.5999999046326</ele>
        <time>2019-07-07T07:42:04.000Z</time>
      </trkpt>
      <trkpt lat="47.29622" lon="-2.39583">
        <ele>3.5999999046326</ele>
        <time>2019-07-07T07:42:05.000Z</time>
      </trkpt>
      <trkpt lat="47.29623" lon="-2.39588">
        <ele>3</ele>
        <time>2019-07-07T07:42:06.000Z</time>
      </trkpt>
      <trkpt lat="47.29623" lon="-2.39592">
        <ele>2.5999999046326</ele>
        <time>2019-07-07T07:42:07.000Z</time>
      </trkpt>
      <trkpt lat="47.29623" lon="-2.39597">
        <ele>2.5999999046326</ele>
        <time>2019-07-07T07:42:08.000Z</time>
      </trkpt>
      <trkpt lat="47.29623" lon="-2.39607">
        <ele>2.5999999046326</ele>
        <time>2019-07-07T07:42:10.000Z</time>
      </trkpt>
      <trkpt lat="47.29625" lon="-2.39636">
        <ele>2.5999999046326</ele>
        <time>2019-07-07T07:42:15.000Z</time>
      </trkpt>
      <trkpt lat="47.29622" lon="-2.39654">
        <ele>2.5999999046326</ele>
        <time>2019-07-07T07:42:18.000Z</time>
      </trkpt>
      <trkpt lat="47.29614" lon="-2.39669">
        <ele>2.5999999046326</ele>
        <time>2019-07-07T07:42:21.000Z</time>
      </trkpt>
      <trkpt lat="47.2959" lon="-2.3971">
        <ele>2.5999999046326</ele>
        <time>2019-07-07T07:42:29.000Z</time>
      </trkpt>
      <trkpt lat="47.29585" lon="-2.3972">
        <ele>2.5999999046326</ele>
        <time>2019-07-07T07:42:31.000Z</time>
      </trkpt>
      <trkpt lat="47.29572" lon="-2.39747">
        <ele>2.5999999046326</ele>
        <time>2019-07-07T07:42:36.000Z</time>
      </trkpt>
      <trkpt lat="47.29559" lon="-2.39774">
        <ele>2.5999999046326</ele>
        <time>2019-07-07T07:42:41.000Z</time>
      </trkpt>
      <trkpt lat="47.29554" lon="-2.39786">
        <ele>2.5999999046326</ele>
        <time>2019-07-07T07:42:43.000Z</time>
      </trkpt>
      <trkpt lat="47.29538" lon="-2.39821">
        <ele>2.5999999046326</ele>
        <time>2019-07-07T07:42:49.000Z</time>
      </trkpt>
      <trkpt lat="47.29516" lon="-2.39865">
        <ele>2.5999999046326</ele>
        <time>2019-07-07T07:42:57.000Z</time>
      </trkpt>
      <trkpt lat="47.29504" lon="-2.39888">
        <ele>2.5999999046326</ele>
        <time>2019-07-07T07:43:01.000Z</time>
      </trkpt>
      <trkpt lat="47.29495" lon="-2.399">
        <ele>2.5999999046326</ele>
        <time>2019-07-07T07:43:04.000Z</time>
      </trkpt>
      <trkpt lat="47.29492" lon="-2.39902">
        <ele>2.5999999046326</ele>
        <time>2019-07-07T07:43:07.000Z</time>
      </trkpt>
      <trkpt lat="47.29491" lon="-2.39903">
        <ele>2.5999999046326</ele>
        <time>2019-07-07T07:43:21.000Z</time>
      </trkpt>
      <trkpt lat="47.29485" lon="-2.39916">
        <ele>2.5999999046326</ele>
        <time>2019-07-07T07:43:25.000Z</time>
      </trkpt>
      <trkpt lat="47.29485" lon="-2.3992">
        <ele>2.5999999046326</ele>
        <time>2019-07-07T07:43:26.000Z</time>
      </trkpt>
      <trkpt lat="47.29483" lon="-2.39931">
        <ele>2.5999999046326</ele>
        <time>2019-07-07T07:43:28.000Z</time>
      </trkpt>
      <trkpt lat="47.29471" lon="-2.3996">
        <ele>2.5999999046326</ele>
        <time>2019-07-07T07:43:33.000Z</time>
      </trkpt>
      <trkpt lat="47.29469" lon="-2.39966">
        <ele>2.5999999046326</ele>
        <time>2019-07-07T07:43:34.000Z</time>
      </trkpt>
      <trkpt lat="47.29464" lon="-2.3998">
        <ele>2.5999999046326</ele>
        <time>2019-07-07T07:43:36.000Z</time>
      </trkpt>
      <trkpt lat="47.29462" lon="-2.39987">
        <ele>2.5999999046326</ele>
        <time>2019-07-07T07:43:37.000Z</time>
      </trkpt>
      <trkpt lat="47.2946" lon="-2.40003">
        <ele>2.5999999046326</ele>
        <time>2019-07-07T07:43:39.000Z</time>
      </trkpt>
      <trkpt lat="47.2946" lon="-2.4001">
        <ele>2.2000000476837</ele>
        <time>2019-07-07T07:43:40.000Z</time>
      </trkpt>
      <trkpt lat="47.2946" lon="-2.40018">
        <ele>1.7999999523163</ele>
        <time>2019-07-07T07:43:41.000Z</time>
      </trkpt>
      <trkpt lat="47.29461" lon="-2.40026">
        <ele>1.3999999761581</ele>
        <time>2019-07-07T07:43:42.000Z</time>
      </trkpt>
      <trkpt lat="47.29462" lon="-2.40034">
        <ele>0.60000002384186</ele>
        <time>2019-07-07T07:43:43.000Z</time>
      </trkpt>
      <trkpt lat="47.29463" lon="-2.40043">
        <ele>0.60000002384186</ele>
        <time>2019-07-07T07:43:44.000Z</time>
      </trkpt>
      <trkpt lat="47.29462" lon="-2.40087">
        <ele>0.60000002384186</ele>
        <time>2019-07-07T07:43:49.000Z</time>
      </trkpt>
      <trkpt lat="47.29461" lon="-2.40096">
        <ele>0.60000002384186</ele>
        <time>2019-07-07T07:43:50.000Z</time>
      </trkpt>
      <trkpt lat="47.29456" lon="-2.40122">
        <ele>0.60000002384186</ele>
        <time>2019-07-07T07:43:53.000Z</time>
      </trkpt>
      <trkpt lat="47.29455" lon="-2.4014">
        <ele>0.60000002384186</ele>
        <time>2019-07-07T07:43:55.000Z</time>
      </trkpt>
      <trkpt lat="47.29453" lon="-2.40167">
        <ele>0.60000002384186</ele>
        <time>2019-07-07T07:43:58.000Z</time>
      </trkpt>
      <trkpt lat="47.29445" lon="-2.40212">
        <ele>0.60000002384186</ele>
        <time>2019-07-07T07:44:04.000Z</time>
      </trkpt>
      <trkpt lat="47.2944" lon="-2.40221">
        <ele>0.60000002384186</ele>
        <time>2019-07-07T07:44:06.000Z</time>
      </trkpt>
      <trkpt lat="47.29436" lon="-2.40222">
        <ele>0.60000002384186</ele>
        <time>2019-07-07T07:44:07.000Z</time>
      </trkpt>
      <trkpt lat="47.2942" lon="-2.40222">
        <ele>0.60000002384186</ele>
        <time>2019-07-07T07:44:11.000Z</time>
      </trkpt>
      <trkpt lat="47.2941" lon="-2.40227">
        <ele>0.60000002384186</ele>
        <time>2019-07-07T07:44:13.000Z</time>
      </trkpt>
      <trkpt lat="47.29391" lon="-2.40239">
        <ele>0.60000002384186</ele>
        <time>2019-07-07T07:44:17.000Z</time>
      </trkpt>
      <trkpt lat="47.2937" lon="-2.40252">
        <ele>0.60000002384186</ele>
        <time>2019-07-07T07:44:21.000Z</time>
      </trkpt>
      <trkpt lat="47.29361" lon="-2.40263">
        <ele>0.60000002384186</ele>
        <time>2019-07-07T07:44:23.000Z</time>
      </trkpt>
      <trkpt lat="47.29351" lon="-2.40272">
        <ele>0.60000002384186</ele>
        <time>2019-07-07T07:44:25.000Z</time>
      </trkpt>
      <trkpt lat="47.29332" lon="-2.40289">
        <ele>0.60000002384186</ele>
        <time>2019-07-07T07:44:29.000Z</time>
      </trkpt>
      <trkpt lat="47.29311" lon="-2.40314">
        <ele>0.60000002384186</ele>
        <time>2019-07-07T07:44:34.000Z</time>
      </trkpt>
      <trkpt lat="47.29306" lon="-2.40319">
        <ele>0.60000002384186</ele>
        <time>2019-07-07T07:44:35.000Z</time>
      </trkpt>
      <trkpt lat="47.29287" lon="-2.40339">
        <ele>0.60000002384186</ele>
        <time>2019-07-07T07:44:39.000Z</time>
      </trkpt>
      <trkpt lat="47.29285" lon="-2.40346">
        <ele>0.60000002384186</ele>
        <time>2019-07-07T07:44:40.000Z</time>
      </trkpt>
      <trkpt lat="47.29289" lon="-2.4037">
        <ele>0.60000002384186</ele>
        <time>2019-07-07T07:44:43.000Z</time>
      </trkpt>
      <trkpt lat="47.29296" lon="-2.40385">
        <ele>0.60000002384186</ele>
        <time>2019-07-07T07:44:45.000Z</time>
      </trkpt>
      <trkpt lat="47.29304" lon="-2.404">
        <ele>0.60000002384186</ele>
        <time>2019-07-07T07:44:47.000Z</time>
      </trkpt>
      <trkpt lat="47.29306" lon="-2.40408">
        <ele>0.60000002384186</ele>
        <time>2019-07-07T07:44:48.000Z</time>
      </trkpt>
      <trkpt lat="47.29303" lon="-2.40424">
        <ele>0.60000002384186</ele>
        <time>2019-07-07T07:44:50.000Z</time>
      </trkpt>
      <trkpt lat="47.29295" lon="-2.40447">
        <ele>0.60000002384186</ele>
        <time>2019-07-07T07:44:53.000Z</time>
      </trkpt>
      <trkpt lat="47.29289" lon="-2.40461">
        <ele>0.60000002384186</ele>
        <time>2019-07-07T07:44:55.000Z</time>
      </trkpt>
      <trkpt lat="47.29285" lon="-2.40466">
        <ele>0.60000002384186</ele>
        <time>2019-07-07T07:44:56.000Z</time>
      </trkpt>
      <trkpt lat="47.29268" lon="-2.40475">
        <ele>0.60000002384186</ele>
        <time>2019-07-07T07:44:59.000Z</time>
      </trkpt>
      <trkpt lat="47.29262" lon="-2.40477">
        <ele>0.60000002384186</ele>
        <time>2019-07-07T07:45:00.000Z</time>
      </trkpt>
      <trkpt lat="47.29235" lon="-2.40491">
        <ele>0.60000002384186</ele>
        <time>2019-07-07T07:45:05.000Z</time>
      </trkpt>
      <trkpt lat="47.292" lon="-2.40512">
        <ele>0.60000002384186</ele>
        <time>2019-07-07T07:45:12.000Z</time>
      </trkpt>
      <trkpt lat="47.29174" lon="-2.40521">
        <ele>0.60000002384186</ele>
        <time>2019-07-07T07:45:17.000Z</time>
      </trkpt>
      <trkpt lat="47.29169" lon="-2.40518">
        <ele>0.60000002384186</ele>
        <time>2019-07-07T07:45:18.000Z</time>
      </trkpt>
      <trkpt lat="47.29161" lon="-2.40498">
        <ele>0.60000002384186</ele>
        <time>2019-07-07T07:45:21.000Z</time>
      </trkpt>
      <trkpt lat="47.29158" lon="-2.40493">
        <ele>0.60000002384186</ele>
        <time>2019-07-07T07:45:22.000Z</time>
      </trkpt>
      <trkpt lat="47.29148" lon="-2.40487">
        <ele>0.60000002384186</ele>
        <time>2019-07-07T07:45:24.000Z</time>
      </trkpt>
      <trkpt lat="47.29131" lon="-2.40492">
        <ele>0.60000002384186</ele>
        <time>2019-07-07T07:45:27.000Z</time>
      </trkpt>
      <trkpt lat="47.29125" lon="-2.40495">
        <ele>0.60000002384186</ele>
        <time>2019-07-07T07:45:28.000Z</time>
      </trkpt>
      <trkpt lat="47.29106" lon="-2.4051">
        <ele>0.60000002384186</ele>
        <time>2019-07-07T07:45:32.000Z</time>
      </trkpt>
      <trkpt lat="47.29102" lon="-2.40516">
        <ele>0.60000002384186</ele>
        <time>2019-07-07T07:45:33.000Z</time>
      </trkpt>
      <trkpt lat="47.29098" lon="-2.4054">
        <ele>0.60000002384186</ele>
        <time>2019-07-07T07:45:36.000Z</time>
      </trkpt>
      <trkpt lat="47.29104" lon="-2.40553">
        <ele>0.60000002384186</ele>
        <time>2019-07-07T07:45:38.000Z</time>
      </trkpt>
      <trkpt lat="47.29115" lon="-2.40562">
        <ele>0.60000002384186</ele>
        <time>2019-07-07T07:45:40.000Z</time>
      </trkpt>
      <trkpt lat="47.29124" lon="-2.40573">
        <ele>0.60000002384186</ele>
        <time>2019-07-07T07:45:42.000Z</time>
      </trkpt>
      <trkpt lat="47.2914" lon="-2.40609">
        <ele>0.60000002384186</ele>
        <time>2019-07-07T07:45:47.000Z</time>
      </trkpt>
      <trkpt lat="47.29141" lon="-2.40626">
        <ele>0.60000002384186</ele>
        <time>2019-07-07T07:45:49.000Z</time>
      </trkpt>
      <trkpt lat="47.29144" lon="-2.4064">
        <ele>0.60000002384186</ele>
        <time>2019-07-07T07:45:51.000Z</time>
      </trkpt>
      <trkpt lat="47.29153" lon="-2.40645">
        <ele>0.60000002384186</ele>
        <time>2019-07-07T07:45:53.000Z</time>
      </trkpt>
      <trkpt lat="47.29171" lon="-2.40632">
        <ele>0.60000002384186</ele>
        <time>2019-07-07T07:45:57.000Z</time>
      </trkpt>
      <trkpt lat="47.292" lon="-2.40613">
        <ele>0.60000002384186</ele>
        <time>2019-07-07T07:46:03.000Z</time>
      </trkpt>
      <trkpt lat="47.29214" lon="-2.40625">
        <ele>0.60000002384186</ele>
        <time>2019-07-07T07:46:06.000Z</time>
      </trkpt>
      <trkpt lat="47.29224" lon="-2.40643">
        <ele>0.60000002384186</ele>
        <time>2019-07-07T07:46:09.000Z</time>
      </trkpt>
      <trkpt lat="47.2923" lon="-2.40657">
        <ele>0.60000002384186</ele>
        <time>2019-07-07T07:46:11.000Z</time>
      </trkpt>
      <trkpt lat="47.29232" lon="-2.40664">
        <ele>0.60000002384186</ele>
        <time>2019-07-07T07:46:12.000Z</time>
      </trkpt>
      <trkpt lat="47.29231" lon="-2.40687">
        <ele>0.60000002384186</ele>
        <time>2019-07-07T07:46:15.000Z</time>
      </trkpt>
      <trkpt lat="47.29226" lon="-2.40701">
        <ele>0.60000002384186</ele>
        <time>2019-07-07T07:46:17.000Z</time>
      </trkpt>
      <trkpt lat="47.2922" lon="-2.40713">
        <ele>0.60000002384186</ele>
        <time>2019-07-07T07:46:19.000Z</time>
      </trkpt>
      <trkpt lat="47.29216" lon="-2.40719">
        <ele>0.60000002384186</ele>
        <time>2019-07-07T07:46:20.000Z</time>
      </trkpt>
      <trkpt lat="47.29205" lon="-2.40736">
        <ele>0.60000002384186</ele>
        <time>2019-07-07T07:46:23.000Z</time>
      </trkpt>
      <trkpt lat="47.29189" lon="-2.4076">
        <ele>0.60000002384186</ele>
        <time>2019-07-07T07:46:27.000Z</time>
      </trkpt>
      <trkpt lat="47.29177" lon="-2.40794">
        <ele>0.60000002384186</ele>
        <time>2019-07-07T07:46:32.000Z</time>
      </trkpt>
      <trkpt lat="47.29173" lon="-2.40807">
        <ele>0.60000002384186</ele>
        <time>2019-07-07T07:46:34.000Z</time>
      </trkpt>
      <trkpt lat="47.2917" lon="-2.40831">
        <ele>0.60000002384186</ele>
        <time>2019-07-07T07:46:37.000Z</time>
      </trkpt>
      <trkpt lat="47.2917" lon="-2.40874">
        <ele>0.60000002384186</ele>
        <time>2019-07-07T07:46:42.000Z</time>
      </trkpt>
      <trkpt lat="47.29166" lon="-2.4089">
        <ele>0.60000002384186</ele>
        <time>2019-07-07T07:46:44.000Z</time>
      </trkpt>
      <trkpt lat="47.29162" lon="-2.40906">
        <ele>0.60000002384186</ele>
        <time>2019-07-07T07:46:46.000Z</time>
      </trkpt>
      <trkpt lat="47.29161" lon="-2.40915">
        <ele>0.60000002384186</ele>
        <time>2019-07-07T07:46:47.000Z</time>
      </trkpt>
      <trkpt lat="47.29166" lon="-2.40938">
        <ele>0.60000002384186</ele>
        <time>2019-07-07T07:46:50.000Z</time>
      </trkpt>
      <trkpt lat="47.29177" lon="-2.40946">
        <ele>0.60000002384186</ele>
        <time>2019-07-07T07:46:52.000Z</time>
      </trkpt>
      <trkpt lat="47.29189" lon="-2.40949">
        <ele>0.60000002384186</ele>
        <time>2019-07-07T07:46:54.000Z</time>
      </trkpt>
      <trkpt lat="47.29201" lon="-2.40953">
        <ele>0.60000002384186</ele>
        <time>2019-07-07T07:46:56.000Z</time>
      </trkpt>
      <trkpt lat="47.29215" lon="-2.40969">
        <ele>0.60000002384186</ele>
        <time>2019-07-07T07:46:59.000Z</time>
      </trkpt>
      <trkpt lat="47.29231" lon="-2.41011">
        <ele>0.60000002384186</ele>
        <time>2019-07-07T07:47:04.000Z</time>
      </trkpt>
      <trkpt lat="47.29244" lon="-2.4103">
        <ele>0.60000002384186</ele>
        <time>2019-07-07T07:47:07.000Z</time>
      </trkpt>
      <trkpt lat="47.29253" lon="-2.41041">
        <ele>0.60000002384186</ele>
        <time>2019-07-07T07:47:09.000Z</time>
      </trkpt>
      <trkpt lat="47.29255" lon="-2.41058">
        <ele>0.60000002384186</ele>
        <time>2019-07-07T07:47:11.000Z</time>
      </trkpt>
      <trkpt lat="47.29247" lon="-2.41072">
        <ele>0.60000002384186</ele>
        <time>2019-07-07T07:47:13.000Z</time>
      </trkpt>
      <trkpt lat="47.29246" lon="-2.41079">
        <ele>0.60000002384186</ele>
        <time>2019-07-07T07:47:14.000Z</time>
      </trkpt>
      <trkpt lat="47.29251" lon="-2.41095">
        <ele>0.60000002384186</ele>
        <time>2019-07-07T07:47:16.000Z</time>
      </trkpt>
      <trkpt lat="47.29269" lon="-2.4112">
        <ele>0.60000002384186</ele>
        <time>2019-07-07T07:47:20.000Z</time>
      </trkpt>
      <trkpt lat="47.29288" lon="-2.41146">
        <ele>0.60000002384186</ele>
        <time>2019-07-07T07:47:24.000Z</time>
      </trkpt>
      <trkpt lat="47.29295" lon="-2.41162">
        <ele>0.60000002384186</ele>
        <time>2019-07-07T07:47:26.000Z</time>
      </trkpt>
      <trkpt lat="47.29311" lon="-2.41197">
        <ele>0.60000002384186</ele>
        <time>2019-07-07T07:47:31.000Z</time>
      </trkpt>
      <trkpt lat="47.29321" lon="-2.41207">
        <ele>0.60000002384186</ele>
        <time>2019-07-07T07:47:33.000Z</time>
      </trkpt>
      <trkpt lat="47.29336" lon="-2.41224">
        <ele>0.60000002384186</ele>
        <time>2019-07-07T07:47:36.000Z</time>
      </trkpt>
      <trkpt lat="47.2935" lon="-2.41242">
        <ele>0.60000002384186</ele>
        <time>2019-07-07T07:47:39.000Z</time>
      </trkpt>
      <trkpt lat="47.29355" lon="-2.41258">
        <ele>0.60000002384186</ele>
        <time>2019-07-07T07:47:41.000Z</time>
      </trkpt>
      <trkpt lat="47.29356" lon="-2.41266">
        <ele>0.60000002384186</ele>
        <time>2019-07-07T07:47:42.000Z</time>
      </trkpt>
      <trkpt lat="47.2936" lon="-2.4129">
        <ele>0.60000002384186</ele>
        <time>2019-07-07T07:47:45.000Z</time>
      </trkpt>
      <trkpt lat="47.2936" lon="-2.41299">
        <ele>0.60000002384186</ele>
        <time>2019-07-07T07:47:46.000Z</time>
      </trkpt>
      <trkpt lat="47.29357" lon="-2.41314">
        <ele>0.60000002384186</ele>
        <time>2019-07-07T07:47:48.000Z</time>
      </trkpt>
      <trkpt lat="47.29351" lon="-2.41329">
        <ele>0.60000002384186</ele>
        <time>2019-07-07T07:47:50.000Z</time>
      </trkpt>
      <trkpt lat="47.29349" lon="-2.41336">
        <ele>0.60000002384186</ele>
        <time>2019-07-07T07:47:51.000Z</time>
      </trkpt>
      <trkpt lat="47.29349" lon="-2.41345">
        <ele>0.60000002384186</ele>
        <time>2019-07-07T07:47:52.000Z</time>
      </trkpt>
      <trkpt lat="47.29359" lon="-2.41366">
        <ele>0.60000002384186</ele>
        <time>2019-07-07T07:47:55.000Z</time>
      </trkpt>
      <trkpt lat="47.29368" lon="-2.41375">
        <ele>0.60000002384186</ele>
        <time>2019-07-07T07:47:57.000Z</time>
      </trkpt>
      <trkpt lat="47.29372" lon="-2.41381">
        <ele>0.60000002384186</ele>
        <time>2019-07-07T07:47:58.000Z</time>
      </trkpt>
      <trkpt lat="47.2938" lon="-2.41393">
        <ele>0.60000002384186</ele>
        <time>2019-07-07T07:48:00.000Z</time>
      </trkpt>
      <trkpt lat="47.29386" lon="-2.41406">
        <ele>0.60000002384186</ele>
        <time>2019-07-07T07:48:02.000Z</time>
      </trkpt>
      <trkpt lat="47.29399" lon="-2.41437">
        <ele>0.60000002384186</ele>
        <time>2019-07-07T07:48:06.000Z</time>
      </trkpt>
      <trkpt lat="47.29406" lon="-2.4145">
        <ele>0.60000002384186</ele>
        <time>2019-07-07T07:48:08.000Z</time>
      </trkpt>
      <trkpt lat="47.29419" lon="-2.41468">
        <ele>0.60000002384186</ele>
        <time>2019-07-07T07:48:11.000Z</time>
      </trkpt>
      <trkpt lat="47.29428" lon="-2.41479">
        <ele>0.60000002384186</ele>
        <time>2019-07-07T07:48:13.000Z</time>
      </trkpt>
      <trkpt lat="47.29444" lon="-2.41487">
        <ele>0.60000002384186</ele>
        <time>2019-07-07T07:48:16.000Z</time>
      </trkpt>
      <trkpt lat="47.2946" lon="-2.41485">
        <ele>0.60000002384186</ele>
        <time>2019-07-07T07:48:19.000Z</time>
      </trkpt>
      <trkpt lat="47.29465" lon="-2.41483">
        <ele>0.60000002384186</ele>
        <time>2019-07-07T07:48:20.000Z</time>
      </trkpt>
      <trkpt lat="47.29471" lon="-2.41483">
        <ele>0.60000002384186</ele>
        <time>2019-07-07T07:48:21.000Z</time>
      </trkpt>
      <trkpt lat="47.29481" lon="-2.41486">
        <ele>0.60000002384186</ele>
        <time>2019-07-07T07:48:23.000Z</time>
      </trkpt>
      <trkpt lat="47.29487" lon="-2.41486">
        <ele>0.60000002384186</ele>
        <time>2019-07-07T07:48:24.000Z</time>
      </trkpt>
      <trkpt lat="47.29498" lon="-2.41482">
        <ele>0.60000002384186</ele>
        <time>2019-07-07T07:48:26.000Z</time>
      </trkpt>
      <trkpt lat="47.29519" lon="-2.4148">
        <ele>0.60000002384186</ele>
        <time>2019-07-07T07:48:30.000Z</time>
      </trkpt>
      <trkpt lat="47.29531" lon="-2.41497">
        <ele>0.60000002384186</ele>
        <time>2019-07-07T07:48:33.000Z</time>
      </trkpt>
      <trkpt lat="47.29541" lon="-2.41519">
        <ele>0.60000002384186</ele>
        <time>2019-07-07T07:48:36.000Z</time>
      </trkpt>
      <trkpt lat="47.29543" lon="-2.41527">
        <ele>0.60000002384186</ele>
        <time>2019-07-07T07:48:37.000Z</time>
      </trkpt>
      <trkpt lat="47.29544" lon="-2.41535">
        <ele>0.60000002384186</ele>
        <time>2019-07-07T07:48:38.000Z</time>
      </trkpt>
      <trkpt lat="47.29538" lon="-2.41561">
        <ele>0.60000002384186</ele>
        <time>2019-07-07T07:48:41.000Z</time>
      </trkpt>
      <trkpt lat="47.29529" lon="-2.41585">
        <ele>0.60000002384186</ele>
        <time>2019-07-07T07:48:44.000Z</time>
      </trkpt>
      <trkpt lat="47.29528" lon="-2.41594">
        <ele>0.60000002384186</ele>
        <time>2019-07-07T07:48:45.000Z</time>
      </trkpt>
      <trkpt lat="47.29527" lon="-2.41603">
        <ele>0.60000002384186</ele>
        <time>2019-07-07T07:48:46.000Z</time>
      </trkpt>
      <trkpt lat="47.2953" lon="-2.41637">
        <ele>0.60000002384186</ele>
        <time>2019-07-07T07:48:50.000Z</time>
      </trkpt>
      <trkpt lat="47.29544" lon="-2.4168">
        <ele>0.60000002384186</ele>
        <time>2019-07-07T07:48:56.000Z</time>
      </trkpt>
      <trkpt lat="47.29553" lon="-2.417">
        <ele>0.60000002384186</ele>
        <time>2019-07-07T07:48:59.000Z</time>
      </trkpt>
      <trkpt lat="47.29566" lon="-2.41712">
        <ele>0.60000002384186</ele>
        <time>2019-07-07T07:49:02.000Z</time>
      </trkpt>
      <trkpt lat="47.29578" lon="-2.41715">
        <ele>0.60000002384186</ele>
        <time>2019-07-07T07:49:04.000Z</time>
      </trkpt>
      <trkpt lat="47.29583" lon="-2.41717">
        <ele>0.60000002384186</ele>
        <time>2019-07-07T07:49:05.000Z</time>
      </trkpt>
      <trkpt lat="47.29589" lon="-2.41721">
        <ele>0.60000002384186</ele>
        <time>2019-07-07T07:49:06.000Z</time>
      </trkpt>
      <trkpt lat="47.29594" lon="-2.41726">
        <ele>0.60000002384186</ele>
        <time>2019-07-07T07:49:07.000Z</time>
      </trkpt>
      <trkpt lat="47.29615" lon="-2.41746">
        <ele>0.60000002384186</ele>
        <time>2019-07-07T07:49:11.000Z</time>
      </trkpt>
      <trkpt lat="47.29633" lon="-2.41773">
        <ele>0.60000002384186</ele>
        <time>2019-07-07T07:49:15.000Z</time>
      </trkpt>
      <trkpt lat="47.29636" lon="-2.4178">
        <ele>0.60000002384186</ele>
        <time>2019-07-07T07:49:16.000Z</time>
      </trkpt>
      <trkpt lat="47.29639" lon="-2.41803">
        <ele>0.60000002384186</ele>
        <time>2019-07-07T07:49:19.000Z</time>
      </trkpt>
      <trkpt lat="47.29641" lon="-2.41811">
        <ele>0.60000002384186</ele>
        <time>2019-07-07T07:49:20.000Z</time>
      </trkpt>
      <trkpt lat="47.29651" lon="-2.41827">
        <ele>0.60000002384186</ele>
        <time>2019-07-07T07:49:23.000Z</time>
      </trkpt>
      <trkpt lat="47.29668" lon="-2.41826">
        <ele>0.60000002384186</ele>
        <time>2019-07-07T07:49:26.000Z</time>
      </trkpt>
      <trkpt lat="47.29673" lon="-2.41823">
        <ele>0.60000002384186</ele>
        <time>2019-07-07T07:49:27.000Z</time>
      </trkpt>
      <trkpt lat="47.29678" lon="-2.41822">
        <ele>0.60000002384186</ele>
        <time>2019-07-07T07:49:28.000Z</time>
      </trkpt>
      <trkpt lat="47.29689" lon="-2.41821">
        <ele>0.60000002384186</ele>
        <time>2019-07-07T07:49:30.000Z</time>
      </trkpt>
      <trkpt lat="47.29707" lon="-2.41806">
        <ele>0.60000002384186</ele>
        <time>2019-07-07T07:49:34.000Z</time>
      </trkpt>
      <trkpt lat="47.29717" lon="-2.41788">
        <ele>0.60000002384186</ele>
        <time>2019-07-07T07:49:37.000Z</time>
      </trkpt>
      <trkpt lat="47.29723" lon="-2.41778">
        <ele>0.60000002384186</ele>
        <time>2019-07-07T07:49:39.000Z</time>
      </trkpt>
      <trkpt lat="47.29726" lon="-2.41773">
        <ele>0.60000002384186</ele>
        <time>2019-07-07T07:49:40.000Z</time>
      </trkpt>
      <trkpt lat="47.29744" lon="-2.41753">
        <ele>0.60000002384186</ele>
        <time>2019-07-07T07:49:46.000Z</time>
      </trkpt>
      <trkpt lat="47.29756" lon="-2.41746">
        <ele>0.60000002384186</ele>
        <time>2019-07-07T07:49:51.000Z</time>
      </trkpt>
      <trkpt lat="47.29761" lon="-2.41744">
        <ele>0.60000002384186</ele>
        <time>2019-07-07T07:49:56.000Z</time>
      </trkpt>
      <trkpt lat="47.29765" lon="-2.41747">
        <ele>0.60000002384186</ele>
        <time>2019-07-07T07:55:12.000Z</time>
      </trkpt>
      <trkpt lat="47.29766" lon="-2.41753">
        <ele>0.60000002384186</ele>
        <time>2019-07-07T07:55:14.000Z</time>
      </trkpt>
      <trkpt lat="47.29769" lon="-2.41768">
        <ele>0.60000002384186</ele>
        <time>2019-07-07T07:55:17.000Z</time>
      </trkpt>
      <trkpt lat="47.2977" lon="-2.41774">
        <ele>0.60000002384186</ele>
        <time>2019-07-07T07:55:18.000Z</time>
      </trkpt>
      <trkpt lat="47.2977" lon="-2.4178">
        <ele>0.60000002384186</ele>
        <time>2019-07-07T07:55:19.000Z</time>
      </trkpt>
      <trkpt lat="47.2977" lon="-2.41817">
        <ele>0.60000002384186</ele>
        <time>2019-07-07T07:55:25.000Z</time>
      </trkpt>
      <trkpt lat="47.29774" lon="-2.41826">
        <ele>0.60000002384186</ele>
        <time>2019-07-07T07:55:27.000Z</time>
      </trkpt>
      <trkpt lat="47.29779" lon="-2.41828">
        <ele>0.60000002384186</ele>
        <time>2019-07-07T07:55:28.000Z</time>
      </trkpt>
      <trkpt lat="47.29793" lon="-2.4182">
        <ele>0.60000002384186</ele>
        <time>2019-07-07T07:55:31.000Z</time>
      </trkpt>
      <trkpt lat="47.29798" lon="-2.41815">
        <ele>0.60000002384186</ele>
        <time>2019-07-07T07:55:32.000Z</time>
      </trkpt>
      <trkpt lat="47.2982" lon="-2.41794">
        <ele>0.60000002384186</ele>
        <time>2019-07-07T07:55:37.000Z</time>
      </trkpt>
      <trkpt lat="47.29828" lon="-2.41783">
        <ele>0.60000002384186</ele>
        <time>2019-07-07T07:55:39.000Z</time>
      </trkpt>
      <trkpt lat="47.29845" lon="-2.41762">
        <ele>0.60000002384186</ele>
        <time>2019-07-07T07:55:43.000Z</time>
      </trkpt>
      <trkpt lat="47.29854" lon="-2.41756">
        <ele>0.60000002384186</ele>
        <time>2019-07-07T07:55:45.000Z</time>
      </trkpt>
      <trkpt lat="47.29865" lon="-2.41757">
        <ele>0.60000002384186</ele>
        <time>2019-07-07T07:55:47.000Z</time>
      </trkpt>
      <trkpt lat="47.29874" lon="-2.41763">
        <ele>0.60000002384186</ele>
        <time>2019-07-07T07:55:49.000Z</time>
      </trkpt>
      <trkpt lat="47.29885" lon="-2.41766">
        <ele>0.60000002384186</ele>
        <time>2019-07-07T07:55:51.000Z</time>
      </trkpt>
      <trkpt lat="47.2989" lon="-2.41764">
        <ele>0.60000002384186</ele>
        <time>2019-07-07T07:55:52.000Z</time>
      </trkpt>
      <trkpt lat="47.29908" lon="-2.41747">
        <ele>0.60000002384186</ele>
        <time>2019-07-07T07:55:56.000Z</time>
      </trkpt>
      <trkpt lat="47.29933" lon="-2.41724">
        <ele>0.60000002384186</ele>
        <time>2019-07-07T07:56:02.000Z</time>
      </trkpt>
      <trkpt lat="47.29939" lon="-2.41699">
        <ele>0.60000002384186</ele>
        <time>2019-07-07T07:56:06.000Z</time>
      </trkpt>
      <trkpt lat="47.29936" lon="-2.41671">
        <ele>0.60000002384186</ele>
        <time>2019-07-07T07:56:10.000Z</time>
      </trkpt>
      <trkpt lat="47.29935" lon="-2.41664">
        <ele>0.60000002384186</ele>
        <time>2019-07-07T07:56:11.000Z</time>
      </trkpt>
      <trkpt lat="47.2993" lon="-2.41632">
        <ele>0.60000002384186</ele>
        <time>2019-07-07T07:56:15.000Z</time>
      </trkpt>
      <trkpt lat="47.2993" lon="-2.41625">
        <ele>0.60000002384186</ele>
        <time>2019-07-07T07:56:16.000Z</time>
      </trkpt>
      <trkpt lat="47.29931" lon="-2.41601">
        <ele>0.60000002384186</ele>
        <time>2019-07-07T07:56:19.000Z</time>
      </trkpt>
      <trkpt lat="47.29929" lon="-2.41586">
        <ele>0.60000002384186</ele>
        <time>2019-07-07T07:56:21.000Z</time>
      </trkpt>
      <trkpt lat="47.29926" lon="-2.41563">
        <ele>0.60000002384186</ele>
        <time>2019-07-07T07:56:24.000Z</time>
      </trkpt>
      <trkpt lat="47.29928" lon="-2.41541">
        <ele>0.60000002384186</ele>
        <time>2019-07-07T07:56:27.000Z</time>
      </trkpt>
      <trkpt lat="47.29942" lon="-2.41525">
        <ele>0.60000002384186</ele>
        <time>2019-07-07T07:56:31.000Z</time>
      </trkpt>
      <trkpt lat="47.29959" lon="-2.41524">
        <ele>0.60000002384186</ele>
        <time>2019-07-07T07:56:34.000Z</time>
      </trkpt>
      <trkpt lat="47.2997" lon="-2.41524">
        <ele>0.60000002384186</ele>
        <time>2019-07-07T07:56:36.000Z</time>
      </trkpt>
      <trkpt lat="47.30003" lon="-2.41518">
        <ele>0.60000002384186</ele>
        <time>2019-07-07T07:56:42.000Z</time>
      </trkpt>
      <trkpt lat="47.30034" lon="-2.41505">
        <ele>0.60000002384186</ele>
        <time>2019-07-07T07:56:48.000Z</time>
      </trkpt>
      <trkpt lat="47.3004" lon="-2.41502">
        <ele>0.60000002384186</ele>
        <time>2019-07-07T07:56:49.000Z</time>
      </trkpt>
      <trkpt lat="47.30067" lon="-2.41486">
        <ele>0.60000002384186</ele>
        <time>2019-07-07T07:56:54.000Z</time>
      </trkpt>
      <trkpt lat="47.30083" lon="-2.41476">
        <ele>1</ele>
        <time>2019-07-07T07:56:57.000Z</time>
      </trkpt>
      <trkpt lat="47.30088" lon="-2.41473">
        <ele>1.3999999761581</ele>
        <time>2019-07-07T07:56:58.000Z</time>
      </trkpt>
      <trkpt lat="47.30093" lon="-2.41468">
        <ele>1.7999999523163</ele>
        <time>2019-07-07T07:56:59.000Z</time>
      </trkpt>
      <trkpt lat="47.30099" lon="-2.41466">
        <ele>2.2000000476837</ele>
        <time>2019-07-07T07:57:00.000Z</time>
      </trkpt>
      <trkpt lat="47.30104" lon="-2.41463">
        <ele>2.5999999046326</ele>
        <time>2019-07-07T07:57:01.000Z</time>
      </trkpt>
      <trkpt lat="47.3012" lon="-2.41454">
        <ele>2.5999999046326</ele>
        <time>2019-07-07T07:57:04.000Z</time>
      </trkpt>
      <trkpt lat="47.30136" lon="-2.41441">
        <ele>2.5999999046326</ele>
        <time>2019-07-07T07:57:07.000Z</time>
      </trkpt>
      <trkpt lat="47.30149" lon="-2.41413">
        <ele>2.5999999046326</ele>
        <time>2019-07-07T07:57:11.000Z</time>
      </trkpt>
      <trkpt lat="47.30175" lon="-2.41353">
        <ele>2.5999999046326</ele>
        <time>2019-07-07T07:57:19.000Z</time>
      </trkpt>
      <trkpt lat="47.30185" lon="-2.4133">
        <ele>2.5999999046326</ele>
        <time>2019-07-07T07:57:22.000Z</time>
      </trkpt>
      <trkpt lat="47.30195" lon="-2.41308">
        <ele>2.5999999046326</ele>
        <time>2019-07-07T07:57:25.000Z</time>
      </trkpt>
      <trkpt lat="47.30221" lon="-2.4127">
        <ele>2.5999999046326</ele>
        <time>2019-07-07T07:57:31.000Z</time>
      </trkpt>
      <trkpt lat="47.30252" lon="-2.41228">
        <ele>2.5999999046326</ele>
        <time>2019-07-07T07:57:38.000Z</time>
      </trkpt>
      <trkpt lat="47.30272" lon="-2.41185">
        <ele>2.5999999046326</ele>
        <time>2019-07-07T07:57:44.000Z</time>
      </trkpt>
      <trkpt lat="47.30296" lon="-2.41139">
        <ele>2.5999999046326</ele>
        <time>2019-07-07T07:57:51.000Z</time>
      </trkpt>
      <trkpt lat="47.30299" lon="-2.41134">
        <ele>2.2000000476837</ele>
        <time>2019-07-07T07:57:52.000Z</time>
      </trkpt>
      <trkpt lat="47.30303" lon="-2.41131">
        <ele>1.7999999523163</ele>
        <time>2019-07-07T07:57:53.000Z</time>
      </trkpt>
      <trkpt lat="47.30307" lon="-2.41131">
        <ele>1.3999999761581</ele>
        <time>2019-07-07T07:57:54.000Z</time>
      </trkpt>
      <trkpt lat="47.30312" lon="-2.41132">
        <ele>1</ele>
        <time>2019-07-07T07:57:55.000Z</time>
      </trkpt>
      <trkpt lat="47.30316" lon="-2.41133">
        <ele>0.60000002384186</ele>
        <time>2019-07-07T07:57:56.000Z</time>
      </trkpt>
      <trkpt lat="47.30331" lon="-2.41139">
        <ele>0.60000002384186</ele>
        <time>2019-07-07T07:57:59.000Z</time>
      </trkpt>
      <trkpt lat="47.30337" lon="-2.41142">
        <ele>0.60000002384186</ele>
        <time>2019-07-07T07:58:00.000Z</time>
      </trkpt>
      <trkpt lat="47.30357" lon="-2.41151">
        <ele>0.60000002384186</ele>
        <time>2019-07-07T07:58:04.000Z</time>
      </trkpt>
      <trkpt lat="47.30393" lon="-2.41159">
        <ele>0.60000002384186</ele>
        <time>2019-07-07T07:58:10.000Z</time>
      </trkpt>
      <trkpt lat="47.30433" lon="-2.41158">
        <ele>0.60000002384186</ele>
        <time>2019-07-07T07:58:17.000Z</time>
      </trkpt>
      <trkpt lat="47.30449" lon="-2.41177">
        <ele>0.60000002384186</ele>
        <time>2019-07-07T07:58:21.000Z</time>
      </trkpt>
      <trkpt lat="47.30454" lon="-2.41212">
        <ele>0.60000002384186</ele>
        <time>2019-07-07T07:58:25.000Z</time>
      </trkpt>
      <trkpt lat="47.30455" lon="-2.41221">
        <ele>0.60000002384186</ele>
        <time>2019-07-07T07:58:26.000Z</time>
      </trkpt>
      <trkpt lat="47.30465" lon="-2.41278">
        <ele>0.60000002384186</ele>
        <time>2019-07-07T07:58:32.000Z</time>
      </trkpt>
      <trkpt lat="47.30477" lon="-2.41332">
        <ele>0.60000002384186</ele>
        <time>2019-07-07T07:58:38.000Z</time>
      </trkpt>
      <trkpt lat="47.30491" lon="-2.41394">
        <ele>0.60000002384186</ele>
        <time>2019-07-07T07:58:45.000Z</time>
      </trkpt>
      <trkpt lat="47.30503" lon="-2.41444">
        <ele>0.60000002384186</ele>
        <time>2019-07-07T07:58:51.000Z</time>
      </trkpt>
      <trkpt lat="47.30499" lon="-2.41468">
        <ele>0.60000002384186</ele>
        <time>2019-07-07T07:58:54.000Z</time>
      </trkpt>
      <trkpt lat="47.30491" lon="-2.41482">
        <ele>0.60000002384186</ele>
        <time>2019-07-07T07:58:56.000Z</time>
      </trkpt>
      <trkpt lat="47.30488" lon="-2.41491">
        <ele>0.60000002384186</ele>
        <time>2019-07-07T07:58:57.000Z</time>
      </trkpt>
      <trkpt lat="47.30485" lon="-2.415">
        <ele>0.60000002384186</ele>
        <time>2019-07-07T07:58:58.000Z</time>
      </trkpt>
      <trkpt lat="47.30483" lon="-2.41529">
        <ele>0.60000002384186</ele>
        <time>2019-07-07T07:59:01.000Z</time>
      </trkpt>
      <trkpt lat="47.30489" lon="-2.41548">
        <ele>0.60000002384186</ele>
        <time>2019-07-07T07:59:03.000Z</time>
      </trkpt>
      <trkpt lat="47.30492" lon="-2.41556">
        <ele>0.60000002384186</ele>
        <time>2019-07-07T07:59:04.000Z</time>
      </trkpt>
      <trkpt lat="47.30496" lon="-2.41564">
        <ele>0.60000002384186</ele>
        <time>2019-07-07T07:59:05.000Z</time>
      </trkpt>
      <trkpt lat="47.305" lon="-2.41583">
        <ele>0.60000002384186</ele>
        <time>2019-07-07T07:59:07.000Z</time>
      </trkpt>
      <trkpt lat="47.30501" lon="-2.41602">
        <ele>0.60000002384186</ele>
        <time>2019-07-07T07:59:09.000Z</time>
      </trkpt>
      <trkpt lat="47.30507" lon="-2.41648">
        <ele>0.60000002384186</ele>
        <time>2019-07-07T07:59:14.000Z</time>
      </trkpt>
      <trkpt lat="47.3051" lon="-2.41657">
        <ele>0.60000002384186</ele>
        <time>2019-07-07T07:59:15.000Z</time>
      </trkpt>
      <trkpt lat="47.30522" lon="-2.41679">
        <ele>0.60000002384186</ele>
        <time>2019-07-07T07:59:18.000Z</time>
      </trkpt>
      <trkpt lat="47.3055" lon="-2.41717">
        <ele>0.60000002384186</ele>
        <time>2019-07-07T07:59:24.000Z</time>
      </trkpt>
      <trkpt lat="47.30575" lon="-2.4176">
        <ele>0.60000002384186</ele>
        <time>2019-07-07T07:59:30.000Z</time>
      </trkpt>
      <trkpt lat="47.30593" lon="-2.41809">
        <ele>0.60000002384186</ele>
        <time>2019-07-07T07:59:36.000Z</time>
      </trkpt>
      <trkpt lat="47.30621" lon="-2.4187">
        <ele>0.60000002384186</ele>
        <time>2019-07-07T07:59:44.000Z</time>
      </trkpt>
      <trkpt lat="47.30637" lon="-2.41912">
        <ele>0.60000002384186</ele>
        <time>2019-07-07T07:59:49.000Z</time>
      </trkpt>
      <trkpt lat="47.30639" lon="-2.41921">
        <ele>0.60000002384186</ele>
        <time>2019-07-07T07:59:50.000Z</time>
      </trkpt>
      <trkpt lat="47.30654" lon="-2.41976">
        <ele>0.60000002384186</ele>
        <time>2019-07-07T07:59:56.000Z</time>
      </trkpt>
      <trkpt lat="47.30659" lon="-2.41983">
        <ele>0.60000002384186</ele>
        <time>2019-07-07T07:59:57.000Z</time>
      </trkpt>
      <trkpt lat="47.30673" lon="-2.42003">
        <ele>0.60000002384186</ele>
        <time>2019-07-07T08:00:00.000Z</time>
      </trkpt>
      <trkpt lat="47.30684" lon="-2.42016">
        <ele>0.60000002384186</ele>
        <time>2019-07-07T08:00:02.000Z</time>
      </trkpt>
      <trkpt lat="47.30719" lon="-2.4205">
        <ele>0.60000002384186</ele>
        <time>2019-07-07T08:00:09.000Z</time>
      </trkpt>
      <trkpt lat="47.30739" lon="-2.4207">
        <ele>0.60000002384186</ele>
        <time>2019-07-07T08:00:13.000Z</time>
      </trkpt>
      <trkpt lat="47.30747" lon="-2.42085">
        <ele>0.60000002384186</ele>
        <time>2019-07-07T08:00:15.000Z</time>
      </trkpt>
      <trkpt lat="47.30777" lon="-2.42141">
        <ele>0.60000002384186</ele>
        <time>2019-07-07T08:00:23.000Z</time>
      </trkpt>
      <trkpt lat="47.30804" lon="-2.42188">
        <ele>0.60000002384186</ele>
        <time>2019-07-07T08:00:31.000Z</time>
      </trkpt>
      <trkpt lat="47.30817" lon="-2.42203">
        <ele>0.60000002384186</ele>
        <time>2019-07-07T08:00:34.000Z</time>
      </trkpt>
      <trkpt lat="47.30827" lon="-2.42208">
        <ele>0.60000002384186</ele>
        <time>2019-07-07T08:00:36.000Z</time>
      </trkpt>
      <trkpt lat="47.30838" lon="-2.42207">
        <ele>0.60000002384186</ele>
        <time>2019-07-07T08:00:38.000Z</time>
      </trkpt>
      <trkpt lat="47.30848" lon="-2.42207">
        <ele>0.60000002384186</ele>
        <time>2019-07-07T08:00:40.000Z</time>
      </trkpt>
      <trkpt lat="47.30853" lon="-2.42206">
        <ele>0.60000002384186</ele>
        <time>2019-07-07T08:00:41.000Z</time>
      </trkpt>
      <trkpt lat="47.30866" lon="-2.42201">
        <ele>0.60000002384186</ele>
        <time>2019-07-07T08:00:44.000Z</time>
      </trkpt>
      <trkpt lat="47.30879" lon="-2.42211">
        <ele>0.60000002384186</ele>
        <time>2019-07-07T08:00:47.000Z</time>
      </trkpt>
      <trkpt lat="47.30883" lon="-2.42217">
        <ele>0.60000002384186</ele>
        <time>2019-07-07T08:00:48.000Z</time>
      </trkpt>
      <trkpt lat="47.30903" lon="-2.42239">
        <ele>0.60000002384186</ele>
        <time>2019-07-07T08:00:52.000Z</time>
      </trkpt>
      <trkpt lat="47.30913" lon="-2.42247">
        <ele>0.60000002384186</ele>
        <time>2019-07-07T08:00:54.000Z</time>
      </trkpt>
      <trkpt lat="47.30923" lon="-2.42256">
        <ele>0.60000002384186</ele>
        <time>2019-07-07T08:00:56.000Z</time>
      </trkpt>
      <trkpt lat="47.30939" lon="-2.4227">
        <ele>0.60000002384186</ele>
        <time>2019-07-07T08:00:59.000Z</time>
      </trkpt>
      <trkpt lat="47.30946" lon="-2.42286">
        <ele>0.60000002384186</ele>
        <time>2019-07-07T08:01:01.000Z</time>
      </trkpt>
      <trkpt lat="47.3095" lon="-2.42303">
        <ele>0.60000002384186</ele>
        <time>2019-07-07T08:01:03.000Z</time>
      </trkpt>
      <trkpt lat="47.30955" lon="-2.42329">
        <ele>0.60000002384186</ele>
        <time>2019-07-07T08:01:06.000Z</time>
      </trkpt>
      <trkpt lat="47.30957" lon="-2.42338">
        <ele>0.60000002384186</ele>
        <time>2019-07-07T08:01:07.000Z</time>
      </trkpt>
      <trkpt lat="47.30974" lon="-2.4242">
        <ele>0.60000002384186</ele>
        <time>2019-07-07T08:01:16.000Z</time>
      </trkpt>
      <trkpt lat="47.30991" lon="-2.42488">
        <ele>0.60000002384186</ele>
        <time>2019-07-07T08:01:24.000Z</time>
      </trkpt>
      <trkpt lat="47.31006" lon="-2.4255">
        <ele>0.60000002384186</ele>
        <time>2019-07-07T08:01:31.000Z</time>
      </trkpt>
      <trkpt lat="47.31026" lon="-2.4263">
        <ele>0.60000002384186</ele>
        <time>2019-07-07T08:01:40.000Z</time>
      </trkpt>
      <trkpt lat="47.31044" lon="-2.42699">
        <ele>0.60000002384186</ele>
        <time>2019-07-07T08:01:48.000Z</time>
      </trkpt>
      <trkpt lat="47.31048" lon="-2.42726">
        <ele>0.60000002384186</ele>
        <time>2019-07-07T08:01:51.000Z</time>
      </trkpt>
      <trkpt lat="47.31042" lon="-2.42743">
        <ele>0.60000002384186</ele>
        <time>2019-07-07T08:01:53.000Z</time>
      </trkpt>
      <trkpt lat="47.31024" lon="-2.42756">
        <ele>0.60000002384186</ele>
        <time>2019-07-07T08:01:56.000Z</time>
      </trkpt>
      <trkpt lat="47.31003" lon="-2.4276">
        <ele>0.60000002384186</ele>
        <time>2019-07-07T08:01:59.000Z</time>
      </trkpt>
      <trkpt lat="47.30989" lon="-2.4276">
        <ele>0.60000002384186</ele>
        <time>2019-07-07T08:02:01.000Z</time>
      </trkpt>
      <trkpt lat="47.30937" lon="-2.42767">
        <ele>0.60000002384186</ele>
        <time>2019-07-07T08:02:09.000Z</time>
      </trkpt>
      <trkpt lat="47.30884" lon="-2.42774">
        <ele>0.60000002384186</ele>
        <time>2019-07-07T08:02:17.000Z</time>
      </trkpt>
      <trkpt lat="47.30832" lon="-2.4278">
        <ele>0.60000002384186</ele>
        <time>2019-07-07T08:02:25.000Z</time>
      </trkpt>
      <trkpt lat="47.3078" lon="-2.42788">
        <ele>0.60000002384186</ele>
        <time>2019-07-07T08:02:33.000Z</time>
      </trkpt>
      <trkpt lat="47.30734" lon="-2.42797">
        <ele>0.60000002384186</ele>
        <time>2019-07-07T08:02:40.000Z</time>
      </trkpt>
      <trkpt lat="47.30727" lon="-2.42801">
        <ele>0.60000002384186</ele>
        <time>2019-07-07T08:02:41.000Z</time>
      </trkpt>
      <trkpt lat="47.30709" lon="-2.42814">
        <ele>0.60000002384186</ele>
        <time>2019-07-07T08:02:44.000Z</time>
      </trkpt>
      <trkpt lat="47.30658" lon="-2.42858">
        <ele>0.60000002384186</ele>
        <time>2019-07-07T08:02:53.000Z</time>
      </trkpt>
      <trkpt lat="47.30652" lon="-2.42862">
        <ele>0.60000002384186</ele>
        <time>2019-07-07T08:02:54.000Z</time>
      </trkpt>
      <trkpt lat="47.30606" lon="-2.42899">
        <ele>0.60000002384186</ele>
        <time>2019-07-07T08:03:02.000Z</time>
      </trkpt>
      <trkpt lat="47.30566" lon="-2.42932">
        <ele>0.60000002384186</ele>
        <time>2019-07-07T08:03:09.000Z</time>
      </trkpt>
      <trkpt lat="47.30525" lon="-2.42964">
        <ele>0.60000002384186</ele>
        <time>2019-07-07T08:03:16.000Z</time>
      </trkpt>
      <trkpt lat="47.30485" lon="-2.42997">
        <ele>0.60000002384186</ele>
        <time>2019-07-07T08:03:23.000Z</time>
      </trkpt>
      <trkpt lat="47.30434" lon="-2.4304">
        <ele>0.60000002384186</ele>
        <time>2019-07-07T08:03:32.000Z</time>
      </trkpt>
      <trkpt lat="47.30398" lon="-2.43057">
        <ele>0.60000002384186</ele>
        <time>2019-07-07T08:03:38.000Z</time>
      </trkpt>
      <trkpt lat="47.30348" lon="-2.43067">
        <ele>0.60000002384186</ele>
        <time>2019-07-07T08:03:46.000Z</time>
      </trkpt>
      <trkpt lat="47.30306" lon="-2.43073">
        <ele>0.60000002384186</ele>
        <time>2019-07-07T08:03:53.000Z</time>
      </trkpt>
      <trkpt lat="47.30286" lon="-2.43074">
        <ele>0.60000002384186</ele>
        <time>2019-07-07T08:03:57.000Z</time>
      </trkpt>
      <trkpt lat="47.30281" lon="-2.43072">
        <ele>3</ele>
        <time>2019-07-07T08:03:58.000Z</time>
      </trkpt>
      <trkpt lat="47.30276" lon="-2.43071">
        <ele>-0.40000000596046</ele>
        <time>2019-07-07T08:03:59.000Z</time>
      </trkpt>
      <trkpt lat="47.30273" lon="-2.4307">
        <ele>-0.80000001192093</ele>
        <time>2019-07-07T08:04:00.000Z</time>
      </trkpt>
      <trkpt lat="47.30269" lon="-2.4307">
        <ele>-1.2000000476837</ele>
        <time>2019-07-07T08:04:01.000Z</time>
      </trkpt>
      <trkpt lat="47.30267" lon="-2.43071">
        <ele>-1.6000000238419</ele>
        <time>2019-07-07T08:04:02.000Z</time>
      </trkpt>
      <trkpt lat="47.30268" lon="-2.4307">
        <ele>-1.6000000238419</ele>
        <time>2019-07-07T08:04:03.000Z</time>
      </trkpt>
      <trkpt lat="47.30268" lon="-2.43071">
        <ele>-1.6000000238419</ele>
        <time>2019-07-07T08:04:04.000Z</time>
      </trkpt>
      <trkpt lat="47.30267" lon="-2.43074">
        <ele>-1.6000000238419</ele>
        <time>2019-07-07T08:05:28.000Z</time>
      </trkpt>
      <trkpt lat="47.30266" lon="-2.43079">
        <ele>-1.6000000238419</ele>
        <time>2019-07-07T08:05:30.000Z</time>
      </trkpt>
      <trkpt lat="47.30268" lon="-2.43095">
        <ele>-1.6000000238419</ele>
        <time>2019-07-07T08:05:34.000Z</time>
      </trkpt>
      <trkpt lat="47.30274" lon="-2.43126">
        <ele>-1.6000000238419</ele>
        <time>2019-07-07T08:05:39.000Z</time>
      </trkpt>
      <trkpt lat="47.30276" lon="-2.43133">
        <ele>-1.6000000238419</ele>
        <time>2019-07-07T08:05:40.000Z</time>
      </trkpt>
      <trkpt lat="47.30286" lon="-2.43148">
        <ele>-1.6000000238419</ele>
        <time>2019-07-07T08:05:43.000Z</time>
      </trkpt>
      <trkpt lat="47.30301" lon="-2.43155">
        <ele>-1.6000000238419</ele>
        <time>2019-07-07T08:05:46.000Z</time>
      </trkpt>
      <trkpt lat="47.30306" lon="-2.43158">
        <ele>-1.6000000238419</ele>
        <time>2019-07-07T08:05:47.000Z</time>
      </trkpt>
      <trkpt lat="47.30326" lon="-2.43178">
        <ele>-1.6000000238419</ele>
        <time>2019-07-07T08:05:52.000Z</time>
      </trkpt>
      <trkpt lat="47.3033" lon="-2.43184">
        <ele>-1.6000000238419</ele>
        <time>2019-07-07T08:05:53.000Z</time>
      </trkpt>
      <trkpt lat="47.30354" lon="-2.43223">
        <ele>-1.6000000238419</ele>
        <time>2019-07-07T08:06:00.000Z</time>
      </trkpt>
      <trkpt lat="47.30362" lon="-2.4323">
        <ele>-1.6000000238419</ele>
        <time>2019-07-07T08:06:02.000Z</time>
      </trkpt>
      <trkpt lat="47.30372" lon="-2.43234">
        <ele>-1.6000000238419</ele>
        <time>2019-07-07T08:06:04.000Z</time>
      </trkpt>
      <trkpt lat="47.30394" lon="-2.43252">
        <ele>-1.6000000238419</ele>
        <time>2019-07-07T08:06:09.000Z</time>
      </trkpt>
      <trkpt lat="47.30401" lon="-2.43274">
        <ele>-1.6000000238419</ele>
        <time>2019-07-07T08:06:12.000Z</time>
      </trkpt>
      <trkpt lat="47.30404" lon="-2.43281">
        <ele>-1.6000000238419</ele>
        <time>2019-07-07T08:06:13.000Z</time>
      </trkpt>
      <trkpt lat="47.30416" lon="-2.43338">
        <ele>-1.6000000238419</ele>
        <time>2019-07-07T08:06:20.000Z</time>
      </trkpt>
      <trkpt lat="47.30426" lon="-2.43393">
        <ele>-1.6000000238419</ele>
        <time>2019-07-07T08:06:27.000Z</time>
      </trkpt>
      <trkpt lat="47.30431" lon="-2.43414">
        <ele>-1.6000000238419</ele>
        <time>2019-07-07T08:06:30.000Z</time>
      </trkpt>
      <trkpt lat="47.30441" lon="-2.4342">
        <ele>-1.6000000238419</ele>
        <time>2019-07-07T08:06:32.000Z</time>
      </trkpt>
      <trkpt lat="47.30455" lon="-2.43415">
        <ele>-1.6000000238419</ele>
        <time>2019-07-07T08:06:35.000Z</time>
      </trkpt>
      <trkpt lat="47.3046" lon="-2.43412">
        <ele>-1.6000000238419</ele>
        <time>2019-07-07T08:06:36.000Z</time>
      </trkpt>
      <trkpt lat="47.30471" lon="-2.43409">
        <ele>-1.6000000238419</ele>
        <time>2019-07-07T08:06:38.000Z</time>
      </trkpt>
      <trkpt lat="47.30482" lon="-2.43409">
        <ele>-1.6000000238419</ele>
        <time>2019-07-07T08:06:40.000Z</time>
      </trkpt>
      <trkpt lat="47.30523" lon="-2.43413">
        <ele>-1.6000000238419</ele>
        <time>2019-07-07T08:06:47.000Z</time>
      </trkpt>
      <trkpt lat="47.30564" lon="-2.43419">
        <ele>-1.6000000238419</ele>
        <time>2019-07-07T08:06:54.000Z</time>
      </trkpt>
      <trkpt lat="47.3057" lon="-2.43418">
        <ele>-1.6000000238419</ele>
        <time>2019-07-07T08:06:55.000Z</time>
      </trkpt>
      <trkpt lat="47.30593" lon="-2.43413">
        <ele>-1.6000000238419</ele>
        <time>2019-07-07T08:06:59.000Z</time>
      </trkpt>
      <trkpt lat="47.30644" lon="-2.434">
        <ele>-1.6000000238419</ele>
        <time>2019-07-07T08:07:08.000Z</time>
      </trkpt>
      <trkpt lat="47.30679" lon="-2.43394">
        <ele>-1.6000000238419</ele>
        <time>2019-07-07T08:07:14.000Z</time>
      </trkpt>
      <trkpt lat="47.30715" lon="-2.4339">
        <ele>-1.6000000238419</ele>
        <time>2019-07-07T08:07:20.000Z</time>
      </trkpt>
      <trkpt lat="47.3076" lon="-2.43389">
        <ele>-1.6000000238419</ele>
        <time>2019-07-07T08:07:27.000Z</time>
      </trkpt>
      <trkpt lat="47.308" lon="-2.43388">
        <ele>-1.6000000238419</ele>
        <time>2019-07-07T08:07:34.000Z</time>
      </trkpt>
      <trkpt lat="47.30806" lon="-2.43387">
        <ele>-1.6000000238419</ele>
        <time>2019-07-07T08:07:35.000Z</time>
      </trkpt>
      <trkpt lat="47.30824" lon="-2.43382">
        <ele>-1.6000000238419</ele>
        <time>2019-07-07T08:07:38.000Z</time>
      </trkpt>
      <trkpt lat="47.3083" lon="-2.43379">
        <ele>-1.6000000238419</ele>
        <time>2019-07-07T08:07:39.000Z</time>
      </trkpt>
      <trkpt lat="47.30877" lon="-2.43358">
        <ele>-1.6000000238419</ele>
        <time>2019-07-07T08:07:47.000Z</time>
      </trkpt>
      <trkpt lat="47.30918" lon="-2.4334">
        <ele>-1.6000000238419</ele>
        <time>2019-07-07T08:07:54.000Z</time>
      </trkpt>
      <trkpt lat="47.30958" lon="-2.43324">
        <ele>-1.6000000238419</ele>
        <time>2019-07-07T08:08:01.000Z</time>
      </trkpt>
      <trkpt lat="47.31002" lon="-2.43301">
        <ele>-1.6000000238419</ele>
        <time>2019-07-07T08:08:09.000Z</time>
      </trkpt>
      <trkpt lat="47.31007" lon="-2.43296">
        <ele>-1.6000000238419</ele>
        <time>2019-07-07T08:08:10.000Z</time>
      </trkpt>
      <trkpt lat="47.31032" lon="-2.43264">
        <ele>-1.2000000476837</ele>
        <time>2019-07-07T08:08:16.000Z</time>
      </trkpt>
      <trkpt lat="47.31036" lon="-2.43258">
        <ele>-0.80000001192093</ele>
        <time>2019-07-07T08:08:17.000Z</time>
      </trkpt>
      <trkpt lat="47.3104" lon="-2.43252">
        <ele>-0.40000000596046</ele>
        <time>2019-07-07T08:08:18.000Z</time>
      </trkpt>
      <trkpt lat="47.31044" lon="-2.43246">
        <ele>4.6</ele>
        <time>2019-07-07T08:08:19.000Z</time>
      </trkpt>
      <trkpt lat="47.31048" lon="-2.43241">
        <ele>0.40000000596046</ele>
        <time>2019-07-07T08:08:20.000Z</time>
      </trkpt>
      <trkpt lat="47.31061" lon="-2.43227">
        <ele>0.40000000596046</ele>
        <time>2019-07-07T08:08:23.000Z</time>
      </trkpt>
      <trkpt lat="47.31091" lon="-2.43203">
        <ele>0.40000000596046</ele>
        <time>2019-07-07T08:08:30.000Z</time>
      </trkpt>
      <trkpt lat="47.3111" lon="-2.43191">
        <ele>0.40000000596046</ele>
        <time>2019-07-07T08:08:36.000Z</time>
      </trkpt>
      <trkpt lat="47.31113" lon="-2.43193">
        <ele>0.40000000596046</ele>
        <time>2019-07-07T08:08:37.000Z</time>
      </trkpt>
      <trkpt lat="47.31121" lon="-2.432">
        <ele>0.40000000596046</ele>
        <time>2019-07-07T08:08:39.000Z</time>
      </trkpt>
      <trkpt lat="47.31128" lon="-2.4321">
        <ele>0.40000000596046</ele>
        <time>2019-07-07T08:08:41.000Z</time>
      </trkpt>
      <trkpt lat="47.31138" lon="-2.43226">
        <ele>0.40000000596046</ele>
        <time>2019-07-07T08:08:44.000Z</time>
      </trkpt>
      <trkpt lat="47.31163" lon="-2.43264">
        <ele>0.40000000596046</ele>
        <time>2019-07-07T08:08:51.000Z</time>
      </trkpt>
      <trkpt lat="47.31191" lon="-2.43317">
        <ele>0.40000000596046</ele>
        <time>2019-07-07T08:08:59.000Z</time>
      </trkpt>
      <trkpt lat="47.31203" lon="-2.43369">
        <ele>0.40000000596046</ele>
        <time>2019-07-07T08:09:05.000Z</time>
      </trkpt>
      <trkpt lat="47.31211" lon="-2.43435">
        <ele>0.40000000596046</ele>
        <time>2019-07-07T08:09:12.000Z</time>
      </trkpt>
      <trkpt lat="47.31222" lon="-2.43506">
        <ele>0.40000000596046</ele>
        <time>2019-07-07T08:09:20.000Z</time>
      </trkpt>
      <trkpt lat="47.31233" lon="-2.43586">
        <ele>0.40000000596046</ele>
        <time>2019-07-07T08:09:29.000Z</time>
      </trkpt>
      <trkpt lat="47.31234" lon="-2.43595">
        <ele>0.40000000596046</ele>
        <time>2019-07-07T08:09:30.000Z</time>
      </trkpt>
      <trkpt lat="47.31247" lon="-2.43668">
        <ele>0.40000000596046</ele>
        <time>2019-07-07T08:09:38.000Z</time>
      </trkpt>
      <trkpt lat="47.3125" lon="-2.43678">
        <ele>0.40000000596046</ele>
        <time>2019-07-07T08:09:39.000Z</time>
      </trkpt>
      <trkpt lat="47.31261" lon="-2.43713">
        <ele>0.40000000596046</ele>
        <time>2019-07-07T08:09:43.000Z</time>
      </trkpt>
      <trkpt lat="47.31291" lon="-2.43787">
        <ele>0.40000000596046</ele>
        <time>2019-07-07T08:09:52.000Z</time>
      </trkpt>
      <trkpt lat="47.31303" lon="-2.4381">
        <ele>0.40000000596046</ele>
        <time>2019-07-07T08:09:55.000Z</time>
      </trkpt>
      <trkpt lat="47.31312" lon="-2.43821">
        <ele>0.40000000596046</ele>
        <time>2019-07-07T08:09:57.000Z</time>
      </trkpt>
      <trkpt lat="47.31328" lon="-2.43848">
        <ele>0.40000000596046</ele>
        <time>2019-07-07T08:10:01.000Z</time>
      </trkpt>
      <trkpt lat="47.31336" lon="-2.43864">
        <ele>0.40000000596046</ele>
        <time>2019-07-07T08:10:03.000Z</time>
      </trkpt>
      <trkpt lat="47.3136" lon="-2.43928">
        <ele>0.40000000596046</ele>
        <time>2019-07-07T08:10:11.000Z</time>
      </trkpt>
      <trkpt lat="47.31382" lon="-2.43972">
        <ele>0.40000000596046</ele>
        <time>2019-07-07T08:10:17.000Z</time>
      </trkpt>
      <trkpt lat="47.31417" lon="-2.44018">
        <ele>0.40000000596046</ele>
        <time>2019-07-07T08:10:24.000Z</time>
      </trkpt>
      <trkpt lat="47.31459" lon="-2.44072">
        <ele>0.40000000596046</ele>
        <time>2019-07-07T08:10:32.000Z</time>
      </trkpt>
      <trkpt lat="47.31491" lon="-2.44114">
        <ele>0.40000000596046</ele>
        <time>2019-07-07T08:10:39.000Z</time>
      </trkpt>
      <trkpt lat="47.31522" lon="-2.44157">
        <ele>0.40000000596046</ele>
        <time>2019-07-07T08:10:46.000Z</time>
      </trkpt>
      <trkpt lat="47.31536" lon="-2.44187">
        <ele>0.40000000596046</ele>
        <time>2019-07-07T08:10:50.000Z</time>
      </trkpt>
      <trkpt lat="47.31542" lon="-2.44204">
        <ele>0.40000000596046</ele>
        <time>2019-07-07T08:10:52.000Z</time>
      </trkpt>
      <trkpt lat="47.31555" lon="-2.44261">
        <ele>0.40000000596046</ele>
        <time>2019-07-07T08:10:58.000Z</time>
      </trkpt>
      <trkpt lat="47.31563" lon="-2.44319">
        <ele>0.40000000596046</ele>
        <time>2019-07-07T08:11:04.000Z</time>
      </trkpt>
      <trkpt lat="47.3157" lon="-2.44368">
        <ele>3.4</ele>
        <time>2019-07-07T08:11:09.000Z</time>
      </trkpt>
      <trkpt lat="47.31572" lon="-2.44378">
        <ele>-0.40000000596046</ele>
        <time>2019-07-07T08:11:10.000Z</time>
      </trkpt>
      <trkpt lat="47.31573" lon="-2.44387">
        <ele>-0.80000001192093</ele>
        <time>2019-07-07T08:11:11.000Z</time>
      </trkpt>
      <trkpt lat="47.31575" lon="-2.44396">
        <ele>-1.2000000476837</ele>
        <time>2019-07-07T08:11:12.000Z</time>
      </trkpt>
      <trkpt lat="47.31576" lon="-2.44406">
        <ele>-1.6000000238419</ele>
        <time>2019-07-07T08:11:13.000Z</time>
      </trkpt>
      <trkpt lat="47.3158" lon="-2.44432">
        <ele>-1.6000000238419</ele>
        <time>2019-07-07T08:11:16.000Z</time>
      </trkpt>
      <trkpt lat="47.31581" lon="-2.4444">
        <ele>-1.6000000238419</ele>
        <time>2019-07-07T08:11:17.000Z</time>
      </trkpt>
      <trkpt lat="47.31585" lon="-2.44472">
        <ele>-1.6000000238419</ele>
        <time>2019-07-07T08:11:21.000Z</time>
      </trkpt>
      <trkpt lat="47.31589" lon="-2.44489">
        <ele>-1.6000000238419</ele>
        <time>2019-07-07T08:11:23.000Z</time>
      </trkpt>
      <trkpt lat="47.3161" lon="-2.44536">
        <ele>-1.6000000238419</ele>
        <time>2019-07-07T08:11:29.000Z</time>
      </trkpt>
      <trkpt lat="47.31635" lon="-2.44577">
        <ele>-1.6000000238419</ele>
        <time>2019-07-07T08:11:35.000Z</time>
      </trkpt>
      <trkpt lat="47.31658" lon="-2.44621">
        <ele>-1.6000000238419</ele>
        <time>2019-07-07T08:11:41.000Z</time>
      </trkpt>
      <trkpt lat="47.31675" lon="-2.44662">
        <ele>-1.6000000238419</ele>
        <time>2019-07-07T08:11:46.000Z</time>
      </trkpt>
      <trkpt lat="47.31704" lon="-2.44732">
        <ele>-1.6000000238419</ele>
        <time>2019-07-07T08:11:55.000Z</time>
      </trkpt>
      <trkpt lat="47.31727" lon="-2.44789">
        <ele>-1.6000000238419</ele>
        <time>2019-07-07T08:12:02.000Z</time>
      </trkpt>
      <trkpt lat="47.31745" lon="-2.44837">
        <ele>-1.6000000238419</ele>
        <time>2019-07-07T08:12:08.000Z</time>
      </trkpt>
      <trkpt lat="47.31748" lon="-2.44845">
        <ele>-1.6000000238419</ele>
        <time>2019-07-07T08:12:09.000Z</time>
      </trkpt>
      <trkpt lat="47.3177" lon="-2.44903">
        <ele>-1.6000000238419</ele>
        <time>2019-07-07T08:12:16.000Z</time>
      </trkpt>
      <trkpt lat="47.31796" lon="-2.4496">
        <ele>-1.6000000238419</ele>
        <time>2019-07-07T08:12:23.000Z</time>
      </trkpt>
      <trkpt lat="47.31818" lon="-2.45006">
        <ele>-1.6000000238419</ele>
        <time>2019-07-07T08:12:29.000Z</time>
      </trkpt>
      <trkpt lat="47.31836" lon="-2.45055">
        <ele>-1.6000000238419</ele>
        <time>2019-07-07T08:12:35.000Z</time>
      </trkpt>
      <trkpt lat="47.3185" lon="-2.45105">
        <ele>-1.6000000238419</ele>
        <time>2019-07-07T08:12:41.000Z</time>
      </trkpt>
      <trkpt lat="47.31863" lon="-2.45165">
        <ele>-1.6000000238419</ele>
        <time>2019-07-07T08:12:48.000Z</time>
      </trkpt>
      <trkpt lat="47.3187" lon="-2.45195">
        <ele>-1.6000000238419</ele>
        <time>2019-07-07T08:12:52.000Z</time>
      </trkpt>
      <trkpt lat="47.31873" lon="-2.45201">
        <ele>-1.6000000238419</ele>
        <time>2019-07-07T08:12:53.000Z</time>
      </trkpt>
      <trkpt lat="47.319" lon="-2.45248">
        <ele>-1.6000000238419</ele>
        <time>2019-07-07T08:13:00.000Z</time>
      </trkpt>
      <trkpt lat="47.31931" lon="-2.45297">
        <ele>-1.6000000238419</ele>
        <time>2019-07-07T08:13:07.000Z</time>
      </trkpt>
      <trkpt lat="47.31941" lon="-2.45307">
        <ele>-1.6000000238419</ele>
        <time>2019-07-07T08:13:09.000Z</time>
      </trkpt>
      <trkpt lat="47.31953" lon="-2.45311">
        <ele>-1.6000000238419</ele>
        <time>2019-07-07T08:13:11.000Z</time>
      </trkpt>
      <trkpt lat="47.31971" lon="-2.45304">
        <ele>-1.6000000238419</ele>
        <time>2019-07-07T08:13:14.000Z</time>
      </trkpt>
      <trkpt lat="47.31992" lon="-2.45288">
        <ele>-1.6000000238419</ele>
        <time>2019-07-07T08:13:18.000Z</time>
      </trkpt>
      <trkpt lat="47.3201" lon="-2.4529">
        <ele>-1.6000000238419</ele>
        <time>2019-07-07T08:13:21.000Z</time>
      </trkpt>
      <trkpt lat="47.32021" lon="-2.45298">
        <ele>-1.6000000238419</ele>
        <time>2019-07-07T08:13:23.000Z</time>
      </trkpt>
      <trkpt lat="47.32043" lon="-2.45315">
        <ele>-1.6000000238419</ele>
        <time>2019-07-07T08:13:27.000Z</time>
      </trkpt>
      <trkpt lat="47.32085" lon="-2.45346">
        <ele>-1.6000000238419</ele>
        <time>2019-07-07T08:13:35.000Z</time>
      </trkpt>
      <trkpt lat="47.32122" lon="-2.45374">
        <ele>-1.6000000238419</ele>
        <time>2019-07-07T08:13:42.000Z</time>
      </trkpt>
      <trkpt lat="47.32137" lon="-2.45386">
        <ele>-1.2000000476837</ele>
        <time>2019-07-07T08:13:45.000Z</time>
      </trkpt>
      <trkpt lat="47.32143" lon="-2.4539">
        <ele>-0.80000001192093</ele>
        <time>2019-07-07T08:13:46.000Z</time>
      </trkpt>
      <trkpt lat="47.32148" lon="-2.45393">
        <ele>5.3</ele>
        <time>2019-07-07T08:13:47.000Z</time>
      </trkpt>
      <trkpt lat="47.32153" lon="-2.45398">
        <ele>0.40000000596046</ele>
        <time>2019-07-07T08:13:48.000Z</time>
      </trkpt>
      <trkpt lat="47.32164" lon="-2.45407">
        <ele>0.40000000596046</ele>
        <time>2019-07-07T08:13:50.000Z</time>
      </trkpt>
      <trkpt lat="47.32191" lon="-2.45427">
        <ele>0.40000000596046</ele>
        <time>2019-07-07T08:13:55.000Z</time>
      </trkpt>
      <trkpt lat="47.32213" lon="-2.4544">
        <ele>0.40000000596046</ele>
        <time>2019-07-07T08:13:59.000Z</time>
      </trkpt>
      <trkpt lat="47.32226" lon="-2.45443">
        <ele>0.40000000596046</ele>
        <time>2019-07-07T08:14:01.000Z</time>
      </trkpt>
      <trkpt lat="47.32249" lon="-2.45437">
        <ele>0.40000000596046</ele>
        <time>2019-07-07T08:14:05.000Z</time>
      </trkpt>
      <trkpt lat="47.32287" lon="-2.45419">
        <ele>0.40000000596046</ele>
        <time>2019-07-07T08:14:12.000Z</time>
      </trkpt>
      <trkpt lat="47.32301" lon="-2.45415">
        <ele>0.40000000596046</ele>
        <time>2019-07-07T08:14:15.000Z</time>
      </trkpt>
      <trkpt lat="47.32307" lon="-2.45416">
        <ele>0.40000000596046</ele>
        <time>2019-07-07T08:14:16.000Z</time>
      </trkpt>
      <trkpt lat="47.32316" lon="-2.45423">
        <ele>1</ele>
        <time>2019-07-07T08:14:18.000Z</time>
      </trkpt>
      <trkpt lat="47.32321" lon="-2.45429">
        <ele>1.3999999761581</ele>
        <time>2019-07-07T08:14:19.000Z</time>
      </trkpt>
      <trkpt lat="47.32325" lon="-2.45434">
        <ele>1.7999999523163</ele>
        <time>2019-07-07T08:14:20.000Z</time>
      </trkpt>
      <trkpt lat="47.32328" lon="-2.4544">
        <ele>2.4000000953674</ele>
        <time>2019-07-07T08:14:21.000Z</time>
      </trkpt>
      <trkpt lat="47.32332" lon="-2.45445">
        <ele>2.7999999523163</ele>
        <time>2019-07-07T08:14:22.000Z</time>
      </trkpt>
      <trkpt lat="47.32341" lon="-2.45463">
        <ele>2.7999999523163</ele>
        <time>2019-07-07T08:14:25.000Z</time>
      </trkpt>
      <trkpt lat="47.32365" lon="-2.45499">
        <ele>2.7999999523163</ele>
        <time>2019-07-07T08:14:31.000Z</time>
      </trkpt>
      <trkpt lat="47.32381" lon="-2.45528">
        <ele>2.7999999523163</ele>
        <time>2019-07-07T08:14:36.000Z</time>
      </trkpt>
      <trkpt lat="47.32397" lon="-2.45559">
        <ele>2.7999999523163</ele>
        <time>2019-07-07T08:14:42.000Z</time>
      </trkpt>
      <trkpt lat="47.32413" lon="-2.45573">
        <ele>2.7999999523163</ele>
        <time>2019-07-07T08:14:47.000Z</time>
      </trkpt>
      <trkpt lat="47.32416" lon="-2.4558">
        <ele>2.7999999523163</ele>
        <time>2019-07-07T08:14:49.000Z</time>
      </trkpt>
      <trkpt lat="47.32417" lon="-2.45591">
        <ele>2.7999999523163</ele>
        <time>2019-07-07T08:14:51.000Z</time>
      </trkpt>
      <trkpt lat="47.32418" lon="-2.45597">
        <ele>2.7999999523163</ele>
        <time>2019-07-07T08:14:52.000Z</time>
      </trkpt>
      <trkpt lat="47.32423" lon="-2.45614">
        <ele>2.7999999523163</ele>
        <time>2019-07-07T08:14:55.000Z</time>
      </trkpt>
      <trkpt lat="47.32446" lon="-2.45653">
        <ele>2.7999999523163</ele>
        <time>2019-07-07T08:15:02.000Z</time>
      </trkpt>
      <trkpt lat="47.32468" lon="-2.45687">
        <ele>2.7999999523163</ele>
        <time>2019-07-07T08:15:07.000Z</time>
      </trkpt>
      <trkpt lat="47.32497" lon="-2.45738">
        <ele>2.7999999523163</ele>
        <time>2019-07-07T08:15:14.000Z</time>
      </trkpt>
      <trkpt lat="47.3252" lon="-2.45779">
        <ele>2.7999999523163</ele>
        <time>2019-07-07T08:15:20.000Z</time>
      </trkpt>
      <trkpt lat="47.32541" lon="-2.45815">
        <ele>2.7999999523163</ele>
        <time>2019-07-07T08:15:26.000Z</time>
      </trkpt>
      <trkpt lat="47.32545" lon="-2.4582">
        <ele>2.7999999523163</ele>
        <time>2019-07-07T08:15:27.000Z</time>
      </trkpt>
      <trkpt lat="47.32556" lon="-2.45834">
        <ele>2.7999999523163</ele>
        <time>2019-07-07T08:15:30.000Z</time>
      </trkpt>
      <trkpt lat="47.3256" lon="-2.45839">
        <ele>2.7999999523163</ele>
        <time>2019-07-07T08:15:31.000Z</time>
      </trkpt>
      <trkpt lat="47.32579" lon="-2.45875">
        <ele>2.7999999523163</ele>
        <time>2019-07-07T08:15:37.000Z</time>
      </trkpt>
      <trkpt lat="47.32595" lon="-2.45895">
        <ele>2.7999999523163</ele>
        <time>2019-07-07T08:15:42.000Z</time>
      </trkpt>
      <trkpt lat="47.32607" lon="-2.45911">
        <ele>2.7999999523163</ele>
        <time>2019-07-07T08:15:47.000Z</time>
      </trkpt>
      <trkpt lat="47.32615" lon="-2.45921">
        <ele>2.7999999523163</ele>
        <time>2019-07-07T08:15:53.000Z</time>
      </trkpt>
      <trkpt lat="47.32624" lon="-2.45942">
        <ele>2.7999999523163</ele>
        <time>2019-07-07T08:15:59.000Z</time>
      </trkpt>
      <trkpt lat="47.32637" lon="-2.45961">
        <ele>2.7999999523163</ele>
        <time>2019-07-07T08:16:03.000Z</time>
      </trkpt>
      <trkpt lat="47.32645" lon="-2.45969">
        <ele>2.7999999523163</ele>
        <time>2019-07-07T08:16:05.000Z</time>
      </trkpt>
      <trkpt lat="47.32662" lon="-2.45984">
        <ele>2.7999999523163</ele>
        <time>2019-07-07T08:16:10.000Z</time>
      </trkpt>
      <trkpt lat="47.32676" lon="-2.45993">
        <ele>2.7999999523163</ele>
        <time>2019-07-07T08:16:15.000Z</time>
      </trkpt>
      <trkpt lat="47.32689" lon="-2.46014">
        <ele>2.7999999523163</ele>
        <time>2019-07-07T08:16:20.000Z</time>
      </trkpt>
      <trkpt lat="47.32705" lon="-2.46038">
        <ele>2.7999999523163</ele>
        <time>2019-07-07T08:16:25.000Z</time>
      </trkpt>
      <trkpt lat="47.32709" lon="-2.46042">
        <ele>3.2000000476837</ele>
        <time>2019-07-07T08:16:26.000Z</time>
      </trkpt>
      <trkpt lat="47.32712" lon="-2.46044">
        <ele>3.5999999046326</ele>
        <time>2019-07-07T08:16:27.000Z</time>
      </trkpt>
      <trkpt lat="47.32715" lon="-2.46047">
        <ele>4</ele>
        <time>2019-07-07T08:16:28.000Z</time>
      </trkpt>
      <trkpt lat="47.32718" lon="-2.4605">
        <ele>4.4000000953674</ele>
        <time>2019-07-07T08:16:29.000Z</time>
      </trkpt>
      <trkpt lat="47.32722" lon="-2.46054">
        <ele>4.8000001907349</ele>
        <time>2019-07-07T08:16:30.000Z</time>
      </trkpt>
      <trkpt lat="47.32734" lon="-2.46066">
        <ele>4.8000001907349</ele>
        <time>2019-07-07T08:16:34.000Z</time>
      </trkpt>
      <trkpt lat="47.32746" lon="-2.46083">
        <ele>4.8000001907349</ele>
        <time>2019-07-07T08:16:39.000Z</time>
      </trkpt>
      <trkpt lat="47.32758" lon="-2.46104">
        <ele>4.8000001907349</ele>
        <time>2019-07-07T08:16:44.000Z</time>
      </trkpt>
      <trkpt lat="47.32762" lon="-2.46112">
        <ele>5.1999998092651</ele>
        <time>2019-07-07T08:16:46.000Z</time>
      </trkpt>
      <trkpt lat="47.32763" lon="-2.46117">
        <ele>5.5999999046326</ele>
        <time>2019-07-07T08:16:47.000Z</time>
      </trkpt>
      <trkpt lat="47.32764" lon="-2.46122">
        <ele>6</ele>
        <time>2019-07-07T08:16:48.000Z</time>
      </trkpt>
      <trkpt lat="47.32766" lon="-2.46126">
        <ele>6.4000000953674</ele>
        <time>2019-07-07T08:16:49.000Z</time>
      </trkpt>
      <trkpt lat="47.32768" lon="-2.4613">
        <ele>6.8000001907349</ele>
        <time>2019-07-07T08:16:50.000Z</time>
      </trkpt>
      <trkpt lat="47.32773" lon="-2.46148">
        <ele>6.8000001907349</ele>
        <time>2019-07-07T08:16:54.000Z</time>
      </trkpt>
      <trkpt lat="47.32774" lon="-2.46152">
        <ele>7.4000000953674</ele>
        <time>2019-07-07T08:16:55.000Z</time>
      </trkpt>
      <trkpt lat="47.32776" lon="-2.46155">
        <ele>7.8000001907349</ele>
        <time>2019-07-07T08:16:56.000Z</time>
      </trkpt>
      <trkpt lat="47.32778" lon="-2.46158">
        <ele>8.1999998092651</ele>
        <time>2019-07-07T08:16:57.000Z</time>
      </trkpt>
      <trkpt lat="47.3278" lon="-2.46161">
        <ele>8.6000003814697</ele>
        <time>2019-07-07T08:16:58.000Z</time>
      </trkpt>
      <trkpt lat="47.32782" lon="-2.46164">
        <ele>9</ele>
        <time>2019-07-07T08:16:59.000Z</time>
      </trkpt>
      <trkpt lat="47.32785" lon="-2.46167">
        <ele>9</ele>
        <time>2019-07-07T08:17:00.000Z</time>
      </trkpt>
      <trkpt lat="47.32798" lon="-2.46181">
        <ele>9</ele>
        <time>2019-07-07T08:17:05.000Z</time>
      </trkpt>
      <trkpt lat="47.32817" lon="-2.4619">
        <ele>9</ele>
        <time>2019-07-07T08:17:10.000Z</time>
      </trkpt>
      <trkpt lat="47.32824" lon="-2.4619">
        <ele>9</ele>
        <time>2019-07-07T08:17:12.000Z</time>
      </trkpt>
      <trkpt lat="47.32832" lon="-2.46187">
        <ele>9.3999996185303</ele>
        <time>2019-07-07T08:17:14.000Z</time>
      </trkpt>
      <trkpt lat="47.32835" lon="-2.46185">
        <ele>9.8000001907349</ele>
        <time>2019-07-07T08:17:15.000Z</time>
      </trkpt>
      <trkpt lat="47.32839" lon="-2.46183">
        <ele>10.199999809265</ele>
        <time>2019-07-07T08:17:16.000Z</time>
      </trkpt>
      <trkpt lat="47.32842" lon="-2.46181">
        <ele>10.800000190735</ele>
        <time>2019-07-07T08:17:17.000Z</time>
      </trkpt>
      <trkpt lat="47.32845" lon="-2.46178">
        <ele>11.199999809265</ele>
        <time>2019-07-07T08:17:18.000Z</time>
      </trkpt>
      <trkpt lat="47.32855" lon="-2.46171">
        <ele>11.199999809265</ele>
        <time>2019-07-07T08:17:21.000Z</time>
      </trkpt>
      <trkpt lat="47.32858" lon="-2.46169">
        <ele>11.60000038147</ele>
        <time>2019-07-07T08:17:22.000Z</time>
      </trkpt>
      <trkpt lat="47.32862" lon="-2.46167">
        <ele>12</ele>
        <time>2019-07-07T08:17:23.000Z</time>
      </trkpt>
      <trkpt lat="47.32865" lon="-2.46165">
        <ele>12.60000038147</ele>
        <time>2019-07-07T08:17:24.000Z</time>
      </trkpt>
      <trkpt lat="47.32869" lon="-2.46163">
        <ele>13</ele>
        <time>2019-07-07T08:17:25.000Z</time>
      </trkpt>
      <trkpt lat="47.32872" lon="-2.46161">
        <ele>13.39999961853</ele>
        <time>2019-07-07T08:17:26.000Z</time>
      </trkpt>
      <trkpt lat="47.32883" lon="-2.46155">
        <ele>13.800000190735</ele>
        <time>2019-07-07T08:17:29.000Z</time>
      </trkpt>
      <trkpt lat="47.32886" lon="-2.46153">
        <ele>14.39999961853</ele>
        <time>2019-07-07T08:17:30.000Z</time>
      </trkpt>
      <trkpt lat="47.32889" lon="-2.46152">
        <ele>14.800000190735</ele>
        <time>2019-07-07T08:17:31.000Z</time>
      </trkpt>
      <trkpt lat="47.32892" lon="-2.46151">
        <ele>15.199999809265</ele>
        <time>2019-07-07T08:17:32.000Z</time>
      </trkpt>
      <trkpt lat="47.32895" lon="-2.46151">
        <ele>15.60000038147</ele>
        <time>2019-07-07T08:17:33.000Z</time>
      </trkpt>
      <trkpt lat="47.32897" lon="-2.46151">
        <ele>15.60000038147</ele>
        <time>2019-07-07T08:17:34.000Z</time>
      </trkpt>
      <trkpt lat="47.32907" lon="-2.4616">
        <ele>15.60000038147</ele>
        <time>2019-07-07T08:17:38.000Z</time>
      </trkpt>
      <trkpt lat="47.32908" lon="-2.46165">
        <ele>15.60000038147</ele>
        <time>2019-07-07T08:17:39.000Z</time>
      </trkpt>
      <trkpt lat="47.32921" lon="-2.46206">
        <ele>15.60000038147</ele>
        <time>2019-07-07T08:17:46.000Z</time>
      </trkpt>
      <trkpt lat="47.32935" lon="-2.46254">
        <ele>15.60000038147</ele>
        <time>2019-07-07T08:17:53.000Z</time>
      </trkpt>
      <trkpt lat="47.32952" lon="-2.46314">
        <ele>15.60000038147</ele>
        <time>2019-07-07T08:18:02.000Z</time>
      </trkpt>
      <trkpt lat="47.32964" lon="-2.4636">
        <ele>15.60000038147</ele>
        <time>2019-07-07T08:18:07.000Z</time>
      </trkpt>
      <trkpt lat="47.32968" lon="-2.46383">
        <ele>15.60000038147</ele>
        <time>2019-07-07T08:18:09.000Z</time>
      </trkpt>
      <trkpt lat="47.32969" lon="-2.46396">
        <ele>15.199999809265</ele>
        <time>2019-07-07T08:18:10.000Z</time>
      </trkpt>
      <trkpt lat="47.32968" lon="-2.4641">
        <ele>14.60000038147</ele>
        <time>2019-07-07T08:18:11.000Z</time>
      </trkpt>
      <trkpt lat="47.32968" lon="-2.46426">
        <ele>14.199999809265</ele>
        <time>2019-07-07T08:18:12.000Z</time>
      </trkpt>
      <trkpt lat="47.32967" lon="-2.46441">
        <ele>13.60000038147</ele>
        <time>2019-07-07T08:18:13.000Z</time>
      </trkpt>
      <trkpt lat="47.32967" lon="-2.46456">
        <ele>13</ele>
        <time>2019-07-07T08:18:14.000Z</time>
      </trkpt>
      <trkpt lat="47.32966" lon="-2.46471">
        <ele>12.199999809265</ele>
        <time>2019-07-07T08:18:15.000Z</time>
      </trkpt>
      <trkpt lat="47.32965" lon="-2.46486">
        <ele>11.60000038147</ele>
        <time>2019-07-07T08:18:16.000Z</time>
      </trkpt>
      <trkpt lat="47.32963" lon="-2.46501">
        <ele>10.800000190735</ele>
        <time>2019-07-07T08:18:17.000Z</time>
      </trkpt>
      <trkpt lat="47.32962" lon="-2.46517">
        <ele>10</ele>
        <time>2019-07-07T08:18:18.000Z</time>
      </trkpt>
      <trkpt lat="47.32961" lon="-2.46531">
        <ele>8.6000003814697</ele>
        <time>2019-07-07T08:18:19.000Z</time>
      </trkpt>
      <trkpt lat="47.3296" lon="-2.46544">
        <ele>7.8000001907349</ele>
        <time>2019-07-07T08:18:20.000Z</time>
      </trkpt>
      <trkpt lat="47.32961" lon="-2.46554">
        <ele>7</ele>
        <time>2019-07-07T08:18:21.000Z</time>
      </trkpt>
      <trkpt lat="47.32962" lon="-2.46561">
        <ele>6</ele>
        <time>2019-07-07T08:18:22.000Z</time>
      </trkpt>
      <trkpt lat="47.32966" lon="-2.46565">
        <ele>5.1999998092651</ele>
        <time>2019-07-07T08:18:23.000Z</time>
      </trkpt>
      <trkpt lat="47.32971" lon="-2.46566">
        <ele>4.4000000953674</ele>
        <time>2019-07-07T08:18:24.000Z</time>
      </trkpt>
      <trkpt lat="47.32975" lon="-2.46565">
        <ele>3.5999999046326</ele>
        <time>2019-07-07T08:18:25.000Z</time>
      </trkpt>
      <trkpt lat="47.32986" lon="-2.46559">
        <ele>3.5999999046326</ele>
        <time>2019-07-07T08:18:28.000Z</time>
      </trkpt>
      <trkpt lat="47.33001" lon="-2.4655">
        <ele>4</ele>
        <time>2019-07-07T08:18:32.000Z</time>
      </trkpt>
      <trkpt lat="47.33006" lon="-2.46548">
        <ele>4.4000000953674</ele>
        <time>2019-07-07T08:18:33.000Z</time>
      </trkpt>
      <trkpt lat="47.3301" lon="-2.46546">
        <ele>5</ele>
        <time>2019-07-07T08:18:34.000Z</time>
      </trkpt>
      <trkpt lat="47.33014" lon="-2.46544">
        <ele>5.4000000953674</ele>
        <time>2019-07-07T08:18:35.000Z</time>
      </trkpt>
      <trkpt lat="47.33018" lon="-2.46542">
        <ele>5.8000001907349</ele>
        <time>2019-07-07T08:18:36.000Z</time>
      </trkpt>
      <trkpt lat="47.33026" lon="-2.46539">
        <ele>5.8000001907349</ele>
        <time>2019-07-07T08:18:38.000Z</time>
      </trkpt>
      <trkpt lat="47.33034" lon="-2.46538">
        <ele>5.8000001907349</ele>
        <time>2019-07-07T08:18:40.000Z</time>
      </trkpt>
      <trkpt lat="47.33039" lon="-2.46537">
        <ele>6.1999998092651</ele>
        <time>2019-07-07T08:18:41.000Z</time>
      </trkpt>
      <trkpt lat="47.33043" lon="-2.46537">
        <ele>6.5999999046326</ele>
        <time>2019-07-07T08:18:42.000Z</time>
      </trkpt>
      <trkpt lat="47.33048" lon="-2.46536">
        <ele>7.4000000953674</ele>
        <time>2019-07-07T08:18:43.000Z</time>
      </trkpt>
      <trkpt lat="47.33052" lon="-2.46535">
        <ele>8</ele>
        <time>2019-07-07T08:18:44.000Z</time>
      </trkpt>
      <trkpt lat="47.33063" lon="-2.46529">
        <ele>8</ele>
        <time>2019-07-07T08:18:47.000Z</time>
      </trkpt>
      <trkpt lat="47.3308" lon="-2.4652">
        <ele>8.3999996185303</ele>
        <time>2019-07-07T08:18:52.000Z</time>
      </trkpt>
      <trkpt lat="47.33084" lon="-2.46519">
        <ele>8.8000001907349</ele>
        <time>2019-07-07T08:18:53.000Z</time>
      </trkpt>
      <trkpt lat="47.33087" lon="-2.46518">
        <ele>9.1999998092651</ele>
        <time>2019-07-07T08:18:54.000Z</time>
      </trkpt>
      <trkpt lat="47.3309" lon="-2.46517">
        <ele>9.6000003814697</ele>
        <time>2019-07-07T08:18:55.000Z</time>
      </trkpt>
      <trkpt lat="47.33093" lon="-2.46515">
        <ele>10</ele>
        <time>2019-07-07T08:18:56.000Z</time>
      </trkpt>
      <trkpt lat="47.331" lon="-2.46511">
        <ele>10.39999961853</ele>
        <time>2019-07-07T08:18:59.000Z</time>
      </trkpt>
      <trkpt lat="47.33103" lon="-2.4651">
        <ele>10.800000190735</ele>
        <time>2019-07-07T08:19:00.000Z</time>
      </trkpt>
      <trkpt lat="47.33106" lon="-2.46508">
        <ele>11.199999809265</ele>
        <time>2019-07-07T08:19:01.000Z</time>
      </trkpt>
      <trkpt lat="47.33107" lon="-2.46506">
        <ele>11.60000038147</ele>
        <time>2019-07-07T08:19:02.000Z</time>
      </trkpt>
      <trkpt lat="47.33109" lon="-2.46503">
        <ele>12</ele>
        <time>2019-07-07T08:19:03.000Z</time>
      </trkpt>
      <trkpt lat="47.33112" lon="-2.46502">
        <ele>12</ele>
        <time>2019-07-07T08:19:04.000Z</time>
      </trkpt>
      <trkpt lat="47.33117" lon="-2.465">
        <ele>12</ele>
        <time>2019-07-07T08:19:06.000Z</time>
      </trkpt>
      <trkpt lat="47.33129" lon="-2.46495">
        <ele>12.39999961853</ele>
        <time>2019-07-07T08:19:10.000Z</time>
      </trkpt>
      <trkpt lat="47.33132" lon="-2.46494">
        <ele>12.800000190735</ele>
        <time>2019-07-07T08:19:11.000Z</time>
      </trkpt>
      <trkpt lat="47.33135" lon="-2.46494">
        <ele>13.39999961853</ele>
        <time>2019-07-07T08:19:12.000Z</time>
      </trkpt>
      <trkpt lat="47.33138" lon="-2.46494">
        <ele>13.800000190735</ele>
        <time>2019-07-07T08:19:13.000Z</time>
      </trkpt>
      <trkpt lat="47.33141" lon="-2.46494">
        <ele>14.199999809265</ele>
        <time>2019-07-07T08:19:14.000Z</time>
      </trkpt>
      <trkpt lat="47.3315" lon="-2.46493">
        <ele>14.199999809265</ele>
        <time>2019-07-07T08:19:17.000Z</time>
      </trkpt>
      <trkpt lat="47.33169" lon="-2.46486">
        <ele>14.60000038147</ele>
        <time>2019-07-07T08:19:23.000Z</time>
      </trkpt>
      <trkpt lat="47.33171" lon="-2.46485">
        <ele>15</ele>
        <time>2019-07-07T08:19:24.000Z</time>
      </trkpt>
      <trkpt lat="47.33174" lon="-2.46484">
        <ele>15.39999961853</ele>
        <time>2019-07-07T08:19:25.000Z</time>
      </trkpt>
      <trkpt lat="47.33177" lon="-2.46482">
        <ele>16</ele>
        <time>2019-07-07T08:19:26.000Z</time>
      </trkpt>
      <trkpt lat="47.3318" lon="-2.46481">
        <ele>16.39999961853</ele>
        <time>2019-07-07T08:19:27.000Z</time>
      </trkpt>
      <trkpt lat="47.33187" lon="-2.46478">
        <ele>16.39999961853</ele>
        <time>2019-07-07T08:19:30.000Z</time>
      </trkpt>
      <trkpt lat="47.33194" lon="-2.46476">
        <ele>17.200000762939</ele>
        <time>2019-07-07T08:19:33.000Z</time>
      </trkpt>
      <trkpt lat="47.33196" lon="-2.46475">
        <ele>17.60000038147</ele>
        <time>2019-07-07T08:19:34.000Z</time>
      </trkpt>
      <trkpt lat="47.33198" lon="-2.46475">
        <ele>18</ele>
        <time>2019-07-07T08:19:35.000Z</time>
      </trkpt>
      <trkpt lat="47.33201" lon="-2.46474">
        <ele>18.39999961853</ele>
        <time>2019-07-07T08:19:36.000Z</time>
      </trkpt>
      <trkpt lat="47.33209" lon="-2.46474">
        <ele>18.39999961853</ele>
        <time>2019-07-07T08:19:39.000Z</time>
      </trkpt>
      <trkpt lat="47.33214" lon="-2.46473">
        <ele>19</ele>
        <time>2019-07-07T08:19:41.000Z</time>
      </trkpt>
      <trkpt lat="47.33216" lon="-2.46472">
        <ele>19.39999961853</ele>
        <time>2019-07-07T08:19:42.000Z</time>
      </trkpt>
      <trkpt lat="47.33218" lon="-2.46471">
        <ele>19.799999237061</ele>
        <time>2019-07-07T08:19:43.000Z</time>
      </trkpt>
      <trkpt lat="47.3322" lon="-2.4647">
        <ele>20.200000762939</ele>
        <time>2019-07-07T08:19:44.000Z</time>
      </trkpt>
      <trkpt lat="47.33223" lon="-2.46468">
        <ele>20.799999237061</ele>
        <time>2019-07-07T08:19:45.000Z</time>
      </trkpt>
      <trkpt lat="47.3323" lon="-2.46455">
        <ele>21.200000762939</ele>
        <time>2019-07-07T08:19:49.000Z</time>
      </trkpt>
      <trkpt lat="47.33232" lon="-2.46451">
        <ele>21.60000038147</ele>
        <time>2019-07-07T08:19:50.000Z</time>
      </trkpt>
      <trkpt lat="47.33234" lon="-2.46448">
        <ele>22</ele>
        <time>2019-07-07T08:19:51.000Z</time>
      </trkpt>
      <trkpt lat="47.33236" lon="-2.46444">
        <ele>22.39999961853</ele>
        <time>2019-07-07T08:19:52.000Z</time>
      </trkpt>
      <trkpt lat="47.33238" lon="-2.46441">
        <ele>22.799999237061</ele>
        <time>2019-07-07T08:19:53.000Z</time>
      </trkpt>
      <trkpt lat="47.33245" lon="-2.46434">
        <ele>22.799999237061</ele>
        <time>2019-07-07T08:19:56.000Z</time>
      </trkpt>
      <trkpt lat="47.33258" lon="-2.4643">
        <ele>23.200000762939</ele>
        <time>2019-07-07T08:20:01.000Z</time>
      </trkpt>
      <trkpt lat="47.33261" lon="-2.4643">
        <ele>23.60000038147</ele>
        <time>2019-07-07T08:20:02.000Z</time>
      </trkpt>
      <trkpt lat="47.33263" lon="-2.46431">
        <ele>24</ele>
        <time>2019-07-07T08:20:03.000Z</time>
      </trkpt>
      <trkpt lat="47.33266" lon="-2.46432">
        <ele>24.39999961853</ele>
        <time>2019-07-07T08:20:04.000Z</time>
      </trkpt>
      <trkpt lat="47.33268" lon="-2.46433">
        <ele>24.799999237061</ele>
        <time>2019-07-07T08:20:05.000Z</time>
      </trkpt>
      <trkpt lat="47.33275" lon="-2.4644">
        <ele>24.799999237061</ele>
        <time>2019-07-07T08:20:08.000Z</time>
      </trkpt>
      <trkpt lat="47.33282" lon="-2.46461">
        <ele>24.799999237061</ele>
        <time>2019-07-07T08:20:14.000Z</time>
      </trkpt>
      <trkpt lat="47.33285" lon="-2.46489">
        <ele>24.799999237061</ele>
        <time>2019-07-07T08:20:19.000Z</time>
      </trkpt>
      <trkpt lat="47.33289" lon="-2.46531">
        <ele>24.799999237061</ele>
        <time>2019-07-07T08:20:24.000Z</time>
      </trkpt>
      <trkpt lat="47.33295" lon="-2.46576">
        <ele>24.39999961853</ele>
        <time>2019-07-07T08:20:29.000Z</time>
      </trkpt>
      <trkpt lat="47.33298" lon="-2.46585">
        <ele>24</ele>
        <time>2019-07-07T08:20:30.000Z</time>
      </trkpt>
      <trkpt lat="47.333" lon="-2.46592">
        <ele>23.60000038147</ele>
        <time>2019-07-07T08:20:31.000Z</time>
      </trkpt>
      <trkpt lat="47.33304" lon="-2.46598">
        <ele>23.200000762939</ele>
        <time>2019-07-07T08:20:32.000Z</time>
      </trkpt>
      <trkpt lat="47.33308" lon="-2.46604">
        <ele>22.799999237061</ele>
        <time>2019-07-07T08:20:33.000Z</time>
      </trkpt>
      <trkpt lat="47.33312" lon="-2.46609">
        <ele>22.799999237061</ele>
        <time>2019-07-07T08:20:34.000Z</time>
      </trkpt>
      <trkpt lat="47.33327" lon="-2.46629">
        <ele>22.799999237061</ele>
        <time>2019-07-07T08:20:38.000Z</time>
      </trkpt>
      <trkpt lat="47.33331" lon="-2.46637">
        <ele>22.799999237061</ele>
        <time>2019-07-07T08:20:40.000Z</time>
      </trkpt>
      <trkpt lat="47.33331" lon="-2.46641">
        <ele>22.799999237061</ele>
        <time>2019-07-07T08:20:41.000Z</time>
      </trkpt>
      <trkpt lat="47.33332" lon="-2.46654">
        <ele>22.39999961853</ele>
        <time>2019-07-07T08:20:44.000Z</time>
      </trkpt>
      <trkpt lat="47.33334" lon="-2.46656">
        <ele>21.799999237061</ele>
        <time>2019-07-07T08:20:45.000Z</time>
      </trkpt>
      <trkpt lat="47.33337" lon="-2.46657">
        <ele>21.39999961853</ele>
        <time>2019-07-07T08:20:46.000Z</time>
      </trkpt>
      <trkpt lat="47.33339" lon="-2.46658">
        <ele>20.60000038147</ele>
        <time>2019-07-07T08:20:47.000Z</time>
      </trkpt>
      <trkpt lat="47.3335" lon="-2.46653">
        <ele>20.60000038147</ele>
        <time>2019-07-07T08:20:51.000Z</time>
      </trkpt>
      <trkpt lat="47.33355" lon="-2.46651">
        <ele>20.60000038147</ele>
        <time>2019-07-07T08:20:53.000Z</time>
      </trkpt>
      <trkpt lat="47.33362" lon="-2.46648">
        <ele>20.60000038147</ele>
        <time>2019-07-07T08:20:56.000Z</time>
      </trkpt>
      <trkpt lat="47.33372" lon="-2.46641">
        <ele>20.60000038147</ele>
        <time>2019-07-07T08:21:00.000Z</time>
      </trkpt>
      <trkpt lat="47.33374" lon="-2.46639">
        <ele>20.60000038147</ele>
        <time>2019-07-07T08:21:01.000Z</time>
      </trkpt>
      <trkpt lat="47.3338" lon="-2.46629">
        <ele>21</ele>
        <time>2019-07-07T08:21:05.000Z</time>
      </trkpt>
      <trkpt lat="47.33381" lon="-2.46626">
        <ele>21.39999961853</ele>
        <time>2019-07-07T08:21:06.000Z</time>
      </trkpt>
      <trkpt lat="47.33383" lon="-2.46623">
        <ele>21.799999237061</ele>
        <time>2019-07-07T08:21:07.000Z</time>
      </trkpt>
      <trkpt lat="47.33385" lon="-2.4662">
        <ele>22.200000762939</ele>
        <time>2019-07-07T08:21:08.000Z</time>
      </trkpt>
      <trkpt lat="47.33386" lon="-2.46618">
        <ele>22.60000038147</ele>
        <time>2019-07-07T08:21:09.000Z</time>
      </trkpt>
      <trkpt lat="47.33394" lon="-2.46612">
        <ele>22.60000038147</ele>
        <time>2019-07-07T08:21:12.000Z</time>
      </trkpt>
      <trkpt lat="47.33405" lon="-2.46603">
        <ele>22.60000038147</ele>
        <time>2019-07-07T08:21:17.000Z</time>
      </trkpt>
      <trkpt lat="47.33409" lon="-2.46598">
        <ele>23</ele>
        <time>2019-07-07T08:21:19.000Z</time>
      </trkpt>
      <trkpt lat="47.33411" lon="-2.46596">
        <ele>23.39999961853</ele>
        <time>2019-07-07T08:21:20.000Z</time>
      </trkpt>
      <trkpt lat="47.33413" lon="-2.46595">
        <ele>24</ele>
        <time>2019-07-07T08:21:21.000Z</time>
      </trkpt>
      <trkpt lat="47.33415" lon="-2.46593">
        <ele>24.39999961853</ele>
        <time>2019-07-07T08:21:22.000Z</time>
      </trkpt>
      <trkpt lat="47.33417" lon="-2.46592">
        <ele>24.799999237061</ele>
        <time>2019-07-07T08:21:23.000Z</time>
      </trkpt>
      <trkpt lat="47.33429" lon="-2.46582">
        <ele>24.799999237061</ele>
        <time>2019-07-07T08:21:29.000Z</time>
      </trkpt>
      <trkpt lat="47.33432" lon="-2.46581">
        <ele>25.200000762939</ele>
        <time>2019-07-07T08:21:30.000Z</time>
      </trkpt>
      <trkpt lat="47.33435" lon="-2.46579">
        <ele>25.60000038147</ele>
        <time>2019-07-07T08:21:31.000Z</time>
      </trkpt>
      <trkpt lat="47.33438" lon="-2.46577">
        <ele>26</ele>
        <time>2019-07-07T08:21:32.000Z</time>
      </trkpt>
      <trkpt lat="47.33441" lon="-2.46575">
        <ele>26.39999961853</ele>
        <time>2019-07-07T08:21:33.000Z</time>
      </trkpt>
      <trkpt lat="47.33444" lon="-2.46573">
        <ele>27</ele>
        <time>2019-07-07T08:21:34.000Z</time>
      </trkpt>
      <trkpt lat="47.33447" lon="-2.46571">
        <ele>27</ele>
        <time>2019-07-07T08:21:35.000Z</time>
      </trkpt>
      <trkpt lat="47.33457" lon="-2.46557">
        <ele>27.39999961853</ele>
        <time>2019-07-07T08:21:40.000Z</time>
      </trkpt>
      <trkpt lat="47.33459" lon="-2.46554">
        <ele>27.799999237061</ele>
        <time>2019-07-07T08:21:41.000Z</time>
      </trkpt>
      <trkpt lat="47.33461" lon="-2.46551">
        <ele>28.200000762939</ele>
        <time>2019-07-07T08:21:42.000Z</time>
      </trkpt>
      <trkpt lat="47.33463" lon="-2.46548">
        <ele>28.60000038147</ele>
        <time>2019-07-07T08:21:43.000Z</time>
      </trkpt>
      <trkpt lat="47.33466" lon="-2.46546">
        <ele>29</ele>
        <time>2019-07-07T08:21:44.000Z</time>
      </trkpt>
      <trkpt lat="47.33472" lon="-2.46539">
        <ele>29</ele>
        <time>2019-07-07T08:21:46.000Z</time>
      </trkpt>
      <trkpt lat="47.33483" lon="-2.46527">
        <ele>29.39999961853</ele>
        <time>2019-07-07T08:21:50.000Z</time>
      </trkpt>
      <trkpt lat="47.33485" lon="-2.46524">
        <ele>29.799999237061</ele>
        <time>2019-07-07T08:21:51.000Z</time>
      </trkpt>
      <trkpt lat="47.33488" lon="-2.46521">
        <ele>30.200000762939</ele>
        <time>2019-07-07T08:21:52.000Z</time>
      </trkpt>
      <trkpt lat="47.33491" lon="-2.46519">
        <ele>30.60000038147</ele>
        <time>2019-07-07T08:21:53.000Z</time>
      </trkpt>
      <trkpt lat="47.33493" lon="-2.46516">
        <ele>31</ele>
        <time>2019-07-07T08:21:54.000Z</time>
      </trkpt>
      <trkpt lat="47.335" lon="-2.46509">
        <ele>31</ele>
        <time>2019-07-07T08:21:57.000Z</time>
      </trkpt>
      <trkpt lat="47.33514" lon="-2.46494">
        <ele>31</ele>
        <time>2019-07-07T08:22:03.000Z</time>
      </trkpt>
      <trkpt lat="47.33517" lon="-2.46492">
        <ele>31.39999961853</ele>
        <time>2019-07-07T08:22:04.000Z</time>
      </trkpt>
      <trkpt lat="47.33519" lon="-2.4649">
        <ele>32</ele>
        <time>2019-07-07T08:22:05.000Z</time>
      </trkpt>
      <trkpt lat="47.33521" lon="-2.4649">
        <ele>32.400001525879</ele>
        <time>2019-07-07T08:22:06.000Z</time>
      </trkpt>
      <trkpt lat="47.33524" lon="-2.4649">
        <ele>32.799999237061</ele>
        <time>2019-07-07T08:22:07.000Z</time>
      </trkpt>
      <trkpt lat="47.33526" lon="-2.46491">
        <ele>33.400001525879</ele>
        <time>2019-07-07T08:22:08.000Z</time>
      </trkpt>
      <trkpt lat="47.33535" lon="-2.4649">
        <ele>33.400001525879</ele>
        <time>2019-07-07T08:22:13.000Z</time>
      </trkpt>
      <trkpt lat="47.33537" lon="-2.46492">
        <ele>33.400001525879</ele>
        <time>2019-07-07T08:22:15.000Z</time>
      </trkpt>
      <trkpt lat="47.3354" lon="-2.46503">
        <ele>33.400001525879</ele>
        <time>2019-07-07T08:22:17.000Z</time>
      </trkpt>
      <trkpt lat="47.33546" lon="-2.46533">
        <ele>33.400001525879</ele>
        <time>2019-07-07T08:22:21.000Z</time>
      </trkpt>
      <trkpt lat="47.33556" lon="-2.46579">
        <ele>33.400001525879</ele>
        <time>2019-07-07T08:22:27.000Z</time>
      </trkpt>
      <trkpt lat="47.33559" lon="-2.46586">
        <ele>33.400001525879</ele>
        <time>2019-07-07T08:22:28.000Z</time>
      </trkpt>
      <trkpt lat="47.33569" lon="-2.46602">
        <ele>33.400001525879</ele>
        <time>2019-07-07T08:22:31.000Z</time>
      </trkpt>
      <trkpt lat="47.33572" lon="-2.46608">
        <ele>33.400001525879</ele>
        <time>2019-07-07T08:22:32.000Z</time>
      </trkpt>
      <trkpt lat="47.3358" lon="-2.46631">
        <ele>33.400001525879</ele>
        <time>2019-07-07T08:22:35.000Z</time>
      </trkpt>
      <trkpt lat="47.33594" lon="-2.4667">
        <ele>33.400001525879</ele>
        <time>2019-07-07T08:22:40.000Z</time>
      </trkpt>
      <trkpt lat="47.33611" lon="-2.46711">
        <ele>33.400001525879</ele>
        <time>2019-07-07T08:22:46.000Z</time>
      </trkpt>
      <trkpt lat="47.33618" lon="-2.46744">
        <ele>33.400001525879</ele>
        <time>2019-07-07T08:22:51.000Z</time>
      </trkpt>
      <trkpt lat="47.33617" lon="-2.4675">
        <ele>33.400001525879</ele>
        <time>2019-07-07T08:22:52.000Z</time>
      </trkpt>
      <trkpt lat="47.33608" lon="-2.46765">
        <ele>33.400001525879</ele>
        <time>2019-07-07T08:22:55.000Z</time>
      </trkpt>
      <trkpt lat="47.33603" lon="-2.46769">
        <ele>33</ele>
        <time>2019-07-07T08:22:56.000Z</time>
      </trkpt>
      <trkpt lat="47.33598" lon="-2.46772">
        <ele>32.400001525879</ele>
        <time>2019-07-07T08:22:57.000Z</time>
      </trkpt>
      <trkpt lat="47.33593" lon="-2.46776">
        <ele>32</ele>
        <time>2019-07-07T08:22:58.000Z</time>
      </trkpt>
      <trkpt lat="47.33589" lon="-2.46781">
        <ele>31.60000038147</ele>
        <time>2019-07-07T08:22:59.000Z</time>
      </trkpt>
      <trkpt lat="47.33584" lon="-2.46788">
        <ele>31.200000762939</ele>
        <time>2019-07-07T08:23:00.000Z</time>
      </trkpt>
      <trkpt lat="47.33573" lon="-2.46801">
        <ele>30.799999237061</ele>
        <time>2019-07-07T08:23:02.000Z</time>
      </trkpt>
      <trkpt lat="47.33567" lon="-2.46807">
        <ele>30.200000762939</ele>
        <time>2019-07-07T08:23:03.000Z</time>
      </trkpt>
      <trkpt lat="47.33561" lon="-2.46813">
        <ele>29.799999237061</ele>
        <time>2019-07-07T08:23:04.000Z</time>
      </trkpt>
      <trkpt lat="47.33555" lon="-2.46819">
        <ele>29.39999961853</ele>
        <time>2019-07-07T08:23:05.000Z</time>
      </trkpt>
      <trkpt lat="47.3355" lon="-2.46824">
        <ele>28.799999237061</ele>
        <time>2019-07-07T08:23:06.000Z</time>
      </trkpt>
      <trkpt lat="47.33545" lon="-2.46828">
        <ele>28</ele>
        <time>2019-07-07T08:23:07.000Z</time>
      </trkpt>
      <trkpt lat="47.33541" lon="-2.46833">
        <ele>27.39999961853</ele>
        <time>2019-07-07T08:23:08.000Z</time>
      </trkpt>
      <trkpt lat="47.33537" lon="-2.46838">
        <ele>26.799999237061</ele>
        <time>2019-07-07T08:23:09.000Z</time>
      </trkpt>
      <trkpt lat="47.33534" lon="-2.46843">
        <ele>26.200000762939</ele>
        <time>2019-07-07T08:23:10.000Z</time>
      </trkpt>
      <trkpt lat="47.33533" lon="-2.46849">
        <ele>25.60000038147</ele>
        <time>2019-07-07T08:23:11.000Z</time>
      </trkpt>
      <trkpt lat="47.33533" lon="-2.46856">
        <ele>25.200000762939</ele>
        <time>2019-07-07T08:23:12.000Z</time>
      </trkpt>
      <trkpt lat="47.33534" lon="-2.46863">
        <ele>24.60000038147</ele>
        <time>2019-07-07T08:23:13.000Z</time>
      </trkpt>
      <trkpt lat="47.33534" lon="-2.46871">
        <ele>24</ele>
        <time>2019-07-07T08:23:14.000Z</time>
      </trkpt>
      <trkpt lat="47.33534" lon="-2.46876">
        <ele>23.60000038147</ele>
        <time>2019-07-07T08:23:15.000Z</time>
      </trkpt>
      <trkpt lat="47.33531" lon="-2.46881">
        <ele>23.200000762939</ele>
        <time>2019-07-07T08:23:16.000Z</time>
      </trkpt>
      <trkpt lat="47.33529" lon="-2.46886">
        <ele>22.799999237061</ele>
        <time>2019-07-07T08:23:17.000Z</time>
      </trkpt>
      <trkpt lat="47.33525" lon="-2.4689">
        <ele>22.39999961853</ele>
        <time>2019-07-07T08:23:18.000Z</time>
      </trkpt>
      <trkpt lat="47.33522" lon="-2.46893">
        <ele>22</ele>
        <time>2019-07-07T08:23:19.000Z</time>
      </trkpt>
      <trkpt lat="47.33519" lon="-2.46896">
        <ele>22</ele>
        <time>2019-07-07T08:23:20.000Z</time>
      </trkpt>
      <trkpt lat="47.33516" lon="-2.469">
        <ele>22</ele>
        <time>2019-07-07T08:23:21.000Z</time>
      </trkpt>
      <trkpt lat="47.33512" lon="-2.46903">
        <ele>21.39999961853</ele>
        <time>2019-07-07T08:23:22.000Z</time>
      </trkpt>
      <trkpt lat="47.33509" lon="-2.46906">
        <ele>21</ele>
        <time>2019-07-07T08:23:23.000Z</time>
      </trkpt>
      <trkpt lat="47.33504" lon="-2.46911">
        <ele>20.60000038147</ele>
        <time>2019-07-07T08:23:24.000Z</time>
      </trkpt>
      <trkpt lat="47.335" lon="-2.46915">
        <ele>20.200000762939</ele>
        <time>2019-07-07T08:23:25.000Z</time>
      </trkpt>
      <trkpt lat="47.33495" lon="-2.46917">
        <ele>19.799999237061</ele>
        <time>2019-07-07T08:23:26.000Z</time>
      </trkpt>
      <trkpt lat="47.33479" lon="-2.46934">
        <ele>19.799999237061</ele>
        <time>2019-07-07T08:23:30.000Z</time>
      </trkpt>
      <trkpt lat="47.33475" lon="-2.46938">
        <ele>19.799999237061</ele>
        <time>2019-07-07T08:23:31.000Z</time>
      </trkpt>
      <trkpt lat="47.33472" lon="-2.46943">
        <ele>19.39999961853</ele>
        <time>2019-07-07T08:23:32.000Z</time>
      </trkpt>
      <trkpt lat="47.33469" lon="-2.46948">
        <ele>19</ele>
        <time>2019-07-07T08:23:33.000Z</time>
      </trkpt>
      <trkpt lat="47.33466" lon="-2.46952">
        <ele>18.60000038147</ele>
        <time>2019-07-07T08:23:34.000Z</time>
      </trkpt>
      <trkpt lat="47.33464" lon="-2.46956">
        <ele>18.200000762939</ele>
        <time>2019-07-07T08:23:35.000Z</time>
      </trkpt>
      <trkpt lat="47.33461" lon="-2.46959">
        <ele>17.799999237061</ele>
        <time>2019-07-07T08:23:36.000Z</time>
      </trkpt>
      <trkpt lat="47.33443" lon="-2.46986">
        <ele>17.799999237061</ele>
        <time>2019-07-07T08:23:43.000Z</time>
      </trkpt>
      <trkpt lat="47.33428" lon="-2.47007">
        <ele>17.799999237061</ele>
        <time>2019-07-07T08:23:47.000Z</time>
      </trkpt>
      <trkpt lat="47.33421" lon="-2.4702">
        <ele>17.799999237061</ele>
        <time>2019-07-07T08:23:49.000Z</time>
      </trkpt>
      <trkpt lat="47.3341" lon="-2.47043">
        <ele>17.799999237061</ele>
        <time>2019-07-07T08:23:52.000Z</time>
      </trkpt>
      <trkpt lat="47.33399" lon="-2.47076">
        <ele>17.200000762939</ele>
        <time>2019-07-07T08:23:56.000Z</time>
      </trkpt>
      <trkpt lat="47.33396" lon="-2.47085">
        <ele>16.799999237061</ele>
        <time>2019-07-07T08:23:57.000Z</time>
      </trkpt>
      <trkpt lat="47.33394" lon="-2.47094">
        <ele>16.39999961853</ele>
        <time>2019-07-07T08:23:58.000Z</time>
      </trkpt>
      <trkpt lat="47.33393" lon="-2.47103">
        <ele>15.800000190735</ele>
        <time>2019-07-07T08:23:59.000Z</time>
      </trkpt>
      <trkpt lat="47.33392" lon="-2.47111">
        <ele>15.39999961853</ele>
        <time>2019-07-07T08:24:00.000Z</time>
      </trkpt>
      <trkpt lat="47.33389" lon="-2.47128">
        <ele>15.39999961853</ele>
        <time>2019-07-07T08:24:02.000Z</time>
      </trkpt>
      <trkpt lat="47.33387" lon="-2.47135">
        <ele>15.39999961853</ele>
        <time>2019-07-07T08:24:03.000Z</time>
      </trkpt>
      <trkpt lat="47.33382" lon="-2.47148">
        <ele>15.39999961853</ele>
        <time>2019-07-07T08:24:05.000Z</time>
      </trkpt>
      <trkpt lat="47.33375" lon="-2.47158">
        <ele>15.39999961853</ele>
        <time>2019-07-07T08:24:07.000Z</time>
      </trkpt>
      <trkpt lat="47.33373" lon="-2.47162">
        <ele>15</ele>
        <time>2019-07-07T08:24:08.000Z</time>
      </trkpt>
      <trkpt lat="47.33371" lon="-2.47167">
        <ele>14.60000038147</ele>
        <time>2019-07-07T08:24:09.000Z</time>
      </trkpt>
      <trkpt lat="47.33371" lon="-2.47172">
        <ele>14.199999809265</ele>
        <time>2019-07-07T08:24:10.000Z</time>
      </trkpt>
      <trkpt lat="47.33371" lon="-2.47179">
        <ele>13.800000190735</ele>
        <time>2019-07-07T08:24:11.000Z</time>
      </trkpt>
      <trkpt lat="47.33373" lon="-2.47185">
        <ele>13.39999961853</ele>
        <time>2019-07-07T08:24:12.000Z</time>
      </trkpt>
      <trkpt lat="47.33375" lon="-2.47199">
        <ele>13.39999961853</ele>
        <time>2019-07-07T08:24:14.000Z</time>
      </trkpt>
      <trkpt lat="47.33377" lon="-2.47212">
        <ele>13.39999961853</ele>
        <time>2019-07-07T08:24:16.000Z</time>
      </trkpt>
      <trkpt lat="47.3338" lon="-2.47233">
        <ele>13.39999961853</ele>
        <time>2019-07-07T08:24:19.000Z</time>
      </trkpt>
      <trkpt lat="47.33385" lon="-2.4726">
        <ele>13.39999961853</ele>
        <time>2019-07-07T08:24:23.000Z</time>
      </trkpt>
      <trkpt lat="47.33392" lon="-2.47306">
        <ele>13.39999961853</ele>
        <time>2019-07-07T08:24:30.000Z</time>
      </trkpt>
      <trkpt lat="47.33395" lon="-2.47347">
        <ele>13.39999961853</ele>
        <time>2019-07-07T08:24:36.000Z</time>
      </trkpt>
      <trkpt lat="47.33409" lon="-2.47397">
        <ele>13.39999961853</ele>
        <time>2019-07-07T08:24:43.000Z</time>
      </trkpt>
      <trkpt lat="47.3342" lon="-2.47449">
        <ele>13.39999961853</ele>
        <time>2019-07-07T08:24:50.000Z</time>
      </trkpt>
      <trkpt lat="47.33426" lon="-2.47468">
        <ele>13.39999961853</ele>
        <time>2019-07-07T08:24:53.000Z</time>
      </trkpt>
      <trkpt lat="47.33431" lon="-2.47481">
        <ele>13.800000190735</ele>
        <time>2019-07-07T08:24:55.000Z</time>
      </trkpt>
      <trkpt lat="47.33434" lon="-2.47488">
        <ele>14.199999809265</ele>
        <time>2019-07-07T08:24:56.000Z</time>
      </trkpt>
      <trkpt lat="47.33436" lon="-2.47494">
        <ele>14.60000038147</ele>
        <time>2019-07-07T08:24:57.000Z</time>
      </trkpt>
      <trkpt lat="47.33438" lon="-2.47501">
        <ele>15</ele>
        <time>2019-07-07T08:24:58.000Z</time>
      </trkpt>
      <trkpt lat="47.33441" lon="-2.47508">
        <ele>15.39999961853</ele>
        <time>2019-07-07T08:24:59.000Z</time>
      </trkpt>
      <trkpt lat="47.33449" lon="-2.47527">
        <ele>15.39999961853</ele>
        <time>2019-07-07T08:25:02.000Z</time>
      </trkpt>
      <trkpt lat="47.33478" lon="-2.47587">
        <ele>15.39999961853</ele>
        <time>2019-07-07T08:25:11.000Z</time>
      </trkpt>
      <trkpt lat="47.33486" lon="-2.47599">
        <ele>15.39999961853</ele>
        <time>2019-07-07T08:25:13.000Z</time>
      </trkpt>
      <trkpt lat="47.33491" lon="-2.47604">
        <ele>15</ele>
        <time>2019-07-07T08:25:14.000Z</time>
      </trkpt>
      <trkpt lat="47.33496" lon="-2.47608">
        <ele>14.60000038147</ele>
        <time>2019-07-07T08:25:15.000Z</time>
      </trkpt>
      <trkpt lat="47.335" lon="-2.47613">
        <ele>14.199999809265</ele>
        <time>2019-07-07T08:25:16.000Z</time>
      </trkpt>
      <trkpt lat="47.33505" lon="-2.47618">
        <ele>13.800000190735</ele>
        <time>2019-07-07T08:25:17.000Z</time>
      </trkpt>
      <trkpt lat="47.3351" lon="-2.47625">
        <ele>13.199999809265</ele>
        <time>2019-07-07T08:25:18.000Z</time>
      </trkpt>
      <trkpt lat="47.33513" lon="-2.47632">
        <ele>13.199999809265</ele>
        <time>2019-07-07T08:25:19.000Z</time>
      </trkpt>
      <trkpt lat="47.33517" lon="-2.47639">
        <ele>13.199999809265</ele>
        <time>2019-07-07T08:25:20.000Z</time>
      </trkpt>
      <trkpt lat="47.33533" lon="-2.47672">
        <ele>13.199999809265</ele>
        <time>2019-07-07T08:25:25.000Z</time>
      </trkpt>
      <trkpt lat="47.33547" lon="-2.4768">
        <ele>13.199999809265</ele>
        <time>2019-07-07T08:25:28.000Z</time>
      </trkpt>
      <trkpt lat="47.33551" lon="-2.47682">
        <ele>13.199999809265</ele>
        <time>2019-07-07T08:25:29.000Z</time>
      </trkpt>
      <trkpt lat="47.33561" lon="-2.47691">
        <ele>13.199999809265</ele>
        <time>2019-07-07T08:25:32.000Z</time>
      </trkpt>
      <trkpt lat="47.33573" lon="-2.47698">
        <ele>13.60000038147</ele>
        <time>2019-07-07T08:25:35.000Z</time>
      </trkpt>
      <trkpt lat="47.33578" lon="-2.47699">
        <ele>14.199999809265</ele>
        <time>2019-07-07T08:25:36.000Z</time>
      </trkpt>
      <trkpt lat="47.33583" lon="-2.477">
        <ele>14.60000038147</ele>
        <time>2019-07-07T08:25:37.000Z</time>
      </trkpt>
      <trkpt lat="47.33588" lon="-2.477">
        <ele>15</ele>
        <time>2019-07-07T08:25:38.000Z</time>
      </trkpt>
      <trkpt lat="47.33593" lon="-2.47698">
        <ele>15.39999961853</ele>
        <time>2019-07-07T08:25:39.000Z</time>
      </trkpt>
      <trkpt lat="47.33597" lon="-2.47694">
        <ele>15.39999961853</ele>
        <time>2019-07-07T08:25:40.000Z</time>
      </trkpt>
      <trkpt lat="47.3361" lon="-2.47681">
        <ele>15.39999961853</ele>
        <time>2019-07-07T08:25:43.000Z</time>
      </trkpt>
      <trkpt lat="47.33618" lon="-2.47672">
        <ele>15.39999961853</ele>
        <time>2019-07-07T08:25:45.000Z</time>
      </trkpt>
      <trkpt lat="47.33652" lon="-2.47645">
        <ele>15.39999961853</ele>
        <time>2019-07-07T08:25:52.000Z</time>
      </trkpt>
      <trkpt lat="47.33682" lon="-2.47625">
        <ele>15.39999961853</ele>
        <time>2019-07-07T08:25:58.000Z</time>
      </trkpt>
      <trkpt lat="47.33688" lon="-2.47623">
        <ele>15.39999961853</ele>
        <time>2019-07-07T08:25:59.000Z</time>
      </trkpt>
      <trkpt lat="47.33704" lon="-2.4762">
        <ele>15.39999961853</ele>
        <time>2019-07-07T08:26:02.000Z</time>
      </trkpt>
      <trkpt lat="47.33727" lon="-2.4762">
        <ele>15.39999961853</ele>
        <time>2019-07-07T08:26:06.000Z</time>
      </trkpt>
      <trkpt lat="47.33732" lon="-2.47622">
        <ele>15.39999961853</ele>
        <time>2019-07-07T08:26:07.000Z</time>
      </trkpt>
      <trkpt lat="47.33753" lon="-2.47639">
        <ele>15.39999961853</ele>
        <time>2019-07-07T08:26:11.000Z</time>
      </trkpt>
      <trkpt lat="47.33758" lon="-2.47644">
        <ele>15.39999961853</ele>
        <time>2019-07-07T08:26:12.000Z</time>
      </trkpt>
      <trkpt lat="47.33767" lon="-2.47665">
        <ele>15.39999961853</ele>
        <time>2019-07-07T08:26:15.000Z</time>
      </trkpt>
      <trkpt lat="47.33771" lon="-2.47672">
        <ele>15.39999961853</ele>
        <time>2019-07-07T08:26:16.000Z</time>
      </trkpt>
      <trkpt lat="47.33786" lon="-2.4769">
        <ele>15.39999961853</ele>
        <time>2019-07-07T08:26:19.000Z</time>
      </trkpt>
      <trkpt lat="47.33822" lon="-2.47733">
        <ele>15.39999961853</ele>
        <time>2019-07-07T08:26:26.000Z</time>
      </trkpt>
      <trkpt lat="47.33847" lon="-2.47761">
        <ele>14.39999961853</ele>
        <time>2019-07-07T08:26:31.000Z</time>
      </trkpt>
      <trkpt lat="47.33852" lon="-2.47767">
        <ele>14</ele>
        <time>2019-07-07T08:26:32.000Z</time>
      </trkpt>
      <trkpt lat="47.33854" lon="-2.47774">
        <ele>13.39999961853</ele>
        <time>2019-07-07T08:26:33.000Z</time>
      </trkpt>
      <trkpt lat="47.33857" lon="-2.4778">
        <ele>13</ele>
        <time>2019-07-07T08:26:34.000Z</time>
      </trkpt>
      <trkpt lat="47.33857" lon="-2.47788">
        <ele>13</ele>
        <time>2019-07-07T08:26:35.000Z</time>
      </trkpt>
      <trkpt lat="47.33853" lon="-2.47809">
        <ele>13</ele>
        <time>2019-07-07T08:26:38.000Z</time>
      </trkpt>
      <trkpt lat="47.33839" lon="-2.47833">
        <ele>13</ele>
        <time>2019-07-07T08:26:41.000Z</time>
      </trkpt>
      <trkpt lat="47.33833" lon="-2.47842">
        <ele>13</ele>
        <time>2019-07-07T08:26:42.000Z</time>
      </trkpt>
      <trkpt lat="47.33794" lon="-2.47903">
        <ele>12.60000038147</ele>
        <time>2019-07-07T08:26:49.000Z</time>
      </trkpt>
      <trkpt lat="47.33789" lon="-2.47912">
        <ele>12.199999809265</ele>
        <time>2019-07-07T08:26:50.000Z</time>
      </trkpt>
      <trkpt lat="47.33783" lon="-2.4792">
        <ele>11.60000038147</ele>
        <time>2019-07-07T08:26:51.000Z</time>
      </trkpt>
      <trkpt lat="47.33778" lon="-2.47929">
        <ele>11.199999809265</ele>
        <time>2019-07-07T08:26:52.000Z</time>
      </trkpt>
      <trkpt lat="47.33774" lon="-2.47939">
        <ele>10.800000190735</ele>
        <time>2019-07-07T08:26:53.000Z</time>
      </trkpt>
      <trkpt lat="47.33767" lon="-2.47959">
        <ele>10.800000190735</ele>
        <time>2019-07-07T08:26:55.000Z</time>
      </trkpt>
      <trkpt lat="47.33751" lon="-2.48018">
        <ele>10.800000190735</ele>
        <time>2019-07-07T08:27:01.000Z</time>
      </trkpt>
      <trkpt lat="47.33748" lon="-2.48037">
        <ele>10.39999961853</ele>
        <time>2019-07-07T08:27:03.000Z</time>
      </trkpt>
      <trkpt lat="47.33746" lon="-2.48046">
        <ele>10</ele>
        <time>2019-07-07T08:27:04.000Z</time>
      </trkpt>
      <trkpt lat="47.33744" lon="-2.48055">
        <ele>9.6000003814697</ele>
        <time>2019-07-07T08:27:05.000Z</time>
      </trkpt>
      <trkpt lat="47.33742" lon="-2.48064">
        <ele>9.1999998092651</ele>
        <time>2019-07-07T08:27:06.000Z</time>
      </trkpt>
      <trkpt lat="47.33741" lon="-2.48073">
        <ele>8.8000001907349</ele>
        <time>2019-07-07T08:27:07.000Z</time>
      </trkpt>
      <trkpt lat="47.3374" lon="-2.48083">
        <ele>8.8000001907349</ele>
        <time>2019-07-07T08:27:08.000Z</time>
      </trkpt>
      <trkpt lat="47.33735" lon="-2.48113">
        <ele>8.3999996185303</ele>
        <time>2019-07-07T08:27:11.000Z</time>
      </trkpt>
      <trkpt lat="47.33733" lon="-2.48123">
        <ele>8</ele>
        <time>2019-07-07T08:27:12.000Z</time>
      </trkpt>
      <trkpt lat="47.33732" lon="-2.48134">
        <ele>7.4000000953674</ele>
        <time>2019-07-07T08:27:13.000Z</time>
      </trkpt>
      <trkpt lat="47.33731" lon="-2.48144">
        <ele>7</ele>
        <time>2019-07-07T08:27:14.000Z</time>
      </trkpt>
      <trkpt lat="47.3373" lon="-2.48154">
        <ele>6.5999999046326</ele>
        <time>2019-07-07T08:27:15.000Z</time>
      </trkpt>
      <trkpt lat="47.33727" lon="-2.48201">
        <ele>6.5999999046326</ele>
        <time>2019-07-07T08:27:20.000Z</time>
      </trkpt>
      <trkpt lat="47.33725" lon="-2.48237">
        <ele>6.1999998092651</ele>
        <time>2019-07-07T08:27:24.000Z</time>
      </trkpt>
      <trkpt lat="47.33725" lon="-2.48246">
        <ele>5.8000001907349</ele>
        <time>2019-07-07T08:27:25.000Z</time>
      </trkpt>
      <trkpt lat="47.33724" lon="-2.48255">
        <ele>5.1999998092651</ele>
        <time>2019-07-07T08:27:26.000Z</time>
      </trkpt>
      <trkpt lat="47.33724" lon="-2.48265">
        <ele>4.8000001907349</ele>
        <time>2019-07-07T08:27:27.000Z</time>
      </trkpt>
      <trkpt lat="47.33723" lon="-2.48274">
        <ele>4.4000000953674</ele>
        <time>2019-07-07T08:27:28.000Z</time>
      </trkpt>
      <trkpt lat="47.33724" lon="-2.48293">
        <ele>4.4000000953674</ele>
        <time>2019-07-07T08:27:30.000Z</time>
      </trkpt>
      <trkpt lat="47.33725" lon="-2.48319">
        <ele>4</ele>
        <time>2019-07-07T08:27:34.000Z</time>
      </trkpt>
      <trkpt lat="47.33726" lon="-2.48322">
        <ele>3.5999999046326</ele>
        <time>2019-07-07T08:27:35.000Z</time>
      </trkpt>
      <trkpt lat="47.33727" lon="-2.48323">
        <ele>3.2000000476837</ele>
        <time>2019-07-07T08:27:37.000Z</time>
      </trkpt>
      <trkpt lat="47.33727" lon="-2.48323">
        <ele>2.7999999523163</ele>
        <time>2019-07-07T08:27:38.000Z</time>
      </trkpt>
      <trkpt lat="47.33725" lon="-2.48327">
        <ele>2.4000000953674</ele>
        <time>2019-07-07T08:28:13.000Z</time>
      </trkpt>
      <trkpt lat="47.33721" lon="-2.48331">
        <ele>2.4000000953674</ele>
        <time>2019-07-07T08:28:15.000Z</time>
      </trkpt>
      <trkpt lat="47.33705" lon="-2.48335">
        <ele>2.4000000953674</ele>
        <time>2019-07-07T08:28:19.000Z</time>
      </trkpt>
      <trkpt lat="47.3368" lon="-2.4834">
        <ele>2</ele>
        <time>2019-07-07T08:28:23.000Z</time>
      </trkpt>
      <trkpt lat="47.33672" lon="-2.48342">
        <ele>1.3999999761581</ele>
        <time>2019-07-07T08:28:24.000Z</time>
      </trkpt>
      <trkpt lat="47.33665" lon="-2.48345">
        <ele>1</ele>
        <time>2019-07-07T08:28:25.000Z</time>
      </trkpt>
      <trkpt lat="47.33658" lon="-2.4835">
        <ele>0.60000002384186</ele>
        <time>2019-07-07T08:28:26.000Z</time>
      </trkpt>
      <trkpt lat="47.33651" lon="-2.48356">
        <ele>0.20000000298023</ele>
        <time>2019-07-07T08:28:27.000Z</time>
      </trkpt>
      <trkpt lat="47.33644" lon="-2.48363">
        <ele>0.20000000298023</ele>
        <time>2019-07-07T08:28:28.000Z</time>
      </trkpt>
      <trkpt lat="47.33632" lon="-2.4838">
        <ele>-0.20000000298023</ele>
        <time>2019-07-07T08:28:30.000Z</time>
      </trkpt>
      <trkpt lat="47.33628" lon="-2.4839">
        <ele>-0.60000002384186</ele>
        <time>2019-07-07T08:28:31.000Z</time>
      </trkpt>
      <trkpt lat="47.33624" lon="-2.484">
        <ele>-1</ele>
        <time>2019-07-07T08:28:32.000Z</time>
      </trkpt>
      <trkpt lat="47.33622" lon="-2.4841">
        <ele>-1.3999999761581</ele>
        <time>2019-07-07T08:28:33.000Z</time>
      </trkpt>
      <trkpt lat="47.3362" lon="-2.4842">
        <ele>-1.7999999523163</ele>
        <time>2019-07-07T08:28:34.000Z</time>
      </trkpt>
      <trkpt lat="47.33617" lon="-2.48429">
        <ele>-1.7999999523163</ele>
        <time>2019-07-07T08:28:35.000Z</time>
      </trkpt>
      <trkpt lat="47.33613" lon="-2.48448">
        <ele>-1.7999999523163</ele>
        <time>2019-07-07T08:28:37.000Z</time>
      </trkpt>
      <trkpt lat="47.33609" lon="-2.48466">
        <ele>-1.7999999523163</ele>
        <time>2019-07-07T08:28:39.000Z</time>
      </trkpt>
      <trkpt lat="47.33603" lon="-2.48482">
        <ele>-1.7999999523163</ele>
        <time>2019-07-07T08:28:41.000Z</time>
      </trkpt>
      <trkpt lat="47.33578" lon="-2.48536">
        <ele>-1.7999999523163</ele>
        <time>2019-07-07T08:28:48.000Z</time>
      </trkpt>
      <trkpt lat="47.33555" lon="-2.48582">
        <ele>-1.7999999523163</ele>
        <time>2019-07-07T08:28:54.000Z</time>
      </trkpt>
      <trkpt lat="47.3352" lon="-2.48645">
        <ele>-1.7999999523163</ele>
        <time>2019-07-07T08:29:02.000Z</time>
      </trkpt>
      <trkpt lat="47.33487" lon="-2.4869">
        <ele>-1.7999999523163</ele>
        <time>2019-07-07T08:29:09.000Z</time>
      </trkpt>
      <trkpt lat="47.33447" lon="-2.48739">
        <ele>-1.7999999523163</ele>
        <time>2019-07-07T08:29:17.000Z</time>
      </trkpt>
      <trkpt lat="47.33413" lon="-2.48782">
        <ele>-1.7999999523163</ele>
        <time>2019-07-07T08:29:24.000Z</time>
      </trkpt>
      <trkpt lat="47.33388" lon="-2.48812">
        <ele>-1.7999999523163</ele>
        <time>2019-07-07T08:29:29.000Z</time>
      </trkpt>
      <trkpt lat="47.33383" lon="-2.48817">
        <ele>-1.7999999523163</ele>
        <time>2019-07-07T08:29:30.000Z</time>
      </trkpt>
      <trkpt lat="47.33371" lon="-2.48826">
        <ele>-1.7999999523163</ele>
        <time>2019-07-07T08:29:32.000Z</time>
      </trkpt>
      <trkpt lat="47.33354" lon="-2.48833">
        <ele>-1.7999999523163</ele>
        <time>2019-07-07T08:29:35.000Z</time>
      </trkpt>
      <trkpt lat="47.33329" lon="-2.48832">
        <ele>-1.7999999523163</ele>
        <time>2019-07-07T08:29:39.000Z</time>
      </trkpt>
      <trkpt lat="47.33323" lon="-2.48832">
        <ele>-1.7999999523163</ele>
        <time>2019-07-07T08:29:40.000Z</time>
      </trkpt>
      <trkpt lat="47.33305" lon="-2.48832">
        <ele>-1.7999999523163</ele>
        <time>2019-07-07T08:29:43.000Z</time>
      </trkpt>
      <trkpt lat="47.33293" lon="-2.48837">
        <ele>-1.7999999523163</ele>
        <time>2019-07-07T08:29:45.000Z</time>
      </trkpt>
      <trkpt lat="47.33277" lon="-2.48851">
        <ele>-1.7999999523163</ele>
        <time>2019-07-07T08:29:48.000Z</time>
      </trkpt>
      <trkpt lat="47.33272" lon="-2.48856">
        <ele>-1.7999999523163</ele>
        <time>2019-07-07T08:29:49.000Z</time>
      </trkpt>
      <trkpt lat="47.33253" lon="-2.4888">
        <ele>-1.7999999523163</ele>
        <time>2019-07-07T08:29:54.000Z</time>
      </trkpt>
      <trkpt lat="47.33252" lon="-2.48886">
        <ele>-1.7999999523163</ele>
        <time>2019-07-07T08:29:55.000Z</time>
      </trkpt>
      <trkpt lat="47.33254" lon="-2.48912">
        <ele>-1.7999999523163</ele>
        <time>2019-07-07T08:29:59.000Z</time>
      </trkpt>
      <trkpt lat="47.33256" lon="-2.4892">
        <ele>-1.7999999523163</ele>
        <time>2019-07-07T08:30:00.000Z</time>
      </trkpt>
      <trkpt lat="47.33263" lon="-2.48953">
        <ele>-1.7999999523163</ele>
        <time>2019-07-07T08:30:04.000Z</time>
      </trkpt>
      <trkpt lat="47.33269" lon="-2.48979">
        <ele>-1.7999999523163</ele>
        <time>2019-07-07T08:30:07.000Z</time>
      </trkpt>
      <trkpt lat="47.33275" lon="-2.48997">
        <ele>-1.7999999523163</ele>
        <time>2019-07-07T08:30:09.000Z</time>
      </trkpt>
      <trkpt lat="47.33296" lon="-2.4906">
        <ele>-1.7999999523163</ele>
        <time>2019-07-07T08:30:16.000Z</time>
      </trkpt>
      <trkpt lat="47.33323" lon="-2.49101">
        <ele>-1.7999999523163</ele>
        <time>2019-07-07T08:30:22.000Z</time>
      </trkpt>
      <trkpt lat="47.33353" lon="-2.49149">
        <ele>-1.7999999523163</ele>
        <time>2019-07-07T08:30:29.000Z</time>
      </trkpt>
      <trkpt lat="47.33377" lon="-2.49204">
        <ele>-1.7999999523163</ele>
        <time>2019-07-07T08:30:36.000Z</time>
      </trkpt>
      <trkpt lat="47.33385" lon="-2.4925">
        <ele>-1.7999999523163</ele>
        <time>2019-07-07T08:30:41.000Z</time>
      </trkpt>
      <trkpt lat="47.33392" lon="-2.49286">
        <ele>-1.7999999523163</ele>
        <time>2019-07-07T08:30:45.000Z</time>
      </trkpt>
      <trkpt lat="47.33399" lon="-2.49302">
        <ele>-1.7999999523163</ele>
        <time>2019-07-07T08:30:47.000Z</time>
      </trkpt>
      <trkpt lat="47.33417" lon="-2.49351">
        <ele>-1.7999999523163</ele>
        <time>2019-07-07T08:30:53.000Z</time>
      </trkpt>
      <trkpt lat="47.33425" lon="-2.49406">
        <ele>-1.7999999523163</ele>
        <time>2019-07-07T08:30:59.000Z</time>
      </trkpt>
      <trkpt lat="47.33435" lon="-2.49489">
        <ele>-1.7999999523163</ele>
        <time>2019-07-07T08:31:08.000Z</time>
      </trkpt>
      <trkpt lat="47.33436" lon="-2.49498">
        <ele>-1.7999999523163</ele>
        <time>2019-07-07T08:31:09.000Z</time>
      </trkpt>
      <trkpt lat="47.33445" lon="-2.49581">
        <ele>-1.7999999523163</ele>
        <time>2019-07-07T08:31:18.000Z</time>
      </trkpt>
      <trkpt lat="47.33455" lon="-2.49644">
        <ele>-1.7999999523163</ele>
        <time>2019-07-07T08:31:25.000Z</time>
      </trkpt>
      <trkpt lat="47.33473" lon="-2.49693">
        <ele>-1.7999999523163</ele>
        <time>2019-07-07T08:31:31.000Z</time>
      </trkpt>
      <trkpt lat="47.33503" lon="-2.49764">
        <ele>-1.7999999523163</ele>
        <time>2019-07-07T08:31:40.000Z</time>
      </trkpt>
      <trkpt lat="47.33529" lon="-2.4983">
        <ele>-1.7999999523163</ele>
        <time>2019-07-07T08:31:48.000Z</time>
      </trkpt>
      <trkpt lat="47.33556" lon="-2.49906">
        <ele>-1.7999999523163</ele>
        <time>2019-07-07T08:31:57.000Z</time>
      </trkpt>
      <trkpt lat="47.33559" lon="-2.49914">
        <ele>-1.7999999523163</ele>
        <time>2019-07-07T08:31:58.000Z</time>
      </trkpt>
      <trkpt lat="47.33581" lon="-2.49976">
        <ele>-1.7999999523163</ele>
        <time>2019-07-07T08:32:06.000Z</time>
      </trkpt>
      <trkpt lat="47.33598" lon="-2.50027">
        <ele>-1.7999999523163</ele>
        <time>2019-07-07T08:32:13.000Z</time>
      </trkpt>
      <trkpt lat="47.33607" lon="-2.50048">
        <ele>-1.7999999523163</ele>
        <time>2019-07-07T08:32:16.000Z</time>
      </trkpt>
      <trkpt lat="47.33618" lon="-2.50075">
        <ele>-1.7999999523163</ele>
        <time>2019-07-07T08:32:20.000Z</time>
      </trkpt>
      <trkpt lat="47.33626" lon="-2.50099">
        <ele>-1.7999999523163</ele>
        <time>2019-07-07T08:32:25.000Z</time>
      </trkpt>
      <trkpt lat="47.33624" lon="-2.50103">
        <ele>-1.7999999523163</ele>
        <time>2019-07-07T08:32:28.000Z</time>
      </trkpt>
      <trkpt lat="47.33621" lon="-2.50104">
        <ele>-1.7999999523163</ele>
        <time>2019-07-07T08:32:30.000Z</time>
      </trkpt>
      <trkpt lat="47.33618" lon="-2.50104">
        <ele>-1.7999999523163</ele>
        <time>2019-07-07T08:32:32.000Z</time>
      </trkpt>
      <trkpt lat="47.33615" lon="-2.50101">
        <ele>-1.7999999523163</ele>
        <time>2019-07-07T08:32:34.000Z</time>
      </trkpt>
      <trkpt lat="47.33604" lon="-2.50093">
        <ele>-1.7999999523163</ele>
        <time>2019-07-07T08:32:38.000Z</time>
      </trkpt>
      <trkpt lat="47.33602" lon="-2.50091">
        <ele>-1.7999999523163</ele>
        <time>2019-07-07T08:32:39.000Z</time>
      </trkpt>
      <trkpt lat="47.33586" lon="-2.50077">
        <ele>-1.7999999523163</ele>
        <time>2019-07-07T08:32:44.000Z</time>
      </trkpt>
      <trkpt lat="47.33565" lon="-2.50053">
        <ele>-1.7999999523163</ele>
        <time>2019-07-07T08:32:51.000Z</time>
      </trkpt>
      <trkpt lat="47.3356" lon="-2.50048">
        <ele>-1.7999999523163</ele>
        <time>2019-07-07T08:32:55.000Z</time>
      </trkpt>
      <trkpt lat="47.33559" lon="-2.50048">
        <ele>-1.7999999523163</ele>
        <time>2019-07-07T08:32:56.000Z</time>
      </trkpt>
      <trkpt lat="47.33556" lon="-2.50054">
        <ele>-1.7999999523163</ele>
        <time>2019-07-07T08:33:01.000Z</time>
      </trkpt>
      <trkpt lat="47.33551" lon="-2.50063">
        <ele>-1.7999999523163</ele>
        <time>2019-07-07T08:33:08.000Z</time>
      </trkpt>
      <trkpt lat="47.33537" lon="-2.50069">
        <ele>-1.7999999523163</ele>
        <time>2019-07-07T08:33:12.000Z</time>
      </trkpt>
      <trkpt lat="47.33519" lon="-2.50061">
        <ele>-1.7999999523163</ele>
        <time>2019-07-07T08:33:16.000Z</time>
      </trkpt>
      <trkpt lat="47.33481" lon="-2.50041">
        <ele>-1.7999999523163</ele>
        <time>2019-07-07T08:33:24.000Z</time>
      </trkpt>
      <trkpt lat="47.33454" lon="-2.50028">
        <ele>-1.7999999523163</ele>
        <time>2019-07-07T08:33:30.000Z</time>
      </trkpt>
      <trkpt lat="47.33425" lon="-2.50013">
        <ele>-1.7999999523163</ele>
        <time>2019-07-07T08:33:36.000Z</time>
      </trkpt>
      <trkpt lat="47.33409" lon="-2.50006">
        <ele>-1.7999999523163</ele>
        <time>2019-07-07T08:33:39.000Z</time>
      </trkpt>
      <trkpt lat="47.33392" lon="-2.50002">
        <ele>-1.7999999523163</ele>
        <time>2019-07-07T08:33:42.000Z</time>
      </trkpt>
      <trkpt lat="47.33371" lon="-2.49992">
        <ele>-1.7999999523163</ele>
        <time>2019-07-07T08:33:46.000Z</time>
      </trkpt>
      <trkpt lat="47.33365" lon="-2.49991">
        <ele>-1.7999999523163</ele>
        <time>2019-07-07T08:33:47.000Z</time>
      </trkpt>
      <trkpt lat="47.3336" lon="-2.49988">
        <ele>-1.7999999523163</ele>
        <time>2019-07-07T08:33:48.000Z</time>
      </trkpt>
      <trkpt lat="47.33346" lon="-2.49976">
        <ele>-1.7999999523163</ele>
        <time>2019-07-07T08:33:51.000Z</time>
      </trkpt>
      <trkpt lat="47.33333" lon="-2.49963">
        <ele>-1.7999999523163</ele>
        <time>2019-07-07T08:33:54.000Z</time>
      </trkpt>
      <trkpt lat="47.33325" lon="-2.49953">
        <ele>-1.7999999523163</ele>
        <time>2019-07-07T08:33:56.000Z</time>
      </trkpt>
      <trkpt lat="47.33305" lon="-2.49931">
        <ele>-1.7999999523163</ele>
        <time>2019-07-07T08:34:01.000Z</time>
      </trkpt>
      <trkpt lat="47.33288" lon="-2.49913">
        <ele>-1.7999999523163</ele>
        <time>2019-07-07T08:34:06.000Z</time>
      </trkpt>
      <trkpt lat="47.3327" lon="-2.49893">
        <ele>-1.7999999523163</ele>
        <time>2019-07-07T08:34:11.000Z</time>
      </trkpt>
      <trkpt lat="47.33267" lon="-2.49889">
        <ele>-1.7999999523163</ele>
        <time>2019-07-07T08:34:12.000Z</time>
      </trkpt>
      <trkpt lat="47.3325" lon="-2.49877">
        <ele>-1.7999999523163</ele>
        <time>2019-07-07T08:34:16.000Z</time>
      </trkpt>
      <trkpt lat="47.33247" lon="-2.49875">
        <ele>-1.7999999523163</ele>
        <time>2019-07-07T08:34:17.000Z</time>
      </trkpt>
      <trkpt lat="47.33229" lon="-2.49858">
        <ele>-1.7999999523163</ele>
        <time>2019-07-07T08:34:21.000Z</time>
      </trkpt>
      <trkpt lat="47.33224" lon="-2.49855">
        <ele>-1.7999999523163</ele>
        <time>2019-07-07T08:34:22.000Z</time>
      </trkpt>
      <trkpt lat="47.33216" lon="-2.49848">
        <ele>-1.7999999523163</ele>
        <time>2019-07-07T08:34:24.000Z</time>
      </trkpt>
      <trkpt lat="47.33201" lon="-2.49835">
        <ele>-1.7999999523163</ele>
        <time>2019-07-07T08:34:27.000Z</time>
      </trkpt>
      <trkpt lat="47.33166" lon="-2.4981">
        <ele>-1.7999999523163</ele>
        <time>2019-07-07T08:34:34.000Z</time>
      </trkpt>
      <trkpt lat="47.33152" lon="-2.49804">
        <ele>-1.7999999523163</ele>
        <time>2019-07-07T08:34:37.000Z</time>
      </trkpt>
      <trkpt lat="47.33143" lon="-2.498">
        <ele>-1.7999999523163</ele>
        <time>2019-07-07T08:34:39.000Z</time>
      </trkpt>
      <trkpt lat="47.33132" lon="-2.49794">
        <ele>-1.7999999523163</ele>
        <time>2019-07-07T08:34:41.000Z</time>
      </trkpt>
      <trkpt lat="47.33121" lon="-2.49783">
        <ele>-1.7999999523163</ele>
        <time>2019-07-07T08:34:43.000Z</time>
      </trkpt>
      <trkpt lat="47.3311" lon="-2.4977">
        <ele>-1.7999999523163</ele>
        <time>2019-07-07T08:34:45.000Z</time>
      </trkpt>
      <trkpt lat="47.33094" lon="-2.49752">
        <ele>-1.7999999523163</ele>
        <time>2019-07-07T08:34:48.000Z</time>
      </trkpt>
      <trkpt lat="47.33065" lon="-2.49722">
        <ele>-1.7999999523163</ele>
        <time>2019-07-07T08:34:54.000Z</time>
      </trkpt>
      <trkpt lat="47.33038" lon="-2.4971">
        <ele>-1.7999999523163</ele>
        <time>2019-07-07T08:34:59.000Z</time>
      </trkpt>
      <trkpt lat="47.33028" lon="-2.49703">
        <ele>-1.7999999523163</ele>
        <time>2019-07-07T08:35:01.000Z</time>
      </trkpt>
      <trkpt lat="47.33021" lon="-2.49692">
        <ele>-1.7999999523163</ele>
        <time>2019-07-07T08:35:03.000Z</time>
      </trkpt>
      <trkpt lat="47.33016" lon="-2.4968">
        <ele>-1.7999999523163</ele>
        <time>2019-07-07T08:35:05.000Z</time>
      </trkpt>
      <trkpt lat="47.33014" lon="-2.49675">
        <ele>-1.7999999523163</ele>
        <time>2019-07-07T08:35:06.000Z</time>
      </trkpt>
      <trkpt lat="47.33011" lon="-2.49673">
        <ele>-1.7999999523163</ele>
        <time>2019-07-07T08:35:07.000Z</time>
      </trkpt>
      <trkpt lat="47.32995" lon="-2.49663">
        <ele>-1.7999999523163</ele>
        <time>2019-07-07T08:35:12.000Z</time>
      </trkpt>
      <trkpt lat="47.3299" lon="-2.49671">
        <ele>-1.7999999523163</ele>
        <time>2019-07-07T08:35:15.000Z</time>
      </trkpt>
      <trkpt lat="47.32983" lon="-2.49679">
        <ele>-1.7999999523163</ele>
        <time>2019-07-07T08:35:18.000Z</time>
      </trkpt>
      <trkpt lat="47.32976" lon="-2.49684">
        <ele>-1.7999999523163</ele>
        <time>2019-07-07T08:35:20.000Z</time>
      </trkpt>
      <trkpt lat="47.32969" lon="-2.49691">
        <ele>-1.7999999523163</ele>
        <time>2019-07-07T08:35:22.000Z</time>
      </trkpt>
      <trkpt lat="47.32962" lon="-2.49708">
        <ele>-1.7999999523163</ele>
        <time>2019-07-07T08:35:25.000Z</time>
      </trkpt>
      <trkpt lat="47.32956" lon="-2.49718">
        <ele>-1.7999999523163</ele>
        <time>2019-07-07T08:35:28.000Z</time>
      </trkpt>
      <trkpt lat="47.32954" lon="-2.49717">
        <ele>-1.7999999523163</ele>
        <time>2019-07-07T08:35:29.000Z</time>
      </trkpt>
      <trkpt lat="47.32949" lon="-2.49715">
        <ele>-1.7999999523163</ele>
        <time>2019-07-07T08:35:32.000Z</time>
      </trkpt>
      <trkpt lat="47.32948" lon="-2.49718">
        <ele>-1.7999999523163</ele>
        <time>2019-07-07T08:35:33.000Z</time>
      </trkpt>
      <trkpt lat="47.32946" lon="-2.49727">
        <ele>-1.7999999523163</ele>
        <time>2019-07-07T08:35:36.000Z</time>
      </trkpt>
      <trkpt lat="47.32942" lon="-2.49736">
        <ele>-1.7999999523163</ele>
        <time>2019-07-07T08:35:39.000Z</time>
      </trkpt>
      <trkpt lat="47.3293" lon="-2.49741">
        <ele>-1.7999999523163</ele>
        <time>2019-07-07T08:35:43.000Z</time>
      </trkpt>
      <trkpt lat="47.32925" lon="-2.49741">
        <ele>-1.7999999523163</ele>
        <time>2019-07-07T08:35:44.000Z</time>
      </trkpt>
      <trkpt lat="47.3291" lon="-2.49741">
        <ele>-1.7999999523163</ele>
        <time>2019-07-07T08:35:47.000Z</time>
      </trkpt>
      <trkpt lat="47.32892" lon="-2.49755">
        <ele>-1.7999999523163</ele>
        <time>2019-07-07T08:35:51.000Z</time>
      </trkpt>
      <trkpt lat="47.32888" lon="-2.49759">
        <ele>-1.7999999523163</ele>
        <time>2019-07-07T08:35:52.000Z</time>
      </trkpt>
      <trkpt lat="47.32883" lon="-2.49761">
        <ele>-1.7999999523163</ele>
        <time>2019-07-07T08:35:53.000Z</time>
      </trkpt>
      <trkpt lat="47.32876" lon="-2.49766">
        <ele>-1.7999999523163</ele>
        <time>2019-07-07T08:35:55.000Z</time>
      </trkpt>
      <trkpt lat="47.32871" lon="-2.49767">
        <ele>-1.7999999523163</ele>
        <time>2019-07-07T08:35:56.000Z</time>
      </trkpt>
      <trkpt lat="47.32858" lon="-2.49766">
        <ele>-1.7999999523163</ele>
        <time>2019-07-07T08:35:59.000Z</time>
      </trkpt>
      <trkpt lat="47.32854" lon="-2.49766">
        <ele>-1.7999999523163</ele>
        <time>2019-07-07T08:36:00.000Z</time>
      </trkpt>
      <trkpt lat="47.3285" lon="-2.49763">
        <ele>-1.7999999523163</ele>
        <time>2019-07-07T08:36:01.000Z</time>
      </trkpt>
      <trkpt lat="47.32837" lon="-2.4976">
        <ele>-1.7999999523163</ele>
        <time>2019-07-07T08:36:04.000Z</time>
      </trkpt>
      <trkpt lat="47.32827" lon="-2.49757">
        <ele>-1.7999999523163</ele>
        <time>2019-07-07T08:36:06.000Z</time>
      </trkpt>
      <trkpt lat="47.32812" lon="-2.49756">
        <ele>-1.7999999523163</ele>
        <time>2019-07-07T08:36:09.000Z</time>
      </trkpt>
      <trkpt lat="47.32793" lon="-2.49755">
        <ele>-1.7999999523163</ele>
        <time>2019-07-07T08:36:13.000Z</time>
      </trkpt>
      <trkpt lat="47.32782" lon="-2.49752">
        <ele>-1.7999999523163</ele>
        <time>2019-07-07T08:36:15.000Z</time>
      </trkpt>
      <trkpt lat="47.32776" lon="-2.4975">
        <ele>-1.7999999523163</ele>
        <time>2019-07-07T08:36:16.000Z</time>
      </trkpt>
      <trkpt lat="47.32756" lon="-2.49742">
        <ele>-1.7999999523163</ele>
        <time>2019-07-07T08:36:20.000Z</time>
      </trkpt>
      <trkpt lat="47.32751" lon="-2.49742">
        <ele>-1.7999999523163</ele>
        <time>2019-07-07T08:36:21.000Z</time>
      </trkpt>
      <trkpt lat="47.32736" lon="-2.49743">
        <ele>-1.7999999523163</ele>
        <time>2019-07-07T08:36:24.000Z</time>
      </trkpt>
      <trkpt lat="47.32732" lon="-2.49742">
        <ele>-1.7999999523163</ele>
        <time>2019-07-07T08:36:25.000Z</time>
      </trkpt>
      <trkpt lat="47.32718" lon="-2.49735">
        <ele>-1.7999999523163</ele>
        <time>2019-07-07T08:36:28.000Z</time>
      </trkpt>
      <trkpt lat="47.32695" lon="-2.49721">
        <ele>-1.7999999523163</ele>
        <time>2019-07-07T08:36:33.000Z</time>
      </trkpt>
      <trkpt lat="47.32686" lon="-2.49717">
        <ele>-1.7999999523163</ele>
        <time>2019-07-07T08:36:35.000Z</time>
      </trkpt>
      <trkpt lat="47.32678" lon="-2.4971">
        <ele>-1.7999999523163</ele>
        <time>2019-07-07T08:36:37.000Z</time>
      </trkpt>
      <trkpt lat="47.3266" lon="-2.49697">
        <ele>-1.3999999761581</ele>
        <time>2019-07-07T08:36:41.000Z</time>
      </trkpt>
      <trkpt lat="47.32656" lon="-2.49695">
        <ele>-1</ele>
        <time>2019-07-07T08:36:42.000Z</time>
      </trkpt>
      <trkpt lat="47.32651" lon="-2.49692">
        <ele>-0.60000002384186</ele>
        <time>2019-07-07T08:36:43.000Z</time>
      </trkpt>
      <trkpt lat="47.32646" lon="-2.49688">
        <ele>-0.20000000298023</ele>
        <time>2019-07-07T08:36:44.000Z</time>
      </trkpt>
      <trkpt lat="47.32641" lon="-2.49686">
        <ele>0.20000000298023</ele>
        <time>2019-07-07T08:36:45.000Z</time>
      </trkpt>
      <trkpt lat="47.32632" lon="-2.4968">
        <ele>0.20000000298023</ele>
        <time>2019-07-07T08:36:47.000Z</time>
      </trkpt>
      <trkpt lat="47.32614" lon="-2.49673">
        <ele>0.20000000298023</ele>
        <time>2019-07-07T08:36:51.000Z</time>
      </trkpt>
      <trkpt lat="47.32609" lon="-2.49671">
        <ele>0.20000000298023</ele>
        <time>2019-07-07T08:36:52.000Z</time>
      </trkpt>
      <trkpt lat="47.326" lon="-2.49671">
        <ele>0.20000000298023</ele>
        <time>2019-07-07T08:36:54.000Z</time>
      </trkpt>
      <trkpt lat="47.32591" lon="-2.49675">
        <ele>0.20000000298023</ele>
        <time>2019-07-07T08:36:56.000Z</time>
      </trkpt>
      <trkpt lat="47.3258" lon="-2.4968">
        <ele>0.20000000298023</ele>
        <time>2019-07-07T08:36:58.000Z</time>
      </trkpt>
      <trkpt lat="47.32573" lon="-2.49686">
        <ele>0.20000000298023</ele>
        <time>2019-07-07T08:37:00.000Z</time>
      </trkpt>
      <trkpt lat="47.32566" lon="-2.49704">
        <ele>0.20000000298023</ele>
        <time>2019-07-07T08:37:03.000Z</time>
      </trkpt>
      <trkpt lat="47.32563" lon="-2.49711">
        <ele>0.20000000298023</ele>
        <time>2019-07-07T08:37:04.000Z</time>
      </trkpt>
      <trkpt lat="47.32551" lon="-2.49753">
        <ele>0.20000000298023</ele>
        <time>2019-07-07T08:37:09.000Z</time>
      </trkpt>
      <trkpt lat="47.32546" lon="-2.49767">
        <ele>0.20000000298023</ele>
        <time>2019-07-07T08:37:11.000Z</time>
      </trkpt>
      <trkpt lat="47.32542" lon="-2.49793">
        <ele>0.20000000298023</ele>
        <time>2019-07-07T08:37:14.000Z</time>
      </trkpt>
      <trkpt lat="47.32538" lon="-2.49843">
        <ele>0.20000000298023</ele>
        <time>2019-07-07T08:37:20.000Z</time>
      </trkpt>
      <trkpt lat="47.32533" lon="-2.49869">
        <ele>0.20000000298023</ele>
        <time>2019-07-07T08:37:24.000Z</time>
      </trkpt>
      <trkpt lat="47.32522" lon="-2.49883">
        <ele>0.20000000298023</ele>
        <time>2019-07-07T08:37:27.000Z</time>
      </trkpt>
      <trkpt lat="47.32517" lon="-2.49888">
        <ele>0.20000000298023</ele>
        <time>2019-07-07T08:37:28.000Z</time>
      </trkpt>
      <trkpt lat="47.32513" lon="-2.49891">
        <ele>0.20000000298023</ele>
        <time>2019-07-07T08:37:29.000Z</time>
      </trkpt>
      <trkpt lat="47.32497" lon="-2.49893">
        <ele>0.20000000298023</ele>
        <time>2019-07-07T08:37:32.000Z</time>
      </trkpt>
      <trkpt lat="47.32475" lon="-2.49898">
        <ele>0.20000000298023</ele>
        <time>2019-07-07T08:37:36.000Z</time>
      </trkpt>
      <trkpt lat="47.32467" lon="-2.49909">
        <ele>0.20000000298023</ele>
        <time>2019-07-07T08:37:38.000Z</time>
      </trkpt>
      <trkpt lat="47.32459" lon="-2.49921">
        <ele>0.20000000298023</ele>
        <time>2019-07-07T08:37:40.000Z</time>
      </trkpt>
      <trkpt lat="47.32446" lon="-2.49936">
        <ele>0.20000000298023</ele>
        <time>2019-07-07T08:37:43.000Z</time>
      </trkpt>
      <trkpt lat="47.32437" lon="-2.49943">
        <ele>0.20000000298023</ele>
        <time>2019-07-07T08:37:45.000Z</time>
      </trkpt>
      <trkpt lat="47.32424" lon="-2.49952">
        <ele>0.20000000298023</ele>
        <time>2019-07-07T08:37:48.000Z</time>
      </trkpt>
      <trkpt lat="47.32416" lon="-2.49959">
        <ele>0.20000000298023</ele>
        <time>2019-07-07T08:37:50.000Z</time>
      </trkpt>
      <trkpt lat="47.32412" lon="-2.4996">
        <ele>0.20000000298023</ele>
        <time>2019-07-07T08:37:51.000Z</time>
      </trkpt>
      <trkpt lat="47.32395" lon="-2.49957">
        <ele>0.20000000298023</ele>
        <time>2019-07-07T08:37:54.000Z</time>
      </trkpt>
      <trkpt lat="47.32389" lon="-2.49954">
        <ele>0.20000000298023</ele>
        <time>2019-07-07T08:37:55.000Z</time>
      </trkpt>
      <trkpt lat="47.32366" lon="-2.49948">
        <ele>0.20000000298023</ele>
        <time>2019-07-07T08:37:59.000Z</time>
      </trkpt>
      <trkpt lat="47.32343" lon="-2.49947">
        <ele>0.20000000298023</ele>
        <time>2019-07-07T08:38:03.000Z</time>
      </trkpt>
      <trkpt lat="47.3233" lon="-2.49944">
        <ele>0.20000000298023</ele>
        <time>2019-07-07T08:38:06.000Z</time>
      </trkpt>
      <trkpt lat="47.32324" lon="-2.49939">
        <ele>0.20000000298023</ele>
        <time>2019-07-07T08:38:08.000Z</time>
      </trkpt>
      <trkpt lat="47.32316" lon="-2.49932">
        <ele>0.20000000298023</ele>
        <time>2019-07-07T08:38:10.000Z</time>
      </trkpt>
      <trkpt lat="47.32312" lon="-2.49928">
        <ele>0.20000000298023</ele>
        <time>2019-07-07T08:38:11.000Z</time>
      </trkpt>
      <trkpt lat="47.32306" lon="-2.49914">
        <ele>0.20000000298023</ele>
        <time>2019-07-07T08:38:13.000Z</time>
      </trkpt>
      <trkpt lat="47.32302" lon="-2.49894">
        <ele>0.20000000298023</ele>
        <time>2019-07-07T08:38:16.000Z</time>
      </trkpt>
      <trkpt lat="47.32301" lon="-2.49887">
        <ele>0.20000000298023</ele>
        <time>2019-07-07T08:38:17.000Z</time>
      </trkpt>
      <trkpt lat="47.32297" lon="-2.49858">
        <ele>0.20000000298023</ele>
        <time>2019-07-07T08:38:21.000Z</time>
      </trkpt>
      <trkpt lat="47.32296" lon="-2.49843">
        <ele>0.20000000298023</ele>
        <time>2019-07-07T08:38:23.000Z</time>
      </trkpt>
      <trkpt lat="47.32294" lon="-2.49797">
        <ele>0.20000000298023</ele>
        <time>2019-07-07T08:38:29.000Z</time>
      </trkpt>
      <trkpt lat="47.32291" lon="-2.49749">
        <ele>0.20000000298023</ele>
        <time>2019-07-07T08:38:35.000Z</time>
      </trkpt>
      <trkpt lat="47.32289" lon="-2.49707">
        <ele>0.20000000298023</ele>
        <time>2019-07-07T08:38:40.000Z</time>
      </trkpt>
      <trkpt lat="47.3228" lon="-2.49673">
        <ele>0.20000000298023</ele>
        <time>2019-07-07T08:38:45.000Z</time>
      </trkpt>
      <trkpt lat="47.32276" lon="-2.49657">
        <ele>0.20000000298023</ele>
        <time>2019-07-07T08:38:47.000Z</time>
      </trkpt>
      <trkpt lat="47.32272" lon="-2.49632">
        <ele>0.20000000298023</ele>
        <time>2019-07-07T08:38:50.000Z</time>
      </trkpt>
      <trkpt lat="47.32267" lon="-2.49581">
        <ele>0.20000000298023</ele>
        <time>2019-07-07T08:38:56.000Z</time>
      </trkpt>
      <trkpt lat="47.32265" lon="-2.49539">
        <ele>0.20000000298023</ele>
        <time>2019-07-07T08:39:01.000Z</time>
      </trkpt>
      <trkpt lat="47.32266" lon="-2.49525">
        <ele>0.20000000298023</ele>
        <time>2019-07-07T08:39:03.000Z</time>
      </trkpt>
      <trkpt lat="47.32269" lon="-2.49504">
        <ele>0.20000000298023</ele>
        <time>2019-07-07T08:39:06.000Z</time>
      </trkpt>
      <trkpt lat="47.32265" lon="-2.49487">
        <ele>0.20000000298023</ele>
        <time>2019-07-07T08:39:09.000Z</time>
      </trkpt>
      <trkpt lat="47.32263" lon="-2.49481">
        <ele>0.20000000298023</ele>
        <time>2019-07-07T08:39:10.000Z</time>
      </trkpt>
      <trkpt lat="47.32258" lon="-2.49466">
        <ele>0.20000000298023</ele>
        <time>2019-07-07T08:39:13.000Z</time>
      </trkpt>
      <trkpt lat="47.32253" lon="-2.49464">
        <ele>0.20000000298023</ele>
        <time>2019-07-07T08:39:14.000Z</time>
      </trkpt>
      <trkpt lat="47.32243" lon="-2.49456">
        <ele>0.20000000298023</ele>
        <time>2019-07-07T08:39:16.000Z</time>
      </trkpt>
      <trkpt lat="47.32229" lon="-2.49433">
        <ele>0.20000000298023</ele>
        <time>2019-07-07T08:39:20.000Z</time>
      </trkpt>
      <trkpt lat="47.32222" lon="-2.49424">
        <ele>0.20000000298023</ele>
        <time>2019-07-07T08:39:22.000Z</time>
      </trkpt>
      <trkpt lat="47.32207" lon="-2.49403">
        <ele>0.20000000298023</ele>
        <time>2019-07-07T08:39:26.000Z</time>
      </trkpt>
      <trkpt lat="47.32193" lon="-2.4938">
        <ele>0.20000000298023</ele>
        <time>2019-07-07T08:39:30.000Z</time>
      </trkpt>
      <trkpt lat="47.3219" lon="-2.49373">
        <ele>0.20000000298023</ele>
        <time>2019-07-07T08:39:31.000Z</time>
      </trkpt>
      <trkpt lat="47.32178" lon="-2.49344">
        <ele>0.20000000298023</ele>
        <time>2019-07-07T08:39:36.000Z</time>
      </trkpt>
      <trkpt lat="47.32172" lon="-2.4933">
        <ele>0.20000000298023</ele>
        <time>2019-07-07T08:39:39.000Z</time>
      </trkpt>
      <trkpt lat="47.3216" lon="-2.49291">
        <ele>0.20000000298023</ele>
        <time>2019-07-07T08:39:45.000Z</time>
      </trkpt>
      <trkpt lat="47.32158" lon="-2.49284">
        <ele>0.20000000298023</ele>
        <time>2019-07-07T08:39:46.000Z</time>
      </trkpt>
      <trkpt lat="47.32149" lon="-2.49256">
        <ele>0.20000000298023</ele>
        <time>2019-07-07T08:39:50.000Z</time>
      </trkpt>
      <trkpt lat="47.32146" lon="-2.49249">
        <ele>0.20000000298023</ele>
        <time>2019-07-07T08:39:51.000Z</time>
      </trkpt>
      <trkpt lat="47.32128" lon="-2.49234">
        <ele>0.20000000298023</ele>
        <time>2019-07-07T08:39:55.000Z</time>
      </trkpt>
      <trkpt lat="47.32118" lon="-2.49231">
        <ele>0.20000000298023</ele>
        <time>2019-07-07T08:39:57.000Z</time>
      </trkpt>
      <trkpt lat="47.32114" lon="-2.49228">
        <ele>0.20000000298023</ele>
        <time>2019-07-07T08:39:58.000Z</time>
      </trkpt>
      <trkpt lat="47.32109" lon="-2.49224">
        <ele>0.20000000298023</ele>
        <time>2019-07-07T08:39:59.000Z</time>
      </trkpt>
      <trkpt lat="47.32097" lon="-2.4921">
        <ele>0.20000000298023</ele>
        <time>2019-07-07T08:40:02.000Z</time>
      </trkpt>
      <trkpt lat="47.32093" lon="-2.49207">
        <ele>0.20000000298023</ele>
        <time>2019-07-07T08:40:03.000Z</time>
      </trkpt>
      <trkpt lat="47.32083" lon="-2.4921">
        <ele>-0.20000000298023</ele>
        <time>2019-07-07T08:40:06.000Z</time>
      </trkpt>
      <trkpt lat="47.3208" lon="-2.49213">
        <ele>-0.80000001192093</ele>
        <time>2019-07-07T08:40:07.000Z</time>
      </trkpt>
      <trkpt lat="47.32079" lon="-2.49215">
        <ele>-1.6000000238419</ele>
        <time>2019-07-07T08:40:08.000Z</time>
      </trkpt>
      <trkpt lat="47.32078" lon="-2.49218">
        <ele>-2</ele>
        <time>2019-07-07T08:40:09.000Z</time>
      </trkpt>
      <trkpt lat="47.32077" lon="-2.4922">
        <ele>-2</ele>
        <time>2019-07-07T08:40:10.000Z</time>
      </trkpt>
      <trkpt lat="47.32081" lon="-2.4923">
        <ele>-2</ele>
        <time>2019-07-07T08:40:13.000Z</time>
      </trkpt>
      <trkpt lat="47.32087" lon="-2.49235">
        <ele>-2</ele>
        <time>2019-07-07T08:40:18.000Z</time>
      </trkpt>
      <trkpt lat="47.32098" lon="-2.49225">
        <ele>-2</ele>
        <time>2019-07-07T08:40:22.000Z</time>
      </trkpt>
      <trkpt lat="47.32106" lon="-2.49222">
        <ele>-2</ele>
        <time>2019-07-07T08:40:24.000Z</time>
      </trkpt>
      <trkpt lat="47.32112" lon="-2.49215">
        <ele>-2</ele>
        <time>2019-07-07T08:40:26.000Z</time>
      </trkpt>
      <trkpt lat="47.32115" lon="-2.4921">
        <ele>-2</ele>
        <time>2019-07-07T08:40:27.000Z</time>
      </trkpt>
      <trkpt lat="47.32122" lon="-2.49185">
        <ele>-2</ele>
        <time>2019-07-07T08:40:31.000Z</time>
      </trkpt>
      <trkpt lat="47.32125" lon="-2.49172">
        <ele>-2</ele>
        <time>2019-07-07T08:40:33.000Z</time>
      </trkpt>
      <trkpt lat="47.3213" lon="-2.49157">
        <ele>-2</ele>
        <time>2019-07-07T08:40:36.000Z</time>
      </trkpt>
      <trkpt lat="47.3213" lon="-2.49155">
        <ele>-2</ele>
        <time>2019-07-07T08:40:39.000Z</time>
      </trkpt>
      <trkpt lat="47.3213" lon="-2.49155">
        <ele>-2</ele>
        <time>2019-07-07T08:40:40.000Z</time>
      </trkpt>
      <trkpt lat="47.3213" lon="-2.49149">
        <ele>-2</ele>
        <time>2019-07-07T08:40:49.000Z</time>
      </trkpt>
      <trkpt lat="47.3213" lon="-2.49145">
        <ele>-2</ele>
        <time>2019-07-07T08:40:51.000Z</time>
      </trkpt>
      <trkpt lat="47.32129" lon="-2.49142">
        <ele>-2</ele>
        <time>2019-07-07T08:40:52.000Z</time>
      </trkpt>
      <trkpt lat="47.32123" lon="-2.4914">
        <ele>-2</ele>
        <time>2019-07-07T08:40:54.000Z</time>
      </trkpt>
      <trkpt lat="47.32104" lon="-2.49137">
        <ele>-2</ele>
        <time>2019-07-07T08:40:59.000Z</time>
      </trkpt>
      <trkpt lat="47.32091" lon="-2.49132">
        <ele>-2</ele>
        <time>2019-07-07T08:41:02.000Z</time>
      </trkpt>
      <trkpt lat="47.32083" lon="-2.49134">
        <ele>-2</ele>
        <time>2019-07-07T08:41:04.000Z</time>
      </trkpt>
      <trkpt lat="47.32069" lon="-2.4915">
        <ele>-2</ele>
        <time>2019-07-07T08:41:08.000Z</time>
      </trkpt>
      <trkpt lat="47.3205" lon="-2.49183">
        <ele>-2</ele>
        <time>2019-07-07T08:41:14.000Z</time>
      </trkpt>
      <trkpt lat="47.32047" lon="-2.49189">
        <ele>-2</ele>
        <time>2019-07-07T08:41:15.000Z</time>
      </trkpt>
      <trkpt lat="47.32041" lon="-2.49199">
        <ele>-2</ele>
        <time>2019-07-07T08:41:17.000Z</time>
      </trkpt>
      <trkpt lat="47.32028" lon="-2.49219">
        <ele>-2</ele>
        <time>2019-07-07T08:41:21.000Z</time>
      </trkpt>
      <trkpt lat="47.32003" lon="-2.49259">
        <ele>-2</ele>
        <time>2019-07-07T08:41:28.000Z</time>
      </trkpt>
      <trkpt lat="47.31969" lon="-2.49312">
        <ele>-2</ele>
        <time>2019-07-07T08:41:37.000Z</time>
      </trkpt>
      <trkpt lat="47.31942" lon="-2.49359">
        <ele>-2</ele>
        <time>2019-07-07T08:41:45.000Z</time>
      </trkpt>
      <trkpt lat="47.31923" lon="-2.49391">
        <ele>-2</ele>
        <time>2019-07-07T08:41:50.000Z</time>
      </trkpt>
      <trkpt lat="47.31891" lon="-2.4944">
        <ele>-2</ele>
        <time>2019-07-07T08:41:58.000Z</time>
      </trkpt>
      <trkpt lat="47.3186" lon="-2.49486">
        <ele>-2</ele>
        <time>2019-07-07T08:42:06.000Z</time>
      </trkpt>
      <trkpt lat="47.3184" lon="-2.49517">
        <ele>-1.2000000476837</ele>
        <time>2019-07-07T08:42:11.000Z</time>
      </trkpt>
      <trkpt lat="47.31836" lon="-2.49523">
        <ele>-0.80000001192093</ele>
        <time>2019-07-07T08:42:12.000Z</time>
      </trkpt>
      <trkpt lat="47.31832" lon="-2.49529">
        <ele>-0.40000000596046</ele>
        <time>2019-07-07T08:42:13.000Z</time>
      </trkpt>
      <trkpt lat="47.31828" lon="-2.49535">
        <ele>5</ele>
        <time>2019-07-07T08:42:14.000Z</time>
      </trkpt>
      <trkpt lat="47.31812" lon="-2.49559">
        <ele>5</ele>
        <time>2019-07-07T08:42:18.000Z</time>
      </trkpt>
      <trkpt lat="47.31788" lon="-2.49594">
        <ele>5.4</ele>
        <time>2019-07-07T08:42:25.000Z</time>
      </trkpt>
      <trkpt lat="47.31763" lon="-2.49631">
        <ele>5.8</ele>
        <time>2019-07-07T08:42:31.000Z</time>
      </trkpt>
      <trkpt lat="47.3176" lon="-2.49638">
        <ele>6</ele>
        <time>2019-07-07T08:42:32.000Z</time>
      </trkpt>
      <trkpt lat="47.31747" lon="-2.49658">
        <ele>6</ele>
        <time>2019-07-07T08:42:35.000Z</time>
      </trkpt>
      <trkpt lat="47.31708" lon="-2.49718">
        <ele>6</ele>
        <time>2019-07-07T08:42:44.000Z</time>
      </trkpt>
      <trkpt lat="47.31678" lon="-2.49762">
        <ele>6</ele>
        <time>2019-07-07T08:42:51.000Z</time>
      </trkpt>
      <trkpt lat="47.31674" lon="-2.49768">
        <ele>6</ele>
        <time>2019-07-07T08:42:52.000Z</time>
      </trkpt>
      <trkpt lat="47.31662" lon="-2.49788">
        <ele>5.9</ele>
        <time>2019-07-07T08:42:55.000Z</time>
      </trkpt>
      <trkpt lat="47.31654" lon="-2.49801">
        <ele>5.9</ele>
        <time>2019-07-07T08:42:57.000Z</time>
      </trkpt>
      <trkpt lat="47.31617" lon="-2.49858">
        <ele>5.9</ele>
        <time>2019-07-07T08:43:06.000Z</time>
      </trkpt>
      <trkpt lat="47.31604" lon="-2.49878">
        <ele>6.4</ele>
        <time>2019-07-07T08:43:09.000Z</time>
      </trkpt>
      <trkpt lat="47.3159" lon="-2.49897">
        <ele>6.3</ele>
        <time>2019-07-07T08:43:12.000Z</time>
      </trkpt>
      <trkpt lat="47.31559" lon="-2.49944">
        <ele>6</ele>
        <time>2019-07-07T08:43:19.000Z</time>
      </trkpt>
      <trkpt lat="47.31518" lon="-2.50003">
        <ele>5.7</ele>
        <time>2019-07-07T08:43:28.000Z</time>
      </trkpt>
      <trkpt lat="47.31478" lon="-2.50065">
        <ele>5.1</ele>
        <time>2019-07-07T08:43:37.000Z</time>
      </trkpt>
      <trkpt lat="47.31473" lon="-2.50072">
        <ele>5</ele>
        <time>2019-07-07T08:43:38.000Z</time>
      </trkpt>
      <trkpt lat="47.31437" lon="-2.50125">
        <ele>4.7</ele>
        <time>2019-07-07T08:43:46.000Z</time>
      </trkpt>
      <trkpt lat="47.31416" lon="-2.5016">
        <ele>4</ele>
        <time>2019-07-07T08:43:52.000Z</time>
      </trkpt>
      <trkpt lat="47.31391" lon="-2.50196">
        <ele>4</ele>
        <time>2019-07-07T08:43:58.000Z</time>
      </trkpt>
      <trkpt lat="47.31357" lon="-2.50245">
        <ele>4.7</ele>
        <time>2019-07-07T08:44:06.000Z</time>
      </trkpt>
      <trkpt lat="47.31323" lon="-2.50295">
        <ele>4.6</ele>
        <time>2019-07-07T08:44:14.000Z</time>
      </trkpt>
      <trkpt lat="47.31293" lon="-2.50339">
        <ele>5.9</ele>
        <time>2019-07-07T08:44:21.000Z</time>
      </trkpt>
      <trkpt lat="47.31262" lon="-2.5038">
        <ele>5.8</ele>
        <time>2019-07-07T08:44:28.000Z</time>
      </trkpt>
      <trkpt lat="47.31233" lon="-2.50416">
        <ele>5.8</ele>
        <time>2019-07-07T08:44:34.000Z</time>
      </trkpt>
      <trkpt lat="47.31195" lon="-2.50466">
        <ele>6.5</ele>
        <time>2019-07-07T08:44:43.000Z</time>
      </trkpt>
      <trkpt lat="47.31164" lon="-2.50502">
        <ele>7.1</ele>
        <time>2019-07-07T08:44:50.000Z</time>
      </trkpt>
      <trkpt lat="47.31137" lon="-2.5053">
        <ele>8</ele>
        <time>2019-07-07T08:44:56.000Z</time>
      </trkpt>
      <trkpt lat="47.31098" lon="-2.5056">
        <ele>6.9</ele>
        <time>2019-07-07T08:45:03.000Z</time>
      </trkpt>
      <trkpt lat="47.31067" lon="-2.50585">
        <ele>7.6</ele>
        <time>2019-07-07T08:45:09.000Z</time>
      </trkpt>
      <trkpt lat="47.31041" lon="-2.50605">
        <ele>0.60000002384186</ele>
        <time>2019-07-07T08:45:14.000Z</time>
      </trkpt>
      <trkpt lat="47.31037" lon="-2.50609">
        <ele>1</ele>
        <time>2019-07-07T08:45:15.000Z</time>
      </trkpt>
      <trkpt lat="47.31032" lon="-2.50613">
        <ele>1.3999999761581</ele>
        <time>2019-07-07T08:45:16.000Z</time>
      </trkpt>
      <trkpt lat="47.31026" lon="-2.50617">
        <ele>1.7999999523163</ele>
        <time>2019-07-07T08:45:17.000Z</time>
      </trkpt>
      <trkpt lat="47.31021" lon="-2.50621">
        <ele>2.2000000476837</ele>
        <time>2019-07-07T08:45:18.000Z</time>
      </trkpt>
      <trkpt lat="47.3098" lon="-2.50654">
        <ele>2.2000000476837</ele>
        <time>2019-07-07T08:45:26.000Z</time>
      </trkpt>
      <trkpt lat="47.30937" lon="-2.50687">
        <ele>2.2000000476837</ele>
        <time>2019-07-07T08:45:34.000Z</time>
      </trkpt>
      <trkpt lat="47.30898" lon="-2.50717">
        <ele>2.2000000476837</ele>
        <time>2019-07-07T08:45:41.000Z</time>
      </trkpt>
      <trkpt lat="47.30847" lon="-2.50757">
        <ele>2.2000000476837</ele>
        <time>2019-07-07T08:45:50.000Z</time>
      </trkpt>
      <trkpt lat="47.30797" lon="-2.50795">
        <ele>2.2000000476837</ele>
        <time>2019-07-07T08:45:59.000Z</time>
      </trkpt>
      <trkpt lat="47.30786" lon="-2.50804">
        <ele>2.2000000476837</ele>
        <time>2019-07-07T08:46:01.000Z</time>
      </trkpt>
      <trkpt lat="47.30754" lon="-2.50825">
        <ele>2.2000000476837</ele>
        <time>2019-07-07T08:46:07.000Z</time>
      </trkpt>
      <trkpt lat="47.3074" lon="-2.50831">
        <ele>2.2000000476837</ele>
        <time>2019-07-07T08:46:10.000Z</time>
      </trkpt>
      <trkpt lat="47.30731" lon="-2.50833">
        <ele>2.2000000476837</ele>
        <time>2019-07-07T08:46:12.000Z</time>
      </trkpt>
      <trkpt lat="47.30719" lon="-2.5085">
        <ele>2.2000000476837</ele>
        <time>2019-07-07T08:46:16.000Z</time>
      </trkpt>
      <trkpt lat="47.30708" lon="-2.50854">
        <ele>2.2000000476837</ele>
        <time>2019-07-07T08:46:19.000Z</time>
      </trkpt>
      <trkpt lat="47.30694" lon="-2.50866">
        <ele>2.2000000476837</ele>
        <time>2019-07-07T08:46:23.000Z</time>
      </trkpt>
      <trkpt lat="47.30687" lon="-2.50875">
        <ele>2.2000000476837</ele>
        <time>2019-07-07T08:46:25.000Z</time>
      </trkpt>
      <trkpt lat="47.30684" lon="-2.50886">
        <ele>2.2000000476837</ele>
        <time>2019-07-07T08:46:27.000Z</time>
      </trkpt>
      <trkpt lat="47.30681" lon="-2.50891">
        <ele>2.2000000476837</ele>
        <time>2019-07-07T08:46:28.000Z</time>
      </trkpt>
      <trkpt lat="47.30667" lon="-2.50903">
        <ele>2.2000000476837</ele>
        <time>2019-07-07T08:46:31.000Z</time>
      </trkpt>
      <trkpt lat="47.30634" lon="-2.5093">
        <ele>2.2000000476837</ele>
        <time>2019-07-07T08:46:37.000Z</time>
      </trkpt>
      <trkpt lat="47.30628" lon="-2.50934">
        <ele>2.2000000476837</ele>
        <time>2019-07-07T08:46:38.000Z</time>
      </trkpt>
      <trkpt lat="47.30581" lon="-2.50969">
        <ele>2.2000000476837</ele>
        <time>2019-07-07T08:46:46.000Z</time>
      </trkpt>
      <trkpt lat="47.3054" lon="-2.50994">
        <ele>2.2000000476837</ele>
        <time>2019-07-07T08:46:53.000Z</time>
      </trkpt>
      <trkpt lat="47.30493" lon="-2.51021">
        <ele>2.2000000476837</ele>
        <time>2019-07-07T08:47:00.000Z</time>
      </trkpt>
      <trkpt lat="47.30481" lon="-2.51027">
        <ele>1.7999999523163</ele>
        <time>2019-07-07T08:47:02.000Z</time>
      </trkpt>
      <trkpt lat="47.30475" lon="-2.51029">
        <ele>1.3999999761581</ele>
        <time>2019-07-07T08:47:03.000Z</time>
      </trkpt>
      <trkpt lat="47.3047" lon="-2.51032">
        <ele>0.80000001192093</ele>
        <time>2019-07-07T08:47:04.000Z</time>
      </trkpt>
      <trkpt lat="47.30464" lon="-2.51035">
        <ele>0.40000000596046</ele>
        <time>2019-07-07T08:47:05.000Z</time>
      </trkpt>
      <trkpt lat="47.30457" lon="-2.51038">
        <ele>5.3</ele>
        <time>2019-07-07T08:47:06.000Z</time>
      </trkpt>
      <trkpt lat="47.30417" lon="-2.51056">
        <ele>5</ele>
        <time>2019-07-07T08:47:13.000Z</time>
      </trkpt>
      <trkpt lat="47.30386" lon="-2.51064">
        <ele>5.3</ele>
        <time>2019-07-07T08:47:18.000Z</time>
      </trkpt>
      <trkpt lat="47.30376" lon="-2.51067">
        <ele>5.2</ele>
        <time>2019-07-07T08:47:20.000Z</time>
      </trkpt>
      <trkpt lat="47.30369" lon="-2.51069">
        <ele>5.1</ele>
        <time>2019-07-07T08:47:22.000Z</time>
      </trkpt>
      <trkpt lat="47.30363" lon="-2.51065">
        <ele>5</ele>
        <time>2019-07-07T08:47:24.000Z</time>
      </trkpt>
      <trkpt lat="47.30344" lon="-2.5106">
        <ele>5</ele>
        <time>2019-07-07T08:47:29.000Z</time>
      </trkpt>
      <trkpt lat="47.30321" lon="-2.51057">
        <ele>5</ele>
        <time>2019-07-07T08:47:35.000Z</time>
      </trkpt>
      <trkpt lat="47.30302" lon="-2.51055">
        <ele>4.9</ele>
        <time>2019-07-07T08:47:41.000Z</time>
      </trkpt>
      <trkpt lat="47.30285" lon="-2.51055">
        <ele>4.2</ele>
        <time>2019-07-07T08:47:46.000Z</time>
      </trkpt>
      <trkpt lat="47.30265" lon="-2.51058">
        <ele>3.6</ele>
        <time>2019-07-07T08:47:51.000Z</time>
      </trkpt>
      <trkpt lat="47.30256" lon="-2.5106">
        <ele>3.5</ele>
        <time>2019-07-07T08:47:53.000Z</time>
      </trkpt>
      <trkpt lat="47.30228" lon="-2.51071">
        <ele>3.7</ele>
        <time>2019-07-07T08:47:59.000Z</time>
      </trkpt>
      <trkpt lat="47.30209" lon="-2.51079">
        <ele>4.5</ele>
        <time>2019-07-07T08:48:03.000Z</time>
      </trkpt>
      <trkpt lat="47.30196" lon="-2.51083">
        <ele>5</ele>
        <time>2019-07-07T08:48:06.000Z</time>
      </trkpt>
      <trkpt lat="47.30172" lon="-2.51092">
        <ele>-0.40000000596046</ele>
        <time>2019-07-07T08:48:12.000Z</time>
      </trkpt>
      <trkpt lat="47.30169" lon="-2.51093">
        <ele>-0.80000001192093</ele>
        <time>2019-07-07T08:48:13.000Z</time>
      </trkpt>
      <trkpt lat="47.30165" lon="-2.51095">
        <ele>-1.2000000476837</ele>
        <time>2019-07-07T08:48:14.000Z</time>
      </trkpt>
      <trkpt lat="47.30161" lon="-2.51096">
        <ele>-1.6000000238419</ele>
        <time>2019-07-07T08:48:15.000Z</time>
      </trkpt>
      <trkpt lat="47.30158" lon="-2.51097">
        <ele>-2</ele>
        <time>2019-07-07T08:48:16.000Z</time>
      </trkpt>
      <trkpt lat="47.30149" lon="-2.51101">
        <ele>-2</ele>
        <time>2019-07-07T08:48:19.000Z</time>
      </trkpt>
      <trkpt lat="47.30136" lon="-2.51106">
        <ele>-2</ele>
        <time>2019-07-07T08:48:24.000Z</time>
      </trkpt>
      <trkpt lat="47.30121" lon="-2.51111">
        <ele>-2</ele>
        <time>2019-07-07T08:48:30.000Z</time>
      </trkpt>
      <trkpt lat="47.30108" lon="-2.51121">
        <ele>-2</ele>
        <time>2019-07-07T08:48:36.000Z</time>
      </trkpt>
      <trkpt lat="47.3009" lon="-2.51126">
        <ele>-2</ele>
        <time>2019-07-07T08:48:45.000Z</time>
      </trkpt>
      <trkpt lat="47.30074" lon="-2.51132">
        <ele>-2</ele>
        <time>2019-07-07T08:48:53.000Z</time>
      </trkpt>
      <trkpt lat="47.30066" lon="-2.51132">
        <ele>-2</ele>
        <time>2019-07-07T08:48:59.000Z</time>
      </trkpt>
      <trkpt lat="47.3007" lon="-2.51133">
        <ele>-2</ele>
        <time>2019-07-07T09:03:13.000Z</time>
      </trkpt>
      <trkpt lat="47.30074" lon="-2.51131">
        <ele>-2</ele>
        <time>2019-07-07T09:03:16.000Z</time>
      </trkpt>
      <trkpt lat="47.30088" lon="-2.51126">
        <ele>-2</ele>
        <time>2019-07-07T09:03:25.000Z</time>
      </trkpt>
      <trkpt lat="47.30103" lon="-2.5112">
        <ele>-2</ele>
        <time>2019-07-07T09:03:32.000Z</time>
      </trkpt>
      <trkpt lat="47.30125" lon="-2.51108">
        <ele>-2</ele>
        <time>2019-07-07T09:03:41.000Z</time>
      </trkpt>
      <trkpt lat="47.30143" lon="-2.51102">
        <ele>-2</ele>
        <time>2019-07-07T09:03:49.000Z</time>
      </trkpt>
      <trkpt lat="47.30167" lon="-2.51094">
        <ele>-2</ele>
        <time>2019-07-07T09:03:58.000Z</time>
      </trkpt>
      <trkpt lat="47.30187" lon="-2.51086">
        <ele>-2</ele>
        <time>2019-07-07T09:04:04.000Z</time>
      </trkpt>
      <trkpt lat="47.30207" lon="-2.51079">
        <ele>-2</ele>
        <time>2019-07-07T09:04:10.000Z</time>
      </trkpt>
      <trkpt lat="47.30235" lon="-2.51066">
        <ele>-2</ele>
        <time>2019-07-07T09:04:18.000Z</time>
      </trkpt>
      <trkpt lat="47.30247" lon="-2.51062">
        <ele>-2</ele>
        <time>2019-07-07T09:04:21.000Z</time>
      </trkpt>
      <trkpt lat="47.30261" lon="-2.51061">
        <ele>-2</ele>
        <time>2019-07-07T09:04:24.000Z</time>
      </trkpt>
      <trkpt lat="47.30265" lon="-2.5106">
        <ele>-1.2000000476837</ele>
        <time>2019-07-07T09:04:25.000Z</time>
      </trkpt>
      <trkpt lat="47.3027" lon="-2.51059">
        <ele>-0.80000001192093</ele>
        <time>2019-07-07T09:04:26.000Z</time>
      </trkpt>
      <trkpt lat="47.30274" lon="-2.51059">
        <ele>-0.40000000596046</ele>
        <time>2019-07-07T09:04:27.000Z</time>
      </trkpt>
      <trkpt lat="47.30279" lon="-2.51058">
        <ele>4.1</ele>
        <time>2019-07-07T09:04:28.000Z</time>
      </trkpt>
      <trkpt lat="47.30297" lon="-2.51055">
        <ele>4.6</ele>
        <time>2019-07-07T09:04:32.000Z</time>
      </trkpt>
      <trkpt lat="47.30311" lon="-2.51054">
        <ele>4.8</ele>
        <time>2019-07-07T09:04:35.000Z</time>
      </trkpt>
      <trkpt lat="47.30324" lon="-2.51059">
        <ele>5</ele>
        <time>2019-07-07T09:04:38.000Z</time>
      </trkpt>
      <trkpt lat="47.3035" lon="-2.51062">
        <ele>5</ele>
        <time>2019-07-07T09:04:44.000Z</time>
      </trkpt>
      <trkpt lat="47.3037" lon="-2.51069">
        <ele>5.2</ele>
        <time>2019-07-07T09:04:50.000Z</time>
      </trkpt>
      <trkpt lat="47.30382" lon="-2.51064">
        <ele>5.2</ele>
        <time>2019-07-07T09:04:54.000Z</time>
      </trkpt>
      <trkpt lat="47.304" lon="-2.51059">
        <ele>5.1</ele>
        <time>2019-07-07T09:04:59.000Z</time>
      </trkpt>
      <trkpt lat="47.30416" lon="-2.51053">
        <ele>4.7</ele>
        <time>2019-07-07T09:05:03.000Z</time>
      </trkpt>
      <trkpt lat="47.30424" lon="-2.51049">
        <ele>4.6</ele>
        <time>2019-07-07T09:05:05.000Z</time>
      </trkpt>
      <trkpt lat="47.30454" lon="-2.51033">
        <ele>4.9</ele>
        <time>2019-07-07T09:05:12.000Z</time>
      </trkpt>
      <trkpt lat="47.3048" lon="-2.51018">
        <ele>4.8</ele>
        <time>2019-07-07T09:05:18.000Z</time>
      </trkpt>
      <trkpt lat="47.30493" lon="-2.51011">
        <ele>4.5</ele>
        <time>2019-07-07T09:05:21.000Z</time>
      </trkpt>
      <trkpt lat="47.30506" lon="-2.51003">
        <ele>4.6</ele>
        <time>2019-07-07T09:05:24.000Z</time>
      </trkpt>
      <trkpt lat="47.3054" lon="-2.50985">
        <ele>5.1</ele>
        <time>2019-07-07T09:05:31.000Z</time>
      </trkpt>
      <trkpt lat="47.30571" lon="-2.50969">
        <ele>5.7</ele>
        <time>2019-07-07T09:05:38.000Z</time>
      </trkpt>
      <trkpt lat="47.30589" lon="-2.50956">
        <ele>5.2</ele>
        <time>2019-07-07T09:05:42.000Z</time>
      </trkpt>
      <trkpt lat="47.30598" lon="-2.50949">
        <ele>5.3</ele>
        <time>2019-07-07T09:05:44.000Z</time>
      </trkpt>
      <trkpt lat="47.30607" lon="-2.50941">
        <ele>5.5</ele>
        <time>2019-07-07T09:05:46.000Z</time>
      </trkpt>
      <trkpt lat="47.30626" lon="-2.50927">
        <ele>5.6</ele>
        <time>2019-07-07T09:05:50.000Z</time>
      </trkpt>
      <trkpt lat="47.30657" lon="-2.50902">
        <ele>5.7</ele>
        <time>2019-07-07T09:05:57.000Z</time>
      </trkpt>
      <trkpt lat="47.30682" lon="-2.5088">
        <ele>6</ele>
        <time>2019-07-07T09:06:03.000Z</time>
      </trkpt>
      <trkpt lat="47.30684" lon="-2.50875">
        <ele>5.7</ele>
        <time>2019-07-07T09:06:04.000Z</time>
      </trkpt>
      <trkpt lat="47.30685" lon="-2.50869">
        <ele>0.40000000596046</ele>
        <time>2019-07-07T09:06:05.000Z</time>
      </trkpt>
      <trkpt lat="47.30688" lon="-2.50865">
        <ele>0.80000001192093</ele>
        <time>2019-07-07T09:06:06.000Z</time>
      </trkpt>
      <trkpt lat="47.30691" lon="-2.50861">
        <ele>1.2000000476837</ele>
        <time>2019-07-07T09:06:07.000Z</time>
      </trkpt>
      <trkpt lat="47.30694" lon="-2.50857">
        <ele>1.6000000238419</ele>
        <time>2019-07-07T09:06:08.000Z</time>
      </trkpt>
      <trkpt lat="47.30697" lon="-2.50853">
        <ele>2</ele>
        <time>2019-07-07T09:06:09.000Z</time>
      </trkpt>
      <trkpt lat="47.30701" lon="-2.5085">
        <ele>2</ele>
        <time>2019-07-07T09:06:10.000Z</time>
      </trkpt>
      <trkpt lat="47.3071" lon="-2.50848">
        <ele>2</ele>
        <time>2019-07-07T09:06:12.000Z</time>
      </trkpt>
      <trkpt lat="47.30724" lon="-2.50844">
        <ele>2</ele>
        <time>2019-07-07T09:06:15.000Z</time>
      </trkpt>
      <trkpt lat="47.30734" lon="-2.50838">
        <ele>2</ele>
        <time>2019-07-07T09:06:17.000Z</time>
      </trkpt>
      <trkpt lat="47.30771" lon="-2.50812">
        <ele>2</ele>
        <time>2019-07-07T09:06:24.000Z</time>
      </trkpt>
      <trkpt lat="47.30814" lon="-2.50782">
        <ele>2</ele>
        <time>2019-07-07T09:06:32.000Z</time>
      </trkpt>
      <trkpt lat="47.30867" lon="-2.50742">
        <ele>2</ele>
        <time>2019-07-07T09:06:42.000Z</time>
      </trkpt>
      <trkpt lat="47.30889" lon="-2.50726">
        <ele>2</ele>
        <time>2019-07-07T09:06:46.000Z</time>
      </trkpt>
      <trkpt lat="47.3091" lon="-2.5071">
        <ele>2</ele>
        <time>2019-07-07T09:06:50.000Z</time>
      </trkpt>
      <trkpt lat="47.30915" lon="-2.50706">
        <ele>2.4000000953674</ele>
        <time>2019-07-07T09:06:51.000Z</time>
      </trkpt>
      <trkpt lat="47.3092" lon="-2.50702">
        <ele>2.7999999523163</ele>
        <time>2019-07-07T09:06:52.000Z</time>
      </trkpt>
      <trkpt lat="47.30925" lon="-2.50698">
        <ele>3.2000000476837</ele>
        <time>2019-07-07T09:06:53.000Z</time>
      </trkpt>
      <trkpt lat="47.3093" lon="-2.50694">
        <ele>4.1999998092651</ele>
        <time>2019-07-07T09:06:54.000Z</time>
      </trkpt>
      <trkpt lat="47.30967" lon="-2.50666">
        <ele>4.1999998092651</ele>
        <time>2019-07-07T09:07:01.000Z</time>
      </trkpt>
      <trkpt lat="47.3101" lon="-2.50633">
        <ele>4.1999998092651</ele>
        <time>2019-07-07T09:07:09.000Z</time>
      </trkpt>
      <trkpt lat="47.31056" lon="-2.50597">
        <ele>4.1999998092651</ele>
        <time>2019-07-07T09:07:18.000Z</time>
      </trkpt>
      <trkpt lat="47.311" lon="-2.50562">
        <ele>4.1999998092651</ele>
        <time>2019-07-07T09:07:26.000Z</time>
      </trkpt>
      <trkpt lat="47.31144" lon="-2.50527">
        <ele>4.1999998092651</ele>
        <time>2019-07-07T09:07:34.000Z</time>
      </trkpt>
      <trkpt lat="47.31179" lon="-2.50488">
        <ele>4.1999998092651</ele>
        <time>2019-07-07T09:07:41.000Z</time>
      </trkpt>
      <trkpt lat="47.31193" lon="-2.50471">
        <ele>4.1999998092651</ele>
        <time>2019-07-07T09:07:44.000Z</time>
      </trkpt>
      <trkpt lat="47.31202" lon="-2.5046">
        <ele>4.1999998092651</ele>
        <time>2019-07-07T09:07:46.000Z</time>
      </trkpt>
      <trkpt lat="47.31236" lon="-2.50417">
        <ele>4.1999998092651</ele>
        <time>2019-07-07T09:07:53.000Z</time>
      </trkpt>
      <trkpt lat="47.3127" lon="-2.50372">
        <ele>4.1999998092651</ele>
        <time>2019-07-07T09:08:00.000Z</time>
      </trkpt>
      <trkpt lat="47.3131" lon="-2.50319">
        <ele>3.5999999046326</ele>
        <time>2019-07-07T09:08:08.000Z</time>
      </trkpt>
      <trkpt lat="47.31314" lon="-2.50312">
        <ele>3.2000000476837</ele>
        <time>2019-07-07T09:08:09.000Z</time>
      </trkpt>
      <trkpt lat="47.31319" lon="-2.50305">
        <ele>2.7999999523163</ele>
        <time>2019-07-07T09:08:10.000Z</time>
      </trkpt>
      <trkpt lat="47.31324" lon="-2.50297">
        <ele>2.4000000953674</ele>
        <time>2019-07-07T09:08:11.000Z</time>
      </trkpt>
      <trkpt lat="47.31329" lon="-2.5029">
        <ele>2</ele>
        <time>2019-07-07T09:08:12.000Z</time>
      </trkpt>
      <trkpt lat="47.31352" lon="-2.50255">
        <ele>2</ele>
        <time>2019-07-07T09:08:17.000Z</time>
      </trkpt>
      <trkpt lat="47.31393" lon="-2.50195">
        <ele>2</ele>
        <time>2019-07-07T09:08:26.000Z</time>
      </trkpt>
      <trkpt lat="47.31423" lon="-2.50148">
        <ele>2</ele>
        <time>2019-07-07T09:08:33.000Z</time>
      </trkpt>
      <trkpt lat="47.31459" lon="-2.50094">
        <ele>2</ele>
        <time>2019-07-07T09:08:41.000Z</time>
      </trkpt>
      <trkpt lat="47.31499" lon="-2.50035">
        <ele>2</ele>
        <time>2019-07-07T09:08:50.000Z</time>
      </trkpt>
      <trkpt lat="47.31504" lon="-2.50028">
        <ele>2</ele>
        <time>2019-07-07T09:08:51.000Z</time>
      </trkpt>
      <trkpt lat="47.3154" lon="-2.49974">
        <ele>2</ele>
        <time>2019-07-07T09:08:59.000Z</time>
      </trkpt>
      <trkpt lat="47.31571" lon="-2.49927">
        <ele>2</ele>
        <time>2019-07-07T09:09:06.000Z</time>
      </trkpt>
      <trkpt lat="47.3161" lon="-2.49868">
        <ele>2</ele>
        <time>2019-07-07T09:09:15.000Z</time>
      </trkpt>
      <trkpt lat="47.31636" lon="-2.49825">
        <ele>2</ele>
        <time>2019-07-07T09:09:21.000Z</time>
      </trkpt>
      <trkpt lat="47.31669" lon="-2.49777">
        <ele>2</ele>
        <time>2019-07-07T09:09:28.000Z</time>
      </trkpt>
      <trkpt lat="47.31674" lon="-2.49771">
        <ele>2</ele>
        <time>2019-07-07T09:09:29.000Z</time>
      </trkpt>
      <trkpt lat="47.31701" lon="-2.4973">
        <ele>2</ele>
        <time>2019-07-07T09:09:35.000Z</time>
      </trkpt>
      <trkpt lat="47.31704" lon="-2.49722">
        <ele>2</ele>
        <time>2019-07-07T09:09:36.000Z</time>
      </trkpt>
      <trkpt lat="47.31718" lon="-2.49701">
        <ele>2</ele>
        <time>2019-07-07T09:09:39.000Z</time>
      </trkpt>
      <trkpt lat="47.31749" lon="-2.49654">
        <ele>2</ele>
        <time>2019-07-07T09:09:46.000Z</time>
      </trkpt>
      <trkpt lat="47.31785" lon="-2.496">
        <ele>2</ele>
        <time>2019-07-07T09:09:54.000Z</time>
      </trkpt>
      <trkpt lat="47.31821" lon="-2.49544">
        <ele>2</ele>
        <time>2019-07-07T09:10:02.000Z</time>
      </trkpt>
      <trkpt lat="47.31853" lon="-2.49496">
        <ele>2</ele>
        <time>2019-07-07T09:10:09.000Z</time>
      </trkpt>
      <trkpt lat="47.31883" lon="-2.49449">
        <ele>2</ele>
        <time>2019-07-07T09:10:16.000Z</time>
      </trkpt>
      <trkpt lat="47.31919" lon="-2.49394">
        <ele>2</ele>
        <time>2019-07-07T09:10:24.000Z</time>
      </trkpt>
      <trkpt lat="47.31954" lon="-2.49339">
        <ele>2</ele>
        <time>2019-07-07T09:10:32.000Z</time>
      </trkpt>
      <trkpt lat="47.31984" lon="-2.49289">
        <ele>2</ele>
        <time>2019-07-07T09:10:39.000Z</time>
      </trkpt>
      <trkpt lat="47.32019" lon="-2.49232">
        <ele>2</ele>
        <time>2019-07-07T09:10:47.000Z</time>
      </trkpt>
      <trkpt lat="47.32046" lon="-2.49193">
        <ele>2</ele>
        <time>2019-07-07T09:10:53.000Z</time>
      </trkpt>
      <trkpt lat="47.3205" lon="-2.49187">
        <ele>2</ele>
        <time>2019-07-07T09:10:54.000Z</time>
      </trkpt>
      <trkpt lat="47.3208" lon="-2.49141">
        <ele>2</ele>
        <time>2019-07-07T09:11:01.000Z</time>
      </trkpt>
      <trkpt lat="47.32113" lon="-2.49098">
        <ele>2</ele>
        <time>2019-07-07T09:11:08.000Z</time>
      </trkpt>
      <trkpt lat="47.32126" lon="-2.49077">
        <ele>2</ele>
        <time>2019-07-07T09:11:11.000Z</time>
      </trkpt>
      <trkpt lat="47.32132" lon="-2.4906">
        <ele>2</ele>
        <time>2019-07-07T09:11:13.000Z</time>
      </trkpt>
      <trkpt lat="47.32134" lon="-2.49051">
        <ele>2</ele>
        <time>2019-07-07T09:11:14.000Z</time>
      </trkpt>
      <trkpt lat="47.32138" lon="-2.49024">
        <ele>2</ele>
        <time>2019-07-07T09:11:17.000Z</time>
      </trkpt>
      <trkpt lat="47.32139" lon="-2.49014">
        <ele>2</ele>
        <time>2019-07-07T09:11:18.000Z</time>
      </trkpt>
      <trkpt lat="47.32139" lon="-2.48985">
        <ele>2</ele>
        <time>2019-07-07T09:11:21.000Z</time>
      </trkpt>
      <trkpt lat="47.32137" lon="-2.48966">
        <ele>2</ele>
        <time>2019-07-07T09:11:23.000Z</time>
      </trkpt>
      <trkpt lat="47.32138" lon="-2.48939">
        <ele>2</ele>
        <time>2019-07-07T09:11:26.000Z</time>
      </trkpt>
      <trkpt lat="47.32141" lon="-2.48922">
        <ele>2</ele>
        <time>2019-07-07T09:11:28.000Z</time>
      </trkpt>
      <trkpt lat="47.32155" lon="-2.48888">
        <ele>2</ele>
        <time>2019-07-07T09:11:32.000Z</time>
      </trkpt>
      <trkpt lat="47.32158" lon="-2.48881">
        <ele>2</ele>
        <time>2019-07-07T09:11:33.000Z</time>
      </trkpt>
      <trkpt lat="47.32187" lon="-2.4883">
        <ele>2</ele>
        <time>2019-07-07T09:11:40.000Z</time>
      </trkpt>
      <trkpt lat="47.32209" lon="-2.48795">
        <ele>2</ele>
        <time>2019-07-07T09:11:45.000Z</time>
      </trkpt>
      <trkpt lat="47.32216" lon="-2.48782">
        <ele>2</ele>
        <time>2019-07-07T09:11:47.000Z</time>
      </trkpt>
      <trkpt lat="47.32235" lon="-2.48729">
        <ele>2</ele>
        <time>2019-07-07T09:11:53.000Z</time>
      </trkpt>
      <trkpt lat="47.32248" lon="-2.48677">
        <ele>2</ele>
        <time>2019-07-07T09:11:59.000Z</time>
      </trkpt>
      <trkpt lat="47.32253" lon="-2.48671">
        <ele>2</ele>
        <time>2019-07-07T09:12:00.000Z</time>
      </trkpt>
      <trkpt lat="47.32267" lon="-2.48653">
        <ele>2</ele>
        <time>2019-07-07T09:12:03.000Z</time>
      </trkpt>
      <trkpt lat="47.32273" lon="-2.48648">
        <ele>2</ele>
        <time>2019-07-07T09:12:04.000Z</time>
      </trkpt>
      <trkpt lat="47.32279" lon="-2.48643">
        <ele>2</ele>
        <time>2019-07-07T09:12:05.000Z</time>
      </trkpt>
      <trkpt lat="47.32326" lon="-2.48608">
        <ele>2</ele>
        <time>2019-07-07T09:12:13.000Z</time>
      </trkpt>
      <trkpt lat="47.32378" lon="-2.48574">
        <ele>2</ele>
        <time>2019-07-07T09:12:22.000Z</time>
      </trkpt>
      <trkpt lat="47.32397" lon="-2.48569">
        <ele>2</ele>
        <time>2019-07-07T09:12:25.000Z</time>
      </trkpt>
      <trkpt lat="47.3241" lon="-2.48568">
        <ele>2</ele>
        <time>2019-07-07T09:12:27.000Z</time>
      </trkpt>
      <trkpt lat="47.32447" lon="-2.48577">
        <ele>2</ele>
        <time>2019-07-07T09:12:33.000Z</time>
      </trkpt>
      <trkpt lat="47.3246" lon="-2.48582">
        <ele>2</ele>
        <time>2019-07-07T09:12:35.000Z</time>
      </trkpt>
      <trkpt lat="47.32472" lon="-2.48589">
        <ele>2</ele>
        <time>2019-07-07T09:12:37.000Z</time>
      </trkpt>
      <trkpt lat="47.32477" lon="-2.48593">
        <ele>2</ele>
        <time>2019-07-07T09:12:38.000Z</time>
      </trkpt>
      <trkpt lat="47.32512" lon="-2.48625">
        <ele>2</ele>
        <time>2019-07-07T09:12:44.000Z</time>
      </trkpt>
      <trkpt lat="47.32557" lon="-2.48666">
        <ele>2</ele>
        <time>2019-07-07T09:12:52.000Z</time>
      </trkpt>
      <trkpt lat="47.32563" lon="-2.48669">
        <ele>2</ele>
        <time>2019-07-07T09:12:53.000Z</time>
      </trkpt>
      <trkpt lat="47.32582" lon="-2.48673">
        <ele>2</ele>
        <time>2019-07-07T09:12:56.000Z</time>
      </trkpt>
      <trkpt lat="47.32614" lon="-2.48671">
        <ele>2</ele>
        <time>2019-07-07T09:13:01.000Z</time>
      </trkpt>
      <trkpt lat="47.32639" lon="-2.48662">
        <ele>2</ele>
        <time>2019-07-07T09:13:05.000Z</time>
      </trkpt>
      <trkpt lat="47.32657" lon="-2.48653">
        <ele>2</ele>
        <time>2019-07-07T09:13:08.000Z</time>
      </trkpt>
      <trkpt lat="47.32705" lon="-2.48629">
        <ele>2</ele>
        <time>2019-07-07T09:13:16.000Z</time>
      </trkpt>
      <trkpt lat="47.32748" lon="-2.48604">
        <ele>2</ele>
        <time>2019-07-07T09:13:23.000Z</time>
      </trkpt>
      <trkpt lat="47.32779" lon="-2.48592">
        <ele>2</ele>
        <time>2019-07-07T09:13:28.000Z</time>
      </trkpt>
      <trkpt lat="47.32792" lon="-2.48591">
        <ele>2</ele>
        <time>2019-07-07T09:13:30.000Z</time>
      </trkpt>
      <trkpt lat="47.32851" lon="-2.48593">
        <ele>2</ele>
        <time>2019-07-07T09:13:39.000Z</time>
      </trkpt>
      <trkpt lat="47.3287" lon="-2.48593">
        <ele>2</ele>
        <time>2019-07-07T09:13:42.000Z</time>
      </trkpt>
      <trkpt lat="47.32884" lon="-2.4859">
        <ele>2</ele>
        <time>2019-07-07T09:13:44.000Z</time>
      </trkpt>
      <trkpt lat="47.32896" lon="-2.48584">
        <ele>1.6000000238419</ele>
        <time>2019-07-07T09:13:46.000Z</time>
      </trkpt>
      <trkpt lat="47.32902" lon="-2.4858">
        <ele>1.2000000476837</ele>
        <time>2019-07-07T09:13:47.000Z</time>
      </trkpt>
      <trkpt lat="47.32908" lon="-2.48575">
        <ele>0.80000001192093</ele>
        <time>2019-07-07T09:13:48.000Z</time>
      </trkpt>
      <trkpt lat="47.32913" lon="-2.48569">
        <ele>0.20000000298023</ele>
        <time>2019-07-07T09:13:49.000Z</time>
      </trkpt>
      <trkpt lat="47.32918" lon="-2.48563">
        <ele>-0.20000000298023</ele>
        <time>2019-07-07T09:13:50.000Z</time>
      </trkpt>
      <trkpt lat="47.32943" lon="-2.48531">
        <ele>-0.20000000298023</ele>
        <time>2019-07-07T09:13:55.000Z</time>
      </trkpt>
      <trkpt lat="47.32958" lon="-2.48515">
        <ele>0.20000000298023</ele>
        <time>2019-07-07T09:13:58.000Z</time>
      </trkpt>
      <trkpt lat="47.32963" lon="-2.4851">
        <ele>0.60000002384186</ele>
        <time>2019-07-07T09:13:59.000Z</time>
      </trkpt>
      <trkpt lat="47.32968" lon="-2.48505">
        <ele>1.2000000476837</ele>
        <time>2019-07-07T09:14:00.000Z</time>
      </trkpt>
      <trkpt lat="47.32974" lon="-2.485">
        <ele>1.6000000238419</ele>
        <time>2019-07-07T09:14:01.000Z</time>
      </trkpt>
      <trkpt lat="47.3298" lon="-2.48495">
        <ele>2</ele>
        <time>2019-07-07T09:14:02.000Z</time>
      </trkpt>
      <trkpt lat="47.32991" lon="-2.48487">
        <ele>2</ele>
        <time>2019-07-07T09:14:04.000Z</time>
      </trkpt>
      <trkpt lat="47.33034" lon="-2.4846">
        <ele>2</ele>
        <time>2019-07-07T09:14:11.000Z</time>
      </trkpt>
      <trkpt lat="47.33082" lon="-2.48429">
        <ele>2</ele>
        <time>2019-07-07T09:14:19.000Z</time>
      </trkpt>
      <trkpt lat="47.33122" lon="-2.484">
        <ele>2</ele>
        <time>2019-07-07T09:14:26.000Z</time>
      </trkpt>
      <trkpt lat="47.33139" lon="-2.48368">
        <ele>2</ele>
        <time>2019-07-07T09:14:30.000Z</time>
      </trkpt>
      <trkpt lat="47.33141" lon="-2.4836">
        <ele>2</ele>
        <time>2019-07-07T09:14:31.000Z</time>
      </trkpt>
      <trkpt lat="47.33144" lon="-2.48342">
        <ele>2</ele>
        <time>2019-07-07T09:14:33.000Z</time>
      </trkpt>
      <trkpt lat="47.33144" lon="-2.48332">
        <ele>2</ele>
        <time>2019-07-07T09:14:34.000Z</time>
      </trkpt>
      <trkpt lat="47.33143" lon="-2.48261">
        <ele>2</ele>
        <time>2019-07-07T09:14:41.000Z</time>
      </trkpt>
      <trkpt lat="47.3314" lon="-2.48194">
        <ele>2</ele>
        <time>2019-07-07T09:14:48.000Z</time>
      </trkpt>
      <trkpt lat="47.33142" lon="-2.48126">
        <ele>2</ele>
        <time>2019-07-07T09:14:55.000Z</time>
      </trkpt>
      <trkpt lat="47.33144" lon="-2.4805">
        <ele>2</ele>
        <time>2019-07-07T09:15:03.000Z</time>
      </trkpt>
      <trkpt lat="47.33148" lon="-2.47974">
        <ele>2</ele>
        <time>2019-07-07T09:15:11.000Z</time>
      </trkpt>
      <trkpt lat="47.33149" lon="-2.47943">
        <ele>1.6000000238419</ele>
        <time>2019-07-07T09:15:15.000Z</time>
      </trkpt>
      <trkpt lat="47.33149" lon="-2.47938">
        <ele>1.2000000476837</ele>
        <time>2019-07-07T09:15:16.000Z</time>
      </trkpt>
      <trkpt lat="47.33148" lon="-2.47934">
        <ele>0.60000002384186</ele>
        <time>2019-07-07T09:15:17.000Z</time>
      </trkpt>
      <trkpt lat="47.33148" lon="-2.4793">
        <ele>0.20000000298023</ele>
        <time>2019-07-07T09:15:18.000Z</time>
      </trkpt>
      <trkpt lat="47.33148" lon="-2.47926">
        <ele>-0.20000000298023</ele>
        <time>2019-07-07T09:15:19.000Z</time>
      </trkpt>
      <trkpt lat="47.33148" lon="-2.47923">
        <ele>-0.20000000298023</ele>
        <time>2019-07-07T09:15:20.000Z</time>
      </trkpt>
      <trkpt lat="47.3315" lon="-2.47922">
        <ele>-0.20000000298023</ele>
        <time>2019-07-07T09:15:21.000Z</time>
      </trkpt>
      <trkpt lat="47.33162" lon="-2.47912">
        <ele>-0.20000000298023</ele>
        <time>2019-07-07T09:15:25.000Z</time>
      </trkpt>
      <trkpt lat="47.33167" lon="-2.47902">
        <ele>-0.20000000298023</ele>
        <time>2019-07-07T09:15:27.000Z</time>
      </trkpt>
      <trkpt lat="47.33177" lon="-2.47885">
        <ele>-0.20000000298023</ele>
        <time>2019-07-07T09:15:30.000Z</time>
      </trkpt>
      <trkpt lat="47.33187" lon="-2.47868">
        <ele>-0.20000000298023</ele>
        <time>2019-07-07T09:15:33.000Z</time>
      </trkpt>
      <trkpt lat="47.33196" lon="-2.47854">
        <ele>-0.20000000298023</ele>
        <time>2019-07-07T09:15:36.000Z</time>
      </trkpt>
      <trkpt lat="47.33199" lon="-2.4785">
        <ele>-0.20000000298023</ele>
        <time>2019-07-07T09:15:37.000Z</time>
      </trkpt>
      <trkpt lat="47.33202" lon="-2.47845">
        <ele>-0.20000000298023</ele>
        <time>2019-07-07T09:15:38.000Z</time>
      </trkpt>
      <trkpt lat="47.33214" lon="-2.47832">
        <ele>-0.20000000298023</ele>
        <time>2019-07-07T09:15:41.000Z</time>
      </trkpt>
      <trkpt lat="47.33243" lon="-2.47797">
        <ele>-0.20000000298023</ele>
        <time>2019-07-07T09:15:48.000Z</time>
      </trkpt>
      <trkpt lat="47.33278" lon="-2.47762">
        <ele>-0.20000000298023</ele>
        <time>2019-07-07T09:15:56.000Z</time>
      </trkpt>
      <trkpt lat="47.33306" lon="-2.47739">
        <ele>0.20000000298023</ele>
        <time>2019-07-07T09:16:03.000Z</time>
      </trkpt>
      <trkpt lat="47.3331" lon="-2.47737">
        <ele>0.60000002384186</ele>
        <time>2019-07-07T09:16:04.000Z</time>
      </trkpt>
      <trkpt lat="47.33315" lon="-2.47734">
        <ele>1</ele>
        <time>2019-07-07T09:16:05.000Z</time>
      </trkpt>
      <trkpt lat="47.33319" lon="-2.47731">
        <ele>1.3999999761581</ele>
        <time>2019-07-07T09:16:06.000Z</time>
      </trkpt>
      <trkpt lat="47.33323" lon="-2.47728">
        <ele>1.7999999523163</ele>
        <time>2019-07-07T09:16:07.000Z</time>
      </trkpt>
      <trkpt lat="47.33334" lon="-2.47717">
        <ele>1.7999999523163</ele>
        <time>2019-07-07T09:16:10.000Z</time>
      </trkpt>
      <trkpt lat="47.33346" lon="-2.47709">
        <ele>1.7999999523163</ele>
        <time>2019-07-07T09:16:13.000Z</time>
      </trkpt>
      <trkpt lat="47.33353" lon="-2.47703">
        <ele>1.7999999523163</ele>
        <time>2019-07-07T09:16:15.000Z</time>
      </trkpt>
      <trkpt lat="47.33365" lon="-2.47693">
        <ele>2.4000000953674</ele>
        <time>2019-07-07T09:16:19.000Z</time>
      </trkpt>
      <trkpt lat="47.33367" lon="-2.47691">
        <ele>2.7999999523163</ele>
        <time>2019-07-07T09:16:20.000Z</time>
      </trkpt>
      <trkpt lat="47.33369" lon="-2.47689">
        <ele>3.2000000476837</ele>
        <time>2019-07-07T09:16:21.000Z</time>
      </trkpt>
      <trkpt lat="47.33372" lon="-2.47686">
        <ele>3.5999999046326</ele>
        <time>2019-07-07T09:16:22.000Z</time>
      </trkpt>
      <trkpt lat="47.33374" lon="-2.47683">
        <ele>4</ele>
        <time>2019-07-07T09:16:23.000Z</time>
      </trkpt>
      <trkpt lat="47.33382" lon="-2.47677">
        <ele>4</ele>
        <time>2019-07-07T09:16:26.000Z</time>
      </trkpt>
      <trkpt lat="47.33386" lon="-2.47673">
        <ele>4</ele>
        <time>2019-07-07T09:16:28.000Z</time>
      </trkpt>
      <trkpt lat="47.33389" lon="-2.47668">
        <ele>4</ele>
        <time>2019-07-07T09:16:30.000Z</time>
      </trkpt>
      <trkpt lat="47.33393" lon="-2.47663">
        <ele>4</ele>
        <time>2019-07-07T09:16:32.000Z</time>
      </trkpt>
      <trkpt lat="47.334" lon="-2.47655">
        <ele>4.4000000953674</ele>
        <time>2019-07-07T09:16:35.000Z</time>
      </trkpt>
      <trkpt lat="47.33402" lon="-2.47652">
        <ele>4.8000001907349</ele>
        <time>2019-07-07T09:16:36.000Z</time>
      </trkpt>
      <trkpt lat="47.33405" lon="-2.4765">
        <ele>5.1999998092651</ele>
        <time>2019-07-07T09:16:37.000Z</time>
      </trkpt>
      <trkpt lat="47.33408" lon="-2.47647">
        <ele>5.5999999046326</ele>
        <time>2019-07-07T09:16:38.000Z</time>
      </trkpt>
      <trkpt lat="47.33411" lon="-2.47645">
        <ele>6</ele>
        <time>2019-07-07T09:16:39.000Z</time>
      </trkpt>
      <trkpt lat="47.33416" lon="-2.47642">
        <ele>6</ele>
        <time>2019-07-07T09:16:41.000Z</time>
      </trkpt>
      <trkpt lat="47.33422" lon="-2.47638">
        <ele>6</ele>
        <time>2019-07-07T09:16:44.000Z</time>
      </trkpt>
      <trkpt lat="47.33428" lon="-2.47635">
        <ele>6</ele>
        <time>2019-07-07T09:16:47.000Z</time>
      </trkpt>
      <trkpt lat="47.33429" lon="-2.47635">
        <ele>6.4000000953674</ele>
        <time>2019-07-07T09:16:48.000Z</time>
      </trkpt>
      <trkpt lat="47.3343" lon="-2.47635">
        <ele>6.8000001907349</ele>
        <time>2019-07-07T09:16:49.000Z</time>
      </trkpt>
      <trkpt lat="47.3343" lon="-2.47635">
        <ele>7.1999998092651</ele>
        <time>2019-07-07T09:16:50.000Z</time>
      </trkpt>
      <trkpt lat="47.33431" lon="-2.47635">
        <ele>7.5999999046326</ele>
        <time>2019-07-07T09:16:51.000Z</time>
      </trkpt>
      <trkpt lat="47.33431" lon="-2.47635">
        <ele>8</ele>
        <time>2019-07-07T09:16:52.000Z</time>
      </trkpt>
      <trkpt lat="47.33448" lon="-2.47625">
        <ele>10.199999809265</ele>
        <time>2019-07-07T09:17:15.000Z</time>
      </trkpt>
      <trkpt lat="47.33453" lon="-2.47621">
        <ele>10.199999809265</ele>
        <time>2019-07-07T09:17:21.000Z</time>
      </trkpt>
      <trkpt lat="47.33454" lon="-2.47621">
        <ele>10.60000038147</ele>
        <time>2019-07-07T09:17:22.000Z</time>
      </trkpt>
      <trkpt lat="47.33457" lon="-2.47619">
        <ele>12.199999809265</ele>
        <time>2019-07-07T09:18:43.000Z</time>
      </trkpt>
      <trkpt lat="47.3346" lon="-2.47616">
        <ele>12.199999809265</ele>
        <time>2019-07-07T09:18:45.000Z</time>
      </trkpt>
      <trkpt lat="47.33469" lon="-2.47609">
        <ele>12.199999809265</ele>
        <time>2019-07-07T09:18:52.000Z</time>
      </trkpt>
      <trkpt lat="47.33475" lon="-2.47601">
        <ele>12.199999809265</ele>
        <time>2019-07-07T09:18:57.000Z</time>
      </trkpt>
      <trkpt lat="47.33476" lon="-2.47595">
        <ele>12.800000190735</ele>
        <time>2019-07-07T09:18:59.000Z</time>
      </trkpt>
      <trkpt lat="47.33475" lon="-2.47593">
        <ele>13.199999809265</ele>
        <time>2019-07-07T09:19:00.000Z</time>
      </trkpt>
      <trkpt lat="47.33474" lon="-2.4759">
        <ele>13.60000038147</ele>
        <time>2019-07-07T09:19:01.000Z</time>
      </trkpt>
      <trkpt lat="47.33473" lon="-2.47587">
        <ele>14</ele>
        <time>2019-07-07T09:19:02.000Z</time>
      </trkpt>
      <trkpt lat="47.33471" lon="-2.47584">
        <ele>14.39999961853</ele>
        <time>2019-07-07T09:19:03.000Z</time>
      </trkpt>
      <trkpt lat="47.33464" lon="-2.47572">
        <ele>14.39999961853</ele>
        <time>2019-07-07T09:19:07.000Z</time>
      </trkpt>
      <trkpt lat="47.33447" lon="-2.47535">
        <ele>14.800000190735</ele>
        <time>2019-07-07T09:19:16.000Z</time>
      </trkpt>
      <trkpt lat="47.33445" lon="-2.47531">
        <ele>15.199999809265</ele>
        <time>2019-07-07T09:19:17.000Z</time>
      </trkpt>
      <trkpt lat="47.33443" lon="-2.47526">
        <ele>15.800000190735</ele>
        <time>2019-07-07T09:19:18.000Z</time>
      </trkpt>
      <trkpt lat="47.33442" lon="-2.47522">
        <ele>16.200000762939</ele>
        <time>2019-07-07T09:19:19.000Z</time>
      </trkpt>
      <trkpt lat="47.3344" lon="-2.47518">
        <ele>16.60000038147</ele>
        <time>2019-07-07T09:19:20.000Z</time>
      </trkpt>
      <trkpt lat="47.33434" lon="-2.47503">
        <ele>16.60000038147</ele>
        <time>2019-07-07T09:19:23.000Z</time>
      </trkpt>
      <trkpt lat="47.33422" lon="-2.47465">
        <ele>16.60000038147</ele>
        <time>2019-07-07T09:19:30.000Z</time>
      </trkpt>
      <trkpt lat="47.3342" lon="-2.4746">
        <ele>16.60000038147</ele>
        <time>2019-07-07T09:19:31.000Z</time>
      </trkpt>
      <trkpt lat="47.33416" lon="-2.47449">
        <ele>16.60000038147</ele>
        <time>2019-07-07T09:19:33.000Z</time>
      </trkpt>
      <trkpt lat="47.33413" lon="-2.47429">
        <ele>16.60000038147</ele>
        <time>2019-07-07T09:19:36.000Z</time>
      </trkpt>
      <trkpt lat="47.33411" lon="-2.47414">
        <ele>16.60000038147</ele>
        <time>2019-07-07T09:19:38.000Z</time>
      </trkpt>
      <trkpt lat="47.33406" lon="-2.47393">
        <ele>16.60000038147</ele>
        <time>2019-07-07T09:19:41.000Z</time>
      </trkpt>
      <trkpt lat="47.33404" lon="-2.47387">
        <ele>16.60000038147</ele>
        <time>2019-07-07T09:19:42.000Z</time>
      </trkpt>
      <trkpt lat="47.3339" lon="-2.4734">
        <ele>16.60000038147</ele>
        <time>2019-07-07T09:19:49.000Z</time>
      </trkpt>
      <trkpt lat="47.33384" lon="-2.47304">
        <ele>16.60000038147</ele>
        <time>2019-07-07T09:19:54.000Z</time>
      </trkpt>
      <trkpt lat="47.33379" lon="-2.47244">
        <ele>16.60000038147</ele>
        <time>2019-07-07T09:20:01.000Z</time>
      </trkpt>
      <trkpt lat="47.33371" lon="-2.47191">
        <ele>16.60000038147</ele>
        <time>2019-07-07T09:20:08.000Z</time>
      </trkpt>
      <trkpt lat="47.33367" lon="-2.47168">
        <ele>16.60000038147</ele>
        <time>2019-07-07T09:20:11.000Z</time>
      </trkpt>
      <trkpt lat="47.33371" lon="-2.47152">
        <ele>16.60000038147</ele>
        <time>2019-07-07T09:20:13.000Z</time>
      </trkpt>
      <trkpt lat="47.33384" lon="-2.47126">
        <ele>16.60000038147</ele>
        <time>2019-07-07T09:20:17.000Z</time>
      </trkpt>
      <trkpt lat="47.33391" lon="-2.47092">
        <ele>16.60000038147</ele>
        <time>2019-07-07T09:20:21.000Z</time>
      </trkpt>
      <trkpt lat="47.33395" lon="-2.47077">
        <ele>16.60000038147</ele>
        <time>2019-07-07T09:20:23.000Z</time>
      </trkpt>
      <trkpt lat="47.334" lon="-2.47062">
        <ele>16.60000038147</ele>
        <time>2019-07-07T09:20:25.000Z</time>
      </trkpt>
      <trkpt lat="47.33408" lon="-2.47041">
        <ele>16.60000038147</ele>
        <time>2019-07-07T09:20:28.000Z</time>
      </trkpt>
      <trkpt lat="47.33418" lon="-2.47022">
        <ele>16.60000038147</ele>
        <time>2019-07-07T09:20:31.000Z</time>
      </trkpt>
      <trkpt lat="47.33429" lon="-2.47004">
        <ele>16.60000038147</ele>
        <time>2019-07-07T09:20:34.000Z</time>
      </trkpt>
      <trkpt lat="47.33437" lon="-2.46994">
        <ele>17</ele>
        <time>2019-07-07T09:20:36.000Z</time>
      </trkpt>
      <trkpt lat="47.3344" lon="-2.46988">
        <ele>17.39999961853</ele>
        <time>2019-07-07T09:20:37.000Z</time>
      </trkpt>
      <trkpt lat="47.33443" lon="-2.46983">
        <ele>17.799999237061</ele>
        <time>2019-07-07T09:20:38.000Z</time>
      </trkpt>
      <trkpt lat="47.33447" lon="-2.46977">
        <ele>18.200000762939</ele>
        <time>2019-07-07T09:20:39.000Z</time>
      </trkpt>
      <trkpt lat="47.3345" lon="-2.46972">
        <ele>18.60000038147</ele>
        <time>2019-07-07T09:20:40.000Z</time>
      </trkpt>
      <trkpt lat="47.33459" lon="-2.46958">
        <ele>18.60000038147</ele>
        <time>2019-07-07T09:20:43.000Z</time>
      </trkpt>
      <trkpt lat="47.33473" lon="-2.46937">
        <ele>18.60000038147</ele>
        <time>2019-07-07T09:20:49.000Z</time>
      </trkpt>
      <trkpt lat="47.33489" lon="-2.46917">
        <ele>18.60000038147</ele>
        <time>2019-07-07T09:20:54.000Z</time>
      </trkpt>
      <trkpt lat="47.33493" lon="-2.46915">
        <ele>18.60000038147</ele>
        <time>2019-07-07T09:20:55.000Z</time>
      </trkpt>
      <trkpt lat="47.33496" lon="-2.46913">
        <ele>19</ele>
        <time>2019-07-07T09:20:56.000Z</time>
      </trkpt>
      <trkpt lat="47.33499" lon="-2.4691">
        <ele>19.39999961853</ele>
        <time>2019-07-07T09:20:57.000Z</time>
      </trkpt>
      <trkpt lat="47.33502" lon="-2.46908">
        <ele>19.799999237061</ele>
        <time>2019-07-07T09:20:58.000Z</time>
      </trkpt>
      <trkpt lat="47.33505" lon="-2.46905">
        <ele>20.200000762939</ele>
        <time>2019-07-07T09:20:59.000Z</time>
      </trkpt>
      <trkpt lat="47.33508" lon="-2.46902">
        <ele>20.60000038147</ele>
        <time>2019-07-07T09:21:00.000Z</time>
      </trkpt>
      <trkpt lat="47.33515" lon="-2.46894">
        <ele>20.60000038147</ele>
        <time>2019-07-07T09:21:04.000Z</time>
      </trkpt>
      <trkpt lat="47.33525" lon="-2.46884">
        <ele>20.60000038147</ele>
        <time>2019-07-07T09:21:09.000Z</time>
      </trkpt>
      <trkpt lat="47.33532" lon="-2.46871">
        <ele>21</ele>
        <time>2019-07-07T09:21:13.000Z</time>
      </trkpt>
      <trkpt lat="47.33533" lon="-2.46867">
        <ele>21.60000038147</ele>
        <time>2019-07-07T09:21:14.000Z</time>
      </trkpt>
      <trkpt lat="47.33533" lon="-2.46863">
        <ele>22</ele>
        <time>2019-07-07T09:21:15.000Z</time>
      </trkpt>
      <trkpt lat="47.33532" lon="-2.46858">
        <ele>22.39999961853</ele>
        <time>2019-07-07T09:21:16.000Z</time>
      </trkpt>
      <trkpt lat="47.33531" lon="-2.46853">
        <ele>22.799999237061</ele>
        <time>2019-07-07T09:21:17.000Z</time>
      </trkpt>
      <trkpt lat="47.33531" lon="-2.46849">
        <ele>22.799999237061</ele>
        <time>2019-07-07T09:21:18.000Z</time>
      </trkpt>
      <trkpt lat="47.33532" lon="-2.46841">
        <ele>23.200000762939</ele>
        <time>2019-07-07T09:21:20.000Z</time>
      </trkpt>
      <trkpt lat="47.33534" lon="-2.46838">
        <ele>23.60000038147</ele>
        <time>2019-07-07T09:21:21.000Z</time>
      </trkpt>
      <trkpt lat="47.33537" lon="-2.46836">
        <ele>24.200000762939</ele>
        <time>2019-07-07T09:21:22.000Z</time>
      </trkpt>
      <trkpt lat="47.3354" lon="-2.46833">
        <ele>24.60000038147</ele>
        <time>2019-07-07T09:21:23.000Z</time>
      </trkpt>
      <trkpt lat="47.33543" lon="-2.4683">
        <ele>25</ele>
        <time>2019-07-07T09:21:24.000Z</time>
      </trkpt>
      <trkpt lat="47.33556" lon="-2.46818">
        <ele>25</ele>
        <time>2019-07-07T09:21:28.000Z</time>
      </trkpt>
      <trkpt lat="47.33563" lon="-2.46813">
        <ele>25.39999961853</ele>
        <time>2019-07-07T09:21:30.000Z</time>
      </trkpt>
      <trkpt lat="47.33566" lon="-2.4681">
        <ele>25.799999237061</ele>
        <time>2019-07-07T09:21:31.000Z</time>
      </trkpt>
      <trkpt lat="47.33569" lon="-2.46807">
        <ele>26.200000762939</ele>
        <time>2019-07-07T09:21:32.000Z</time>
      </trkpt>
      <trkpt lat="47.33571" lon="-2.46805">
        <ele>26.60000038147</ele>
        <time>2019-07-07T09:21:33.000Z</time>
      </trkpt>
      <trkpt lat="47.33574" lon="-2.46802">
        <ele>27</ele>
        <time>2019-07-07T09:21:34.000Z</time>
      </trkpt>
      <trkpt lat="47.33585" lon="-2.46791">
        <ele>27.39999961853</ele>
        <time>2019-07-07T09:21:38.000Z</time>
      </trkpt>
      <trkpt lat="47.33588" lon="-2.46788">
        <ele>27.799999237061</ele>
        <time>2019-07-07T09:21:39.000Z</time>
      </trkpt>
      <trkpt lat="47.3359" lon="-2.46784">
        <ele>28.200000762939</ele>
        <time>2019-07-07T09:21:40.000Z</time>
      </trkpt>
      <trkpt lat="47.33591" lon="-2.46781">
        <ele>28.60000038147</ele>
        <time>2019-07-07T09:21:41.000Z</time>
      </trkpt>
      <trkpt lat="47.33594" lon="-2.46779">
        <ele>29.200000762939</ele>
        <time>2019-07-07T09:21:42.000Z</time>
      </trkpt>
      <trkpt lat="47.33599" lon="-2.46773">
        <ele>29.60000038147</ele>
        <time>2019-07-07T09:21:44.000Z</time>
      </trkpt>
      <trkpt lat="47.33602" lon="-2.4677">
        <ele>30</ele>
        <time>2019-07-07T09:21:45.000Z</time>
      </trkpt>
      <trkpt lat="47.33604" lon="-2.46766">
        <ele>30.39999961853</ele>
        <time>2019-07-07T09:21:46.000Z</time>
      </trkpt>
      <trkpt lat="47.33607" lon="-2.46762">
        <ele>30.799999237061</ele>
        <time>2019-07-07T09:21:47.000Z</time>
      </trkpt>
      <trkpt lat="47.3361" lon="-2.46759">
        <ele>31.200000762939</ele>
        <time>2019-07-07T09:21:48.000Z</time>
      </trkpt>
      <trkpt lat="47.33615" lon="-2.46753">
        <ele>31.200000762939</ele>
        <time>2019-07-07T09:21:50.000Z</time>
      </trkpt>
      <trkpt lat="47.33617" lon="-2.46749">
        <ele>31.60000038147</ele>
        <time>2019-07-07T09:21:51.000Z</time>
      </trkpt>
      <trkpt lat="47.33618" lon="-2.46744">
        <ele>32</ele>
        <time>2019-07-07T09:21:52.000Z</time>
      </trkpt>
      <trkpt lat="47.33618" lon="-2.46738">
        <ele>32.599998474121</ele>
        <time>2019-07-07T09:21:53.000Z</time>
      </trkpt>
      <trkpt lat="47.33617" lon="-2.46733">
        <ele>33</ele>
        <time>2019-07-07T09:21:54.000Z</time>
      </trkpt>
      <trkpt lat="47.33616" lon="-2.46727">
        <ele>33.400001525879</ele>
        <time>2019-07-07T09:21:55.000Z</time>
      </trkpt>
      <trkpt lat="47.33613" lon="-2.46716">
        <ele>33.400001525879</ele>
        <time>2019-07-07T09:21:57.000Z</time>
      </trkpt>
      <trkpt lat="47.33611" lon="-2.4671">
        <ele>33.400001525879</ele>
        <time>2019-07-07T09:21:58.000Z</time>
      </trkpt>
      <trkpt lat="47.33592" lon="-2.46658">
        <ele>33.400001525879</ele>
        <time>2019-07-07T09:22:06.000Z</time>
      </trkpt>
      <trkpt lat="47.33577" lon="-2.46617">
        <ele>33.400001525879</ele>
        <time>2019-07-07T09:22:13.000Z</time>
      </trkpt>
      <trkpt lat="47.33566" lon="-2.46594">
        <ele>33.400001525879</ele>
        <time>2019-07-07T09:22:18.000Z</time>
      </trkpt>
      <trkpt lat="47.33563" lon="-2.46591">
        <ele>33.400001525879</ele>
        <time>2019-07-07T09:22:19.000Z</time>
      </trkpt>
      <trkpt lat="47.33554" lon="-2.46578">
        <ele>33.400001525879</ele>
        <time>2019-07-07T09:22:23.000Z</time>
      </trkpt>
      <trkpt lat="47.33552" lon="-2.46558">
        <ele>33.400001525879</ele>
        <time>2019-07-07T09:22:26.000Z</time>
      </trkpt>
      <trkpt lat="47.33546" lon="-2.46517">
        <ele>33.400001525879</ele>
        <time>2019-07-07T09:22:33.000Z</time>
      </trkpt>
      <trkpt lat="47.3354" lon="-2.46492">
        <ele>33.799999237061</ele>
        <time>2019-07-07T09:22:38.000Z</time>
      </trkpt>
      <trkpt lat="47.33539" lon="-2.46489">
        <ele>34.200000762939</ele>
        <time>2019-07-07T09:22:39.000Z</time>
      </trkpt>
      <trkpt lat="47.33538" lon="-2.46487">
        <ele>34.599998474121</ele>
        <time>2019-07-07T09:22:40.000Z</time>
      </trkpt>
      <trkpt lat="47.33536" lon="-2.46486">
        <ele>35.200000762939</ele>
        <time>2019-07-07T09:22:41.000Z</time>
      </trkpt>
      <trkpt lat="47.33533" lon="-2.46485">
        <ele>35.599998474121</ele>
        <time>2019-07-07T09:22:42.000Z</time>
      </trkpt>
      <trkpt lat="47.3353" lon="-2.46484">
        <ele>35.599998474121</ele>
        <time>2019-07-07T09:22:43.000Z</time>
      </trkpt>
      <trkpt lat="47.3352" lon="-2.46486">
        <ele>35.599998474121</ele>
        <time>2019-07-07T09:22:47.000Z</time>
      </trkpt>
      <trkpt lat="47.335" lon="-2.46501">
        <ele>35.599998474121</ele>
        <time>2019-07-07T09:22:53.000Z</time>
      </trkpt>
      <trkpt lat="47.33493" lon="-2.46508">
        <ele>35.599998474121</ele>
        <time>2019-07-07T09:22:55.000Z</time>
      </trkpt>
      <trkpt lat="47.33478" lon="-2.4653">
        <ele>35.599998474121</ele>
        <time>2019-07-07T09:22:58.000Z</time>
      </trkpt>
      <trkpt lat="47.33466" lon="-2.46547">
        <ele>35.200000762939</ele>
        <time>2019-07-07T09:23:00.000Z</time>
      </trkpt>
      <trkpt lat="47.33461" lon="-2.46554">
        <ele>34.799999237061</ele>
        <time>2019-07-07T09:23:01.000Z</time>
      </trkpt>
      <trkpt lat="47.33455" lon="-2.46562">
        <ele>34.200000762939</ele>
        <time>2019-07-07T09:23:02.000Z</time>
      </trkpt>
      <trkpt lat="47.33449" lon="-2.46567">
        <ele>33.799999237061</ele>
        <time>2019-07-07T09:23:03.000Z</time>
      </trkpt>
      <trkpt lat="47.33442" lon="-2.46573">
        <ele>33.400001525879</ele>
        <time>2019-07-07T09:23:04.000Z</time>
      </trkpt>
      <trkpt lat="47.33435" lon="-2.46578">
        <ele>32.799999237061</ele>
        <time>2019-07-07T09:23:05.000Z</time>
      </trkpt>
      <trkpt lat="47.33429" lon="-2.46582">
        <ele>32.400001525879</ele>
        <time>2019-07-07T09:23:06.000Z</time>
      </trkpt>
      <trkpt lat="47.33423" lon="-2.46586">
        <ele>31.799999237061</ele>
        <time>2019-07-07T09:23:07.000Z</time>
      </trkpt>
      <trkpt lat="47.33417" lon="-2.46591">
        <ele>31.39999961853</ele>
        <time>2019-07-07T09:23:08.000Z</time>
      </trkpt>
      <trkpt lat="47.33412" lon="-2.46596">
        <ele>30.799999237061</ele>
        <time>2019-07-07T09:23:09.000Z</time>
      </trkpt>
      <trkpt lat="47.33407" lon="-2.46601">
        <ele>30.39999961853</ele>
        <time>2019-07-07T09:23:10.000Z</time>
      </trkpt>
      <trkpt lat="47.33401" lon="-2.46607">
        <ele>30</ele>
        <time>2019-07-07T09:23:11.000Z</time>
      </trkpt>
      <trkpt lat="47.33395" lon="-2.46613">
        <ele>29.60000038147</ele>
        <time>2019-07-07T09:23:12.000Z</time>
      </trkpt>
      <trkpt lat="47.3339" lon="-2.46619">
        <ele>29.200000762939</ele>
        <time>2019-07-07T09:23:13.000Z</time>
      </trkpt>
      <trkpt lat="47.33381" lon="-2.46632">
        <ele>28.39999961853</ele>
        <time>2019-07-07T09:23:15.000Z</time>
      </trkpt>
      <trkpt lat="47.33376" lon="-2.46637">
        <ele>28</ele>
        <time>2019-07-07T09:23:16.000Z</time>
      </trkpt>
      <trkpt lat="47.3337" lon="-2.46641">
        <ele>27.39999961853</ele>
        <time>2019-07-07T09:23:17.000Z</time>
      </trkpt>
      <trkpt lat="47.33364" lon="-2.46644">
        <ele>27</ele>
        <time>2019-07-07T09:23:18.000Z</time>
      </trkpt>
      <trkpt lat="47.33353" lon="-2.46649">
        <ele>26.60000038147</ele>
        <time>2019-07-07T09:23:20.000Z</time>
      </trkpt>
      <trkpt lat="47.33348" lon="-2.46652">
        <ele>26.200000762939</ele>
        <time>2019-07-07T09:23:21.000Z</time>
      </trkpt>
      <trkpt lat="47.33343" lon="-2.46654">
        <ele>25.799999237061</ele>
        <time>2019-07-07T09:23:22.000Z</time>
      </trkpt>
      <trkpt lat="47.33338" lon="-2.46655">
        <ele>25.39999961853</ele>
        <time>2019-07-07T09:23:23.000Z</time>
      </trkpt>
      <trkpt lat="47.33335" lon="-2.46654">
        <ele>25</ele>
        <time>2019-07-07T09:23:24.000Z</time>
      </trkpt>
      <trkpt lat="47.3333" lon="-2.46647">
        <ele>25</ele>
        <time>2019-07-07T09:23:26.000Z</time>
      </trkpt>
      <trkpt lat="47.33326" lon="-2.46625">
        <ele>25</ele>
        <time>2019-07-07T09:23:30.000Z</time>
      </trkpt>
      <trkpt lat="47.3332" lon="-2.46616">
        <ele>25</ele>
        <time>2019-07-07T09:23:32.000Z</time>
      </trkpt>
      <trkpt lat="47.33309" lon="-2.46602">
        <ele>25</ele>
        <time>2019-07-07T09:23:35.000Z</time>
      </trkpt>
      <trkpt lat="47.33306" lon="-2.46597">
        <ele>25</ele>
        <time>2019-07-07T09:23:36.000Z</time>
      </trkpt>
      <trkpt lat="47.33296" lon="-2.46571">
        <ele>25</ele>
        <time>2019-07-07T09:23:40.000Z</time>
      </trkpt>
      <trkpt lat="47.33292" lon="-2.46547">
        <ele>25</ele>
        <time>2019-07-07T09:23:43.000Z</time>
      </trkpt>
      <trkpt lat="47.33291" lon="-2.46539">
        <ele>25</ele>
        <time>2019-07-07T09:23:44.000Z</time>
      </trkpt>
      <trkpt lat="47.3329" lon="-2.46531">
        <ele>25</ele>
        <time>2019-07-07T09:23:45.000Z</time>
      </trkpt>
      <trkpt lat="47.33287" lon="-2.46488">
        <ele>25</ele>
        <time>2019-07-07T09:23:51.000Z</time>
      </trkpt>
      <trkpt lat="47.33286" lon="-2.46482">
        <ele>25.39999961853</ele>
        <time>2019-07-07T09:23:52.000Z</time>
      </trkpt>
      <trkpt lat="47.33286" lon="-2.46476">
        <ele>25.799999237061</ele>
        <time>2019-07-07T09:23:53.000Z</time>
      </trkpt>
      <trkpt lat="47.33285" lon="-2.4647">
        <ele>26.200000762939</ele>
        <time>2019-07-07T09:23:54.000Z</time>
      </trkpt>
      <trkpt lat="47.33284" lon="-2.46465">
        <ele>26.60000038147</ele>
        <time>2019-07-07T09:23:55.000Z</time>
      </trkpt>
      <trkpt lat="47.33283" lon="-2.46459">
        <ele>27.200000762939</ele>
        <time>2019-07-07T09:23:56.000Z</time>
      </trkpt>
      <trkpt lat="47.33269" lon="-2.46432">
        <ele>27.200000762939</ele>
        <time>2019-07-07T09:24:02.000Z</time>
      </trkpt>
      <trkpt lat="47.33265" lon="-2.46431">
        <ele>27.200000762939</ele>
        <time>2019-07-07T09:24:03.000Z</time>
      </trkpt>
      <trkpt lat="47.33252" lon="-2.4643">
        <ele>27.200000762939</ele>
        <time>2019-07-07T09:24:06.000Z</time>
      </trkpt>
      <trkpt lat="47.33239" lon="-2.46442">
        <ele>27.200000762939</ele>
        <time>2019-07-07T09:24:09.000Z</time>
      </trkpt>
      <trkpt lat="47.33231" lon="-2.46455">
        <ele>27.200000762939</ele>
        <time>2019-07-07T09:24:11.000Z</time>
      </trkpt>
      <trkpt lat="47.33224" lon="-2.46468">
        <ele>27.200000762939</ele>
        <time>2019-07-07T09:24:13.000Z</time>
      </trkpt>
      <trkpt lat="47.33216" lon="-2.46472">
        <ele>26.799999237061</ele>
        <time>2019-07-07T09:24:15.000Z</time>
      </trkpt>
      <trkpt lat="47.33212" lon="-2.46474">
        <ele>26.200000762939</ele>
        <time>2019-07-07T09:24:16.000Z</time>
      </trkpt>
      <trkpt lat="47.33208" lon="-2.46474">
        <ele>25.799999237061</ele>
        <time>2019-07-07T09:24:17.000Z</time>
      </trkpt>
      <trkpt lat="47.33203" lon="-2.46474">
        <ele>25.39999961853</ele>
        <time>2019-07-07T09:24:18.000Z</time>
      </trkpt>
      <trkpt lat="47.33198" lon="-2.46474">
        <ele>25</ele>
        <time>2019-07-07T09:24:19.000Z</time>
      </trkpt>
      <trkpt lat="47.33193" lon="-2.46476">
        <ele>24.60000038147</ele>
        <time>2019-07-07T09:24:20.000Z</time>
      </trkpt>
      <trkpt lat="47.33187" lon="-2.46478">
        <ele>24.200000762939</ele>
        <time>2019-07-07T09:24:21.000Z</time>
      </trkpt>
      <trkpt lat="47.33181" lon="-2.46482">
        <ele>23.799999237061</ele>
        <time>2019-07-07T09:24:22.000Z</time>
      </trkpt>
      <trkpt lat="47.33175" lon="-2.46485">
        <ele>23.39999961853</ele>
        <time>2019-07-07T09:24:23.000Z</time>
      </trkpt>
      <trkpt lat="47.33168" lon="-2.46489">
        <ele>23</ele>
        <time>2019-07-07T09:24:24.000Z</time>
      </trkpt>
      <trkpt lat="47.33154" lon="-2.46495">
        <ele>22.39999961853</ele>
        <time>2019-07-07T09:24:26.000Z</time>
      </trkpt>
      <trkpt lat="47.33148" lon="-2.46496">
        <ele>22</ele>
        <time>2019-07-07T09:24:27.000Z</time>
      </trkpt>
      <trkpt lat="47.33141" lon="-2.46497">
        <ele>21.60000038147</ele>
        <time>2019-07-07T09:24:28.000Z</time>
      </trkpt>
      <trkpt lat="47.33134" lon="-2.46498">
        <ele>20.60000038147</ele>
        <time>2019-07-07T09:24:29.000Z</time>
      </trkpt>
      <trkpt lat="47.3312" lon="-2.46502">
        <ele>20.200000762939</ele>
        <time>2019-07-07T09:24:31.000Z</time>
      </trkpt>
      <trkpt lat="47.33114" lon="-2.46504">
        <ele>19.799999237061</ele>
        <time>2019-07-07T09:24:32.000Z</time>
      </trkpt>
      <trkpt lat="47.33109" lon="-2.46507">
        <ele>19.39999961853</ele>
        <time>2019-07-07T09:24:33.000Z</time>
      </trkpt>
      <trkpt lat="47.33105" lon="-2.4651">
        <ele>19</ele>
        <time>2019-07-07T09:24:34.000Z</time>
      </trkpt>
      <trkpt lat="47.331" lon="-2.46514">
        <ele>18.39999961853</ele>
        <time>2019-07-07T09:24:35.000Z</time>
      </trkpt>
      <trkpt lat="47.33095" lon="-2.46517">
        <ele>18</ele>
        <time>2019-07-07T09:24:36.000Z</time>
      </trkpt>
      <trkpt lat="47.3309" lon="-2.4652">
        <ele>17.39999961853</ele>
        <time>2019-07-07T09:24:37.000Z</time>
      </trkpt>
      <trkpt lat="47.33085" lon="-2.46522">
        <ele>17</ele>
        <time>2019-07-07T09:24:38.000Z</time>
      </trkpt>
      <trkpt lat="47.3308" lon="-2.46524">
        <ele>16.39999961853</ele>
        <time>2019-07-07T09:24:39.000Z</time>
      </trkpt>
      <trkpt lat="47.33074" lon="-2.46528">
        <ele>16</ele>
        <time>2019-07-07T09:24:40.000Z</time>
      </trkpt>
      <trkpt lat="47.33068" lon="-2.46531">
        <ele>15.60000038147</ele>
        <time>2019-07-07T09:24:41.000Z</time>
      </trkpt>
      <trkpt lat="47.33061" lon="-2.46533">
        <ele>15.199999809265</ele>
        <time>2019-07-07T09:24:42.000Z</time>
      </trkpt>
      <trkpt lat="47.33054" lon="-2.46536">
        <ele>14.800000190735</ele>
        <time>2019-07-07T09:24:43.000Z</time>
      </trkpt>
      <trkpt lat="47.33047" lon="-2.46539">
        <ele>14.199999809265</ele>
        <time>2019-07-07T09:24:44.000Z</time>
      </trkpt>
      <trkpt lat="47.3304" lon="-2.46541">
        <ele>14.199999809265</ele>
        <time>2019-07-07T09:24:45.000Z</time>
      </trkpt>
      <trkpt lat="47.33018" lon="-2.46547">
        <ele>13.800000190735</ele>
        <time>2019-07-07T09:24:48.000Z</time>
      </trkpt>
      <trkpt lat="47.33011" lon="-2.4655">
        <ele>13.39999961853</ele>
        <time>2019-07-07T09:24:49.000Z</time>
      </trkpt>
      <trkpt lat="47.33005" lon="-2.46552">
        <ele>13</ele>
        <time>2019-07-07T09:24:50.000Z</time>
      </trkpt>
      <trkpt lat="47.32999" lon="-2.46554">
        <ele>12.60000038147</ele>
        <time>2019-07-07T09:24:51.000Z</time>
      </trkpt>
      <trkpt lat="47.32994" lon="-2.46556">
        <ele>12.199999809265</ele>
        <time>2019-07-07T09:24:52.000Z</time>
      </trkpt>
      <trkpt lat="47.32983" lon="-2.46561">
        <ele>11.199999809265</ele>
        <time>2019-07-07T09:24:54.000Z</time>
      </trkpt>
      <trkpt lat="47.32977" lon="-2.46564">
        <ele>10.800000190735</ele>
        <time>2019-07-07T09:24:55.000Z</time>
      </trkpt>
      <trkpt lat="47.32973" lon="-2.46566">
        <ele>10.199999809265</ele>
        <time>2019-07-07T09:24:56.000Z</time>
      </trkpt>
      <trkpt lat="47.32968" lon="-2.46568">
        <ele>9.8000001907349</ele>
        <time>2019-07-07T09:24:57.000Z</time>
      </trkpt>
      <trkpt lat="47.32964" lon="-2.46569">
        <ele>9.1999998092651</ele>
        <time>2019-07-07T09:24:58.000Z</time>
      </trkpt>
      <trkpt lat="47.32962" lon="-2.46569">
        <ele>8.6000003814697</ele>
        <time>2019-07-07T09:24:59.000Z</time>
      </trkpt>
      <trkpt lat="47.3296" lon="-2.46569">
        <ele>8</ele>
        <time>2019-07-07T09:25:00.000Z</time>
      </trkpt>
      <trkpt lat="47.32958" lon="-2.46569">
        <ele>7.1999998092651</ele>
        <time>2019-07-07T09:25:01.000Z</time>
      </trkpt>
      <trkpt lat="47.32957" lon="-2.4657">
        <ele>6.5999999046326</ele>
        <time>2019-07-07T09:25:02.000Z</time>
      </trkpt>
      <trkpt lat="47.32955" lon="-2.46568">
        <ele>6</ele>
        <time>2019-07-07T09:25:03.000Z</time>
      </trkpt>
      <trkpt lat="47.32954" lon="-2.46565">
        <ele>5.1999998092651</ele>
        <time>2019-07-07T09:25:04.000Z</time>
      </trkpt>
      <trkpt lat="47.32954" lon="-2.46551">
        <ele>5.1999998092651</ele>
        <time>2019-07-07T09:25:07.000Z</time>
      </trkpt>
      <trkpt lat="47.32954" lon="-2.46546">
        <ele>5.1999998092651</ele>
        <time>2019-07-07T09:25:08.000Z</time>
      </trkpt>
      <trkpt lat="47.32956" lon="-2.46515">
        <ele>5.1999998092651</ele>
        <time>2019-07-07T09:25:13.000Z</time>
      </trkpt>
      <trkpt lat="47.32958" lon="-2.46491">
        <ele>5.1999998092651</ele>
        <time>2019-07-07T09:25:18.000Z</time>
      </trkpt>
      <trkpt lat="47.32959" lon="-2.46462">
        <ele>5.8000001907349</ele>
        <time>2019-07-07T09:25:23.000Z</time>
      </trkpt>
      <trkpt lat="47.3296" lon="-2.46457">
        <ele>6.1999998092651</ele>
        <time>2019-07-07T09:25:24.000Z</time>
      </trkpt>
      <trkpt lat="47.3296" lon="-2.46451">
        <ele>6.5999999046326</ele>
        <time>2019-07-07T09:25:25.000Z</time>
      </trkpt>
      <trkpt lat="47.3296" lon="-2.46446">
        <ele>7</ele>
        <time>2019-07-07T09:25:26.000Z</time>
      </trkpt>
      <trkpt lat="47.3296" lon="-2.4644">
        <ele>7.4000000953674</ele>
        <time>2019-07-07T09:25:27.000Z</time>
      </trkpt>
      <trkpt lat="47.32961" lon="-2.46434">
        <ele>7.8000001907349</ele>
        <time>2019-07-07T09:25:28.000Z</time>
      </trkpt>
      <trkpt lat="47.32961" lon="-2.46428">
        <ele>8.1999998092651</ele>
        <time>2019-07-07T09:25:29.000Z</time>
      </trkpt>
      <trkpt lat="47.32961" lon="-2.46423">
        <ele>8.6000003814697</ele>
        <time>2019-07-07T09:25:30.000Z</time>
      </trkpt>
      <trkpt lat="47.32962" lon="-2.46418">
        <ele>9.1999998092651</ele>
        <time>2019-07-07T09:25:31.000Z</time>
      </trkpt>
      <trkpt lat="47.32962" lon="-2.46412">
        <ele>9.6000003814697</ele>
        <time>2019-07-07T09:25:32.000Z</time>
      </trkpt>
      <trkpt lat="47.32962" lon="-2.46401">
        <ele>10</ele>
        <time>2019-07-07T09:25:34.000Z</time>
      </trkpt>
      <trkpt lat="47.32962" lon="-2.46396">
        <ele>10.39999961853</ele>
        <time>2019-07-07T09:25:35.000Z</time>
      </trkpt>
      <trkpt lat="47.32962" lon="-2.46391">
        <ele>11</ele>
        <time>2019-07-07T09:25:36.000Z</time>
      </trkpt>
      <trkpt lat="47.32962" lon="-2.46386">
        <ele>11.39999961853</ele>
        <time>2019-07-07T09:25:37.000Z</time>
      </trkpt>
      <trkpt lat="47.32962" lon="-2.46382">
        <ele>11.800000190735</ele>
        <time>2019-07-07T09:25:38.000Z</time>
      </trkpt>
      <trkpt lat="47.32962" lon="-2.46377">
        <ele>11.800000190735</ele>
        <time>2019-07-07T09:25:39.000Z</time>
      </trkpt>
      <trkpt lat="47.3296" lon="-2.46361">
        <ele>12.199999809265</ele>
        <time>2019-07-07T09:25:42.000Z</time>
      </trkpt>
      <trkpt lat="47.32958" lon="-2.46356">
        <ele>13.199999809265</ele>
        <time>2019-07-07T09:25:43.000Z</time>
      </trkpt>
      <trkpt lat="47.32957" lon="-2.46351">
        <ele>13.60000038147</ele>
        <time>2019-07-07T09:25:44.000Z</time>
      </trkpt>
      <trkpt lat="47.32956" lon="-2.46346">
        <ele>14.199999809265</ele>
        <time>2019-07-07T09:25:45.000Z</time>
      </trkpt>
      <trkpt lat="47.32952" lon="-2.46332">
        <ele>14.60000038147</ele>
        <time>2019-07-07T09:25:48.000Z</time>
      </trkpt>
      <trkpt lat="47.32951" lon="-2.46327">
        <ele>15</ele>
        <time>2019-07-07T09:25:49.000Z</time>
      </trkpt>
      <trkpt lat="47.32949" lon="-2.46322">
        <ele>15.39999961853</ele>
        <time>2019-07-07T09:25:50.000Z</time>
      </trkpt>
      <trkpt lat="47.32948" lon="-2.46317">
        <ele>15.800000190735</ele>
        <time>2019-07-07T09:25:51.000Z</time>
      </trkpt>
      <trkpt lat="47.32947" lon="-2.46312">
        <ele>16.200000762939</ele>
        <time>2019-07-07T09:25:52.000Z</time>
      </trkpt>
      <trkpt lat="47.32945" lon="-2.46308">
        <ele>16.200000762939</ele>
        <time>2019-07-07T09:25:53.000Z</time>
      </trkpt>
      <trkpt lat="47.32943" lon="-2.46298">
        <ele>16.60000038147</ele>
        <time>2019-07-07T09:25:55.000Z</time>
      </trkpt>
      <trkpt lat="47.32941" lon="-2.46293">
        <ele>17.200000762939</ele>
        <time>2019-07-07T09:25:56.000Z</time>
      </trkpt>
      <trkpt lat="47.3294" lon="-2.46288">
        <ele>17.60000038147</ele>
        <time>2019-07-07T09:25:57.000Z</time>
      </trkpt>
      <trkpt lat="47.32938" lon="-2.46282">
        <ele>18</ele>
        <time>2019-07-07T09:25:58.000Z</time>
      </trkpt>
      <trkpt lat="47.32937" lon="-2.46277">
        <ele>18.39999961853</ele>
        <time>2019-07-07T09:25:59.000Z</time>
      </trkpt>
      <trkpt lat="47.32934" lon="-2.46265">
        <ele>18.39999961853</ele>
        <time>2019-07-07T09:26:01.000Z</time>
      </trkpt>
      <trkpt lat="47.3292" lon="-2.46217">
        <ele>18.39999961853</ele>
        <time>2019-07-07T09:26:09.000Z</time>
      </trkpt>
      <trkpt lat="47.32907" lon="-2.46165">
        <ele>18.39999961853</ele>
        <time>2019-07-07T09:26:18.000Z</time>
      </trkpt>
      <trkpt lat="47.32899" lon="-2.4615">
        <ele>18.39999961853</ele>
        <time>2019-07-07T09:26:22.000Z</time>
      </trkpt>
      <trkpt lat="47.32893" lon="-2.4615">
        <ele>18.39999961853</ele>
        <time>2019-07-07T09:26:27.000Z</time>
      </trkpt>
      <trkpt lat="47.32893" lon="-2.4615">
        <ele>18.39999961853</ele>
        <time>2019-07-07T09:26:28.000Z</time>
      </trkpt>
      <trkpt lat="47.32891" lon="-2.46151">
        <ele>18.39999961853</ele>
        <time>2019-07-07T09:26:32.000Z</time>
      </trkpt>
      <trkpt lat="47.32886" lon="-2.46153">
        <ele>18.39999961853</ele>
        <time>2019-07-07T09:26:34.000Z</time>
      </trkpt>
      <trkpt lat="47.32867" lon="-2.46165">
        <ele>18.39999961853</ele>
        <time>2019-07-07T09:26:39.000Z</time>
      </trkpt>
      <trkpt lat="47.32837" lon="-2.46184">
        <ele>18</ele>
        <time>2019-07-07T09:26:44.000Z</time>
      </trkpt>
      <trkpt lat="47.32831" lon="-2.46187">
        <ele>17.60000038147</ele>
        <time>2019-07-07T09:26:45.000Z</time>
      </trkpt>
      <trkpt lat="47.32826" lon="-2.46191">
        <ele>17.200000762939</ele>
        <time>2019-07-07T09:26:46.000Z</time>
      </trkpt>
      <trkpt lat="47.32821" lon="-2.46192">
        <ele>16.799999237061</ele>
        <time>2019-07-07T09:26:47.000Z</time>
      </trkpt>
      <trkpt lat="47.32815" lon="-2.46193">
        <ele>16.39999961853</ele>
        <time>2019-07-07T09:26:48.000Z</time>
      </trkpt>
      <trkpt lat="47.3281" lon="-2.46191">
        <ele>16</ele>
        <time>2019-07-07T09:26:49.000Z</time>
      </trkpt>
      <trkpt lat="47.32805" lon="-2.46188">
        <ele>15.39999961853</ele>
        <time>2019-07-07T09:26:50.000Z</time>
      </trkpt>
      <trkpt lat="47.32799" lon="-2.46185">
        <ele>15</ele>
        <time>2019-07-07T09:26:51.000Z</time>
      </trkpt>
      <trkpt lat="47.32794" lon="-2.46181">
        <ele>14.60000038147</ele>
        <time>2019-07-07T09:26:52.000Z</time>
      </trkpt>
      <trkpt lat="47.32789" lon="-2.46178">
        <ele>14.199999809265</ele>
        <time>2019-07-07T09:26:53.000Z</time>
      </trkpt>
      <trkpt lat="47.32784" lon="-2.46173">
        <ele>14.199999809265</ele>
        <time>2019-07-07T09:26:54.000Z</time>
      </trkpt>
      <trkpt lat="47.3278" lon="-2.46168">
        <ele>14.199999809265</ele>
        <time>2019-07-07T09:26:55.000Z</time>
      </trkpt>
      <trkpt lat="47.32768" lon="-2.46148">
        <ele>14.199999809265</ele>
        <time>2019-07-07T09:26:58.000Z</time>
      </trkpt>
      <trkpt lat="47.32765" lon="-2.46135">
        <ele>13.800000190735</ele>
        <time>2019-07-07T09:27:00.000Z</time>
      </trkpt>
      <trkpt lat="47.32764" lon="-2.4613">
        <ele>13.199999809265</ele>
        <time>2019-07-07T09:27:01.000Z</time>
      </trkpt>
      <trkpt lat="47.32762" lon="-2.46124">
        <ele>12.800000190735</ele>
        <time>2019-07-07T09:27:02.000Z</time>
      </trkpt>
      <trkpt lat="47.32761" lon="-2.46118">
        <ele>12.39999961853</ele>
        <time>2019-07-07T09:27:03.000Z</time>
      </trkpt>
      <trkpt lat="47.32759" lon="-2.46112">
        <ele>12</ele>
        <time>2019-07-07T09:27:04.000Z</time>
      </trkpt>
      <trkpt lat="47.32754" lon="-2.46104">
        <ele>12</ele>
        <time>2019-07-07T09:27:06.000Z</time>
      </trkpt>
      <trkpt lat="47.32752" lon="-2.46102">
        <ele>11.60000038147</ele>
        <time>2019-07-07T09:27:07.000Z</time>
      </trkpt>
      <trkpt lat="47.32751" lon="-2.46099">
        <ele>11</ele>
        <time>2019-07-07T09:27:08.000Z</time>
      </trkpt>
      <trkpt lat="47.32748" lon="-2.46095">
        <ele>10.60000038147</ele>
        <time>2019-07-07T09:27:09.000Z</time>
      </trkpt>
      <trkpt lat="47.32746" lon="-2.46092">
        <ele>10.199999809265</ele>
        <time>2019-07-07T09:27:10.000Z</time>
      </trkpt>
      <trkpt lat="47.32744" lon="-2.4609">
        <ele>9.6000003814697</ele>
        <time>2019-07-07T09:27:11.000Z</time>
      </trkpt>
      <trkpt lat="47.32727" lon="-2.46071">
        <ele>9.6000003814697</ele>
        <time>2019-07-07T09:27:17.000Z</time>
      </trkpt>
      <trkpt lat="47.32717" lon="-2.46059">
        <ele>9.6000003814697</ele>
        <time>2019-07-07T09:27:20.000Z</time>
      </trkpt>
      <trkpt lat="47.32709" lon="-2.46049">
        <ele>9.6000003814697</ele>
        <time>2019-07-07T09:27:22.000Z</time>
      </trkpt>
      <trkpt lat="47.32702" lon="-2.46038">
        <ele>9.6000003814697</ele>
        <time>2019-07-07T09:27:24.000Z</time>
      </trkpt>
      <trkpt lat="47.32698" lon="-2.46032">
        <ele>9.1999998092651</ele>
        <time>2019-07-07T09:27:25.000Z</time>
      </trkpt>
      <trkpt lat="47.32694" lon="-2.46026">
        <ele>8.8000001907349</ele>
        <time>2019-07-07T09:27:26.000Z</time>
      </trkpt>
      <trkpt lat="47.32691" lon="-2.4602">
        <ele>8.3999996185303</ele>
        <time>2019-07-07T09:27:27.000Z</time>
      </trkpt>
      <trkpt lat="47.32688" lon="-2.46013">
        <ele>8</ele>
        <time>2019-07-07T09:27:28.000Z</time>
      </trkpt>
      <trkpt lat="47.32685" lon="-2.46008">
        <ele>7.5999999046326</ele>
        <time>2019-07-07T09:27:29.000Z</time>
      </trkpt>
      <trkpt lat="47.32681" lon="-2.46003">
        <ele>7.5999999046326</ele>
        <time>2019-07-07T09:27:30.000Z</time>
      </trkpt>
      <trkpt lat="47.3267" lon="-2.45991">
        <ele>7.5999999046326</ele>
        <time>2019-07-07T09:27:33.000Z</time>
      </trkpt>
      <trkpt lat="47.32656" lon="-2.4598">
        <ele>7.5999999046326</ele>
        <time>2019-07-07T09:27:36.000Z</time>
      </trkpt>
      <trkpt lat="47.32653" lon="-2.45976">
        <ele>7.5999999046326</ele>
        <time>2019-07-07T09:27:37.000Z</time>
      </trkpt>
      <trkpt lat="47.32646" lon="-2.45969">
        <ele>7.5999999046326</ele>
        <time>2019-07-07T09:27:41.000Z</time>
      </trkpt>
      <trkpt lat="47.32643" lon="-2.45966">
        <ele>7.5999999046326</ele>
        <time>2019-07-07T09:28:04.000Z</time>
      </trkpt>
      <trkpt lat="47.32638" lon="-2.4596">
        <ele>7.5999999046326</ele>
        <time>2019-07-07T09:28:06.000Z</time>
      </trkpt>
      <trkpt lat="47.32626" lon="-2.45943">
        <ele>7.5999999046326</ele>
        <time>2019-07-07T09:28:10.000Z</time>
      </trkpt>
      <trkpt lat="47.32608" lon="-2.45914">
        <ele>7.5999999046326</ele>
        <time>2019-07-07T09:28:16.000Z</time>
      </trkpt>
      <trkpt lat="47.32604" lon="-2.4591">
        <ele>7.5999999046326</ele>
        <time>2019-07-07T09:28:17.000Z</time>
      </trkpt>
      <trkpt lat="47.32587" lon="-2.45889">
        <ele>7.5999999046326</ele>
        <time>2019-07-07T09:28:23.000Z</time>
      </trkpt>
      <trkpt lat="47.32587" lon="-2.45889">
        <ele>7.5999999046326</ele>
        <time>2019-07-07T09:28:24.000Z</time>
      </trkpt>
      <trkpt lat="47.3259" lon="-2.45888">
        <ele>7.5999999046326</ele>
        <time>2019-07-07T09:28:47.000Z</time>
      </trkpt>
      <trkpt lat="47.32593" lon="-2.45892">
        <ele>7.5999999046326</ele>
        <time>2019-07-07T09:28:49.000Z</time>
      </trkpt>
      <trkpt lat="47.32605" lon="-2.45906">
        <ele>7.5999999046326</ele>
        <time>2019-07-07T09:28:53.000Z</time>
      </trkpt>
      <trkpt lat="47.32623" lon="-2.45935">
        <ele>7.5999999046326</ele>
        <time>2019-07-07T09:28:59.000Z</time>
      </trkpt>
      <trkpt lat="47.32639" lon="-2.4596">
        <ele>7.5999999046326</ele>
        <time>2019-07-07T09:29:04.000Z</time>
      </trkpt>
      <trkpt lat="47.32643" lon="-2.45964">
        <ele>7.5999999046326</ele>
        <time>2019-07-07T09:29:05.000Z</time>
      </trkpt>
      <trkpt lat="47.32656" lon="-2.45976">
        <ele>7.5999999046326</ele>
        <time>2019-07-07T09:29:08.000Z</time>
      </trkpt>
      <trkpt lat="47.3266" lon="-2.45979">
        <ele>7.5999999046326</ele>
        <time>2019-07-07T09:29:09.000Z</time>
      </trkpt>
      <trkpt lat="47.32671" lon="-2.45987">
        <ele>7.5999999046326</ele>
        <time>2019-07-07T09:29:13.000Z</time>
      </trkpt>
      <trkpt lat="47.32676" lon="-2.45991">
        <ele>7.5999999046326</ele>
        <time>2019-07-07T09:29:18.000Z</time>
      </trkpt>
      <trkpt lat="47.32674" lon="-2.4599">
        <ele>5.5999999046326</ele>
        <time>2019-07-07T09:44:30.000Z</time>
      </trkpt>
      <trkpt lat="47.32668" lon="-2.45987">
        <ele>5.5999999046326</ele>
        <time>2019-07-07T09:44:32.000Z</time>
      </trkpt>
      <trkpt lat="47.32661" lon="-2.4598">
        <ele>6</ele>
        <time>2019-07-07T09:44:34.000Z</time>
      </trkpt>
      <trkpt lat="47.32657" lon="-2.45977">
        <ele>6.4000000953674</ele>
        <time>2019-07-07T09:44:35.000Z</time>
      </trkpt>
      <trkpt lat="47.32652" lon="-2.45972">
        <ele>6.8000001907349</ele>
        <time>2019-07-07T09:44:36.000Z</time>
      </trkpt>
      <trkpt lat="47.32647" lon="-2.45969">
        <ele>7.1999998092651</ele>
        <time>2019-07-07T09:44:37.000Z</time>
      </trkpt>
      <trkpt lat="47.32642" lon="-2.45965">
        <ele>7.5999999046326</ele>
        <time>2019-07-07T09:44:38.000Z</time>
      </trkpt>
      <trkpt lat="47.32638" lon="-2.4596">
        <ele>7.5999999046326</ele>
        <time>2019-07-07T09:44:39.000Z</time>
      </trkpt>
      <trkpt lat="47.32626" lon="-2.45944">
        <ele>7.5999999046326</ele>
        <time>2019-07-07T09:44:42.000Z</time>
      </trkpt>
      <trkpt lat="47.32605" lon="-2.45908">
        <ele>7.5999999046326</ele>
        <time>2019-07-07T09:44:48.000Z</time>
      </trkpt>
      <trkpt lat="47.32575" lon="-2.4587">
        <ele>7.5999999046326</ele>
        <time>2019-07-07T09:44:55.000Z</time>
      </trkpt>
      <trkpt lat="47.32554" lon="-2.45831">
        <ele>7.5999999046326</ele>
        <time>2019-07-07T09:45:01.000Z</time>
      </trkpt>
      <trkpt lat="47.32545" lon="-2.45819">
        <ele>7.5999999046326</ele>
        <time>2019-07-07T09:45:03.000Z</time>
      </trkpt>
      <trkpt lat="47.32532" lon="-2.45801">
        <ele>7.5999999046326</ele>
        <time>2019-07-07T09:45:06.000Z</time>
      </trkpt>
      <trkpt lat="47.32524" lon="-2.45787">
        <ele>7.5999999046326</ele>
        <time>2019-07-07T09:45:08.000Z</time>
      </trkpt>
      <trkpt lat="47.32507" lon="-2.45757">
        <ele>7.5999999046326</ele>
        <time>2019-07-07T09:45:12.000Z</time>
      </trkpt>
      <trkpt lat="47.32479" lon="-2.45705">
        <ele>7.5999999046326</ele>
        <time>2019-07-07T09:45:19.000Z</time>
      </trkpt>
      <trkpt lat="47.32448" lon="-2.45656">
        <ele>7.5999999046326</ele>
        <time>2019-07-07T09:45:27.000Z</time>
      </trkpt>
      <trkpt lat="47.32444" lon="-2.45651">
        <ele>7.5999999046326</ele>
        <time>2019-07-07T09:45:28.000Z</time>
      </trkpt>
      <trkpt lat="47.32435" lon="-2.45638">
        <ele>7.5999999046326</ele>
        <time>2019-07-07T09:45:31.000Z</time>
      </trkpt>
      <trkpt lat="47.3243" lon="-2.45628">
        <ele>7.5999999046326</ele>
        <time>2019-07-07T09:45:33.000Z</time>
      </trkpt>
      <trkpt lat="47.32421" lon="-2.45611">
        <ele>7.5999999046326</ele>
        <time>2019-07-07T09:45:36.000Z</time>
      </trkpt>
      <trkpt lat="47.32414" lon="-2.45598">
        <ele>7.5999999046326</ele>
        <time>2019-07-07T09:45:38.000Z</time>
      </trkpt>
      <trkpt lat="47.32395" lon="-2.45558">
        <ele>7.5999999046326</ele>
        <time>2019-07-07T09:45:44.000Z</time>
      </trkpt>
      <trkpt lat="47.32392" lon="-2.45552">
        <ele>7.5999999046326</ele>
        <time>2019-07-07T09:45:45.000Z</time>
      </trkpt>
      <trkpt lat="47.3237" lon="-2.4551">
        <ele>7.5999999046326</ele>
        <time>2019-07-07T09:45:52.000Z</time>
      </trkpt>
      <trkpt lat="47.32366" lon="-2.45504">
        <ele>7.5999999046326</ele>
        <time>2019-07-07T09:45:53.000Z</time>
      </trkpt>
      <trkpt lat="47.32349" lon="-2.45479">
        <ele>7.5999999046326</ele>
        <time>2019-07-07T09:45:57.000Z</time>
      </trkpt>
      <trkpt lat="47.32315" lon="-2.45428">
        <ele>7.5999999046326</ele>
        <time>2019-07-07T09:46:06.000Z</time>
      </trkpt>
      <trkpt lat="47.32311" lon="-2.45422">
        <ele>7.5999999046326</ele>
        <time>2019-07-07T09:46:09.000Z</time>
      </trkpt>
      <trkpt lat="47.32309" lon="-2.45417">
        <ele>7.1999998092651</ele>
        <time>2019-07-07T09:46:11.000Z</time>
      </trkpt>
      <trkpt lat="47.32309" lon="-2.45413">
        <ele>6.8000001907349</ele>
        <time>2019-07-07T09:46:12.000Z</time>
      </trkpt>
      <trkpt lat="47.32309" lon="-2.45409">
        <ele>6.4000000953674</ele>
        <time>2019-07-07T09:46:13.000Z</time>
      </trkpt>
      <trkpt lat="47.32311" lon="-2.45404">
        <ele>6</ele>
        <time>2019-07-07T09:46:14.000Z</time>
      </trkpt>
      <trkpt lat="47.32313" lon="-2.454">
        <ele>5.5999999046326</ele>
        <time>2019-07-07T09:46:15.000Z</time>
      </trkpt>
      <trkpt lat="47.32317" lon="-2.45388">
        <ele>5.5999999046326</ele>
        <time>2019-07-07T09:46:17.000Z</time>
      </trkpt>
      <trkpt lat="47.32318" lon="-2.45382">
        <ele>5.5999999046326</ele>
        <time>2019-07-07T09:46:18.000Z</time>
      </trkpt>
      <trkpt lat="47.32317" lon="-2.45367">
        <ele>6.1999998092651</ele>
        <time>2019-07-07T09:46:21.000Z</time>
      </trkpt>
      <trkpt lat="47.32317" lon="-2.45362">
        <ele>6.5999999046326</ele>
        <time>2019-07-07T09:46:22.000Z</time>
      </trkpt>
      <trkpt lat="47.32316" lon="-2.45356">
        <ele>7</ele>
        <time>2019-07-07T09:46:23.000Z</time>
      </trkpt>
      <trkpt lat="47.32315" lon="-2.45351">
        <ele>7.5999999046326</ele>
        <time>2019-07-07T09:46:24.000Z</time>
      </trkpt>
      <trkpt lat="47.32315" lon="-2.45346">
        <ele>8</ele>
        <time>2019-07-07T09:46:25.000Z</time>
      </trkpt>
      <trkpt lat="47.32315" lon="-2.45334">
        <ele>8</ele>
        <time>2019-07-07T09:46:27.000Z</time>
      </trkpt>
      <trkpt lat="47.32316" lon="-2.45323">
        <ele>8.3999996185303</ele>
        <time>2019-07-07T09:46:29.000Z</time>
      </trkpt>
      <trkpt lat="47.32316" lon="-2.45317">
        <ele>8.8000001907349</ele>
        <time>2019-07-07T09:46:30.000Z</time>
      </trkpt>
      <trkpt lat="47.32316" lon="-2.45312">
        <ele>9.1999998092651</ele>
        <time>2019-07-07T09:46:31.000Z</time>
      </trkpt>
      <trkpt lat="47.32314" lon="-2.45306">
        <ele>9.6000003814697</ele>
        <time>2019-07-07T09:46:32.000Z</time>
      </trkpt>
      <trkpt lat="47.32312" lon="-2.453">
        <ele>10</ele>
        <time>2019-07-07T09:46:33.000Z</time>
      </trkpt>
      <trkpt lat="47.32299" lon="-2.45253">
        <ele>10</ele>
        <time>2019-07-07T09:46:40.000Z</time>
      </trkpt>
      <trkpt lat="47.32288" lon="-2.45218">
        <ele>10</ele>
        <time>2019-07-07T09:46:44.000Z</time>
      </trkpt>
      <trkpt lat="47.32283" lon="-2.4521">
        <ele>9.6000003814697</ele>
        <time>2019-07-07T09:46:45.000Z</time>
      </trkpt>
      <trkpt lat="47.32278" lon="-2.45202">
        <ele>9.1999998092651</ele>
        <time>2019-07-07T09:46:46.000Z</time>
      </trkpt>
      <trkpt lat="47.32274" lon="-2.45194">
        <ele>8.8000001907349</ele>
        <time>2019-07-07T09:46:47.000Z</time>
      </trkpt>
      <trkpt lat="47.32271" lon="-2.45186">
        <ele>8.1999998092651</ele>
        <time>2019-07-07T09:46:48.000Z</time>
      </trkpt>
      <trkpt lat="47.32268" lon="-2.45178">
        <ele>7.8000001907349</ele>
        <time>2019-07-07T09:46:49.000Z</time>
      </trkpt>
      <trkpt lat="47.32261" lon="-2.4515">
        <ele>8.1999998092651</ele>
        <time>2019-07-07T09:46:53.000Z</time>
      </trkpt>
      <trkpt lat="47.3226" lon="-2.45143">
        <ele>8.8000001907349</ele>
        <time>2019-07-07T09:46:54.000Z</time>
      </trkpt>
      <trkpt lat="47.32259" lon="-2.45136">
        <ele>9.1999998092651</ele>
        <time>2019-07-07T09:46:55.000Z</time>
      </trkpt>
      <trkpt lat="47.32257" lon="-2.45129">
        <ele>9.6000003814697</ele>
        <time>2019-07-07T09:46:56.000Z</time>
      </trkpt>
      <trkpt lat="47.32255" lon="-2.45122">
        <ele>10</ele>
        <time>2019-07-07T09:46:57.000Z</time>
      </trkpt>
      <trkpt lat="47.32251" lon="-2.45109">
        <ele>10</ele>
        <time>2019-07-07T09:46:59.000Z</time>
      </trkpt>
      <trkpt lat="47.32243" lon="-2.4509">
        <ele>10.39999961853</ele>
        <time>2019-07-07T09:47:02.000Z</time>
      </trkpt>
      <trkpt lat="47.3224" lon="-2.45083">
        <ele>10.800000190735</ele>
        <time>2019-07-07T09:47:03.000Z</time>
      </trkpt>
      <trkpt lat="47.32237" lon="-2.45079">
        <ele>11.199999809265</ele>
        <time>2019-07-07T09:47:04.000Z</time>
      </trkpt>
      <trkpt lat="47.32234" lon="-2.45073">
        <ele>11.800000190735</ele>
        <time>2019-07-07T09:47:05.000Z</time>
      </trkpt>
      <trkpt lat="47.32231" lon="-2.45066">
        <ele>12.199999809265</ele>
        <time>2019-07-07T09:47:06.000Z</time>
      </trkpt>
      <trkpt lat="47.32223" lon="-2.45047">
        <ele>12.199999809265</ele>
        <time>2019-07-07T09:47:09.000Z</time>
      </trkpt>
      <trkpt lat="47.3222" lon="-2.45041">
        <ele>12.199999809265</ele>
        <time>2019-07-07T09:47:10.000Z</time>
      </trkpt>
      <trkpt lat="47.32209" lon="-2.45019">
        <ele>12.199999809265</ele>
        <time>2019-07-07T09:47:14.000Z</time>
      </trkpt>
      <trkpt lat="47.32206" lon="-2.45013">
        <ele>12.199999809265</ele>
        <time>2019-07-07T09:47:15.000Z</time>
      </trkpt>
      <trkpt lat="47.32188" lon="-2.44979">
        <ele>12.199999809265</ele>
        <time>2019-07-07T09:47:21.000Z</time>
      </trkpt>
      <trkpt lat="47.32179" lon="-2.44969">
        <ele>12.199999809265</ele>
        <time>2019-07-07T09:47:23.000Z</time>
      </trkpt>
      <trkpt lat="47.32163" lon="-2.44955">
        <ele>12.199999809265</ele>
        <time>2019-07-07T09:47:26.000Z</time>
      </trkpt>
      <trkpt lat="47.32133" lon="-2.44928">
        <ele>11.60000038147</ele>
        <time>2019-07-07T09:47:32.000Z</time>
      </trkpt>
      <trkpt lat="47.32129" lon="-2.44921">
        <ele>10.800000190735</ele>
        <time>2019-07-07T09:47:33.000Z</time>
      </trkpt>
      <trkpt lat="47.32124" lon="-2.44914">
        <ele>10.39999961853</ele>
        <time>2019-07-07T09:47:34.000Z</time>
      </trkpt>
      <trkpt lat="47.3212" lon="-2.44906">
        <ele>10</ele>
        <time>2019-07-07T09:47:35.000Z</time>
      </trkpt>
      <trkpt lat="47.32102" lon="-2.44864">
        <ele>10</ele>
        <time>2019-07-07T09:47:40.000Z</time>
      </trkpt>
      <trkpt lat="47.32083" lon="-2.4482">
        <ele>10</ele>
        <time>2019-07-07T09:47:45.000Z</time>
      </trkpt>
      <trkpt lat="47.3206" lon="-2.4477">
        <ele>10</ele>
        <time>2019-07-07T09:47:51.000Z</time>
      </trkpt>
      <trkpt lat="47.32043" lon="-2.44741">
        <ele>9.6000003814697</ele>
        <time>2019-07-07T09:47:55.000Z</time>
      </trkpt>
      <trkpt lat="47.3204" lon="-2.44734">
        <ele>9.1999998092651</ele>
        <time>2019-07-07T09:47:56.000Z</time>
      </trkpt>
      <trkpt lat="47.32035" lon="-2.44728">
        <ele>8.6000003814697</ele>
        <time>2019-07-07T09:47:57.000Z</time>
      </trkpt>
      <trkpt lat="47.3203" lon="-2.44722">
        <ele>7.8000001907349</ele>
        <time>2019-07-07T09:47:58.000Z</time>
      </trkpt>
      <trkpt lat="47.32006" lon="-2.44688">
        <ele>7.8000001907349</ele>
        <time>2019-07-07T09:48:03.000Z</time>
      </trkpt>
      <trkpt lat="47.3199" lon="-2.44666">
        <ele>7.8000001907349</ele>
        <time>2019-07-07T09:48:06.000Z</time>
      </trkpt>
      <trkpt lat="47.31979" lon="-2.44652">
        <ele>7.8000001907349</ele>
        <time>2019-07-07T09:48:08.000Z</time>
      </trkpt>
      <trkpt lat="47.31931" lon="-2.44598">
        <ele>7.8000001907349</ele>
        <time>2019-07-07T09:48:16.000Z</time>
      </trkpt>
      <trkpt lat="47.31923" lon="-2.44585">
        <ele>7.4000000953674</ele>
        <time>2019-07-07T09:48:19.000Z</time>
      </trkpt>
      <trkpt lat="47.31921" lon="-2.44582">
        <ele>7</ele>
        <time>2019-07-07T09:48:20.000Z</time>
      </trkpt>
      <trkpt lat="47.31918" lon="-2.44578">
        <ele>6.5999999046326</ele>
        <time>2019-07-07T09:48:21.000Z</time>
      </trkpt>
      <trkpt lat="47.31916" lon="-2.44575">
        <ele>6.1999998092651</ele>
        <time>2019-07-07T09:48:22.000Z</time>
      </trkpt>
      <trkpt lat="47.31914" lon="-2.44573">
        <ele>5.5999999046326</ele>
        <time>2019-07-07T09:48:23.000Z</time>
      </trkpt>
      <trkpt lat="47.31912" lon="-2.44569">
        <ele>5.5999999046326</ele>
        <time>2019-07-07T09:48:25.000Z</time>
      </trkpt>
      <trkpt lat="47.31904" lon="-2.44562">
        <ele>5.5999999046326</ele>
        <time>2019-07-07T09:48:29.000Z</time>
      </trkpt>
      <trkpt lat="47.31902" lon="-2.44562">
        <ele>5.5999999046326</ele>
        <time>2019-07-07T09:48:30.000Z</time>
      </trkpt>
      <trkpt lat="47.31899" lon="-2.44564">
        <ele>5.5999999046326</ele>
        <time>2019-07-07T09:48:31.000Z</time>
      </trkpt>
      <trkpt lat="47.31895" lon="-2.44574">
        <ele>5.5999999046326</ele>
        <time>2019-07-07T09:48:33.000Z</time>
      </trkpt>
      <trkpt lat="47.31889" lon="-2.44589">
        <ele>5.5999999046326</ele>
        <time>2019-07-07T09:48:36.000Z</time>
      </trkpt>
      <trkpt lat="47.31881" lon="-2.44608">
        <ele>5.5999999046326</ele>
        <time>2019-07-07T09:48:39.000Z</time>
      </trkpt>
      <trkpt lat="47.31864" lon="-2.44655">
        <ele>5.5999999046326</ele>
        <time>2019-07-07T09:48:45.000Z</time>
      </trkpt>
      <trkpt lat="47.31836" lon="-2.44706">
        <ele>5.5999999046326</ele>
        <time>2019-07-07T09:48:52.000Z</time>
      </trkpt>
      <trkpt lat="47.31826" lon="-2.44718">
        <ele>5.5999999046326</ele>
        <time>2019-07-07T09:48:54.000Z</time>
      </trkpt>
      <trkpt lat="47.31815" lon="-2.44728">
        <ele>5.5999999046326</ele>
        <time>2019-07-07T09:48:56.000Z</time>
      </trkpt>
      <trkpt lat="47.31808" lon="-2.44731">
        <ele>5.5999999046326</ele>
        <time>2019-07-07T09:48:57.000Z</time>
      </trkpt>
      <trkpt lat="47.3179" lon="-2.4474">
        <ele>5.5999999046326</ele>
        <time>2019-07-07T09:49:00.000Z</time>
      </trkpt>
      <trkpt lat="47.31772" lon="-2.44752">
        <ele>5.5999999046326</ele>
        <time>2019-07-07T09:49:03.000Z</time>
      </trkpt>
      <trkpt lat="47.31748" lon="-2.44774">
        <ele>5.5999999046326</ele>
        <time>2019-07-07T09:49:08.000Z</time>
      </trkpt>
      <trkpt lat="47.31734" lon="-2.44785">
        <ele>5.1999998092651</ele>
        <time>2019-07-07T09:49:11.000Z</time>
      </trkpt>
      <trkpt lat="47.31731" lon="-2.44786">
        <ele>4.4000000953674</ele>
        <time>2019-07-07T09:49:12.000Z</time>
      </trkpt>
      <trkpt lat="47.31727" lon="-2.44785">
        <ele>4</ele>
        <time>2019-07-07T09:49:13.000Z</time>
      </trkpt>
      <trkpt lat="47.31724" lon="-2.44783">
        <ele>3.5999999046326</ele>
        <time>2019-07-07T09:49:14.000Z</time>
      </trkpt>
      <trkpt lat="47.31716" lon="-2.44773">
        <ele>3.5999999046326</ele>
        <time>2019-07-07T09:49:16.000Z</time>
      </trkpt>
      <trkpt lat="47.3171" lon="-2.4476">
        <ele>3.5999999046326</ele>
        <time>2019-07-07T09:49:18.000Z</time>
      </trkpt>
      <trkpt lat="47.317" lon="-2.44735">
        <ele>3.5999999046326</ele>
        <time>2019-07-07T09:49:21.000Z</time>
      </trkpt>
      <trkpt lat="47.31672" lon="-2.44667">
        <ele>3.5999999046326</ele>
        <time>2019-07-07T09:49:29.000Z</time>
      </trkpt>
      <trkpt lat="47.31641" lon="-2.44597">
        <ele>3.5999999046326</ele>
        <time>2019-07-07T09:49:37.000Z</time>
      </trkpt>
      <trkpt lat="47.31603" lon="-2.44532">
        <ele>3.5999999046326</ele>
        <time>2019-07-07T09:49:45.000Z</time>
      </trkpt>
      <trkpt lat="47.31592" lon="-2.44507">
        <ele>3.5999999046326</ele>
        <time>2019-07-07T09:49:48.000Z</time>
      </trkpt>
      <trkpt lat="47.31586" lon="-2.44487">
        <ele>3.5999999046326</ele>
        <time>2019-07-07T09:49:50.000Z</time>
      </trkpt>
      <trkpt lat="47.31583" lon="-2.44477">
        <ele>3.5999999046326</ele>
        <time>2019-07-07T09:49:51.000Z</time>
      </trkpt>
      <trkpt lat="47.31577" lon="-2.44435">
        <ele>3.5999999046326</ele>
        <time>2019-07-07T09:49:55.000Z</time>
      </trkpt>
      <trkpt lat="47.31564" lon="-2.44353">
        <ele>3.5999999046326</ele>
        <time>2019-07-07T09:50:03.000Z</time>
      </trkpt>
      <trkpt lat="47.31554" lon="-2.44286">
        <ele>3.5999999046326</ele>
        <time>2019-07-07T09:50:10.000Z</time>
      </trkpt>
      <trkpt lat="47.3154" lon="-2.4421">
        <ele>3.5999999046326</ele>
        <time>2019-07-07T09:50:18.000Z</time>
      </trkpt>
      <trkpt lat="47.31524" lon="-2.44167">
        <ele>3.5999999046326</ele>
        <time>2019-07-07T09:50:23.000Z</time>
      </trkpt>
      <trkpt lat="47.31516" lon="-2.44151">
        <ele>3.5999999046326</ele>
        <time>2019-07-07T09:50:25.000Z</time>
      </trkpt>
      <trkpt lat="47.31502" lon="-2.44131">
        <ele>3.5999999046326</ele>
        <time>2019-07-07T09:50:28.000Z</time>
      </trkpt>
      <trkpt lat="47.31475" lon="-2.44097">
        <ele>3.5999999046326</ele>
        <time>2019-07-07T09:50:33.000Z</time>
      </trkpt>
      <trkpt lat="47.31471" lon="-2.44091">
        <ele>3.5999999046326</ele>
        <time>2019-07-07T09:50:34.000Z</time>
      </trkpt>
      <trkpt lat="47.31433" lon="-2.44041">
        <ele>3.5999999046326</ele>
        <time>2019-07-07T09:50:41.000Z</time>
      </trkpt>
      <trkpt lat="47.31393" lon="-2.4399">
        <ele>3.5999999046326</ele>
        <time>2019-07-07T09:50:49.000Z</time>
      </trkpt>
      <trkpt lat="47.31365" lon="-2.4395">
        <ele>3.5999999046326</ele>
        <time>2019-07-07T09:50:55.000Z</time>
      </trkpt>
      <trkpt lat="47.31345" lon="-2.43899">
        <ele>3.5999999046326</ele>
        <time>2019-07-07T09:51:01.000Z</time>
      </trkpt>
      <trkpt lat="47.31322" lon="-2.4384">
        <ele>3.5999999046326</ele>
        <time>2019-07-07T09:51:08.000Z</time>
      </trkpt>
      <trkpt lat="47.31317" lon="-2.43833">
        <ele>3.5999999046326</ele>
        <time>2019-07-07T09:51:09.000Z</time>
      </trkpt>
      <trkpt lat="47.31293" lon="-2.43799">
        <ele>3.5999999046326</ele>
        <time>2019-07-07T09:51:14.000Z</time>
      </trkpt>
      <trkpt lat="47.31289" lon="-2.4379">
        <ele>3.5999999046326</ele>
        <time>2019-07-07T09:51:15.000Z</time>
      </trkpt>
      <trkpt lat="47.31262" lon="-2.43721">
        <ele>3.5999999046326</ele>
        <time>2019-07-07T09:51:23.000Z</time>
      </trkpt>
      <trkpt lat="47.31246" lon="-2.43678">
        <ele>3.5999999046326</ele>
        <time>2019-07-07T09:51:28.000Z</time>
      </trkpt>
      <trkpt lat="47.31242" lon="-2.43659">
        <ele>3.5999999046326</ele>
        <time>2019-07-07T09:51:30.000Z</time>
      </trkpt>
      <trkpt lat="47.31231" lon="-2.43593">
        <ele>3.5999999046326</ele>
        <time>2019-07-07T09:51:37.000Z</time>
      </trkpt>
      <trkpt lat="47.31218" lon="-2.43506">
        <ele>3.5999999046326</ele>
        <time>2019-07-07T09:51:46.000Z</time>
      </trkpt>
      <trkpt lat="47.31207" lon="-2.43427">
        <ele>3.5999999046326</ele>
        <time>2019-07-07T09:51:54.000Z</time>
      </trkpt>
      <trkpt lat="47.31193" lon="-2.43341">
        <ele>3.5999999046326</ele>
        <time>2019-07-07T09:52:03.000Z</time>
      </trkpt>
      <trkpt lat="47.31178" lon="-2.43298">
        <ele>3.5999999046326</ele>
        <time>2019-07-07T09:52:08.000Z</time>
      </trkpt>
      <trkpt lat="47.3117" lon="-2.43283">
        <ele>3.5999999046326</ele>
        <time>2019-07-07T09:52:10.000Z</time>
      </trkpt>
      <trkpt lat="47.31156" lon="-2.43261">
        <ele>3.5999999046326</ele>
        <time>2019-07-07T09:52:13.000Z</time>
      </trkpt>
      <trkpt lat="47.31124" lon="-2.43211">
        <ele>3.5999999046326</ele>
        <time>2019-07-07T09:52:20.000Z</time>
      </trkpt>
      <trkpt lat="47.31111" lon="-2.43195">
        <ele>3.5999999046326</ele>
        <time>2019-07-07T09:52:23.000Z</time>
      </trkpt>
      <trkpt lat="47.31106" lon="-2.43193">
        <ele>3.5999999046326</ele>
        <time>2019-07-07T09:52:24.000Z</time>
      </trkpt>
      <trkpt lat="47.31092" lon="-2.43199">
        <ele>3.5999999046326</ele>
        <time>2019-07-07T09:52:27.000Z</time>
      </trkpt>
      <trkpt lat="47.31082" lon="-2.43207">
        <ele>3.5999999046326</ele>
        <time>2019-07-07T09:52:29.000Z</time>
      </trkpt>
      <trkpt lat="47.31067" lon="-2.43222">
        <ele>3.5999999046326</ele>
        <time>2019-07-07T09:52:32.000Z</time>
      </trkpt>
      <trkpt lat="47.31047" lon="-2.43244">
        <ele>3.5999999046326</ele>
        <time>2019-07-07T09:52:36.000Z</time>
      </trkpt>
      <trkpt lat="47.31038" lon="-2.43258">
        <ele>3.5999999046326</ele>
        <time>2019-07-07T09:52:38.000Z</time>
      </trkpt>
      <trkpt lat="47.31015" lon="-2.43291">
        <ele>3.5999999046326</ele>
        <time>2019-07-07T09:52:43.000Z</time>
      </trkpt>
      <trkpt lat="47.31004" lon="-2.43302">
        <ele>3.5999999046326</ele>
        <time>2019-07-07T09:52:45.000Z</time>
      </trkpt>
      <trkpt lat="47.30986" lon="-2.43314">
        <ele>3.5999999046326</ele>
        <time>2019-07-07T09:52:48.000Z</time>
      </trkpt>
      <trkpt lat="47.30979" lon="-2.43318">
        <ele>3.2000000476837</ele>
        <time>2019-07-07T09:52:49.000Z</time>
      </trkpt>
      <trkpt lat="47.30973" lon="-2.43321">
        <ele>2.7999999523163</ele>
        <time>2019-07-07T09:52:50.000Z</time>
      </trkpt>
      <trkpt lat="47.30966" lon="-2.43324">
        <ele>2.4000000953674</ele>
        <time>2019-07-07T09:52:51.000Z</time>
      </trkpt>
      <trkpt lat="47.3096" lon="-2.43326">
        <ele>1.7999999523163</ele>
        <time>2019-07-07T09:52:52.000Z</time>
      </trkpt>
      <trkpt lat="47.30953" lon="-2.43329">
        <ele>1.3999999761581</ele>
        <time>2019-07-07T09:52:53.000Z</time>
      </trkpt>
      <trkpt lat="47.30914" lon="-2.43345">
        <ele>1.3999999761581</ele>
        <time>2019-07-07T09:52:59.000Z</time>
      </trkpt>
      <trkpt lat="47.30868" lon="-2.43364">
        <ele>1.3999999761581</ele>
        <time>2019-07-07T09:53:06.000Z</time>
      </trkpt>
      <trkpt lat="47.30825" lon="-2.43383">
        <ele>1.3999999761581</ele>
        <time>2019-07-07T09:53:13.000Z</time>
      </trkpt>
      <trkpt lat="47.308" lon="-2.4339">
        <ele>1.3999999761581</ele>
        <time>2019-07-07T09:53:17.000Z</time>
      </trkpt>
      <trkpt lat="47.30793" lon="-2.4339">
        <ele>1.3999999761581</ele>
        <time>2019-07-07T09:53:18.000Z</time>
      </trkpt>
      <trkpt lat="47.30746" lon="-2.43392">
        <ele>1.3999999761581</ele>
        <time>2019-07-07T09:53:25.000Z</time>
      </trkpt>
      <trkpt lat="47.3072" lon="-2.43392">
        <ele>1.3999999761581</ele>
        <time>2019-07-07T09:53:29.000Z</time>
      </trkpt>
      <trkpt lat="47.30707" lon="-2.43393">
        <ele>1.3999999761581</ele>
        <time>2019-07-07T09:53:31.000Z</time>
      </trkpt>
      <trkpt lat="47.30662" lon="-2.43401">
        <ele>1.3999999761581</ele>
        <time>2019-07-07T09:53:38.000Z</time>
      </trkpt>
      <trkpt lat="47.30624" lon="-2.43409">
        <ele>1.3999999761581</ele>
        <time>2019-07-07T09:53:44.000Z</time>
      </trkpt>
      <trkpt lat="47.30577" lon="-2.43419">
        <ele>1.3999999761581</ele>
        <time>2019-07-07T09:53:51.000Z</time>
      </trkpt>
      <trkpt lat="47.30545" lon="-2.4342">
        <ele>1.3999999761581</ele>
        <time>2019-07-07T09:53:56.000Z</time>
      </trkpt>
      <trkpt lat="47.305" lon="-2.43414">
        <ele>1.3999999761581</ele>
        <time>2019-07-07T09:54:03.000Z</time>
      </trkpt>
      <trkpt lat="47.30462" lon="-2.43413">
        <ele>1.3999999761581</ele>
        <time>2019-07-07T09:54:09.000Z</time>
      </trkpt>
      <trkpt lat="47.30445" lon="-2.43419">
        <ele>1.3999999761581</ele>
        <time>2019-07-07T09:54:12.000Z</time>
      </trkpt>
      <trkpt lat="47.30439" lon="-2.43418">
        <ele>1.3999999761581</ele>
        <time>2019-07-07T09:54:13.000Z</time>
      </trkpt>
      <trkpt lat="47.3043" lon="-2.43406">
        <ele>1.3999999761581</ele>
        <time>2019-07-07T09:54:15.000Z</time>
      </trkpt>
      <trkpt lat="47.30426" lon="-2.43388">
        <ele>1.3999999761581</ele>
        <time>2019-07-07T09:54:17.000Z</time>
      </trkpt>
      <trkpt lat="47.30422" lon="-2.4337">
        <ele>1.3999999761581</ele>
        <time>2019-07-07T09:54:19.000Z</time>
      </trkpt>
      <trkpt lat="47.30408" lon="-2.43304">
        <ele>1.3999999761581</ele>
        <time>2019-07-07T09:54:26.000Z</time>
      </trkpt>
      <trkpt lat="47.30392" lon="-2.43253">
        <ele>1.3999999761581</ele>
        <time>2019-07-07T09:54:32.000Z</time>
      </trkpt>
      <trkpt lat="47.30388" lon="-2.43247">
        <ele>1.3999999761581</ele>
        <time>2019-07-07T09:54:33.000Z</time>
      </trkpt>
      <trkpt lat="47.30377" lon="-2.43238">
        <ele>1.3999999761581</ele>
        <time>2019-07-07T09:54:35.000Z</time>
      </trkpt>
      <trkpt lat="47.30358" lon="-2.43237">
        <ele>1.3999999761581</ele>
        <time>2019-07-07T09:54:38.000Z</time>
      </trkpt>
      <trkpt lat="47.30346" lon="-2.43242">
        <ele>1.3999999761581</ele>
        <time>2019-07-07T09:54:40.000Z</time>
      </trkpt>
      <trkpt lat="47.3032" lon="-2.43249">
        <ele>1.3999999761581</ele>
        <time>2019-07-07T09:54:44.000Z</time>
      </trkpt>
      <trkpt lat="47.30279" lon="-2.4326">
        <ele>1.3999999761581</ele>
        <time>2019-07-07T09:54:50.000Z</time>
      </trkpt>
      <trkpt lat="47.30228" lon="-2.43279">
        <ele>1.3999999761581</ele>
        <time>2019-07-07T09:54:58.000Z</time>
      </trkpt>
      <trkpt lat="47.30173" lon="-2.43303">
        <ele>1.3999999761581</ele>
        <time>2019-07-07T09:55:07.000Z</time>
      </trkpt>
      <trkpt lat="47.30122" lon="-2.4332">
        <ele>1.3999999761581</ele>
        <time>2019-07-07T09:55:15.000Z</time>
      </trkpt>
      <trkpt lat="47.30064" lon="-2.43333">
        <ele>1.3999999761581</ele>
        <time>2019-07-07T09:55:24.000Z</time>
      </trkpt>
      <trkpt lat="47.30027" lon="-2.43335">
        <ele>1.3999999761581</ele>
        <time>2019-07-07T09:55:30.000Z</time>
      </trkpt>
      <trkpt lat="47.30004" lon="-2.43323">
        <ele>1.3999999761581</ele>
        <time>2019-07-07T09:55:34.000Z</time>
      </trkpt>
      <trkpt lat="47.29993" lon="-2.43313">
        <ele>1.3999999761581</ele>
        <time>2019-07-07T09:55:36.000Z</time>
      </trkpt>
      <trkpt lat="47.29977" lon="-2.43299">
        <ele>1.3999999761581</ele>
        <time>2019-07-07T09:55:39.000Z</time>
      </trkpt>
      <trkpt lat="47.29971" lon="-2.43296">
        <ele>1.3999999761581</ele>
        <time>2019-07-07T09:55:40.000Z</time>
      </trkpt>
      <trkpt lat="47.29951" lon="-2.43298">
        <ele>1.3999999761581</ele>
        <time>2019-07-07T09:55:43.000Z</time>
      </trkpt>
      <trkpt lat="47.29917" lon="-2.43312">
        <ele>1.3999999761581</ele>
        <time>2019-07-07T09:55:49.000Z</time>
      </trkpt>
      <trkpt lat="47.29888" lon="-2.4332">
        <ele>1.3999999761581</ele>
        <time>2019-07-07T09:55:55.000Z</time>
      </trkpt>
      <trkpt lat="47.29884" lon="-2.43319">
        <ele>1.3999999761581</ele>
        <time>2019-07-07T09:55:56.000Z</time>
      </trkpt>
      <trkpt lat="47.29878" lon="-2.43313">
        <ele>1.3999999761581</ele>
        <time>2019-07-07T09:55:58.000Z</time>
      </trkpt>
      <trkpt lat="47.29871" lon="-2.43298">
        <ele>1.3999999761581</ele>
        <time>2019-07-07T09:56:01.000Z</time>
      </trkpt>
      <trkpt lat="47.29868" lon="-2.43293">
        <ele>1.3999999761581</ele>
        <time>2019-07-07T09:56:02.000Z</time>
      </trkpt>
      <trkpt lat="47.29848" lon="-2.43252">
        <ele>1.3999999761581</ele>
        <time>2019-07-07T09:56:08.000Z</time>
      </trkpt>
      <trkpt lat="47.29837" lon="-2.4323">
        <ele>1.3999999761581</ele>
        <time>2019-07-07T09:56:11.000Z</time>
      </trkpt>
      <trkpt lat="47.29823" lon="-2.4321">
        <ele>1.3999999761581</ele>
        <time>2019-07-07T09:56:14.000Z</time>
      </trkpt>
      <trkpt lat="47.29802" lon="-2.43189">
        <ele>1.3999999761581</ele>
        <time>2019-07-07T09:56:18.000Z</time>
      </trkpt>
      <trkpt lat="47.29796" lon="-2.43187">
        <ele>1.3999999761581</ele>
        <time>2019-07-07T09:56:19.000Z</time>
      </trkpt>
      <trkpt lat="47.29776" lon="-2.43192">
        <ele>1.3999999761581</ele>
        <time>2019-07-07T09:56:22.000Z</time>
      </trkpt>
      <trkpt lat="47.29769" lon="-2.43193">
        <ele>1.3999999761581</ele>
        <time>2019-07-07T09:56:23.000Z</time>
      </trkpt>
      <trkpt lat="47.29711" lon="-2.43209">
        <ele>1.3999999761581</ele>
        <time>2019-07-07T09:56:32.000Z</time>
      </trkpt>
      <trkpt lat="47.29704" lon="-2.43211">
        <ele>1.3999999761581</ele>
        <time>2019-07-07T09:56:33.000Z</time>
      </trkpt>
      <trkpt lat="47.29666" lon="-2.43222">
        <ele>1.3999999761581</ele>
        <time>2019-07-07T09:56:39.000Z</time>
      </trkpt>
      <trkpt lat="47.29616" lon="-2.4324">
        <ele>1.3999999761581</ele>
        <time>2019-07-07T09:56:47.000Z</time>
      </trkpt>
      <trkpt lat="47.29592" lon="-2.4325">
        <ele>1.3999999761581</ele>
        <time>2019-07-07T09:56:51.000Z</time>
      </trkpt>
      <trkpt lat="47.29587" lon="-2.43253">
        <ele>1.3999999761581</ele>
        <time>2019-07-07T09:56:52.000Z</time>
      </trkpt>
      <trkpt lat="47.29564" lon="-2.43275">
        <ele>1.3999999761581</ele>
        <time>2019-07-07T09:56:57.000Z</time>
      </trkpt>
      <trkpt lat="47.29556" lon="-2.43288">
        <ele>1.3999999761581</ele>
        <time>2019-07-07T09:56:59.000Z</time>
      </trkpt>
      <trkpt lat="47.2954" lon="-2.43314">
        <ele>2.4000000953674</ele>
        <time>2019-07-07T09:57:03.000Z</time>
      </trkpt>
      <trkpt lat="47.29536" lon="-2.43321">
        <ele>2.7999999523163</ele>
        <time>2019-07-07T09:57:04.000Z</time>
      </trkpt>
      <trkpt lat="47.29533" lon="-2.43328">
        <ele>3.2000000476837</ele>
        <time>2019-07-07T09:57:05.000Z</time>
      </trkpt>
      <trkpt lat="47.29529" lon="-2.43334">
        <ele>3.5999999046326</ele>
        <time>2019-07-07T09:57:06.000Z</time>
      </trkpt>
      <trkpt lat="47.29511" lon="-2.43367">
        <ele>3.5999999046326</ele>
        <time>2019-07-07T09:57:11.000Z</time>
      </trkpt>
      <trkpt lat="47.29481" lon="-2.43424">
        <ele>3.5999999046326</ele>
        <time>2019-07-07T09:57:19.000Z</time>
      </trkpt>
      <trkpt lat="47.2946" lon="-2.43462">
        <ele>3.5999999046326</ele>
        <time>2019-07-07T09:57:25.000Z</time>
      </trkpt>
      <trkpt lat="47.29457" lon="-2.43465">
        <ele>3.2000000476837</ele>
        <time>2019-07-07T09:57:26.000Z</time>
      </trkpt>
      <trkpt lat="47.29454" lon="-2.43467">
        <ele>2.7999999523163</ele>
        <time>2019-07-07T09:57:27.000Z</time>
      </trkpt>
      <trkpt lat="47.29451" lon="-2.43466">
        <ele>2</ele>
        <time>2019-07-07T09:57:28.000Z</time>
      </trkpt>
      <trkpt lat="47.29448" lon="-2.43462">
        <ele>1.6000000238419</ele>
        <time>2019-07-07T09:57:29.000Z</time>
      </trkpt>
      <trkpt lat="47.29444" lon="-2.43451">
        <ele>1.6000000238419</ele>
        <time>2019-07-07T09:57:31.000Z</time>
      </trkpt>
      <trkpt lat="47.29442" lon="-2.43446">
        <ele>1.6000000238419</ele>
        <time>2019-07-07T09:57:32.000Z</time>
      </trkpt>
      <trkpt lat="47.29438" lon="-2.43434">
        <ele>1.6000000238419</ele>
        <time>2019-07-07T09:57:34.000Z</time>
      </trkpt>
      <trkpt lat="47.29436" lon="-2.43415">
        <ele>1.6000000238419</ele>
        <time>2019-07-07T09:57:37.000Z</time>
      </trkpt>
      <trkpt lat="47.29433" lon="-2.43402">
        <ele>1.6000000238419</ele>
        <time>2019-07-07T09:57:39.000Z</time>
      </trkpt>
      <trkpt lat="47.29424" lon="-2.43389">
        <ele>1.6000000238419</ele>
        <time>2019-07-07T09:57:42.000Z</time>
      </trkpt>
      <trkpt lat="47.29413" lon="-2.43383">
        <ele>1.6000000238419</ele>
        <time>2019-07-07T09:57:45.000Z</time>
      </trkpt>
      <trkpt lat="47.29411" lon="-2.43367">
        <ele>1.6000000238419</ele>
        <time>2019-07-07T09:57:48.000Z</time>
      </trkpt>
      <trkpt lat="47.29403" lon="-2.43344">
        <ele>1.6000000238419</ele>
        <time>2019-07-07T09:57:52.000Z</time>
      </trkpt>
      <trkpt lat="47.29396" lon="-2.43335">
        <ele>1.6000000238419</ele>
        <time>2019-07-07T09:57:54.000Z</time>
      </trkpt>
      <trkpt lat="47.29385" lon="-2.4332">
        <ele>1.6000000238419</ele>
        <time>2019-07-07T09:57:57.000Z</time>
      </trkpt>
      <trkpt lat="47.29369" lon="-2.433">
        <ele>1.6000000238419</ele>
        <time>2019-07-07T09:58:01.000Z</time>
      </trkpt>
      <trkpt lat="47.29364" lon="-2.43286">
        <ele>1.6000000238419</ele>
        <time>2019-07-07T09:58:03.000Z</time>
      </trkpt>
      <trkpt lat="47.29362" lon="-2.4327">
        <ele>1.6000000238419</ele>
        <time>2019-07-07T09:58:05.000Z</time>
      </trkpt>
      <trkpt lat="47.2936" lon="-2.43248">
        <ele>1.6000000238419</ele>
        <time>2019-07-07T09:58:08.000Z</time>
      </trkpt>
      <trkpt lat="47.2936" lon="-2.4324">
        <ele>1.6000000238419</ele>
        <time>2019-07-07T09:58:09.000Z</time>
      </trkpt>
      <trkpt lat="47.2936" lon="-2.43227">
        <ele>1.6000000238419</ele>
        <time>2019-07-07T09:58:11.000Z</time>
      </trkpt>
      <trkpt lat="47.29363" lon="-2.43221">
        <ele>1.6000000238419</ele>
        <time>2019-07-07T09:58:12.000Z</time>
      </trkpt>
      <trkpt lat="47.29372" lon="-2.43193">
        <ele>1.6000000238419</ele>
        <time>2019-07-07T09:58:16.000Z</time>
      </trkpt>
      <trkpt lat="47.29367" lon="-2.43159">
        <ele>1.6000000238419</ele>
        <time>2019-07-07T09:58:20.000Z</time>
      </trkpt>
      <trkpt lat="47.29365" lon="-2.4315">
        <ele>1.6000000238419</ele>
        <time>2019-07-07T09:58:21.000Z</time>
      </trkpt>
      <trkpt lat="47.29357" lon="-2.43127">
        <ele>1.6000000238419</ele>
        <time>2019-07-07T09:58:24.000Z</time>
      </trkpt>
      <trkpt lat="47.29347" lon="-2.43106">
        <ele>1.6000000238419</ele>
        <time>2019-07-07T09:58:27.000Z</time>
      </trkpt>
      <trkpt lat="47.29343" lon="-2.43098">
        <ele>1.6000000238419</ele>
        <time>2019-07-07T09:58:28.000Z</time>
      </trkpt>
      <trkpt lat="47.29328" lon="-2.43082">
        <ele>1.6000000238419</ele>
        <time>2019-07-07T09:58:31.000Z</time>
      </trkpt>
      <trkpt lat="47.29317" lon="-2.43075">
        <ele>1.6000000238419</ele>
        <time>2019-07-07T09:58:33.000Z</time>
      </trkpt>
      <trkpt lat="47.29311" lon="-2.43072">
        <ele>1.6000000238419</ele>
        <time>2019-07-07T09:58:34.000Z</time>
      </trkpt>
      <trkpt lat="47.29307" lon="-2.43066">
        <ele>1.6000000238419</ele>
        <time>2019-07-07T09:58:35.000Z</time>
      </trkpt>
      <trkpt lat="47.29302" lon="-2.43043">
        <ele>1.6000000238419</ele>
        <time>2019-07-07T09:58:38.000Z</time>
      </trkpt>
      <trkpt lat="47.29305" lon="-2.43015">
        <ele>1.6000000238419</ele>
        <time>2019-07-07T09:58:41.000Z</time>
      </trkpt>
      <trkpt lat="47.29308" lon="-2.42998">
        <ele>1.6000000238419</ele>
        <time>2019-07-07T09:58:43.000Z</time>
      </trkpt>
      <trkpt lat="47.29311" lon="-2.42964">
        <ele>1.6000000238419</ele>
        <time>2019-07-07T09:58:47.000Z</time>
      </trkpt>
      <trkpt lat="47.29311" lon="-2.42955">
        <ele>1.6000000238419</ele>
        <time>2019-07-07T09:58:48.000Z</time>
      </trkpt>
      <trkpt lat="47.2931" lon="-2.42938">
        <ele>1.6000000238419</ele>
        <time>2019-07-07T09:58:50.000Z</time>
      </trkpt>
      <trkpt lat="47.29313" lon="-2.4292">
        <ele>1.6000000238419</ele>
        <time>2019-07-07T09:58:52.000Z</time>
      </trkpt>
      <trkpt lat="47.29329" lon="-2.42861">
        <ele>1.6000000238419</ele>
        <time>2019-07-07T09:58:59.000Z</time>
      </trkpt>
      <trkpt lat="47.29351" lon="-2.42823">
        <ele>1.6000000238419</ele>
        <time>2019-07-07T09:59:04.000Z</time>
      </trkpt>
      <trkpt lat="47.29367" lon="-2.42805">
        <ele>1.6000000238419</ele>
        <time>2019-07-07T09:59:07.000Z</time>
      </trkpt>
      <trkpt lat="47.29371" lon="-2.42798">
        <ele>1.6000000238419</ele>
        <time>2019-07-07T09:59:08.000Z</time>
      </trkpt>
      <trkpt lat="47.29381" lon="-2.42773">
        <ele>1.6000000238419</ele>
        <time>2019-07-07T09:59:11.000Z</time>
      </trkpt>
      <trkpt lat="47.29384" lon="-2.42764">
        <ele>1.6000000238419</ele>
        <time>2019-07-07T09:59:12.000Z</time>
      </trkpt>
      <trkpt lat="47.29388" lon="-2.42747">
        <ele>1.6000000238419</ele>
        <time>2019-07-07T09:59:14.000Z</time>
      </trkpt>
      <trkpt lat="47.29397" lon="-2.42722">
        <ele>1.6000000238419</ele>
        <time>2019-07-07T09:59:17.000Z</time>
      </trkpt>
      <trkpt lat="47.29404" lon="-2.42705">
        <ele>1.6000000238419</ele>
        <time>2019-07-07T09:59:19.000Z</time>
      </trkpt>
      <trkpt lat="47.29414" lon="-2.4268">
        <ele>1.6000000238419</ele>
        <time>2019-07-07T09:59:22.000Z</time>
      </trkpt>
      <trkpt lat="47.29418" lon="-2.4265">
        <ele>1.6000000238419</ele>
        <time>2019-07-07T09:59:25.000Z</time>
      </trkpt>
      <trkpt lat="47.2942" lon="-2.42604">
        <ele>1.6000000238419</ele>
        <time>2019-07-07T09:59:30.000Z</time>
      </trkpt>
      <trkpt lat="47.29426" lon="-2.4258">
        <ele>1.6000000238419</ele>
        <time>2019-07-07T09:59:33.000Z</time>
      </trkpt>
      <trkpt lat="47.29435" lon="-2.42569">
        <ele>1.6000000238419</ele>
        <time>2019-07-07T09:59:35.000Z</time>
      </trkpt>
      <trkpt lat="47.2945" lon="-2.42552">
        <ele>1.6000000238419</ele>
        <time>2019-07-07T09:59:38.000Z</time>
      </trkpt>
      <trkpt lat="47.29454" lon="-2.42548">
        <ele>1.6000000238419</ele>
        <time>2019-07-07T09:59:39.000Z</time>
      </trkpt>
      <trkpt lat="47.29468" lon="-2.42534">
        <ele>1.6000000238419</ele>
        <time>2019-07-07T09:59:42.000Z</time>
      </trkpt>
      <trkpt lat="47.29498" lon="-2.42501">
        <ele>1.6000000238419</ele>
        <time>2019-07-07T09:59:48.000Z</time>
      </trkpt>
      <trkpt lat="47.29515" lon="-2.42483">
        <ele>1.6000000238419</ele>
        <time>2019-07-07T09:59:51.000Z</time>
      </trkpt>
      <trkpt lat="47.29528" lon="-2.42473">
        <ele>1.6000000238419</ele>
        <time>2019-07-07T09:59:53.000Z</time>
      </trkpt>
      <trkpt lat="47.29544" lon="-2.42453">
        <ele>1.6000000238419</ele>
        <time>2019-07-07T09:59:56.000Z</time>
      </trkpt>
      <trkpt lat="47.29548" lon="-2.42445">
        <ele>1.6000000238419</ele>
        <time>2019-07-07T09:59:57.000Z</time>
      </trkpt>
      <trkpt lat="47.29552" lon="-2.42438">
        <ele>1.6000000238419</ele>
        <time>2019-07-07T09:59:58.000Z</time>
      </trkpt>
      <trkpt lat="47.29562" lon="-2.42429">
        <ele>1.6000000238419</ele>
        <time>2019-07-07T10:00:00.000Z</time>
      </trkpt>
      <trkpt lat="47.29583" lon="-2.42424">
        <ele>1.6000000238419</ele>
        <time>2019-07-07T10:00:04.000Z</time>
      </trkpt>
      <trkpt lat="47.29594" lon="-2.42426">
        <ele>1.6000000238419</ele>
        <time>2019-07-07T10:00:06.000Z</time>
      </trkpt>
      <trkpt lat="47.29609" lon="-2.42433">
        <ele>1.6000000238419</ele>
        <time>2019-07-07T10:00:09.000Z</time>
      </trkpt>
      <trkpt lat="47.29622" lon="-2.42437">
        <ele>1.6000000238419</ele>
        <time>2019-07-07T10:00:13.000Z</time>
      </trkpt>
      <trkpt lat="47.29628" lon="-2.42423">
        <ele>1.6000000238419</ele>
        <time>2019-07-07T10:00:16.000Z</time>
      </trkpt>
      <trkpt lat="47.29628" lon="-2.42415">
        <ele>1.2000000476837</ele>
        <time>2019-07-07T10:00:17.000Z</time>
      </trkpt>
      <trkpt lat="47.2963" lon="-2.42407">
        <ele>0.80000001192093</ele>
        <time>2019-07-07T10:00:18.000Z</time>
      </trkpt>
      <trkpt lat="47.29631" lon="-2.42399">
        <ele>0.40000000596046</ele>
        <time>2019-07-07T10:00:19.000Z</time>
      </trkpt>
      <trkpt lat="47.29633" lon="-2.4239">
        <ele>2.8</ele>
        <time>2019-07-07T10:00:20.000Z</time>
      </trkpt>
      <trkpt lat="47.29635" lon="-2.42382">
        <ele>-0.40000000596046</ele>
        <time>2019-07-07T10:00:21.000Z</time>
      </trkpt>
      <trkpt lat="47.29645" lon="-2.42336">
        <ele>-0.40000000596046</ele>
        <time>2019-07-07T10:00:26.000Z</time>
      </trkpt>
      <trkpt lat="47.29662" lon="-2.42261">
        <ele>-0.40000000596046</ele>
        <time>2019-07-07T10:00:34.000Z</time>
      </trkpt>
      <trkpt lat="47.29683" lon="-2.42203">
        <ele>-0.40000000596046</ele>
        <time>2019-07-07T10:00:41.000Z</time>
      </trkpt>
      <trkpt lat="47.2971" lon="-2.42157">
        <ele>-0.40000000596046</ele>
        <time>2019-07-07T10:00:47.000Z</time>
      </trkpt>
      <trkpt lat="47.29745" lon="-2.42095">
        <ele>-0.40000000596046</ele>
        <time>2019-07-07T10:00:55.000Z</time>
      </trkpt>
      <trkpt lat="47.29749" lon="-2.42087">
        <ele>-0.40000000596046</ele>
        <time>2019-07-07T10:00:56.000Z</time>
      </trkpt>
      <trkpt lat="47.29767" lon="-2.42056">
        <ele>-0.40000000596046</ele>
        <time>2019-07-07T10:01:00.000Z</time>
      </trkpt>
      <trkpt lat="47.29783" lon="-2.42024">
        <ele>-0.40000000596046</ele>
        <time>2019-07-07T10:01:04.000Z</time>
      </trkpt>
      <trkpt lat="47.29786" lon="-2.42015">
        <ele>-0.40000000596046</ele>
        <time>2019-07-07T10:01:05.000Z</time>
      </trkpt>
      <trkpt lat="47.29787" lon="-2.41993">
        <ele>-0.40000000596046</ele>
        <time>2019-07-07T10:01:07.000Z</time>
      </trkpt>
      <trkpt lat="47.29782" lon="-2.41964">
        <ele>-0.40000000596046</ele>
        <time>2019-07-07T10:01:10.000Z</time>
      </trkpt>
      <trkpt lat="47.2978" lon="-2.41955">
        <ele>-0.40000000596046</ele>
        <time>2019-07-07T10:01:11.000Z</time>
      </trkpt>
      <trkpt lat="47.29767" lon="-2.4189">
        <ele>-0.40000000596046</ele>
        <time>2019-07-07T10:01:18.000Z</time>
      </trkpt>
      <trkpt lat="47.29767" lon="-2.41842">
        <ele>-0.40000000596046</ele>
        <time>2019-07-07T10:01:23.000Z</time>
      </trkpt>
      <trkpt lat="47.2977" lon="-2.41777">
        <ele>-0.40000000596046</ele>
        <time>2019-07-07T10:01:30.000Z</time>
      </trkpt>
      <trkpt lat="47.29767" lon="-2.41754">
        <ele>-0.40000000596046</ele>
        <time>2019-07-07T10:01:33.000Z</time>
      </trkpt>
      <trkpt lat="47.29763" lon="-2.41748">
        <ele>-0.40000000596046</ele>
        <time>2019-07-07T10:01:34.000Z</time>
      </trkpt>
      <trkpt lat="47.29746" lon="-2.41748">
        <ele>-0.40000000596046</ele>
        <time>2019-07-07T10:01:37.000Z</time>
      </trkpt>
      <trkpt lat="47.29731" lon="-2.41762">
        <ele>-0.40000000596046</ele>
        <time>2019-07-07T10:01:40.000Z</time>
      </trkpt>
      <trkpt lat="47.29727" lon="-2.41768">
        <ele>-0.40000000596046</ele>
        <time>2019-07-07T10:01:41.000Z</time>
      </trkpt>
      <trkpt lat="47.29718" lon="-2.41781">
        <ele>-0.40000000596046</ele>
        <time>2019-07-07T10:01:43.000Z</time>
      </trkpt>
      <trkpt lat="47.29707" lon="-2.41803">
        <ele>-0.40000000596046</ele>
        <time>2019-07-07T10:01:46.000Z</time>
      </trkpt>
      <trkpt lat="47.29702" lon="-2.41809">
        <ele>-0.40000000596046</ele>
        <time>2019-07-07T10:01:47.000Z</time>
      </trkpt>
      <trkpt lat="47.29692" lon="-2.41819">
        <ele>-0.40000000596046</ele>
        <time>2019-07-07T10:01:49.000Z</time>
      </trkpt>
      <trkpt lat="47.29673" lon="-2.41822">
        <ele>-0.40000000596046</ele>
        <time>2019-07-07T10:01:52.000Z</time>
      </trkpt>
      <trkpt lat="47.29649" lon="-2.41828">
        <ele>-0.40000000596046</ele>
        <time>2019-07-07T10:01:56.000Z</time>
      </trkpt>
      <trkpt lat="47.29637" lon="-2.41813">
        <ele>-0.40000000596046</ele>
        <time>2019-07-07T10:01:59.000Z</time>
      </trkpt>
      <trkpt lat="47.29635" lon="-2.41796">
        <ele>-0.40000000596046</ele>
        <time>2019-07-07T10:02:01.000Z</time>
      </trkpt>
      <trkpt lat="47.29634" lon="-2.41787">
        <ele>-0.40000000596046</ele>
        <time>2019-07-07T10:02:02.000Z</time>
      </trkpt>
      <trkpt lat="47.29633" lon="-2.41778">
        <ele>-0.40000000596046</ele>
        <time>2019-07-07T10:02:03.000Z</time>
      </trkpt>
      <trkpt lat="47.2962" lon="-2.41755">
        <ele>-0.40000000596046</ele>
        <time>2019-07-07T10:02:06.000Z</time>
      </trkpt>
      <trkpt lat="47.29604" lon="-2.41738">
        <ele>-0.40000000596046</ele>
        <time>2019-07-07T10:02:09.000Z</time>
      </trkpt>
      <trkpt lat="47.29593" lon="-2.41728">
        <ele>-0.40000000596046</ele>
        <time>2019-07-07T10:02:11.000Z</time>
      </trkpt>
      <trkpt lat="47.2957" lon="-2.41713">
        <ele>-0.40000000596046</ele>
        <time>2019-07-07T10:02:15.000Z</time>
      </trkpt>
      <trkpt lat="47.29564" lon="-2.4171">
        <ele>-0.40000000596046</ele>
        <time>2019-07-07T10:02:16.000Z</time>
      </trkpt>
      <trkpt lat="47.29549" lon="-2.41696">
        <ele>-0.40000000596046</ele>
        <time>2019-07-07T10:02:19.000Z</time>
      </trkpt>
      <trkpt lat="47.29542" lon="-2.41681">
        <ele>-0.40000000596046</ele>
        <time>2019-07-07T10:02:21.000Z</time>
      </trkpt>
      <trkpt lat="47.29536" lon="-2.41666">
        <ele>-0.40000000596046</ele>
        <time>2019-07-07T10:02:23.000Z</time>
      </trkpt>
      <trkpt lat="47.29533" lon="-2.41657">
        <ele>3.3</ele>
        <time>2019-07-07T10:02:24.000Z</time>
      </trkpt>
      <trkpt lat="47.29531" lon="-2.41649">
        <ele>0.40000000596046</ele>
        <time>2019-07-07T10:02:25.000Z</time>
      </trkpt>
      <trkpt lat="47.29529" lon="-2.4164">
        <ele>0.80000001192093</ele>
        <time>2019-07-07T10:02:26.000Z</time>
      </trkpt>
      <trkpt lat="47.29527" lon="-2.41631">
        <ele>1.2000000476837</ele>
        <time>2019-07-07T10:02:27.000Z</time>
      </trkpt>
      <trkpt lat="47.29526" lon="-2.41622">
        <ele>1.6000000238419</ele>
        <time>2019-07-07T10:02:28.000Z</time>
      </trkpt>
      <trkpt lat="47.29525" lon="-2.41602">
        <ele>1.6000000238419</ele>
        <time>2019-07-07T10:02:30.000Z</time>
      </trkpt>
      <trkpt lat="47.29527" lon="-2.41582">
        <ele>1.6000000238419</ele>
        <time>2019-07-07T10:02:32.000Z</time>
      </trkpt>
      <trkpt lat="47.29532" lon="-2.41564">
        <ele>1.6000000238419</ele>
        <time>2019-07-07T10:02:34.000Z</time>
      </trkpt>
      <trkpt lat="47.29538" lon="-2.41546">
        <ele>1.6000000238419</ele>
        <time>2019-07-07T10:02:36.000Z</time>
      </trkpt>
      <trkpt lat="47.2954" lon="-2.41537">
        <ele>1.6000000238419</ele>
        <time>2019-07-07T10:02:37.000Z</time>
      </trkpt>
      <trkpt lat="47.29538" lon="-2.41519">
        <ele>1.6000000238419</ele>
        <time>2019-07-07T10:02:39.000Z</time>
      </trkpt>
      <trkpt lat="47.29523" lon="-2.41489">
        <ele>1.6000000238419</ele>
        <time>2019-07-07T10:02:43.000Z</time>
      </trkpt>
      <trkpt lat="47.29507" lon="-2.41476">
        <ele>1.6000000238419</ele>
        <time>2019-07-07T10:02:46.000Z</time>
      </trkpt>
      <trkpt lat="47.2949" lon="-2.41486">
        <ele>1.6000000238419</ele>
        <time>2019-07-07T10:02:49.000Z</time>
      </trkpt>
      <trkpt lat="47.29478" lon="-2.41489">
        <ele>1.6000000238419</ele>
        <time>2019-07-07T10:02:52.000Z</time>
      </trkpt>
      <trkpt lat="47.29465" lon="-2.41484">
        <ele>1.6000000238419</ele>
        <time>2019-07-07T10:02:55.000Z</time>
      </trkpt>
      <trkpt lat="47.2946" lon="-2.41485">
        <ele>1.6000000238419</ele>
        <time>2019-07-07T10:02:56.000Z</time>
      </trkpt>
      <trkpt lat="47.29441" lon="-2.41489">
        <ele>1.6000000238419</ele>
        <time>2019-07-07T10:03:00.000Z</time>
      </trkpt>
      <trkpt lat="47.29436" lon="-2.41488">
        <ele>1.6000000238419</ele>
        <time>2019-07-07T10:03:01.000Z</time>
      </trkpt>
      <trkpt lat="47.29418" lon="-2.41473">
        <ele>1.6000000238419</ele>
        <time>2019-07-07T10:03:05.000Z</time>
      </trkpt>
      <trkpt lat="47.29397" lon="-2.4144">
        <ele>1.6000000238419</ele>
        <time>2019-07-07T10:03:11.000Z</time>
      </trkpt>
      <trkpt lat="47.2938" lon="-2.414">
        <ele>1.6000000238419</ele>
        <time>2019-07-07T10:03:17.000Z</time>
      </trkpt>
      <trkpt lat="47.29366" lon="-2.41375">
        <ele>1.6000000238419</ele>
        <time>2019-07-07T10:03:21.000Z</time>
      </trkpt>
      <trkpt lat="47.29357" lon="-2.41365">
        <ele>1.6000000238419</ele>
        <time>2019-07-07T10:03:23.000Z</time>
      </trkpt>
      <trkpt lat="47.2935" lon="-2.41353">
        <ele>1.6000000238419</ele>
        <time>2019-07-07T10:03:25.000Z</time>
      </trkpt>
      <trkpt lat="47.29347" lon="-2.41338">
        <ele>1.6000000238419</ele>
        <time>2019-07-07T10:03:27.000Z</time>
      </trkpt>
      <trkpt lat="47.29352" lon="-2.41316">
        <ele>1.6000000238419</ele>
        <time>2019-07-07T10:03:30.000Z</time>
      </trkpt>
      <trkpt lat="47.29357" lon="-2.41285">
        <ele>1.6000000238419</ele>
        <time>2019-07-07T10:03:34.000Z</time>
      </trkpt>
      <trkpt lat="47.29354" lon="-2.4126">
        <ele>1.6000000238419</ele>
        <time>2019-07-07T10:03:37.000Z</time>
      </trkpt>
      <trkpt lat="47.29352" lon="-2.41251">
        <ele>1.6000000238419</ele>
        <time>2019-07-07T10:03:38.000Z</time>
      </trkpt>
      <trkpt lat="47.29349" lon="-2.41244">
        <ele>1.6000000238419</ele>
        <time>2019-07-07T10:03:39.000Z</time>
      </trkpt>
      <trkpt lat="47.29329" lon="-2.41217">
        <ele>1.6000000238419</ele>
        <time>2019-07-07T10:03:43.000Z</time>
      </trkpt>
      <trkpt lat="47.29323" lon="-2.41211">
        <ele>1.2000000476837</ele>
        <time>2019-07-07T10:03:44.000Z</time>
      </trkpt>
      <trkpt lat="47.29318" lon="-2.41205">
        <ele>0.80000001192093</ele>
        <time>2019-07-07T10:03:45.000Z</time>
      </trkpt>
      <trkpt lat="47.29312" lon="-2.41199">
        <ele>0.40000000596046</ele>
        <time>2019-07-07T10:03:46.000Z</time>
      </trkpt>
      <trkpt lat="47.29307" lon="-2.41192">
        <ele>-0.20000000298023</ele>
        <time>2019-07-07T10:03:47.000Z</time>
      </trkpt>
      <trkpt lat="47.29301" lon="-2.41185">
        <ele>-0.60000002384186</ele>
        <time>2019-07-07T10:03:48.000Z</time>
      </trkpt>
      <trkpt lat="47.29297" lon="-2.41177">
        <ele>-0.60000002384186</ele>
        <time>2019-07-07T10:03:49.000Z</time>
      </trkpt>
      <trkpt lat="47.29294" lon="-2.41168">
        <ele>-0.60000002384186</ele>
        <time>2019-07-07T10:03:50.000Z</time>
      </trkpt>
      <trkpt lat="47.29284" lon="-2.41144">
        <ele>-0.60000002384186</ele>
        <time>2019-07-07T10:03:53.000Z</time>
      </trkpt>
      <trkpt lat="47.29275" lon="-2.4113">
        <ele>-0.60000002384186</ele>
        <time>2019-07-07T10:03:55.000Z</time>
      </trkpt>
      <trkpt lat="47.29265" lon="-2.41118">
        <ele>-0.60000002384186</ele>
        <time>2019-07-07T10:03:57.000Z</time>
      </trkpt>
      <trkpt lat="47.29251" lon="-2.411">
        <ele>-0.60000002384186</ele>
        <time>2019-07-07T10:04:00.000Z</time>
      </trkpt>
      <trkpt lat="47.29247" lon="-2.41093">
        <ele>-0.60000002384186</ele>
        <time>2019-07-07T10:04:01.000Z</time>
      </trkpt>
      <trkpt lat="47.29246" lon="-2.41069">
        <ele>-0.60000002384186</ele>
        <time>2019-07-07T10:04:04.000Z</time>
      </trkpt>
      <trkpt lat="47.29254" lon="-2.41048">
        <ele>-0.60000002384186</ele>
        <time>2019-07-07T10:04:07.000Z</time>
      </trkpt>
      <trkpt lat="47.29249" lon="-2.41034">
        <ele>-0.60000002384186</ele>
        <time>2019-07-07T10:04:09.000Z</time>
      </trkpt>
      <trkpt lat="47.29231" lon="-2.41009">
        <ele>-0.60000002384186</ele>
        <time>2019-07-07T10:04:13.000Z</time>
      </trkpt>
      <trkpt lat="47.29224" lon="-2.40994">
        <ele>-0.60000002384186</ele>
        <time>2019-07-07T10:04:15.000Z</time>
      </trkpt>
      <trkpt lat="47.29217" lon="-2.40979">
        <ele>-0.60000002384186</ele>
        <time>2019-07-07T10:04:17.000Z</time>
      </trkpt>
      <trkpt lat="47.29211" lon="-2.40962">
        <ele>-0.60000002384186</ele>
        <time>2019-07-07T10:04:19.000Z</time>
      </trkpt>
      <trkpt lat="47.29195" lon="-2.40948">
        <ele>-0.60000002384186</ele>
        <time>2019-07-07T10:04:22.000Z</time>
      </trkpt>
      <trkpt lat="47.29181" lon="-2.40944">
        <ele>-0.60000002384186</ele>
        <time>2019-07-07T10:04:24.000Z</time>
      </trkpt>
      <trkpt lat="47.29168" lon="-2.40938">
        <ele>-0.60000002384186</ele>
        <time>2019-07-07T10:04:26.000Z</time>
      </trkpt>
      <trkpt lat="47.29163" lon="-2.40932">
        <ele>-0.60000002384186</ele>
        <time>2019-07-07T10:04:27.000Z</time>
      </trkpt>
      <trkpt lat="47.2916" lon="-2.40915">
        <ele>-0.60000002384186</ele>
        <time>2019-07-07T10:04:29.000Z</time>
      </trkpt>
      <trkpt lat="47.29162" lon="-2.40897">
        <ele>-0.60000002384186</ele>
        <time>2019-07-07T10:04:31.000Z</time>
      </trkpt>
      <trkpt lat="47.29165" lon="-2.40888">
        <ele>-0.60000002384186</ele>
        <time>2019-07-07T10:04:32.000Z</time>
      </trkpt>
      <trkpt lat="47.29168" lon="-2.40879">
        <ele>-0.60000002384186</ele>
        <time>2019-07-07T10:04:33.000Z</time>
      </trkpt>
      <trkpt lat="47.29172" lon="-2.4086">
        <ele>-0.60000002384186</ele>
        <time>2019-07-07T10:04:35.000Z</time>
      </trkpt>
      <trkpt lat="47.29171" lon="-2.4084">
        <ele>-0.60000002384186</ele>
        <time>2019-07-07T10:04:37.000Z</time>
      </trkpt>
      <trkpt lat="47.29174" lon="-2.40801">
        <ele>-0.60000002384186</ele>
        <time>2019-07-07T10:04:41.000Z</time>
      </trkpt>
      <trkpt lat="47.29187" lon="-2.40767">
        <ele>-0.60000002384186</ele>
        <time>2019-07-07T10:04:45.000Z</time>
      </trkpt>
      <trkpt lat="47.29193" lon="-2.4075">
        <ele>-0.60000002384186</ele>
        <time>2019-07-07T10:04:47.000Z</time>
      </trkpt>
      <trkpt lat="47.29202" lon="-2.40736">
        <ele>-0.60000002384186</ele>
        <time>2019-07-07T10:04:49.000Z</time>
      </trkpt>
      <trkpt lat="47.29228" lon="-2.40693">
        <ele>-0.60000002384186</ele>
        <time>2019-07-07T10:04:55.000Z</time>
      </trkpt>
      <trkpt lat="47.29231" lon="-2.40685">
        <ele>-0.60000002384186</ele>
        <time>2019-07-07T10:04:56.000Z</time>
      </trkpt>
      <trkpt lat="47.29231" lon="-2.40665">
        <ele>-0.60000002384186</ele>
        <time>2019-07-07T10:04:58.000Z</time>
      </trkpt>
      <trkpt lat="47.29222" lon="-2.40636">
        <ele>-0.60000002384186</ele>
        <time>2019-07-07T10:05:01.000Z</time>
      </trkpt>
      <trkpt lat="47.29199" lon="-2.40611">
        <ele>-0.60000002384186</ele>
        <time>2019-07-07T10:05:05.000Z</time>
      </trkpt>
      <trkpt lat="47.29187" lon="-2.40618">
        <ele>-0.60000002384186</ele>
        <time>2019-07-07T10:05:07.000Z</time>
      </trkpt>
      <trkpt lat="47.29182" lon="-2.40623">
        <ele>-0.60000002384186</ele>
        <time>2019-07-07T10:05:08.000Z</time>
      </trkpt>
      <trkpt lat="47.29176" lon="-2.40627">
        <ele>-0.60000002384186</ele>
        <time>2019-07-07T10:05:09.000Z</time>
      </trkpt>
      <trkpt lat="47.29158" lon="-2.40641">
        <ele>-0.60000002384186</ele>
        <time>2019-07-07T10:05:12.000Z</time>
      </trkpt>
      <trkpt lat="47.29152" lon="-2.40643">
        <ele>-0.60000002384186</ele>
        <time>2019-07-07T10:05:13.000Z</time>
      </trkpt>
      <trkpt lat="47.29143" lon="-2.40636">
        <ele>-0.60000002384186</ele>
        <time>2019-07-07T10:05:15.000Z</time>
      </trkpt>
      <trkpt lat="47.2914" lon="-2.40612">
        <ele>-0.60000002384186</ele>
        <time>2019-07-07T10:05:18.000Z</time>
      </trkpt>
      <trkpt lat="47.29139" lon="-2.40604">
        <ele>-0.60000002384186</ele>
        <time>2019-07-07T10:05:19.000Z</time>
      </trkpt>
      <trkpt lat="47.29134" lon="-2.40589">
        <ele>-0.60000002384186</ele>
        <time>2019-07-07T10:05:21.000Z</time>
      </trkpt>
      <trkpt lat="47.29126" lon="-2.40575">
        <ele>-0.60000002384186</ele>
        <time>2019-07-07T10:05:23.000Z</time>
      </trkpt>
      <trkpt lat="47.29112" lon="-2.40558">
        <ele>-0.60000002384186</ele>
        <time>2019-07-07T10:05:26.000Z</time>
      </trkpt>
      <trkpt lat="47.29099" lon="-2.40541">
        <ele>-0.60000002384186</ele>
        <time>2019-07-07T10:05:29.000Z</time>
      </trkpt>
      <trkpt lat="47.29098" lon="-2.40533">
        <ele>-0.60000002384186</ele>
        <time>2019-07-07T10:05:30.000Z</time>
      </trkpt>
      <trkpt lat="47.29103" lon="-2.40515">
        <ele>-0.60000002384186</ele>
        <time>2019-07-07T10:05:32.000Z</time>
      </trkpt>
      <trkpt lat="47.29117" lon="-2.40501">
        <ele>-0.60000002384186</ele>
        <time>2019-07-07T10:05:35.000Z</time>
      </trkpt>
      <trkpt lat="47.29135" lon="-2.40491">
        <ele>-0.60000002384186</ele>
        <time>2019-07-07T10:05:38.000Z</time>
      </trkpt>
      <trkpt lat="47.29141" lon="-2.40488">
        <ele>-0.60000002384186</ele>
        <time>2019-07-07T10:05:39.000Z</time>
      </trkpt>
      <trkpt lat="47.29159" lon="-2.40491">
        <ele>-0.60000002384186</ele>
        <time>2019-07-07T10:05:42.000Z</time>
      </trkpt>
      <trkpt lat="47.29168" lon="-2.40514">
        <ele>-0.60000002384186</ele>
        <time>2019-07-07T10:05:45.000Z</time>
      </trkpt>
      <trkpt lat="47.29173" lon="-2.40521">
        <ele>-0.60000002384186</ele>
        <time>2019-07-07T10:05:46.000Z</time>
      </trkpt>
      <trkpt lat="47.29178" lon="-2.40523">
        <ele>-0.60000002384186</ele>
        <time>2019-07-07T10:05:47.000Z</time>
      </trkpt>
      <trkpt lat="47.2919" lon="-2.40518">
        <ele>-0.60000002384186</ele>
        <time>2019-07-07T10:05:49.000Z</time>
      </trkpt>
      <trkpt lat="47.29196" lon="-2.40515">
        <ele>-0.60000002384186</ele>
        <time>2019-07-07T10:05:50.000Z</time>
      </trkpt>
      <trkpt lat="47.29232" lon="-2.40492">
        <ele>-0.60000002384186</ele>
        <time>2019-07-07T10:05:56.000Z</time>
      </trkpt>
      <trkpt lat="47.29262" lon="-2.40476">
        <ele>-0.60000002384186</ele>
        <time>2019-07-07T10:06:01.000Z</time>
      </trkpt>
      <trkpt lat="47.29286" lon="-2.40465">
        <ele>-0.60000002384186</ele>
        <time>2019-07-07T10:06:05.000Z</time>
      </trkpt>
      <trkpt lat="47.29291" lon="-2.40459">
        <ele>-0.60000002384186</ele>
        <time>2019-07-07T10:06:06.000Z</time>
      </trkpt>
      <trkpt lat="47.293" lon="-2.40434">
        <ele>-0.60000002384186</ele>
        <time>2019-07-07T10:06:09.000Z</time>
      </trkpt>
      <trkpt lat="47.29307" lon="-2.40408">
        <ele>-0.60000002384186</ele>
        <time>2019-07-07T10:06:12.000Z</time>
      </trkpt>
      <trkpt lat="47.29306" lon="-2.40398">
        <ele>-0.60000002384186</ele>
        <time>2019-07-07T10:06:13.000Z</time>
      </trkpt>
      <trkpt lat="47.29293" lon="-2.40375">
        <ele>-0.60000002384186</ele>
        <time>2019-07-07T10:06:16.000Z</time>
      </trkpt>
      <trkpt lat="47.2929" lon="-2.40367">
        <ele>-0.60000002384186</ele>
        <time>2019-07-07T10:06:17.000Z</time>
      </trkpt>
      <trkpt lat="47.29286" lon="-2.40343">
        <ele>-0.60000002384186</ele>
        <time>2019-07-07T10:06:20.000Z</time>
      </trkpt>
      <trkpt lat="47.29294" lon="-2.40331">
        <ele>-0.60000002384186</ele>
        <time>2019-07-07T10:06:22.000Z</time>
      </trkpt>
      <trkpt lat="47.29299" lon="-2.40327">
        <ele>-0.60000002384186</ele>
        <time>2019-07-07T10:06:23.000Z</time>
      </trkpt>
      <trkpt lat="47.29321" lon="-2.40304">
        <ele>-0.60000002384186</ele>
        <time>2019-07-07T10:06:27.000Z</time>
      </trkpt>
      <trkpt lat="47.29336" lon="-2.40285">
        <ele>-0.60000002384186</ele>
        <time>2019-07-07T10:06:30.000Z</time>
      </trkpt>
      <trkpt lat="47.29347" lon="-2.40275">
        <ele>-0.60000002384186</ele>
        <time>2019-07-07T10:06:32.000Z</time>
      </trkpt>
      <trkpt lat="47.29378" lon="-2.40246">
        <ele>-0.60000002384186</ele>
        <time>2019-07-07T10:06:39.000Z</time>
      </trkpt>
      <trkpt lat="47.29411" lon="-2.40225">
        <ele>-0.60000002384186</ele>
        <time>2019-07-07T10:06:45.000Z</time>
      </trkpt>
      <trkpt lat="47.2943" lon="-2.40217">
        <ele>-0.60000002384186</ele>
        <time>2019-07-07T10:06:48.000Z</time>
      </trkpt>
      <trkpt lat="47.29436" lon="-2.40218">
        <ele>-0.60000002384186</ele>
        <time>2019-07-07T10:06:49.000Z</time>
      </trkpt>
      <trkpt lat="47.29446" lon="-2.4021">
        <ele>-0.60000002384186</ele>
        <time>2019-07-07T10:06:51.000Z</time>
      </trkpt>
      <trkpt lat="47.2945" lon="-2.40192">
        <ele>-0.60000002384186</ele>
        <time>2019-07-07T10:06:53.000Z</time>
      </trkpt>
      <trkpt lat="47.29451" lon="-2.40183">
        <ele>-0.60000002384186</ele>
        <time>2019-07-07T10:06:54.000Z</time>
      </trkpt>
      <trkpt lat="47.29452" lon="-2.40174">
        <ele>-0.60000002384186</ele>
        <time>2019-07-07T10:06:55.000Z</time>
      </trkpt>
      <trkpt lat="47.29455" lon="-2.40147">
        <ele>-0.60000002384186</ele>
        <time>2019-07-07T10:06:58.000Z</time>
      </trkpt>
      <trkpt lat="47.29459" lon="-2.401">
        <ele>-0.60000002384186</ele>
        <time>2019-07-07T10:07:03.000Z</time>
      </trkpt>
      <trkpt lat="47.29462" lon="-2.40072">
        <ele>-0.60000002384186</ele>
        <time>2019-07-07T10:07:06.000Z</time>
      </trkpt>
      <trkpt lat="47.29461" lon="-2.40043">
        <ele>-0.60000002384186</ele>
        <time>2019-07-07T10:07:09.000Z</time>
      </trkpt>
      <trkpt lat="47.2946" lon="-2.39988">
        <ele>-0.60000002384186</ele>
        <time>2019-07-07T10:07:15.000Z</time>
      </trkpt>
      <trkpt lat="47.29468" lon="-2.39956">
        <ele>-0.60000002384186</ele>
        <time>2019-07-07T10:07:19.000Z</time>
      </trkpt>
      <trkpt lat="47.29482" lon="-2.39926">
        <ele>-0.60000002384186</ele>
        <time>2019-07-07T10:07:24.000Z</time>
      </trkpt>
      <trkpt lat="47.29484" lon="-2.39919">
        <ele>-0.60000002384186</ele>
        <time>2019-07-07T10:07:26.000Z</time>
      </trkpt>
      <trkpt lat="47.29484" lon="-2.39916">
        <ele>-0.60000002384186</ele>
        <time>2019-07-07T10:07:27.000Z</time>
      </trkpt>
      <trkpt lat="47.29482" lon="-2.399">
        <ele>-0.60000002384186</ele>
        <time>2019-07-07T10:07:33.000Z</time>
      </trkpt>
      <trkpt lat="47.29488" lon="-2.39898">
        <ele>-0.60000002384186</ele>
        <time>2019-07-07T10:07:36.000Z</time>
      </trkpt>
      <trkpt lat="47.295" lon="-2.39897">
        <ele>-0.60000002384186</ele>
        <time>2019-07-07T10:07:39.000Z</time>
      </trkpt>
      <trkpt lat="47.29511" lon="-2.39876">
        <ele>-0.60000002384186</ele>
        <time>2019-07-07T10:07:43.000Z</time>
      </trkpt>
      <trkpt lat="47.29525" lon="-2.39848">
        <ele>-0.60000002384186</ele>
        <time>2019-07-07T10:07:48.000Z</time>
      </trkpt>
      <trkpt lat="47.29527" lon="-2.39842">
        <ele>-0.60000002384186</ele>
        <time>2019-07-07T10:07:49.000Z</time>
      </trkpt>
      <trkpt lat="47.29536" lon="-2.39824">
        <ele>-0.60000002384186</ele>
        <time>2019-07-07T10:07:52.000Z</time>
      </trkpt>
      <trkpt lat="47.29542" lon="-2.39812">
        <ele>-0.60000002384186</ele>
        <time>2019-07-07T10:07:54.000Z</time>
      </trkpt>
      <trkpt lat="47.29552" lon="-2.39795">
        <ele>-0.60000002384186</ele>
        <time>2019-07-07T10:07:57.000Z</time>
      </trkpt>
      <trkpt lat="47.29557" lon="-2.39783">
        <ele>-0.60000002384186</ele>
        <time>2019-07-07T10:07:59.000Z</time>
      </trkpt>
      <trkpt lat="47.29562" lon="-2.3977">
        <ele>-0.60000002384186</ele>
        <time>2019-07-07T10:08:01.000Z</time>
      </trkpt>
      <trkpt lat="47.29573" lon="-2.39747">
        <ele>-0.60000002384186</ele>
        <time>2019-07-07T10:08:05.000Z</time>
      </trkpt>
      <trkpt lat="47.29582" lon="-2.39729">
        <ele>-0.60000002384186</ele>
        <time>2019-07-07T10:08:08.000Z</time>
      </trkpt>
      <trkpt lat="47.29592" lon="-2.39712">
        <ele>-0.60000002384186</ele>
        <time>2019-07-07T10:08:11.000Z</time>
      </trkpt>
      <trkpt lat="47.29617" lon="-2.39669">
        <ele>-0.60000002384186</ele>
        <time>2019-07-07T10:08:18.000Z</time>
      </trkpt>
      <trkpt lat="47.29626" lon="-2.39642">
        <ele>-0.60000002384186</ele>
        <time>2019-07-07T10:08:22.000Z</time>
      </trkpt>
      <trkpt lat="47.29628" lon="-2.39634">
        <ele>-0.60000002384186</ele>
        <time>2019-07-07T10:08:23.000Z</time>
      </trkpt>
      <trkpt lat="47.29629" lon="-2.3961">
        <ele>-0.60000002384186</ele>
        <time>2019-07-07T10:08:26.000Z</time>
      </trkpt>
      <trkpt lat="47.29628" lon="-2.39596">
        <ele>-0.60000002384186</ele>
        <time>2019-07-07T10:08:28.000Z</time>
      </trkpt>
      <trkpt lat="47.29625" lon="-2.39574">
        <ele>-0.60000002384186</ele>
        <time>2019-07-07T10:08:32.000Z</time>
      </trkpt>
      <trkpt lat="47.29615" lon="-2.39573">
        <ele>-0.60000002384186</ele>
        <time>2019-07-07T10:08:35.000Z</time>
      </trkpt>
      <trkpt lat="47.29612" lon="-2.39572">
        <ele>6.2</ele>
        <time>2019-07-07T10:08:36.000Z</time>
      </trkpt>
      <trkpt lat="47.29612" lon="-2.39569">
        <ele>0.80000001192093</ele>
        <time>2019-07-07T10:08:37.000Z</time>
      </trkpt>
      <trkpt lat="47.29613" lon="-2.39567">
        <ele>1.2000000476837</ele>
        <time>2019-07-07T10:08:38.000Z</time>
      </trkpt>
      <trkpt lat="47.29616" lon="-2.39566">
        <ele>1.7999999523163</ele>
        <time>2019-07-07T10:08:39.000Z</time>
      </trkpt>
      <trkpt lat="47.29624" lon="-2.39562">
        <ele>1.7999999523163</ele>
        <time>2019-07-07T10:08:42.000Z</time>
      </trkpt>
      <trkpt lat="47.29626" lon="-2.39559">
        <ele>2.2000000476837</ele>
        <time>2019-07-07T10:08:43.000Z</time>
      </trkpt>
      <trkpt lat="47.29625" lon="-2.39556">
        <ele>2.5999999046326</ele>
        <time>2019-07-07T10:08:44.000Z</time>
      </trkpt>
      <trkpt lat="47.29624" lon="-2.39554">
        <ele>3</ele>
        <time>2019-07-07T10:08:45.000Z</time>
      </trkpt>
      <trkpt lat="47.29621" lon="-2.39553">
        <ele>3.4000000953674</ele>
        <time>2019-07-07T10:08:46.000Z</time>
      </trkpt>
      <trkpt lat="47.29618" lon="-2.39554">
        <ele>3.7999999523163</ele>
        <time>2019-07-07T10:08:47.000Z</time>
      </trkpt>
      <trkpt lat="47.29614" lon="-2.39554">
        <ele>3.7999999523163</ele>
        <time>2019-07-07T10:08:48.000Z</time>
      </trkpt>
      <trkpt lat="47.29609" lon="-2.39554">
        <ele>3.7999999523163</ele>
        <time>2019-07-07T10:08:49.000Z</time>
      </trkpt>
      <trkpt lat="47.29596" lon="-2.39552">
        <ele>4.1999998092651</ele>
        <time>2019-07-07T10:08:53.000Z</time>
      </trkpt>
      <trkpt lat="47.29593" lon="-2.39551">
        <ele>4.5999999046326</ele>
        <time>2019-07-07T10:08:54.000Z</time>
      </trkpt>
      <trkpt lat="47.2959" lon="-2.3955">
        <ele>5</ele>
        <time>2019-07-07T10:08:55.000Z</time>
      </trkpt>
      <trkpt lat="47.29587" lon="-2.3955">
        <ele>5.4000000953674</ele>
        <time>2019-07-07T10:08:56.000Z</time>
      </trkpt>
      <trkpt lat="47.29584" lon="-2.39549">
        <ele>5.8000001907349</ele>
        <time>2019-07-07T10:08:57.000Z</time>
      </trkpt>
      <trkpt lat="47.29576" lon="-2.39548">
        <ele>5.8000001907349</ele>
        <time>2019-07-07T10:08:59.000Z</time>
      </trkpt>
      <trkpt lat="47.29553" lon="-2.39542">
        <ele>5.8000001907349</ele>
        <time>2019-07-07T10:09:03.000Z</time>
      </trkpt>
      <trkpt lat="47.29516" lon="-2.39535">
        <ele>5.8000001907349</ele>
        <time>2019-07-07T10:09:08.000Z</time>
      </trkpt>
      <trkpt lat="47.29477" lon="-2.39528">
        <ele>5.4000000953674</ele>
        <time>2019-07-07T10:09:13.000Z</time>
      </trkpt>
      <trkpt lat="47.29469" lon="-2.39526">
        <ele>5</ele>
        <time>2019-07-07T10:09:14.000Z</time>
      </trkpt>
      <trkpt lat="47.29461" lon="-2.39524">
        <ele>4.5999999046326</ele>
        <time>2019-07-07T10:09:15.000Z</time>
      </trkpt>
      <trkpt lat="47.29454" lon="-2.39523">
        <ele>4.1999998092651</ele>
        <time>2019-07-07T10:09:16.000Z</time>
      </trkpt>
      <trkpt lat="47.29446" lon="-2.39521">
        <ele>3.7999999523163</ele>
        <time>2019-07-07T10:09:17.000Z</time>
      </trkpt>
      <trkpt lat="47.294" lon="-2.39512">
        <ele>3.7999999523163</ele>
        <time>2019-07-07T10:09:23.000Z</time>
      </trkpt>
      <trkpt lat="47.29356" lon="-2.39504">
        <ele>3.7999999523163</ele>
        <time>2019-07-07T10:09:29.000Z</time>
      </trkpt>
      <trkpt lat="47.293" lon="-2.39494">
        <ele>3.7999999523163</ele>
        <time>2019-07-07T10:09:37.000Z</time>
      </trkpt>
      <trkpt lat="47.29253" lon="-2.39484">
        <ele>3.7999999523163</ele>
        <time>2019-07-07T10:09:44.000Z</time>
      </trkpt>
      <trkpt lat="47.29216" lon="-2.39476">
        <ele>3.7999999523163</ele>
        <time>2019-07-07T10:09:50.000Z</time>
      </trkpt>
      <trkpt lat="47.29172" lon="-2.39469">
        <ele>3.7999999523163</ele>
        <time>2019-07-07T10:09:57.000Z</time>
      </trkpt>
      <trkpt lat="47.29145" lon="-2.39465">
        <ele>3.7999999523163</ele>
        <time>2019-07-07T10:10:02.000Z</time>
      </trkpt>
      <trkpt lat="47.29141" lon="-2.39465">
        <ele>3.4000000953674</ele>
        <time>2019-07-07T10:10:03.000Z</time>
      </trkpt>
      <trkpt lat="47.29137" lon="-2.39462">
        <ele>3</ele>
        <time>2019-07-07T10:10:04.000Z</time>
      </trkpt>
      <trkpt lat="47.29136" lon="-2.39457">
        <ele>2.5999999046326</ele>
        <time>2019-07-07T10:10:05.000Z</time>
      </trkpt>
      <trkpt lat="47.29137" lon="-2.39451">
        <ele>2.2000000476837</ele>
        <time>2019-07-07T10:10:06.000Z</time>
      </trkpt>
      <trkpt lat="47.29137" lon="-2.39445">
        <ele>1.7999999523163</ele>
        <time>2019-07-07T10:10:07.000Z</time>
      </trkpt>
      <trkpt lat="47.29137" lon="-2.39439">
        <ele>1.7999999523163</ele>
        <time>2019-07-07T10:10:08.000Z</time>
      </trkpt>
      <trkpt lat="47.29136" lon="-2.39426">
        <ele>1.7999999523163</ele>
        <time>2019-07-07T10:10:10.000Z</time>
      </trkpt>
      <trkpt lat="47.29132" lon="-2.39404">
        <ele>1.7999999523163</ele>
        <time>2019-07-07T10:10:13.000Z</time>
      </trkpt>
      <trkpt lat="47.2913" lon="-2.39378">
        <ele>1.7999999523163</ele>
        <time>2019-07-07T10:10:16.000Z</time>
      </trkpt>
      <trkpt lat="47.29123" lon="-2.39369">
        <ele>1.7999999523163</ele>
        <time>2019-07-07T10:10:18.000Z</time>
      </trkpt>
      <trkpt lat="47.29107" lon="-2.39373">
        <ele>1.7999999523163</ele>
        <time>2019-07-07T10:10:21.000Z</time>
      </trkpt>
      <trkpt lat="47.29102" lon="-2.39375">
        <ele>1.7999999523163</ele>
        <time>2019-07-07T10:10:22.000Z</time>
      </trkpt>
      <trkpt lat="47.29096" lon="-2.39376">
        <ele>1.7999999523163</ele>
        <time>2019-07-07T10:10:23.000Z</time>
      </trkpt>
      <trkpt lat="47.29086" lon="-2.39371">
        <ele>1.7999999523163</ele>
        <time>2019-07-07T10:10:25.000Z</time>
      </trkpt>
      <trkpt lat="47.2908" lon="-2.39368">
        <ele>2.2000000476837</ele>
        <time>2019-07-07T10:10:26.000Z</time>
      </trkpt>
      <trkpt lat="47.29074" lon="-2.39364">
        <ele>2.5999999046326</ele>
        <time>2019-07-07T10:10:27.000Z</time>
      </trkpt>
      <trkpt lat="47.29068" lon="-2.39361">
        <ele>3</ele>
        <time>2019-07-07T10:10:28.000Z</time>
      </trkpt>
      <trkpt lat="47.29061" lon="-2.39357">
        <ele>3.4000000953674</ele>
        <time>2019-07-07T10:10:29.000Z</time>
      </trkpt>
      <trkpt lat="47.29055" lon="-2.39353">
        <ele>3.7999999523163</ele>
        <time>2019-07-07T10:10:30.000Z</time>
      </trkpt>
      <trkpt lat="47.29048" lon="-2.3935">
        <ele>3.7999999523163</ele>
        <time>2019-07-07T10:10:31.000Z</time>
      </trkpt>
      <trkpt lat="47.29004" lon="-2.39329">
        <ele>3.7999999523163</ele>
        <time>2019-07-07T10:10:37.000Z</time>
      </trkpt>
      <trkpt lat="47.28983" lon="-2.39321">
        <ele>3</ele>
        <time>2019-07-07T10:10:40.000Z</time>
      </trkpt>
      <trkpt lat="47.28977" lon="-2.3932">
        <ele>2.4000000953674</ele>
        <time>2019-07-07T10:10:41.000Z</time>
      </trkpt>
      <trkpt lat="47.28969" lon="-2.3932">
        <ele>2</ele>
        <time>2019-07-07T10:10:42.000Z</time>
      </trkpt>
      <trkpt lat="47.28963" lon="-2.3932">
        <ele>1.6000000238419</ele>
        <time>2019-07-07T10:10:43.000Z</time>
      </trkpt>
      <trkpt lat="47.28945" lon="-2.39319">
        <ele>1.6000000238419</ele>
        <time>2019-07-07T10:10:46.000Z</time>
      </trkpt>
      <trkpt lat="47.28941" lon="-2.39313">
        <ele>1.6000000238419</ele>
        <time>2019-07-07T10:10:47.000Z</time>
      </trkpt>
      <trkpt lat="47.28936" lon="-2.39289">
        <ele>1.6000000238419</ele>
        <time>2019-07-07T10:10:50.000Z</time>
      </trkpt>
      <trkpt lat="47.28934" lon="-2.3928">
        <ele>1.6000000238419</ele>
        <time>2019-07-07T10:10:51.000Z</time>
      </trkpt>
      <trkpt lat="47.28931" lon="-2.39245">
        <ele>1.6000000238419</ele>
        <time>2019-07-07T10:10:55.000Z</time>
      </trkpt>
      <trkpt lat="47.2893" lon="-2.39178">
        <ele>1.6000000238419</ele>
        <time>2019-07-07T10:11:02.000Z</time>
      </trkpt>
      <trkpt lat="47.28932" lon="-2.39149">
        <ele>1.6000000238419</ele>
        <time>2019-07-07T10:11:05.000Z</time>
      </trkpt>
      <trkpt lat="47.28935" lon="-2.39128">
        <ele>1.6000000238419</ele>
        <time>2019-07-07T10:11:07.000Z</time>
      </trkpt>
      <trkpt lat="47.28944" lon="-2.39059">
        <ele>1.6000000238419</ele>
        <time>2019-07-07T10:11:14.000Z</time>
      </trkpt>
      <trkpt lat="47.28952" lon="-2.38978">
        <ele>1.6000000238419</ele>
        <time>2019-07-07T10:11:22.000Z</time>
      </trkpt>
      <trkpt lat="47.28956" lon="-2.38895">
        <ele>1.6000000238419</ele>
        <time>2019-07-07T10:11:30.000Z</time>
      </trkpt>
      <trkpt lat="47.2896" lon="-2.38823">
        <ele>1.6000000238419</ele>
        <time>2019-07-07T10:11:37.000Z</time>
      </trkpt>
      <trkpt lat="47.2896" lon="-2.38751">
        <ele>1.6000000238419</ele>
        <time>2019-07-07T10:11:44.000Z</time>
      </trkpt>
      <trkpt lat="47.28958" lon="-2.38675">
        <ele>1.6000000238419</ele>
        <time>2019-07-07T10:11:51.000Z</time>
      </trkpt>
      <trkpt lat="47.28958" lon="-2.38664">
        <ele>2</ele>
        <time>2019-07-07T10:11:52.000Z</time>
      </trkpt>
      <trkpt lat="47.28957" lon="-2.38654">
        <ele>2.4000000953674</ele>
        <time>2019-07-07T10:11:53.000Z</time>
      </trkpt>
      <trkpt lat="47.28957" lon="-2.38643">
        <ele>2.7999999523163</ele>
        <time>2019-07-07T10:11:54.000Z</time>
      </trkpt>
      <trkpt lat="47.28957" lon="-2.38632">
        <ele>3.5999999046326</ele>
        <time>2019-07-07T10:11:55.000Z</time>
      </trkpt>
      <trkpt lat="47.28955" lon="-2.38587">
        <ele>3.5999999046326</ele>
        <time>2019-07-07T10:11:59.000Z</time>
      </trkpt>
      <trkpt lat="47.28949" lon="-2.38521">
        <ele>3.5999999046326</ele>
        <time>2019-07-07T10:12:05.000Z</time>
      </trkpt>
      <trkpt lat="47.2894" lon="-2.38447">
        <ele>3.5999999046326</ele>
        <time>2019-07-07T10:12:12.000Z</time>
      </trkpt>
      <trkpt lat="47.28935" lon="-2.38376">
        <ele>3.5999999046326</ele>
        <time>2019-07-07T10:12:19.000Z</time>
      </trkpt>
      <trkpt lat="47.28933" lon="-2.38305">
        <ele>3.5999999046326</ele>
        <time>2019-07-07T10:12:26.000Z</time>
      </trkpt>
      <trkpt lat="47.28937" lon="-2.38247">
        <ele>3.5999999046326</ele>
        <time>2019-07-07T10:12:32.000Z</time>
      </trkpt>
      <trkpt lat="47.28932" lon="-2.38232">
        <ele>3.5999999046326</ele>
        <time>2019-07-07T10:12:34.000Z</time>
      </trkpt>
      <trkpt lat="47.28928" lon="-2.38227">
        <ele>3.5999999046326</ele>
        <time>2019-07-07T10:12:35.000Z</time>
      </trkpt>
      <trkpt lat="47.28906" lon="-2.38212">
        <ele>3.5999999046326</ele>
        <time>2019-07-07T10:12:40.000Z</time>
      </trkpt>
      <trkpt lat="47.28897" lon="-2.3819">
        <ele>3.5999999046326</ele>
        <time>2019-07-07T10:12:45.000Z</time>
      </trkpt>
      <trkpt lat="47.289" lon="-2.38147">
        <ele>3.5999999046326</ele>
        <time>2019-07-07T10:12:50.000Z</time>
      </trkpt>
      <trkpt lat="47.28904" lon="-2.38076">
        <ele>3.5999999046326</ele>
        <time>2019-07-07T10:12:58.000Z</time>
      </trkpt>
      <trkpt lat="47.28907" lon="-2.38019">
        <ele>3.5999999046326</ele>
        <time>2019-07-07T10:13:04.000Z</time>
      </trkpt>
      <trkpt lat="47.28909" lon="-2.38001">
        <ele>3.5999999046326</ele>
        <time>2019-07-07T10:13:06.000Z</time>
      </trkpt>
      <trkpt lat="47.28916" lon="-2.37914">
        <ele>3.5999999046326</ele>
        <time>2019-07-07T10:13:15.000Z</time>
      </trkpt>
      <trkpt lat="47.28921" lon="-2.37849">
        <ele>3.5999999046326</ele>
        <time>2019-07-07T10:13:22.000Z</time>
      </trkpt>
      <trkpt lat="47.28927" lon="-2.37782">
        <ele>3.5999999046326</ele>
        <time>2019-07-07T10:13:29.000Z</time>
      </trkpt>
      <trkpt lat="47.28933" lon="-2.37706">
        <ele>3.5999999046326</ele>
        <time>2019-07-07T10:13:37.000Z</time>
      </trkpt>
      <trkpt lat="47.28937" lon="-2.37642">
        <ele>3.5999999046326</ele>
        <time>2019-07-07T10:13:44.000Z</time>
      </trkpt>
      <trkpt lat="47.28939" lon="-2.37586">
        <ele>3.5999999046326</ele>
        <time>2019-07-07T10:13:50.000Z</time>
      </trkpt>
      <trkpt lat="47.28943" lon="-2.3753">
        <ele>3.5999999046326</ele>
        <time>2019-07-07T10:13:56.000Z</time>
      </trkpt>
      <trkpt lat="47.28948" lon="-2.37464">
        <ele>3.5999999046326</ele>
        <time>2019-07-07T10:14:03.000Z</time>
      </trkpt>
      <trkpt lat="47.28949" lon="-2.37424">
        <ele>3.5999999046326</ele>
        <time>2019-07-07T10:14:08.000Z</time>
      </trkpt>
      <trkpt lat="47.28947" lon="-2.37416">
        <ele>3.5999999046326</ele>
        <time>2019-07-07T10:14:09.000Z</time>
      </trkpt>
      <trkpt lat="47.28943" lon="-2.374">
        <ele>3.5999999046326</ele>
        <time>2019-07-07T10:14:12.000Z</time>
      </trkpt>
      <trkpt lat="47.28948" lon="-2.37375">
        <ele>3.5999999046326</ele>
        <time>2019-07-07T10:14:16.000Z</time>
      </trkpt>
      <trkpt lat="47.28952" lon="-2.37347">
        <ele>3.5999999046326</ele>
        <time>2019-07-07T10:14:20.000Z</time>
      </trkpt>
      <trkpt lat="47.28954" lon="-2.37339">
        <ele>4</ele>
        <time>2019-07-07T10:14:21.000Z</time>
      </trkpt>
      <trkpt lat="47.28955" lon="-2.37331">
        <ele>4.4000000953674</ele>
        <time>2019-07-07T10:14:22.000Z</time>
      </trkpt>
      <trkpt lat="47.28955" lon="-2.37323">
        <ele>5.1999998092651</ele>
        <time>2019-07-07T10:14:23.000Z</time>
      </trkpt>
      <trkpt lat="47.28956" lon="-2.37315">
        <ele>5.5999999046326</ele>
        <time>2019-07-07T10:14:24.000Z</time>
      </trkpt>
      <trkpt lat="47.28958" lon="-2.37292">
        <ele>5.5999999046326</ele>
        <time>2019-07-07T10:14:27.000Z</time>
      </trkpt>
      <trkpt lat="47.2896" lon="-2.37249">
        <ele>6</ele>
        <time>2019-07-07T10:14:33.000Z</time>
      </trkpt>
      <trkpt lat="47.2896" lon="-2.37242">
        <ele>6.4000000953674</ele>
        <time>2019-07-07T10:14:34.000Z</time>
      </trkpt>
      <trkpt lat="47.28961" lon="-2.37235">
        <ele>6.8000001907349</ele>
        <time>2019-07-07T10:14:35.000Z</time>
      </trkpt>
      <trkpt lat="47.28961" lon="-2.37228">
        <ele>7.1999998092651</ele>
        <time>2019-07-07T10:14:36.000Z</time>
      </trkpt>
      <trkpt lat="47.28961" lon="-2.37221">
        <ele>7.5999999046326</ele>
        <time>2019-07-07T10:14:37.000Z</time>
      </trkpt>
      <trkpt lat="47.2896" lon="-2.372">
        <ele>7.5999999046326</ele>
        <time>2019-07-07T10:14:41.000Z</time>
      </trkpt>
      <trkpt lat="47.28956" lon="-2.37197">
        <ele>7.5999999046326</ele>
        <time>2019-07-07T10:14:42.000Z</time>
      </trkpt>
      <trkpt lat="47.28947" lon="-2.37201">
        <ele>7.5999999046326</ele>
        <time>2019-07-07T10:14:44.000Z</time>
      </trkpt>
      <trkpt lat="47.28937" lon="-2.37207">
        <ele>7.5999999046326</ele>
        <time>2019-07-07T10:14:46.000Z</time>
      </trkpt>
      <trkpt lat="47.28919" lon="-2.37216">
        <ele>7.5999999046326</ele>
        <time>2019-07-07T10:14:49.000Z</time>
      </trkpt>
      <trkpt lat="47.28888" lon="-2.37229">
        <ele>7.5999999046326</ele>
        <time>2019-07-07T10:14:54.000Z</time>
      </trkpt>
      <trkpt lat="47.28863" lon="-2.37245">
        <ele>7.5999999046326</ele>
        <time>2019-07-07T10:14:59.000Z</time>
      </trkpt>
      <trkpt lat="47.28847" lon="-2.37243">
        <ele>7.5999999046326</ele>
        <time>2019-07-07T10:15:03.000Z</time>
      </trkpt>
      <trkpt lat="47.28845" lon="-2.37237">
        <ele>7.1999998092651</ele>
        <time>2019-07-07T10:15:04.000Z</time>
      </trkpt>
      <trkpt lat="47.28843" lon="-2.3723">
        <ele>6.8000001907349</ele>
        <time>2019-07-07T10:15:05.000Z</time>
      </trkpt>
      <trkpt lat="47.28842" lon="-2.37225">
        <ele>6.4000000953674</ele>
        <time>2019-07-07T10:15:06.000Z</time>
      </trkpt>
      <trkpt lat="47.2884" lon="-2.37219">
        <ele>6</ele>
        <time>2019-07-07T10:15:07.000Z</time>
      </trkpt>
      <trkpt lat="47.28839" lon="-2.37214">
        <ele>5.5999999046326</ele>
        <time>2019-07-07T10:15:08.000Z</time>
      </trkpt>
      <trkpt lat="47.28835" lon="-2.37188">
        <ele>5.5999999046326</ele>
        <time>2019-07-07T10:15:12.000Z</time>
      </trkpt>
      <trkpt lat="47.28828" lon="-2.37139">
        <ele>5.5999999046326</ele>
        <time>2019-07-07T10:15:19.000Z</time>
      </trkpt>
      <trkpt lat="47.2883" lon="-2.37114">
        <ele>5.5999999046326</ele>
        <time>2019-07-07T10:15:23.000Z</time>
      </trkpt>
      <trkpt lat="47.2883" lon="-2.37102">
        <ele>5.5999999046326</ele>
        <time>2019-07-07T10:15:25.000Z</time>
      </trkpt>
      <trkpt lat="47.28827" lon="-2.37083">
        <ele>5.5999999046326</ele>
        <time>2019-07-07T10:15:28.000Z</time>
      </trkpt>
      <trkpt lat="47.28825" lon="-2.37069">
        <ele>5.5999999046326</ele>
        <time>2019-07-07T10:15:30.000Z</time>
      </trkpt>
      <trkpt lat="47.28818" lon="-2.37049">
        <ele>5.5999999046326</ele>
        <time>2019-07-07T10:15:33.000Z</time>
      </trkpt>
      <trkpt lat="47.28815" lon="-2.37043">
        <ele>5.5999999046326</ele>
        <time>2019-07-07T10:15:34.000Z</time>
      </trkpt>
      <trkpt lat="47.28804" lon="-2.37011">
        <ele>5.5999999046326</ele>
        <time>2019-07-07T10:15:38.000Z</time>
      </trkpt>
      <trkpt lat="47.28792" lon="-2.36973">
        <ele>6</ele>
        <time>2019-07-07T10:15:43.000Z</time>
      </trkpt>
      <trkpt lat="47.28789" lon="-2.36966">
        <ele>6.4000000953674</ele>
        <time>2019-07-07T10:15:44.000Z</time>
      </trkpt>
      <trkpt lat="47.28787" lon="-2.36959">
        <ele>6.8000001907349</ele>
        <time>2019-07-07T10:15:45.000Z</time>
      </trkpt>
      <trkpt lat="47.28786" lon="-2.3695">
        <ele>7.1999998092651</ele>
        <time>2019-07-07T10:15:46.000Z</time>
      </trkpt>
      <trkpt lat="47.28784" lon="-2.36941">
        <ele>7.5999999046326</ele>
        <time>2019-07-07T10:15:47.000Z</time>
      </trkpt>
      <trkpt lat="47.28781" lon="-2.36926">
        <ele>7.5999999046326</ele>
        <time>2019-07-07T10:15:49.000Z</time>
      </trkpt>
      <trkpt lat="47.28769" lon="-2.36914">
        <ele>7.5999999046326</ele>
        <time>2019-07-07T10:15:52.000Z</time>
      </trkpt>
      <trkpt lat="47.28761" lon="-2.36911">
        <ele>7.5999999046326</ele>
        <time>2019-07-07T10:15:54.000Z</time>
      </trkpt>
      <trkpt lat="47.2875" lon="-2.36912">
        <ele>7.5999999046326</ele>
        <time>2019-07-07T10:15:57.000Z</time>
      </trkpt>
      <trkpt lat="47.28744" lon="-2.36912">
        <ele>8.1999998092651</ele>
        <time>2019-07-07T10:15:59.000Z</time>
      </trkpt>
      <trkpt lat="47.28741" lon="-2.36913">
        <ele>8.6000003814697</ele>
        <time>2019-07-07T10:16:00.000Z</time>
      </trkpt>
      <trkpt lat="47.28738" lon="-2.36915">
        <ele>9</ele>
        <time>2019-07-07T10:16:01.000Z</time>
      </trkpt>
      <trkpt lat="47.28736" lon="-2.36916">
        <ele>10</ele>
        <time>2019-07-07T10:16:02.000Z</time>
      </trkpt>
      <trkpt lat="47.28732" lon="-2.36916">
        <ele>10</ele>
        <time>2019-07-07T10:16:03.000Z</time>
      </trkpt>
      <trkpt lat="47.28723" lon="-2.36915">
        <ele>10.39999961853</ele>
        <time>2019-07-07T10:16:06.000Z</time>
      </trkpt>
      <trkpt lat="47.2872" lon="-2.36914">
        <ele>11</ele>
        <time>2019-07-07T10:16:07.000Z</time>
      </trkpt>
      <trkpt lat="47.28718" lon="-2.36912">
        <ele>11.39999961853</ele>
        <time>2019-07-07T10:16:08.000Z</time>
      </trkpt>
      <trkpt lat="47.28716" lon="-2.36909">
        <ele>12</ele>
        <time>2019-07-07T10:16:09.000Z</time>
      </trkpt>
      <trkpt lat="47.28715" lon="-2.36905">
        <ele>12.39999961853</ele>
        <time>2019-07-07T10:16:10.000Z</time>
      </trkpt>
      <trkpt lat="47.28713" lon="-2.36902">
        <ele>12.800000190735</ele>
        <time>2019-07-07T10:16:11.000Z</time>
      </trkpt>
      <trkpt lat="47.28711" lon="-2.36898">
        <ele>13.199999809265</ele>
        <time>2019-07-07T10:16:12.000Z</time>
      </trkpt>
      <trkpt lat="47.28709" lon="-2.36894">
        <ele>13.60000038147</ele>
        <time>2019-07-07T10:16:13.000Z</time>
      </trkpt>
      <trkpt lat="47.28707" lon="-2.36889">
        <ele>14</ele>
        <time>2019-07-07T10:16:14.000Z</time>
      </trkpt>
      <trkpt lat="47.28706" lon="-2.36887">
        <ele>14.39999961853</ele>
        <time>2019-07-07T10:16:15.000Z</time>
      </trkpt>
      <trkpt lat="47.28703" lon="-2.36881">
        <ele>14.39999961853</ele>
        <time>2019-07-07T10:16:17.000Z</time>
      </trkpt>
      <trkpt lat="47.28689" lon="-2.36857">
        <ele>14.39999961853</ele>
        <time>2019-07-07T10:16:24.000Z</time>
      </trkpt>
      <trkpt lat="47.28688" lon="-2.36853">
        <ele>14.800000190735</ele>
        <time>2019-07-07T10:16:25.000Z</time>
      </trkpt>
      <trkpt lat="47.28685" lon="-2.36849">
        <ele>15.800000190735</ele>
        <time>2019-07-07T10:16:26.000Z</time>
      </trkpt>
      <trkpt lat="47.28683" lon="-2.36844">
        <ele>16.200000762939</ele>
        <time>2019-07-07T10:16:27.000Z</time>
      </trkpt>
      <trkpt lat="47.28682" lon="-2.3684">
        <ele>16.60000038147</ele>
        <time>2019-07-07T10:16:28.000Z</time>
      </trkpt>
      <trkpt lat="47.2868" lon="-2.36836">
        <ele>16.60000038147</ele>
        <time>2019-07-07T10:16:29.000Z</time>
      </trkpt>
      <trkpt lat="47.28669" lon="-2.36818">
        <ele>16.60000038147</ele>
        <time>2019-07-07T10:16:34.000Z</time>
      </trkpt>
      <trkpt lat="47.28664" lon="-2.36817">
        <ele>16.60000038147</ele>
        <time>2019-07-07T10:16:35.000Z</time>
      </trkpt>
      <trkpt lat="47.28654" lon="-2.36821">
        <ele>16.60000038147</ele>
        <time>2019-07-07T10:16:37.000Z</time>
      </trkpt>
      <trkpt lat="47.28628" lon="-2.36842">
        <ele>16.60000038147</ele>
        <time>2019-07-07T10:16:42.000Z</time>
      </trkpt>
      <trkpt lat="47.28617" lon="-2.36851">
        <ele>16.60000038147</ele>
        <time>2019-07-07T10:16:44.000Z</time>
      </trkpt>
      <trkpt lat="47.28604" lon="-2.36852">
        <ele>16.60000038147</ele>
        <time>2019-07-07T10:16:46.000Z</time>
      </trkpt>
      <trkpt lat="47.28589" lon="-2.36839">
        <ele>16.60000038147</ele>
        <time>2019-07-07T10:16:49.000Z</time>
      </trkpt>
      <trkpt lat="47.28579" lon="-2.36818">
        <ele>16.60000038147</ele>
        <time>2019-07-07T10:16:52.000Z</time>
      </trkpt>
      <trkpt lat="47.28575" lon="-2.36812">
        <ele>16.60000038147</ele>
        <time>2019-07-07T10:16:53.000Z</time>
      </trkpt>
      <trkpt lat="47.28555" lon="-2.36774">
        <ele>16.60000038147</ele>
        <time>2019-07-07T10:16:59.000Z</time>
      </trkpt>
      <trkpt lat="47.28551" lon="-2.36769">
        <ele>16.60000038147</ele>
        <time>2019-07-07T10:17:00.000Z</time>
      </trkpt>
      <trkpt lat="47.28548" lon="-2.36763">
        <ele>16.60000038147</ele>
        <time>2019-07-07T10:17:01.000Z</time>
      </trkpt>
      <trkpt lat="47.2854" lon="-2.36746">
        <ele>16.60000038147</ele>
        <time>2019-07-07T10:17:04.000Z</time>
      </trkpt>
      <trkpt lat="47.28534" lon="-2.36737">
        <ele>16.60000038147</ele>
        <time>2019-07-07T10:17:06.000Z</time>
      </trkpt>
      <trkpt lat="47.28525" lon="-2.36719">
        <ele>17</ele>
        <time>2019-07-07T10:17:10.000Z</time>
      </trkpt>
      <trkpt lat="47.28523" lon="-2.36716">
        <ele>17.39999961853</ele>
        <time>2019-07-07T10:17:11.000Z</time>
      </trkpt>
      <trkpt lat="47.28521" lon="-2.36714">
        <ele>18</ele>
        <time>2019-07-07T10:17:12.000Z</time>
      </trkpt>
      <trkpt lat="47.28519" lon="-2.36711">
        <ele>18.39999961853</ele>
        <time>2019-07-07T10:17:13.000Z</time>
      </trkpt>
      <trkpt lat="47.28517" lon="-2.36708">
        <ele>18.799999237061</ele>
        <time>2019-07-07T10:17:14.000Z</time>
      </trkpt>
      <trkpt lat="47.28514" lon="-2.367">
        <ele>18.799999237061</ele>
        <time>2019-07-07T10:17:17.000Z</time>
      </trkpt>
      <trkpt lat="47.2851" lon="-2.36694">
        <ele>19.200000762939</ele>
        <time>2019-07-07T10:17:19.000Z</time>
      </trkpt>
      <trkpt lat="47.28507" lon="-2.36691">
        <ele>19.60000038147</ele>
        <time>2019-07-07T10:17:20.000Z</time>
      </trkpt>
      <trkpt lat="47.28505" lon="-2.3669">
        <ele>20</ele>
        <time>2019-07-07T10:17:21.000Z</time>
      </trkpt>
      <trkpt lat="47.28502" lon="-2.36689">
        <ele>20.39999961853</ele>
        <time>2019-07-07T10:17:22.000Z</time>
      </trkpt>
      <trkpt lat="47.28499" lon="-2.36688">
        <ele>20.799999237061</ele>
        <time>2019-07-07T10:17:23.000Z</time>
      </trkpt>
      <trkpt lat="47.2849" lon="-2.3669">
        <ele>20.799999237061</ele>
        <time>2019-07-07T10:17:26.000Z</time>
      </trkpt>
      <trkpt lat="47.28469" lon="-2.36704">
        <ele>20.799999237061</ele>
        <time>2019-07-07T10:17:32.000Z</time>
      </trkpt>
      <trkpt lat="47.28447" lon="-2.36721">
        <ele>20.799999237061</ele>
        <time>2019-07-07T10:17:39.000Z</time>
      </trkpt>
      <trkpt lat="47.28444" lon="-2.36718">
        <ele>20.799999237061</ele>
        <time>2019-07-07T10:17:40.000Z</time>
      </trkpt>
      <trkpt lat="47.28438" lon="-2.36702">
        <ele>20.799999237061</ele>
        <time>2019-07-07T10:17:43.000Z</time>
      </trkpt>
      <trkpt lat="47.28431" lon="-2.36687">
        <ele>20.799999237061</ele>
        <time>2019-07-07T10:17:46.000Z</time>
      </trkpt>
      <trkpt lat="47.28423" lon="-2.3667">
        <ele>20.799999237061</ele>
        <time>2019-07-07T10:17:49.000Z</time>
      </trkpt>
      <trkpt lat="47.28418" lon="-2.36659">
        <ele>20.799999237061</ele>
        <time>2019-07-07T10:17:51.000Z</time>
      </trkpt>
      <trkpt lat="47.28406" lon="-2.36644">
        <ele>20.799999237061</ele>
        <time>2019-07-07T10:17:54.000Z</time>
      </trkpt>
      <trkpt lat="47.28385" lon="-2.36612">
        <ele>20.799999237061</ele>
        <time>2019-07-07T10:17:59.000Z</time>
      </trkpt>
      <trkpt lat="47.28364" lon="-2.36583">
        <ele>20.39999961853</ele>
        <time>2019-07-07T10:18:03.000Z</time>
      </trkpt>
      <trkpt lat="47.28357" lon="-2.36581">
        <ele>20</ele>
        <time>2019-07-07T10:18:04.000Z</time>
      </trkpt>
      <trkpt lat="47.28349" lon="-2.36583">
        <ele>19.200000762939</ele>
        <time>2019-07-07T10:18:05.000Z</time>
      </trkpt>
      <trkpt lat="47.28343" lon="-2.36588">
        <ele>17.60000038147</ele>
        <time>2019-07-07T10:18:06.000Z</time>
      </trkpt>
      <trkpt lat="47.28337" lon="-2.36596">
        <ele>16.799999237061</ele>
        <time>2019-07-07T10:18:07.000Z</time>
      </trkpt>
      <trkpt lat="47.28331" lon="-2.36603">
        <ele>16.200000762939</ele>
        <time>2019-07-07T10:18:08.000Z</time>
      </trkpt>
      <trkpt lat="47.28318" lon="-2.36619">
        <ele>16.200000762939</ele>
        <time>2019-07-07T10:18:10.000Z</time>
      </trkpt>
      <trkpt lat="47.28312" lon="-2.36626">
        <ele>15.60000038147</ele>
        <time>2019-07-07T10:18:11.000Z</time>
      </trkpt>
      <trkpt lat="47.28306" lon="-2.36635">
        <ele>15.199999809265</ele>
        <time>2019-07-07T10:18:12.000Z</time>
      </trkpt>
      <trkpt lat="47.28299" lon="-2.36643">
        <ele>14.800000190735</ele>
        <time>2019-07-07T10:18:13.000Z</time>
      </trkpt>
      <trkpt lat="47.28292" lon="-2.36652">
        <ele>14.199999809265</ele>
        <time>2019-07-07T10:18:14.000Z</time>
      </trkpt>
      <trkpt lat="47.28285" lon="-2.3666">
        <ele>13.60000038147</ele>
        <time>2019-07-07T10:18:15.000Z</time>
      </trkpt>
      <trkpt lat="47.28278" lon="-2.36668">
        <ele>13</ele>
        <time>2019-07-07T10:18:16.000Z</time>
      </trkpt>
      <trkpt lat="47.28271" lon="-2.36676">
        <ele>12.39999961853</ele>
        <time>2019-07-07T10:18:17.000Z</time>
      </trkpt>
      <trkpt lat="47.28265" lon="-2.36683">
        <ele>11.60000038147</ele>
        <time>2019-07-07T10:18:18.000Z</time>
      </trkpt>
      <trkpt lat="47.28245" lon="-2.36707">
        <ele>11.199999809265</ele>
        <time>2019-07-07T10:18:21.000Z</time>
      </trkpt>
      <trkpt lat="47.28238" lon="-2.36716">
        <ele>10.60000038147</ele>
        <time>2019-07-07T10:18:22.000Z</time>
      </trkpt>
      <trkpt lat="47.28231" lon="-2.36724">
        <ele>10</ele>
        <time>2019-07-07T10:18:23.000Z</time>
      </trkpt>
      <trkpt lat="47.28225" lon="-2.36731">
        <ele>9.3999996185303</ele>
        <time>2019-07-07T10:18:24.000Z</time>
      </trkpt>
      <trkpt lat="47.28219" lon="-2.36738">
        <ele>9</ele>
        <time>2019-07-07T10:18:25.000Z</time>
      </trkpt>
      <trkpt lat="47.28202" lon="-2.36756">
        <ele>8.6000003814697</ele>
        <time>2019-07-07T10:18:28.000Z</time>
      </trkpt>
      <trkpt lat="47.28196" lon="-2.36763">
        <ele>8.1999998092651</ele>
        <time>2019-07-07T10:18:29.000Z</time>
      </trkpt>
      <trkpt lat="47.28191" lon="-2.36769">
        <ele>7.8000001907349</ele>
        <time>2019-07-07T10:18:30.000Z</time>
      </trkpt>
      <trkpt lat="47.28185" lon="-2.36775">
        <ele>6.8000001907349</ele>
        <time>2019-07-07T10:18:31.000Z</time>
      </trkpt>
      <trkpt lat="47.2816" lon="-2.36803">
        <ele>6.4000000953674</ele>
        <time>2019-07-07T10:18:36.000Z</time>
      </trkpt>
      <trkpt lat="47.28155" lon="-2.36807">
        <ele>5.8000001907349</ele>
        <time>2019-07-07T10:18:37.000Z</time>
      </trkpt>
      <trkpt lat="47.2815" lon="-2.3681">
        <ele>5.4000000953674</ele>
        <time>2019-07-07T10:18:38.000Z</time>
      </trkpt>
      <trkpt lat="47.28145" lon="-2.36814">
        <ele>4.8000001907349</ele>
        <time>2019-07-07T10:18:39.000Z</time>
      </trkpt>
      <trkpt lat="47.28143" lon="-2.36822">
        <ele>4.4000000953674</ele>
        <time>2019-07-07T10:18:40.000Z</time>
      </trkpt>
      <trkpt lat="47.28142" lon="-2.3683">
        <ele>4.4000000953674</ele>
        <time>2019-07-07T10:18:41.000Z</time>
      </trkpt>
      <trkpt lat="47.28141" lon="-2.36849">
        <ele>3.7999999523163</ele>
        <time>2019-07-07T10:18:43.000Z</time>
      </trkpt>
      <trkpt lat="47.28141" lon="-2.36859">
        <ele>3.4000000953674</ele>
        <time>2019-07-07T10:18:44.000Z</time>
      </trkpt>
      <trkpt lat="47.28139" lon="-2.36868">
        <ele>3</ele>
        <time>2019-07-07T10:18:45.000Z</time>
      </trkpt>
      <trkpt lat="47.28136" lon="-2.36875">
        <ele>2.5999999046326</ele>
        <time>2019-07-07T10:18:46.000Z</time>
      </trkpt>
      <trkpt lat="47.28132" lon="-2.36882">
        <ele>2.2000000476837</ele>
        <time>2019-07-07T10:18:47.000Z</time>
      </trkpt>
      <trkpt lat="47.28127" lon="-2.36885">
        <ele>2.2000000476837</ele>
        <time>2019-07-07T10:18:48.000Z</time>
      </trkpt>
      <trkpt lat="47.2811" lon="-2.36891">
        <ele>2.2000000476837</ele>
        <time>2019-07-07T10:18:51.000Z</time>
      </trkpt>
      <trkpt lat="47.28104" lon="-2.36891">
        <ele>2.2000000476837</ele>
        <time>2019-07-07T10:18:52.000Z</time>
      </trkpt>
      <trkpt lat="47.28081" lon="-2.36896">
        <ele>2.2000000476837</ele>
        <time>2019-07-07T10:18:56.000Z</time>
      </trkpt>
      <trkpt lat="47.28067" lon="-2.36913">
        <ele>2.2000000476837</ele>
        <time>2019-07-07T10:18:59.000Z</time>
      </trkpt>
      <trkpt lat="47.28063" lon="-2.36919">
        <ele>2.2000000476837</ele>
        <time>2019-07-07T10:19:00.000Z</time>
      </trkpt>
      <trkpt lat="47.28056" lon="-2.36927">
        <ele>2.2000000476837</ele>
        <time>2019-07-07T10:19:03.000Z</time>
      </trkpt>
      <trkpt lat="47.2805" lon="-2.36932">
        <ele>2.2000000476837</ele>
        <time>2019-07-07T10:19:08.000Z</time>
      </trkpt>
      <trkpt lat="47.28049" lon="-2.36933">
        <ele>2.2000000476837</ele>
        <time>2019-07-07T10:19:09.000Z</time>
      </trkpt>
      <trkpt lat="47.28038" lon="-2.36946">
        <ele>2.2000000476837</ele>
        <time>2019-07-07T10:19:14.000Z</time>
      </trkpt>
      <trkpt lat="47.28021" lon="-2.36965">
        <ele>2.2000000476837</ele>
        <time>2019-07-07T10:19:19.000Z</time>
      </trkpt>
      <trkpt lat="47.27997" lon="-2.36993">
        <ele>2.2000000476837</ele>
        <time>2019-07-07T10:19:25.000Z</time>
      </trkpt>
      <trkpt lat="47.27979" lon="-2.37013">
        <ele>2.2000000476837</ele>
        <time>2019-07-07T10:19:29.000Z</time>
      </trkpt>
      <trkpt lat="47.27966" lon="-2.37027">
        <ele>2.2000000476837</ele>
        <time>2019-07-07T10:19:32.000Z</time>
      </trkpt>
      <trkpt lat="47.27938" lon="-2.37061">
        <ele>2.2000000476837</ele>
        <time>2019-07-07T10:19:39.000Z</time>
      </trkpt>
      <trkpt lat="47.27922" lon="-2.37078">
        <ele>2.2000000476837</ele>
        <time>2019-07-07T10:19:44.000Z</time>
      </trkpt>
      <trkpt lat="47.27899" lon="-2.37102">
        <ele>2.5999999046326</ele>
        <time>2019-07-07T10:19:50.000Z</time>
      </trkpt>
      <trkpt lat="47.27895" lon="-2.37106">
        <ele>3.2000000476837</ele>
        <time>2019-07-07T10:19:51.000Z</time>
      </trkpt>
      <trkpt lat="47.27891" lon="-2.37111">
        <ele>3.5999999046326</ele>
        <time>2019-07-07T10:19:52.000Z</time>
      </trkpt>
      <trkpt lat="47.27887" lon="-2.37115">
        <ele>4</ele>
        <time>2019-07-07T10:19:53.000Z</time>
      </trkpt>
      <trkpt lat="47.27883" lon="-2.3712">
        <ele>4.4000000953674</ele>
        <time>2019-07-07T10:19:54.000Z</time>
      </trkpt>
      <trkpt lat="47.27873" lon="-2.37133">
        <ele>4.4000000953674</ele>
        <time>2019-07-07T10:19:57.000Z</time>
      </trkpt>
      <trkpt lat="47.27859" lon="-2.3715">
        <ele>4.4000000953674</ele>
        <time>2019-07-07T10:20:01.000Z</time>
      </trkpt>
      <trkpt lat="47.2785" lon="-2.37158">
        <ele>4.4000000953674</ele>
        <time>2019-07-07T10:20:03.000Z</time>
      </trkpt>
      <trkpt lat="47.27842" lon="-2.37166">
        <ele>4.4000000953674</ele>
        <time>2019-07-07T10:20:05.000Z</time>
      </trkpt>
      <trkpt lat="47.27832" lon="-2.37189">
        <ele>4.4000000953674</ele>
        <time>2019-07-07T10:20:09.000Z</time>
      </trkpt>
      <trkpt lat="47.2783" lon="-2.37195">
        <ele>4.4000000953674</ele>
        <time>2019-07-07T10:20:10.000Z</time>
      </trkpt>
      <trkpt lat="47.27827" lon="-2.37198">
        <ele>4.4000000953674</ele>
        <time>2019-07-07T10:20:11.000Z</time>
      </trkpt>
      <trkpt lat="47.27819" lon="-2.37197">
        <ele>4.4000000953674</ele>
        <time>2019-07-07T10:20:13.000Z</time>
      </trkpt>
      <trkpt lat="47.27814" lon="-2.37184">
        <ele>4.4000000953674</ele>
        <time>2019-07-07T10:20:15.000Z</time>
      </trkpt>
      <trkpt lat="47.27809" lon="-2.37163">
        <ele>4.4000000953674</ele>
        <time>2019-07-07T10:20:18.000Z</time>
      </trkpt>
      <trkpt lat="47.27797" lon="-2.37127">
        <ele>4.4000000953674</ele>
        <time>2019-07-07T10:20:23.000Z</time>
      </trkpt>
      <trkpt lat="47.2778" lon="-2.37062">
        <ele>4.4000000953674</ele>
        <time>2019-07-07T10:20:31.000Z</time>
      </trkpt>
      <trkpt lat="47.27763" lon="-2.36998">
        <ele>4.4000000953674</ele>
        <time>2019-07-07T10:20:39.000Z</time>
      </trkpt>
      <trkpt lat="47.27743" lon="-2.36927">
        <ele>4.4000000953674</ele>
        <time>2019-07-07T10:20:48.000Z</time>
      </trkpt>
      <trkpt lat="47.27735" lon="-2.36896">
        <ele>4.4000000953674</ele>
        <time>2019-07-07T10:20:52.000Z</time>
      </trkpt>
      <trkpt lat="47.27728" lon="-2.36872">
        <ele>4.4000000953674</ele>
        <time>2019-07-07T10:20:55.000Z</time>
      </trkpt>
      <trkpt lat="47.27714" lon="-2.36824">
        <ele>4.4000000953674</ele>
        <time>2019-07-07T10:21:01.000Z</time>
      </trkpt>
      <trkpt lat="47.27694" lon="-2.36759">
        <ele>4.4000000953674</ele>
        <time>2019-07-07T10:21:09.000Z</time>
      </trkpt>
      <trkpt lat="47.27668" lon="-2.36686">
        <ele>4.4000000953674</ele>
        <time>2019-07-07T10:21:18.000Z</time>
      </trkpt>
      <trkpt lat="47.27662" lon="-2.36669">
        <ele>4.4000000953674</ele>
        <time>2019-07-07T10:21:20.000Z</time>
      </trkpt>
      <trkpt lat="47.27638" lon="-2.36599">
        <ele>4.4000000953674</ele>
        <time>2019-07-07T10:21:28.000Z</time>
      </trkpt>
      <trkpt lat="47.27616" lon="-2.36535">
        <ele>4.4000000953674</ele>
        <time>2019-07-07T10:21:35.000Z</time>
      </trkpt>
      <trkpt lat="47.27589" lon="-2.36464">
        <ele>4.4000000953674</ele>
        <time>2019-07-07T10:21:43.000Z</time>
      </trkpt>
      <trkpt lat="47.27585" lon="-2.36455">
        <ele>4.4000000953674</ele>
        <time>2019-07-07T10:21:44.000Z</time>
      </trkpt>
      <trkpt lat="47.2756" lon="-2.36386">
        <ele>4.4000000953674</ele>
        <time>2019-07-07T10:21:52.000Z</time>
      </trkpt>
      <trkpt lat="47.27533" lon="-2.36315">
        <ele>4.4000000953674</ele>
        <time>2019-07-07T10:22:00.000Z</time>
      </trkpt>
      <trkpt lat="47.27527" lon="-2.36298">
        <ele>4.4000000953674</ele>
        <time>2019-07-07T10:22:02.000Z</time>
      </trkpt>
      <trkpt lat="47.27499" lon="-2.36226">
        <ele>4.4000000953674</ele>
        <time>2019-07-07T10:22:10.000Z</time>
      </trkpt>
      <trkpt lat="47.27474" lon="-2.36153">
        <ele>4.4000000953674</ele>
        <time>2019-07-07T10:22:18.000Z</time>
      </trkpt>
      <trkpt lat="47.27461" lon="-2.36107">
        <ele>4.4000000953674</ele>
        <time>2019-07-07T10:22:23.000Z</time>
      </trkpt>
      <trkpt lat="47.27457" lon="-2.36099">
        <ele>4.4000000953674</ele>
        <time>2019-07-07T10:22:24.000Z</time>
      </trkpt>
      <trkpt lat="47.27441" lon="-2.36067">
        <ele>4.4000000953674</ele>
        <time>2019-07-07T10:22:28.000Z</time>
      </trkpt>
      <trkpt lat="47.27438" lon="-2.36058">
        <ele>4.4000000953674</ele>
        <time>2019-07-07T10:22:29.000Z</time>
      </trkpt>
      <trkpt lat="47.27413" lon="-2.36">
        <ele>4.4000000953674</ele>
        <time>2019-07-07T10:22:36.000Z</time>
      </trkpt>
      <trkpt lat="47.27391" lon="-2.35949">
        <ele>4.4000000953674</ele>
        <time>2019-07-07T10:22:42.000Z</time>
      </trkpt>
      <trkpt lat="47.27371" lon="-2.35893">
        <ele>4.4000000953674</ele>
        <time>2019-07-07T10:22:48.000Z</time>
      </trkpt>
      <trkpt lat="47.27345" lon="-2.3583">
        <ele>4.4000000953674</ele>
        <time>2019-07-07T10:22:55.000Z</time>
      </trkpt>
      <trkpt lat="47.27327" lon="-2.35785">
        <ele>4.4000000953674</ele>
        <time>2019-07-07T10:23:00.000Z</time>
      </trkpt>
      <trkpt lat="47.27321" lon="-2.35766">
        <ele>4.4000000953674</ele>
        <time>2019-07-07T10:23:02.000Z</time>
      </trkpt>
      <trkpt lat="47.27314" lon="-2.35749">
        <ele>4.4000000953674</ele>
        <time>2019-07-07T10:23:04.000Z</time>
      </trkpt>
      <trkpt lat="47.27302" lon="-2.35722">
        <ele>4.4000000953674</ele>
        <time>2019-07-07T10:23:07.000Z</time>
      </trkpt>
      <trkpt lat="47.27292" lon="-2.35696">
        <ele>4.4000000953674</ele>
        <time>2019-07-07T10:23:10.000Z</time>
      </trkpt>
      <trkpt lat="47.27283" lon="-2.35681">
        <ele>4.4000000953674</ele>
        <time>2019-07-07T10:23:12.000Z</time>
      </trkpt>
      <trkpt lat="47.27258" lon="-2.35624">
        <ele>4.4000000953674</ele>
        <time>2019-07-07T10:23:19.000Z</time>
      </trkpt>
      <trkpt lat="47.27226" lon="-2.35551">
        <ele>4.4000000953674</ele>
        <time>2019-07-07T10:23:28.000Z</time>
      </trkpt>
      <trkpt lat="47.27198" lon="-2.35492">
        <ele>4.4000000953674</ele>
        <time>2019-07-07T10:23:35.000Z</time>
      </trkpt>
      <trkpt lat="47.27171" lon="-2.35442">
        <ele>4.4000000953674</ele>
        <time>2019-07-07T10:23:41.000Z</time>
      </trkpt>
      <trkpt lat="47.27136" lon="-2.35377">
        <ele>4.4000000953674</ele>
        <time>2019-07-07T10:23:49.000Z</time>
      </trkpt>
      <trkpt lat="47.27132" lon="-2.35369">
        <ele>4.4000000953674</ele>
        <time>2019-07-07T10:23:50.000Z</time>
      </trkpt>
      <trkpt lat="47.27104" lon="-2.35323">
        <ele>4.4000000953674</ele>
        <time>2019-07-07T10:23:56.000Z</time>
      </trkpt>
      <trkpt lat="47.27072" lon="-2.35272">
        <ele>4.4000000953674</ele>
        <time>2019-07-07T10:24:03.000Z</time>
      </trkpt>
      <trkpt lat="47.27067" lon="-2.35265">
        <ele>4.4000000953674</ele>
        <time>2019-07-07T10:24:04.000Z</time>
      </trkpt>
      <trkpt lat="47.27033" lon="-2.35215">
        <ele>4.4000000953674</ele>
        <time>2019-07-07T10:24:11.000Z</time>
      </trkpt>
      <trkpt lat="47.27005" lon="-2.3517">
        <ele>4.4000000953674</ele>
        <time>2019-07-07T10:24:17.000Z</time>
      </trkpt>
      <trkpt lat="47.26971" lon="-2.35118">
        <ele>4.4000000953674</ele>
        <time>2019-07-07T10:24:24.000Z</time>
      </trkpt>
      <trkpt lat="47.26932" lon="-2.35058">
        <ele>4.4000000953674</ele>
        <time>2019-07-07T10:24:32.000Z</time>
      </trkpt>
      <trkpt lat="47.26927" lon="-2.35051">
        <ele>4.4000000953674</ele>
        <time>2019-07-07T10:24:33.000Z</time>
      </trkpt>
      <trkpt lat="47.26892" lon="-2.35">
        <ele>4.4000000953674</ele>
        <time>2019-07-07T10:24:40.000Z</time>
      </trkpt>
      <trkpt lat="47.26864" lon="-2.34955">
        <ele>4.4000000953674</ele>
        <time>2019-07-07T10:24:46.000Z</time>
      </trkpt>
      <trkpt lat="47.26831" lon="-2.34904">
        <ele>4.4000000953674</ele>
        <time>2019-07-07T10:24:53.000Z</time>
      </trkpt>
      <trkpt lat="47.26793" lon="-2.3485">
        <ele>4.4000000953674</ele>
        <time>2019-07-07T10:25:01.000Z</time>
      </trkpt>
      <trkpt lat="47.26755" lon="-2.34799">
        <ele>4.4000000953674</ele>
        <time>2019-07-07T10:25:09.000Z</time>
      </trkpt>
      <trkpt lat="47.26715" lon="-2.34751">
        <ele>4.4000000953674</ele>
        <time>2019-07-07T10:25:17.000Z</time>
      </trkpt>
      <trkpt lat="47.26675" lon="-2.347">
        <ele>4.4000000953674</ele>
        <time>2019-07-07T10:25:25.000Z</time>
      </trkpt>
      <trkpt lat="47.26634" lon="-2.34649">
        <ele>4.4000000953674</ele>
        <time>2019-07-07T10:25:33.000Z</time>
      </trkpt>
      <trkpt lat="47.26603" lon="-2.34613">
        <ele>4.4000000953674</ele>
        <time>2019-07-07T10:25:39.000Z</time>
      </trkpt>
      <trkpt lat="47.26563" lon="-2.34568">
        <ele>4.4000000953674</ele>
        <time>2019-07-07T10:25:47.000Z</time>
      </trkpt>
      <trkpt lat="47.26516" lon="-2.34522">
        <ele>4.4000000953674</ele>
        <time>2019-07-07T10:25:56.000Z</time>
      </trkpt>
      <trkpt lat="47.26468" lon="-2.34488">
        <ele>4.4000000953674</ele>
        <time>2019-07-07T10:26:04.000Z</time>
      </trkpt>
      <trkpt lat="47.26422" lon="-2.34455">
        <ele>4.4000000953674</ele>
        <time>2019-07-07T10:26:12.000Z</time>
      </trkpt>
      <trkpt lat="47.26382" lon="-2.34423">
        <ele>4.4000000953674</ele>
        <time>2019-07-07T10:26:19.000Z</time>
      </trkpt>
      <trkpt lat="47.26339" lon="-2.34384">
        <ele>4.4000000953674</ele>
        <time>2019-07-07T10:26:27.000Z</time>
      </trkpt>
      <trkpt lat="47.26333" lon="-2.34381">
        <ele>4.4000000953674</ele>
        <time>2019-07-07T10:26:28.000Z</time>
      </trkpt>
      <trkpt lat="47.26322" lon="-2.34376">
        <ele>4.4000000953674</ele>
        <time>2019-07-07T10:26:30.000Z</time>
      </trkpt>
      <trkpt lat="47.26309" lon="-2.34358">
        <ele>4.4000000953674</ele>
        <time>2019-07-07T10:26:33.000Z</time>
      </trkpt>
      <trkpt lat="47.263" lon="-2.34347">
        <ele>4.4000000953674</ele>
        <time>2019-07-07T10:26:35.000Z</time>
      </trkpt>
      <trkpt lat="47.26289" lon="-2.34336">
        <ele>4.4000000953674</ele>
        <time>2019-07-07T10:26:37.000Z</time>
      </trkpt>
      <trkpt lat="47.26257" lon="-2.34301">
        <ele>4.4000000953674</ele>
        <time>2019-07-07T10:26:43.000Z</time>
      </trkpt>
      <trkpt lat="47.26224" lon="-2.34267">
        <ele>4.4000000953674</ele>
        <time>2019-07-07T10:26:49.000Z</time>
      </trkpt>
      <trkpt lat="47.26177" lon="-2.34219">
        <ele>4.4000000953674</ele>
        <time>2019-07-07T10:26:58.000Z</time>
      </trkpt>
      <trkpt lat="47.26145" lon="-2.34189">
        <ele>4.4000000953674</ele>
        <time>2019-07-07T10:27:05.000Z</time>
      </trkpt>
      <trkpt lat="47.2613" lon="-2.34186">
        <ele>4.4000000953674</ele>
        <time>2019-07-07T10:27:08.000Z</time>
      </trkpt>
      <trkpt lat="47.26125" lon="-2.34182">
        <ele>4</ele>
        <time>2019-07-07T10:27:11.000Z</time>
      </trkpt>
      <trkpt lat="47.26124" lon="-2.34182">
        <ele>2.4000000953674</ele>
        <time>2019-07-07T10:27:30.000Z</time>
      </trkpt>
      <trkpt lat="47.26119" lon="-2.34182">
        <ele>2.4000000953674</ele>
        <time>2019-07-07T10:27:33.000Z</time>
      </trkpt>
      <trkpt lat="47.26112" lon="-2.34175">
        <ele>2.4000000953674</ele>
        <time>2019-07-07T10:27:38.000Z</time>
      </trkpt>
      <trkpt lat="47.26098" lon="-2.34164">
        <ele>2.4000000953674</ele>
        <time>2019-07-07T10:27:45.000Z</time>
      </trkpt>
      <trkpt lat="47.2609" lon="-2.34159">
        <ele>2.4000000953674</ele>
        <time>2019-07-07T10:27:52.000Z</time>
      </trkpt>
      <trkpt lat="47.2609" lon="-2.34159">
        <ele>2.4000000953674</ele>
        <time>2019-07-07T10:27:53.000Z</time>
      </trkpt>
      <trkpt lat="47.26078" lon="-2.34152">
        <ele>2.4000000953674</ele>
        <time>2019-07-07T10:29:21.000Z</time>
      </trkpt>
      <trkpt lat="47.26075" lon="-2.3415">
        <ele>2.4000000953674</ele>
        <time>2019-07-07T10:29:23.000Z</time>
      </trkpt>
      <trkpt lat="47.26066" lon="-2.34145">
        <ele>2.4000000953674</ele>
        <time>2019-07-07T10:29:31.000Z</time>
      </trkpt>
      <trkpt lat="47.26058" lon="-2.3414">
        <ele>2.4000000953674</ele>
        <time>2019-07-07T10:29:39.000Z</time>
      </trkpt>
      <trkpt lat="47.26051" lon="-2.34139">
        <ele>2.4000000953674</ele>
        <time>2019-07-07T10:29:45.000Z</time>
      </trkpt>
      <trkpt lat="47.2605" lon="-2.34139">
        <ele>2.4000000953674</ele>
        <time>2019-07-07T10:29:47.000Z</time>
      </trkpt>
      <trkpt lat="47.26049" lon="-2.3414">
        <ele>2.4000000953674</ele>
        <time>2019-07-07T10:30:03.000Z</time>
      </trkpt>
      <trkpt lat="47.26046" lon="-2.34142">
        <ele>2.4000000953674</ele>
        <time>2019-07-07T10:30:05.000Z</time>
      </trkpt>
      <trkpt lat="47.26043" lon="-2.34144">
        <ele>2.4000000953674</ele>
        <time>2019-07-07T10:30:08.000Z</time>
      </trkpt>
      <trkpt lat="47.26042" lon="-2.34146">
        <ele>2.4000000953674</ele>
        <time>2019-07-07T10:30:12.000Z</time>
      </trkpt>
      <trkpt lat="47.26041" lon="-2.34148">
        <ele>2.4000000953674</ele>
        <time>2019-07-07T10:30:14.000Z</time>
      </trkpt>
      <trkpt lat="47.2604" lon="-2.34141">
        <ele>2.4000000953674</ele>
        <time>2019-07-07T10:32:20.000Z</time>
      </trkpt>
      <trkpt lat="47.26039" lon="-2.3414">
        <ele>2.4000000953674</ele>
        <time>2019-07-07T10:32:21.000Z</time>
      </trkpt>
      <trkpt lat="47.26024" lon="-2.34131">
        <ele>2.4000000953674</ele>
        <time>2019-07-07T10:32:27.000Z</time>
      </trkpt>
      <trkpt lat="47.26005" lon="-2.34119">
        <ele>2.4000000953674</ele>
        <time>2019-07-07T10:32:34.000Z</time>
      </trkpt>
      <trkpt lat="47.25985" lon="-2.34112">
        <ele>2.4000000953674</ele>
        <time>2019-07-07T10:32:41.000Z</time>
      </trkpt>
      <trkpt lat="47.25968" lon="-2.34107">
        <ele>2.4000000953674</ele>
        <time>2019-07-07T10:32:47.000Z</time>
      </trkpt>
      <trkpt lat="47.25966" lon="-2.34106">
        <ele>2.4000000953674</ele>
        <time>2019-07-07T10:32:48.000Z</time>
      </trkpt>
      <trkpt lat="47.2596" lon="-2.34097">
        <ele>2.4000000953674</ele>
        <time>2019-07-07T10:32:52.000Z</time>
      </trkpt>
      <trkpt lat="47.25949" lon="-2.34093">
        <ele>2.4000000953674</ele>
        <time>2019-07-07T10:32:56.000Z</time>
      </trkpt>
      <trkpt lat="47.25941" lon="-2.34102">
        <ele>2.4000000953674</ele>
        <time>2019-07-07T10:32:59.000Z</time>
      </trkpt>
      <trkpt lat="47.25933" lon="-2.34121">
        <ele>2.4000000953674</ele>
        <time>2019-07-07T10:33:03.000Z</time>
      </trkpt>
      <trkpt lat="47.25927" lon="-2.34128">
        <ele>2.4000000953674</ele>
        <time>2019-07-07T10:33:05.000Z</time>
      </trkpt>
      <trkpt lat="47.2592" lon="-2.34133">
        <ele>2.4000000953674</ele>
        <time>2019-07-07T10:33:07.000Z</time>
      </trkpt>
      <trkpt lat="47.259" lon="-2.34144">
        <ele>2.4000000953674</ele>
        <time>2019-07-07T10:33:12.000Z</time>
      </trkpt>
      <trkpt lat="47.25889" lon="-2.34152">
        <ele>2.4000000953674</ele>
        <time>2019-07-07T10:33:15.000Z</time>
      </trkpt>
      <trkpt lat="47.25879" lon="-2.34162">
        <ele>2.4000000953674</ele>
        <time>2019-07-07T10:33:18.000Z</time>
      </trkpt>
      <trkpt lat="47.25865" lon="-2.34165">
        <ele>2.4000000953674</ele>
        <time>2019-07-07T10:33:22.000Z</time>
      </trkpt>
      <trkpt lat="47.25861" lon="-2.34164">
        <ele>2.4000000953674</ele>
        <time>2019-07-07T10:33:23.000Z</time>
      </trkpt>
      <trkpt lat="47.25847" lon="-2.3416">
        <ele>2.4000000953674</ele>
        <time>2019-07-07T10:33:27.000Z</time>
      </trkpt>
      <trkpt lat="47.25835" lon="-2.34159">
        <ele>2.4000000953674</ele>
        <time>2019-07-07T10:33:31.000Z</time>
      </trkpt>
      <trkpt lat="47.25835" lon="-2.34163">
        <ele>2.4000000953674</ele>
        <time>2019-07-07T10:33:32.000Z</time>
      </trkpt>
      <trkpt lat="47.25828" lon="-2.34177">
        <ele>2.4000000953674</ele>
        <time>2019-07-07T10:33:36.000Z</time>
      </trkpt>
      <trkpt lat="47.25821" lon="-2.34176">
        <ele>2.4000000953674</ele>
        <time>2019-07-07T10:33:38.000Z</time>
      </trkpt>
      <trkpt lat="47.25812" lon="-2.34175">
        <ele>2.4000000953674</ele>
        <time>2019-07-07T10:33:41.000Z</time>
      </trkpt>
      <trkpt lat="47.25792" lon="-2.34174">
        <ele>2.4000000953674</ele>
        <time>2019-07-07T10:33:47.000Z</time>
      </trkpt>
      <trkpt lat="47.25787" lon="-2.34175">
        <ele>2.4000000953674</ele>
        <time>2019-07-07T10:33:48.000Z</time>
      </trkpt>
      <trkpt lat="47.25778" lon="-2.34177">
        <ele>2.4000000953674</ele>
        <time>2019-07-07T10:33:50.000Z</time>
      </trkpt>
      <trkpt lat="47.25768" lon="-2.34179">
        <ele>2.4000000953674</ele>
        <time>2019-07-07T10:33:52.000Z</time>
      </trkpt>
      <trkpt lat="47.25738" lon="-2.34185">
        <ele>2.4000000953674</ele>
        <time>2019-07-07T10:33:58.000Z</time>
      </trkpt>
      <trkpt lat="47.25719" lon="-2.34188">
        <ele>2.4000000953674</ele>
        <time>2019-07-07T10:34:02.000Z</time>
      </trkpt>
      <trkpt lat="47.25705" lon="-2.34191">
        <ele>2.4000000953674</ele>
        <time>2019-07-07T10:34:05.000Z</time>
      </trkpt>
      <trkpt lat="47.25691" lon="-2.34193">
        <ele>2.4000000953674</ele>
        <time>2019-07-07T10:34:08.000Z</time>
      </trkpt>
      <trkpt lat="47.25677" lon="-2.34193">
        <ele>2.4000000953674</ele>
        <time>2019-07-07T10:34:11.000Z</time>
      </trkpt>
      <trkpt lat="47.25666" lon="-2.34182">
        <ele>2.4000000953674</ele>
        <time>2019-07-07T10:34:14.000Z</time>
      </trkpt>
      <trkpt lat="47.2566" lon="-2.34171">
        <ele>2.4000000953674</ele>
        <time>2019-07-07T10:34:16.000Z</time>
      </trkpt>
      <trkpt lat="47.25648" lon="-2.34148">
        <ele>2.4000000953674</ele>
        <time>2019-07-07T10:34:20.000Z</time>
      </trkpt>
      <trkpt lat="47.25645" lon="-2.34142">
        <ele>2.4000000953674</ele>
        <time>2019-07-07T10:34:21.000Z</time>
      </trkpt>
      <trkpt lat="47.2564" lon="-2.34123">
        <ele>2.4000000953674</ele>
        <time>2019-07-07T10:34:24.000Z</time>
      </trkpt>
      <trkpt lat="47.25639" lon="-2.34116">
        <ele>2.4000000953674</ele>
        <time>2019-07-07T10:34:25.000Z</time>
      </trkpt>
      <trkpt lat="47.25637" lon="-2.34089">
        <ele>3</ele>
        <time>2019-07-07T10:34:29.000Z</time>
      </trkpt>
      <trkpt lat="47.25638" lon="-2.34081">
        <ele>3.4000000953674</ele>
        <time>2019-07-07T10:34:30.000Z</time>
      </trkpt>
      <trkpt lat="47.25639" lon="-2.34075">
        <ele>3.7999999523163</ele>
        <time>2019-07-07T10:34:31.000Z</time>
      </trkpt>
      <trkpt lat="47.25641" lon="-2.34068">
        <ele>4.1999998092651</ele>
        <time>2019-07-07T10:34:32.000Z</time>
      </trkpt>
      <trkpt lat="47.25642" lon="-2.34062">
        <ele>4.5999999046326</ele>
        <time>2019-07-07T10:34:33.000Z</time>
      </trkpt>
      <trkpt lat="47.25648" lon="-2.34028">
        <ele>4.5999999046326</ele>
        <time>2019-07-07T10:34:38.000Z</time>
      </trkpt>
      <trkpt lat="47.2565" lon="-2.34014">
        <ele>4.5999999046326</ele>
        <time>2019-07-07T10:34:40.000Z</time>
      </trkpt>
      <trkpt lat="47.25655" lon="-2.33995">
        <ele>4.5999999046326</ele>
        <time>2019-07-07T10:34:43.000Z</time>
      </trkpt>
      <trkpt lat="47.25656" lon="-2.33988">
        <ele>4.5999999046326</ele>
        <time>2019-07-07T10:34:44.000Z</time>
      </trkpt>
      <trkpt lat="47.25657" lon="-2.3398">
        <ele>4.5999999046326</ele>
        <time>2019-07-07T10:34:45.000Z</time>
      </trkpt>
      <trkpt lat="47.25661" lon="-2.33952">
        <ele>4.5999999046326</ele>
        <time>2019-07-07T10:34:49.000Z</time>
      </trkpt>
      <trkpt lat="47.25661" lon="-2.33945">
        <ele>4.5999999046326</ele>
        <time>2019-07-07T10:34:50.000Z</time>
      </trkpt>
      <trkpt lat="47.25654" lon="-2.33901">
        <ele>4.5999999046326</ele>
        <time>2019-07-07T10:34:56.000Z</time>
      </trkpt>
      <trkpt lat="47.25643" lon="-2.33842">
        <ele>4.5999999046326</ele>
        <time>2019-07-07T10:35:04.000Z</time>
      </trkpt>
      <trkpt lat="47.25636" lon="-2.33797">
        <ele>4.5999999046326</ele>
        <time>2019-07-07T10:35:10.000Z</time>
      </trkpt>
      <trkpt lat="47.25625" lon="-2.33772">
        <ele>4.5999999046326</ele>
        <time>2019-07-07T10:35:15.000Z</time>
      </trkpt>
      <trkpt lat="47.25606" lon="-2.33761">
        <ele>4.5999999046326</ele>
        <time>2019-07-07T10:35:20.000Z</time>
      </trkpt>
      <trkpt lat="47.25591" lon="-2.33758">
        <ele>4.5999999046326</ele>
        <time>2019-07-07T10:35:23.000Z</time>
      </trkpt>
      <trkpt lat="47.25586" lon="-2.33759">
        <ele>5</ele>
        <time>2019-07-07T10:35:24.000Z</time>
      </trkpt>
      <trkpt lat="47.2558" lon="-2.3376">
        <ele>5.4000000953674</ele>
        <time>2019-07-07T10:35:25.000Z</time>
      </trkpt>
      <trkpt lat="47.25574" lon="-2.3376">
        <ele>5.8000001907349</ele>
        <time>2019-07-07T10:35:26.000Z</time>
      </trkpt>
      <trkpt lat="47.25569" lon="-2.3376">
        <ele>6.1999998092651</ele>
        <time>2019-07-07T10:35:27.000Z</time>
      </trkpt>
      <trkpt lat="47.25563" lon="-2.33761">
        <ele>6.5999999046326</ele>
        <time>2019-07-07T10:35:28.000Z</time>
      </trkpt>
      <trkpt lat="47.25551" lon="-2.33761">
        <ele>6.5999999046326</ele>
        <time>2019-07-07T10:35:30.000Z</time>
      </trkpt>
      <trkpt lat="47.25511" lon="-2.33759">
        <ele>6.5999999046326</ele>
        <time>2019-07-07T10:35:37.000Z</time>
      </trkpt>
      <trkpt lat="47.25501" lon="-2.33758">
        <ele>6.5999999046326</ele>
        <time>2019-07-07T10:35:39.000Z</time>
      </trkpt>
      <trkpt lat="47.25479" lon="-2.33755">
        <ele>6.5999999046326</ele>
        <time>2019-07-07T10:35:43.000Z</time>
      </trkpt>
      <trkpt lat="47.25467" lon="-2.3375">
        <ele>6.5999999046326</ele>
        <time>2019-07-07T10:35:45.000Z</time>
      </trkpt>
      <trkpt lat="47.25453" lon="-2.33736">
        <ele>6.5999999046326</ele>
        <time>2019-07-07T10:35:49.000Z</time>
      </trkpt>
      <trkpt lat="47.2545" lon="-2.33721">
        <ele>6.1999998092651</ele>
        <time>2019-07-07T10:35:51.000Z</time>
      </trkpt>
      <trkpt lat="47.2545" lon="-2.33713">
        <ele>5.8000001907349</ele>
        <time>2019-07-07T10:35:52.000Z</time>
      </trkpt>
      <trkpt lat="47.2545" lon="-2.33706">
        <ele>5.4000000953674</ele>
        <time>2019-07-07T10:35:53.000Z</time>
      </trkpt>
      <trkpt lat="47.25449" lon="-2.337">
        <ele>5</ele>
        <time>2019-07-07T10:35:54.000Z</time>
      </trkpt>
      <trkpt lat="47.25448" lon="-2.33693">
        <ele>4.5999999046326</ele>
        <time>2019-07-07T10:35:55.000Z</time>
      </trkpt>
      <trkpt lat="47.25448" lon="-2.33683">
        <ele>4.5999999046326</ele>
        <time>2019-07-07T10:35:57.000Z</time>
      </trkpt>
      <trkpt lat="47.25444" lon="-2.33658">
        <ele>4.5999999046326</ele>
        <time>2019-07-07T10:36:02.000Z</time>
      </trkpt>
      <trkpt lat="47.2544" lon="-2.3364">
        <ele>4.5999999046326</ele>
        <time>2019-07-07T10:36:08.000Z</time>
      </trkpt>
      <trkpt lat="47.25439" lon="-2.33614">
        <ele>4.5999999046326</ele>
        <time>2019-07-07T10:36:14.000Z</time>
      </trkpt>
      <trkpt lat="47.2544" lon="-2.33589">
        <ele>4.5999999046326</ele>
        <time>2019-07-07T10:36:19.000Z</time>
      </trkpt>
      <trkpt lat="47.25443" lon="-2.33586">
        <ele>4.5999999046326</ele>
        <time>2019-07-07T10:36:20.000Z</time>
      </trkpt>
      <trkpt lat="47.25448" lon="-2.33586">
        <ele>4.5999999046326</ele>
        <time>2019-07-07T10:36:22.000Z</time>
      </trkpt>
      <trkpt lat="47.25455" lon="-2.33574">
        <ele>4.5999999046326</ele>
        <time>2019-07-07T10:36:26.000Z</time>
      </trkpt>
      <trkpt lat="47.25453" lon="-2.33561">
        <ele>4.5999999046326</ele>
        <time>2019-07-07T10:36:29.000Z</time>
      </trkpt>
      <trkpt lat="47.25452" lon="-2.33556">
        <ele>4.5999999046326</ele>
        <time>2019-07-07T10:36:30.000Z</time>
      </trkpt>
      <trkpt lat="47.25445" lon="-2.33517">
        <ele>4.5999999046326</ele>
        <time>2019-07-07T10:36:37.000Z</time>
      </trkpt>
      <trkpt lat="47.25436" lon="-2.33484">
        <ele>4.5999999046326</ele>
        <time>2019-07-07T10:36:42.000Z</time>
      </trkpt>
      <trkpt lat="47.25434" lon="-2.33479">
        <ele>4.5999999046326</ele>
        <time>2019-07-07T10:36:43.000Z</time>
      </trkpt>
      <trkpt lat="47.25429" lon="-2.33462">
        <ele>4.5999999046326</ele>
        <time>2019-07-07T10:36:46.000Z</time>
      </trkpt>
      <trkpt lat="47.25428" lon="-2.33448">
        <ele>4.5999999046326</ele>
        <time>2019-07-07T10:36:48.000Z</time>
      </trkpt>
      <trkpt lat="47.25428" lon="-2.33432">
        <ele>4.5999999046326</ele>
        <time>2019-07-07T10:36:50.000Z</time>
      </trkpt>
      <trkpt lat="47.25429" lon="-2.334">
        <ele>4.5999999046326</ele>
        <time>2019-07-07T10:36:54.000Z</time>
      </trkpt>
      <trkpt lat="47.25431" lon="-2.33344">
        <ele>4.5999999046326</ele>
        <time>2019-07-07T10:37:01.000Z</time>
      </trkpt>
      <trkpt lat="47.25441" lon="-2.33316">
        <ele>4.5999999046326</ele>
        <time>2019-07-07T10:37:05.000Z</time>
      </trkpt>
      <trkpt lat="47.25447" lon="-2.33302">
        <ele>4.5999999046326</ele>
        <time>2019-07-07T10:37:07.000Z</time>
      </trkpt>
      <trkpt lat="47.25446" lon="-2.33279">
        <ele>4.5999999046326</ele>
        <time>2019-07-07T10:37:10.000Z</time>
      </trkpt>
      <trkpt lat="47.25432" lon="-2.33243">
        <ele>4.5999999046326</ele>
        <time>2019-07-07T10:37:15.000Z</time>
      </trkpt>
      <trkpt lat="47.25429" lon="-2.33236">
        <ele>4.5999999046326</ele>
        <time>2019-07-07T10:37:16.000Z</time>
      </trkpt>
      <trkpt lat="47.25419" lon="-2.33216">
        <ele>4.5999999046326</ele>
        <time>2019-07-07T10:37:19.000Z</time>
      </trkpt>
      <trkpt lat="47.2541" lon="-2.33194">
        <ele>4.5999999046326</ele>
        <time>2019-07-07T10:37:22.000Z</time>
      </trkpt>
      <trkpt lat="47.25388" lon="-2.33151">
        <ele>4.5999999046326</ele>
        <time>2019-07-07T10:37:29.000Z</time>
      </trkpt>
      <trkpt lat="47.25382" lon="-2.33144">
        <ele>4.5999999046326</ele>
        <time>2019-07-07T10:37:32.000Z</time>
      </trkpt>
      <trkpt lat="47.25376" lon="-2.33125">
        <ele>4.5999999046326</ele>
        <time>2019-07-07T10:37:37.000Z</time>
      </trkpt>
      <trkpt lat="47.25375" lon="-2.33123">
        <ele>4.5999999046326</ele>
        <time>2019-07-07T10:37:40.000Z</time>
      </trkpt>
      <trkpt lat="47.25375" lon="-2.33123">
        <ele>4.5999999046326</ele>
        <time>2019-07-07T10:37:41.000Z</time>
      </trkpt>
      <trkpt lat="47.25373" lon="-2.33116">
        <ele>4.5999999046326</ele>
        <time>2019-07-07T10:42:09.000Z</time>
      </trkpt>
      <trkpt lat="47.25371" lon="-2.33111">
        <ele>4.5999999046326</ele>
        <time>2019-07-07T10:42:11.000Z</time>
      </trkpt>
      <trkpt lat="47.2537" lon="-2.33105">
        <ele>4.5999999046326</ele>
        <time>2019-07-07T10:42:13.000Z</time>
      </trkpt>
      <trkpt lat="47.25367" lon="-2.33092">
        <ele>4.5999999046326</ele>
        <time>2019-07-07T10:42:16.000Z</time>
      </trkpt>
      <trkpt lat="47.25355" lon="-2.33069">
        <ele>4.5999999046326</ele>
        <time>2019-07-07T10:42:22.000Z</time>
      </trkpt>
      <trkpt lat="47.25345" lon="-2.33052">
        <ele>4.5999999046326</ele>
        <time>2019-07-07T10:42:27.000Z</time>
      </trkpt>
      <trkpt lat="47.25339" lon="-2.33031">
        <ele>4.5999999046326</ele>
        <time>2019-07-07T10:42:31.000Z</time>
      </trkpt>
      <trkpt lat="47.25332" lon="-2.33015">
        <ele>4.5999999046326</ele>
        <time>2019-07-07T10:42:34.000Z</time>
      </trkpt>
      <trkpt lat="47.25329" lon="-2.33002">
        <ele>4.5999999046326</ele>
        <time>2019-07-07T10:42:36.000Z</time>
      </trkpt>
      <trkpt lat="47.25324" lon="-2.32989">
        <ele>5</ele>
        <time>2019-07-07T10:42:38.000Z</time>
      </trkpt>
      <trkpt lat="47.25322" lon="-2.32982">
        <ele>5.4000000953674</ele>
        <time>2019-07-07T10:42:39.000Z</time>
      </trkpt>
      <trkpt lat="47.25319" lon="-2.32975">
        <ele>5.8000001907349</ele>
        <time>2019-07-07T10:42:40.000Z</time>
      </trkpt>
      <trkpt lat="47.25317" lon="-2.32969">
        <ele>6.1999998092651</ele>
        <time>2019-07-07T10:42:41.000Z</time>
      </trkpt>
      <trkpt lat="47.25314" lon="-2.32963">
        <ele>6.5999999046326</ele>
        <time>2019-07-07T10:42:42.000Z</time>
      </trkpt>
      <trkpt lat="47.25311" lon="-2.32956">
        <ele>6.5999999046326</ele>
        <time>2019-07-07T10:42:43.000Z</time>
      </trkpt>
      <trkpt lat="47.25307" lon="-2.32942">
        <ele>6.5999999046326</ele>
        <time>2019-07-07T10:42:45.000Z</time>
      </trkpt>
      <trkpt lat="47.25308" lon="-2.32928">
        <ele>6.5999999046326</ele>
        <time>2019-07-07T10:42:47.000Z</time>
      </trkpt>
      <trkpt lat="47.2532" lon="-2.32912">
        <ele>6.5999999046326</ele>
        <time>2019-07-07T10:42:50.000Z</time>
      </trkpt>
      <trkpt lat="47.25324" lon="-2.32907">
        <ele>6.5999999046326</ele>
        <time>2019-07-07T10:42:51.000Z</time>
      </trkpt>
      <trkpt lat="47.25352" lon="-2.32881">
        <ele>6.5999999046326</ele>
        <time>2019-07-07T10:42:57.000Z</time>
      </trkpt>
      <trkpt lat="47.2539" lon="-2.32842">
        <ele>6.5999999046326</ele>
        <time>2019-07-07T10:43:05.000Z</time>
      </trkpt>
      <trkpt lat="47.25419" lon="-2.32801">
        <ele>6.5999999046326</ele>
        <time>2019-07-07T10:43:12.000Z</time>
      </trkpt>
      <trkpt lat="47.25428" lon="-2.32783">
        <ele>6.5999999046326</ele>
        <time>2019-07-07T10:43:15.000Z</time>
      </trkpt>
      <trkpt lat="47.25436" lon="-2.32765">
        <ele>6.5999999046326</ele>
        <time>2019-07-07T10:43:18.000Z</time>
      </trkpt>
      <trkpt lat="47.2544" lon="-2.3276">
        <ele>6.5999999046326</ele>
        <time>2019-07-07T10:43:19.000Z</time>
      </trkpt>
      <trkpt lat="47.25452" lon="-2.32743">
        <ele>7</ele>
        <time>2019-07-07T10:43:22.000Z</time>
      </trkpt>
      <trkpt lat="47.25457" lon="-2.32738">
        <ele>7.4000000953674</ele>
        <time>2019-07-07T10:43:23.000Z</time>
      </trkpt>
      <trkpt lat="47.25461" lon="-2.32734">
        <ele>7.8000001907349</ele>
        <time>2019-07-07T10:43:24.000Z</time>
      </trkpt>
      <trkpt lat="47.25465" lon="-2.32728">
        <ele>8.1999998092651</ele>
        <time>2019-07-07T10:43:25.000Z</time>
      </trkpt>
      <trkpt lat="47.25469" lon="-2.32722">
        <ele>8.6000003814697</ele>
        <time>2019-07-07T10:43:26.000Z</time>
      </trkpt>
      <trkpt lat="47.25476" lon="-2.32711">
        <ele>8.6000003814697</ele>
        <time>2019-07-07T10:43:28.000Z</time>
      </trkpt>
      <trkpt lat="47.25487" lon="-2.32692">
        <ele>8.6000003814697</ele>
        <time>2019-07-07T10:43:31.000Z</time>
      </trkpt>
      <trkpt lat="47.2549" lon="-2.32676">
        <ele>8.6000003814697</ele>
        <time>2019-07-07T10:43:33.000Z</time>
      </trkpt>
      <trkpt lat="47.25487" lon="-2.32643">
        <ele>8.6000003814697</ele>
        <time>2019-07-07T10:43:37.000Z</time>
      </trkpt>
      <trkpt lat="47.25484" lon="-2.32626">
        <ele>8.6000003814697</ele>
        <time>2019-07-07T10:43:39.000Z</time>
      </trkpt>
      <trkpt lat="47.2548" lon="-2.32594">
        <ele>8.6000003814697</ele>
        <time>2019-07-07T10:43:43.000Z</time>
      </trkpt>
      <trkpt lat="47.25478" lon="-2.32586">
        <ele>8.6000003814697</ele>
        <time>2019-07-07T10:43:44.000Z</time>
      </trkpt>
      <trkpt lat="47.25482" lon="-2.32565">
        <ele>8.6000003814697</ele>
        <time>2019-07-07T10:43:47.000Z</time>
      </trkpt>
      <trkpt lat="47.255" lon="-2.32545">
        <ele>8.6000003814697</ele>
        <time>2019-07-07T10:43:51.000Z</time>
      </trkpt>
      <trkpt lat="47.2555" lon="-2.32498">
        <ele>8.6000003814697</ele>
        <time>2019-07-07T10:44:00.000Z</time>
      </trkpt>
      <trkpt lat="47.25596" lon="-2.32453">
        <ele>8.1999998092651</ele>
        <time>2019-07-07T10:44:07.000Z</time>
      </trkpt>
      <trkpt lat="47.25603" lon="-2.32446">
        <ele>7.8000001907349</ele>
        <time>2019-07-07T10:44:08.000Z</time>
      </trkpt>
      <trkpt lat="47.25609" lon="-2.32438">
        <ele>7.4000000953674</ele>
        <time>2019-07-07T10:44:09.000Z</time>
      </trkpt>
      <trkpt lat="47.25616" lon="-2.3243">
        <ele>6.8000001907349</ele>
        <time>2019-07-07T10:44:10.000Z</time>
      </trkpt>
      <trkpt lat="47.25622" lon="-2.32423">
        <ele>6.4000000953674</ele>
        <time>2019-07-07T10:44:11.000Z</time>
      </trkpt>
      <trkpt lat="47.25635" lon="-2.32409">
        <ele>6</ele>
        <time>2019-07-07T10:44:13.000Z</time>
      </trkpt>
      <trkpt lat="47.25642" lon="-2.32404">
        <ele>5.4000000953674</ele>
        <time>2019-07-07T10:44:14.000Z</time>
      </trkpt>
      <trkpt lat="47.25649" lon="-2.32401">
        <ele>4.8000001907349</ele>
        <time>2019-07-07T10:44:15.000Z</time>
      </trkpt>
      <trkpt lat="47.25656" lon="-2.32401">
        <ele>4.4000000953674</ele>
        <time>2019-07-07T10:44:16.000Z</time>
      </trkpt>
      <trkpt lat="47.25662" lon="-2.32401">
        <ele>3.7999999523163</ele>
        <time>2019-07-07T10:44:17.000Z</time>
      </trkpt>
      <trkpt lat="47.25674" lon="-2.32411">
        <ele>3.7999999523163</ele>
        <time>2019-07-07T10:44:19.000Z</time>
      </trkpt>
      <trkpt lat="47.25701" lon="-2.32421">
        <ele>3.7999999523163</ele>
        <time>2019-07-07T10:44:23.000Z</time>
      </trkpt>
      <trkpt lat="47.25737" lon="-2.32424">
        <ele>3.7999999523163</ele>
        <time>2019-07-07T10:44:28.000Z</time>
      </trkpt>
      <trkpt lat="47.25749" lon="-2.32423">
        <ele>3.7999999523163</ele>
        <time>2019-07-07T10:44:30.000Z</time>
      </trkpt>
      <trkpt lat="47.25766" lon="-2.32418">
        <ele>3.7999999523163</ele>
        <time>2019-07-07T10:44:33.000Z</time>
      </trkpt>
      <trkpt lat="47.25777" lon="-2.32415">
        <ele>3.7999999523163</ele>
        <time>2019-07-07T10:44:35.000Z</time>
      </trkpt>
      <trkpt lat="47.25786" lon="-2.32422">
        <ele>3.7999999523163</ele>
        <time>2019-07-07T10:44:37.000Z</time>
      </trkpt>
      <trkpt lat="47.25795" lon="-2.32437">
        <ele>3.7999999523163</ele>
        <time>2019-07-07T10:44:39.000Z</time>
      </trkpt>
      <trkpt lat="47.258" lon="-2.32444">
        <ele>3.7999999523163</ele>
        <time>2019-07-07T10:44:40.000Z</time>
      </trkpt>
      <trkpt lat="47.25806" lon="-2.3245">
        <ele>3.7999999523163</ele>
        <time>2019-07-07T10:44:41.000Z</time>
      </trkpt>
      <trkpt lat="47.25818" lon="-2.32459">
        <ele>3.7999999523163</ele>
        <time>2019-07-07T10:44:43.000Z</time>
      </trkpt>
      <trkpt lat="47.25852" lon="-2.32472">
        <ele>3.7999999523163</ele>
        <time>2019-07-07T10:44:48.000Z</time>
      </trkpt>
      <trkpt lat="47.25876" lon="-2.32471">
        <ele>3.7999999523163</ele>
        <time>2019-07-07T10:44:52.000Z</time>
      </trkpt>
      <trkpt lat="47.25893" lon="-2.32466">
        <ele>3.7999999523163</ele>
        <time>2019-07-07T10:44:55.000Z</time>
      </trkpt>
      <trkpt lat="47.25899" lon="-2.3246">
        <ele>3.7999999523163</ele>
        <time>2019-07-07T10:44:56.000Z</time>
      </trkpt>
      <trkpt lat="47.2592" lon="-2.32435">
        <ele>3.7999999523163</ele>
        <time>2019-07-07T10:45:00.000Z</time>
      </trkpt>
      <trkpt lat="47.25926" lon="-2.32429">
        <ele>3.7999999523163</ele>
        <time>2019-07-07T10:45:01.000Z</time>
      </trkpt>
      <trkpt lat="47.25959" lon="-2.32384">
        <ele>3.4000000953674</ele>
        <time>2019-07-07T10:45:08.000Z</time>
      </trkpt>
      <trkpt lat="47.25963" lon="-2.32378">
        <ele>3</ele>
        <time>2019-07-07T10:45:09.000Z</time>
      </trkpt>
      <trkpt lat="47.25968" lon="-2.32374">
        <ele>2.5999999046326</ele>
        <time>2019-07-07T10:45:10.000Z</time>
      </trkpt>
      <trkpt lat="47.25972" lon="-2.32369">
        <ele>2.2000000476837</ele>
        <time>2019-07-07T10:45:11.000Z</time>
      </trkpt>
      <trkpt lat="47.25976" lon="-2.32363">
        <ele>1.7999999523163</ele>
        <time>2019-07-07T10:45:12.000Z</time>
      </trkpt>
      <trkpt lat="47.25984" lon="-2.32352">
        <ele>1.7999999523163</ele>
        <time>2019-07-07T10:45:14.000Z</time>
      </trkpt>
      <trkpt lat="47.25997" lon="-2.32334">
        <ele>1.7999999523163</ele>
        <time>2019-07-07T10:45:17.000Z</time>
      </trkpt>
      <trkpt lat="47.2601" lon="-2.32314">
        <ele>1.7999999523163</ele>
        <time>2019-07-07T10:45:20.000Z</time>
      </trkpt>
      <trkpt lat="47.26016" lon="-2.32308">
        <ele>1.7999999523163</ele>
        <time>2019-07-07T10:45:21.000Z</time>
      </trkpt>
      <trkpt lat="47.26048" lon="-2.32271">
        <ele>1.7999999523163</ele>
        <time>2019-07-07T10:45:27.000Z</time>
      </trkpt>
      <trkpt lat="47.26079" lon="-2.32236">
        <ele>1.7999999523163</ele>
        <time>2019-07-07T10:45:33.000Z</time>
      </trkpt>
      <trkpt lat="47.26105" lon="-2.3219">
        <ele>1.7999999523163</ele>
        <time>2019-07-07T10:45:39.000Z</time>
      </trkpt>
      <trkpt lat="47.26125" lon="-2.32141">
        <ele>1.7999999523163</ele>
        <time>2019-07-07T10:45:45.000Z</time>
      </trkpt>
      <trkpt lat="47.2613" lon="-2.32123">
        <ele>1.7999999523163</ele>
        <time>2019-07-07T10:45:47.000Z</time>
      </trkpt>
      <trkpt lat="47.26141" lon="-2.32087">
        <ele>1.7999999523163</ele>
        <time>2019-07-07T10:45:51.000Z</time>
      </trkpt>
      <trkpt lat="47.26157" lon="-2.32036">
        <ele>1.7999999523163</ele>
        <time>2019-07-07T10:45:57.000Z</time>
      </trkpt>
      <trkpt lat="47.2616" lon="-2.32029">
        <ele>1.7999999523163</ele>
        <time>2019-07-07T10:45:58.000Z</time>
      </trkpt>
      <trkpt lat="47.2617" lon="-2.32021">
        <ele>1.7999999523163</ele>
        <time>2019-07-07T10:46:00.000Z</time>
      </trkpt>
      <trkpt lat="47.26188" lon="-2.32022">
        <ele>1.7999999523163</ele>
        <time>2019-07-07T10:46:04.000Z</time>
      </trkpt>
      <trkpt lat="47.26193" lon="-2.32022">
        <ele>1.7999999523163</ele>
        <time>2019-07-07T10:46:06.000Z</time>
      </trkpt>
      <trkpt lat="47.26197" lon="-2.32021">
        <ele>1.7999999523163</ele>
        <time>2019-07-07T10:46:08.000Z</time>
      </trkpt>
      <trkpt lat="47.26198" lon="-2.32019">
        <ele>1.7999999523163</ele>
        <time>2019-07-07T10:46:09.000Z</time>
      </trkpt>
      <trkpt lat="47.26198" lon="-2.32011">
        <ele>1.7999999523163</ele>
        <time>2019-07-07T10:46:11.000Z</time>
      </trkpt>
      <trkpt lat="47.26205" lon="-2.32003">
        <ele>1.7999999523163</ele>
        <time>2019-07-07T10:46:14.000Z</time>
      </trkpt>
      <trkpt lat="47.2621" lon="-2.31995">
        <ele>1.7999999523163</ele>
        <time>2019-07-07T10:46:16.000Z</time>
      </trkpt>
      <trkpt lat="47.26219" lon="-2.31984">
        <ele>1.7999999523163</ele>
        <time>2019-07-07T10:46:19.000Z</time>
      </trkpt>
      <trkpt lat="47.26234" lon="-2.31974">
        <ele>1.7999999523163</ele>
        <time>2019-07-07T10:46:23.000Z</time>
      </trkpt>
      <trkpt lat="47.26247" lon="-2.31954">
        <ele>1.7999999523163</ele>
        <time>2019-07-07T10:46:27.000Z</time>
      </trkpt>
      <trkpt lat="47.26266" lon="-2.31918">
        <ele>1.7999999523163</ele>
        <time>2019-07-07T10:46:34.000Z</time>
      </trkpt>
      <trkpt lat="47.26275" lon="-2.31909">
        <ele>1.7999999523163</ele>
        <time>2019-07-07T10:46:36.000Z</time>
      </trkpt>
      <trkpt lat="47.26283" lon="-2.31902">
        <ele>1.7999999523163</ele>
        <time>2019-07-07T10:46:38.000Z</time>
      </trkpt>
      <trkpt lat="47.26297" lon="-2.31886">
        <ele>1.7999999523163</ele>
        <time>2019-07-07T10:46:42.000Z</time>
      </trkpt>
      <trkpt lat="47.26298" lon="-2.31882">
        <ele>1.7999999523163</ele>
        <time>2019-07-07T10:46:43.000Z</time>
      </trkpt>
      <trkpt lat="47.26298" lon="-2.31866">
        <ele>1.7999999523163</ele>
        <time>2019-07-07T10:46:46.000Z</time>
      </trkpt>
      <trkpt lat="47.26298" lon="-2.31853">
        <ele>1.7999999523163</ele>
        <time>2019-07-07T10:46:48.000Z</time>
      </trkpt>
      <trkpt lat="47.26298" lon="-2.31832">
        <ele>1.7999999523163</ele>
        <time>2019-07-07T10:46:51.000Z</time>
      </trkpt>
      <trkpt lat="47.26299" lon="-2.31817">
        <ele>1.7999999523163</ele>
        <time>2019-07-07T10:46:53.000Z</time>
      </trkpt>
      <trkpt lat="47.263" lon="-2.31774">
        <ele>1.7999999523163</ele>
        <time>2019-07-07T10:46:59.000Z</time>
      </trkpt>
      <trkpt lat="47.263" lon="-2.31767">
        <ele>1.7999999523163</ele>
        <time>2019-07-07T10:47:00.000Z</time>
      </trkpt>
      <trkpt lat="47.26302" lon="-2.31732">
        <ele>1.7999999523163</ele>
        <time>2019-07-07T10:47:04.000Z</time>
      </trkpt>
      <trkpt lat="47.26304" lon="-2.31725">
        <ele>1.7999999523163</ele>
        <time>2019-07-07T10:47:05.000Z</time>
      </trkpt>
      <trkpt lat="47.26314" lon="-2.31718">
        <ele>1.7999999523163</ele>
        <time>2019-07-07T10:47:07.000Z</time>
      </trkpt>
      <trkpt lat="47.2633" lon="-2.31709">
        <ele>1.7999999523163</ele>
        <time>2019-07-07T10:47:11.000Z</time>
      </trkpt>
      <trkpt lat="47.26332" lon="-2.31703">
        <ele>1.7999999523163</ele>
        <time>2019-07-07T10:47:12.000Z</time>
      </trkpt>
      <trkpt lat="47.26339" lon="-2.31688">
        <ele>2.2000000476837</ele>
        <time>2019-07-07T10:47:15.000Z</time>
      </trkpt>
      <trkpt lat="47.26343" lon="-2.31687">
        <ele>3</ele>
        <time>2019-07-07T10:47:16.000Z</time>
      </trkpt>
      <trkpt lat="47.26347" lon="-2.31685">
        <ele>3.4000000953674</ele>
        <time>2019-07-07T10:47:17.000Z</time>
      </trkpt>
      <trkpt lat="47.26351" lon="-2.31682">
        <ele>3.7999999523163</ele>
        <time>2019-07-07T10:47:18.000Z</time>
      </trkpt>
      <trkpt lat="47.26359" lon="-2.31679">
        <ele>3.7999999523163</ele>
        <time>2019-07-07T10:47:20.000Z</time>
      </trkpt>
      <trkpt lat="47.26374" lon="-2.31671">
        <ele>4.1999998092651</ele>
        <time>2019-07-07T10:47:24.000Z</time>
      </trkpt>
      <trkpt lat="47.26378" lon="-2.31669">
        <ele>4.8000001907349</ele>
        <time>2019-07-07T10:47:25.000Z</time>
      </trkpt>
      <trkpt lat="47.26381" lon="-2.31667">
        <ele>5.1999998092651</ele>
        <time>2019-07-07T10:47:26.000Z</time>
      </trkpt>
      <trkpt lat="47.26385" lon="-2.31665">
        <ele>5.5999999046326</ele>
        <time>2019-07-07T10:47:27.000Z</time>
      </trkpt>
      <trkpt lat="47.26388" lon="-2.31663">
        <ele>6</ele>
        <time>2019-07-07T10:47:28.000Z</time>
      </trkpt>
      <trkpt lat="47.26399" lon="-2.31658">
        <ele>6</ele>
        <time>2019-07-07T10:47:32.000Z</time>
      </trkpt>
      <trkpt lat="47.26409" lon="-2.31647">
        <ele>6</ele>
        <time>2019-07-07T10:47:37.000Z</time>
      </trkpt>
      <trkpt lat="47.26411" lon="-2.31627">
        <ele>6</ele>
        <time>2019-07-07T10:47:42.000Z</time>
      </trkpt>
      <trkpt lat="47.26411" lon="-2.31585">
        <ele>6</ele>
        <time>2019-07-07T10:47:50.000Z</time>
      </trkpt>
      <trkpt lat="47.26413" lon="-2.31554">
        <ele>6</ele>
        <time>2019-07-07T10:47:57.000Z</time>
      </trkpt>
      <trkpt lat="47.26419" lon="-2.31554">
        <ele>6</ele>
        <time>2019-07-07T10:48:00.000Z</time>
      </trkpt>
      <trkpt lat="47.2642" lon="-2.31554">
        <ele>6</ele>
        <time>2019-07-07T10:48:01.000Z</time>
      </trkpt>
      <trkpt lat="47.26421" lon="-2.31554">
        <ele>6</ele>
        <time>2019-07-07T10:48:03.000Z</time>
      </trkpt>
    </trkseg>
  </trk>
</gpx>